<?xml version="1.0" encoding="UTF-8" standalone="no" ?>
<gpx xmlns="http://www.topografix.com/GPX/1/1" xmlns:xsi="http://www.w3.org/2001/XMLSchema-instance" xsi:schemaLocation="http://www.topografix.com/GPX/1/1 http://www.topografix.com/GPX/1/1/gpx.xsd" version="1.1" creator="VisuGPX - https://www.visugpx.com">
  <metadata>
    <name>la barbinière - BARBIN ST LAURENT Sur SEVRE</name>
    <desc><![CDATA[Sortie Hebdo Centre loisirs CHOLET]]></desc>
  </metadata>
  <trk>
    <name><![CDATA[foyer laique]]></name>
    <trkseg>
      <trkpt lat="46.95986" lon="-0.90033">
        <ele>135</ele>
        <time>2015-03-12T14:07:55Z</time>
      </trkpt>
      <trkpt lat="46.96012" lon="-0.90044">
        <ele>133</ele>
        <time>2015-03-12T14:08:25Z</time>
      </trkpt>
      <trkpt lat="46.96015" lon="-0.90046">
        <ele>133</ele>
        <time>2015-03-12T14:08:28Z</time>
      </trkpt>
      <trkpt lat="46.96018" lon="-0.90045">
        <ele>133</ele>
        <time>2015-03-12T14:08:30Z</time>
      </trkpt>
      <trkpt lat="46.96021" lon="-0.90046">
        <ele>133</ele>
        <time>2015-03-12T14:08:32Z</time>
      </trkpt>
      <trkpt lat="46.96024" lon="-0.90046">
        <ele>133</ele>
        <time>2015-03-12T14:08:34Z</time>
      </trkpt>
      <trkpt lat="46.96025" lon="-0.90046">
        <ele>133</ele>
        <time>2015-03-12T14:08:36Z</time>
      </trkpt>
      <trkpt lat="46.96028" lon="-0.90047">
        <ele>133</ele>
        <time>2015-03-12T14:08:38Z</time>
      </trkpt>
      <trkpt lat="46.9603" lon="-0.90046">
        <ele>133</ele>
        <time>2015-03-12T14:08:40Z</time>
      </trkpt>
      <trkpt lat="46.96033" lon="-0.90045">
        <ele>133</ele>
        <time>2015-03-12T14:08:43Z</time>
      </trkpt>
      <trkpt lat="46.96035" lon="-0.90046">
        <ele>133</ele>
        <time>2015-03-12T14:08:45Z</time>
      </trkpt>
      <trkpt lat="46.96039" lon="-0.90048">
        <ele>133</ele>
        <time>2015-03-12T14:08:48Z</time>
      </trkpt>
      <trkpt lat="46.9604" lon="-0.90048">
        <ele>133</ele>
        <time>2015-03-12T14:08:50Z</time>
      </trkpt>
      <trkpt lat="46.96042" lon="-0.90048">
        <ele>133</ele>
        <time>2015-03-12T14:08:52Z</time>
      </trkpt>
      <trkpt lat="46.96043" lon="-0.90049">
        <ele>133</ele>
        <time>2015-03-12T14:08:54Z</time>
      </trkpt>
      <trkpt lat="46.96046" lon="-0.90048">
        <ele>133</ele>
        <time>2015-03-12T14:08:57Z</time>
      </trkpt>
      <trkpt lat="46.96048" lon="-0.90049">
        <ele>133</ele>
        <time>2015-03-12T14:08:59Z</time>
      </trkpt>
      <trkpt lat="46.9605" lon="-0.9005">
        <ele>133</ele>
        <time>2015-03-12T14:09:01Z</time>
      </trkpt>
      <trkpt lat="46.96052" lon="-0.90051">
        <ele>133</ele>
        <time>2015-03-12T14:09:03Z</time>
      </trkpt>
      <trkpt lat="46.96054" lon="-0.9005">
        <ele>133</ele>
        <time>2015-03-12T14:09:05Z</time>
      </trkpt>
      <trkpt lat="46.96056" lon="-0.9005">
        <ele>133</ele>
        <time>2015-03-12T14:09:07Z</time>
      </trkpt>
      <trkpt lat="46.96058" lon="-0.90051">
        <ele>133</ele>
        <time>2015-03-12T14:09:09Z</time>
      </trkpt>
      <trkpt lat="46.96061" lon="-0.9005">
        <ele>133</ele>
        <time>2015-03-12T14:09:11Z</time>
      </trkpt>
      <trkpt lat="46.96065" lon="-0.90049">
        <ele>133</ele>
        <time>2015-03-12T14:09:14Z</time>
      </trkpt>
      <trkpt lat="46.96068" lon="-0.90049">
        <ele>133</ele>
        <time>2015-03-12T14:09:17Z</time>
      </trkpt>
      <trkpt lat="46.96071" lon="-0.90049">
        <ele>133</ele>
        <time>2015-03-12T14:09:19Z</time>
      </trkpt>
      <trkpt lat="46.96072" lon="-0.90048">
        <ele>133</ele>
        <time>2015-03-12T14:09:21Z</time>
      </trkpt>
      <trkpt lat="46.96074" lon="-0.90049">
        <ele>133</ele>
        <time>2015-03-12T14:09:23Z</time>
      </trkpt>
      <trkpt lat="46.96077" lon="-0.90047">
        <ele>133</ele>
        <time>2015-03-12T14:09:27Z</time>
      </trkpt>
      <trkpt lat="46.9608" lon="-0.90045">
        <ele>133</ele>
        <time>2015-03-12T14:09:30Z</time>
      </trkpt>
      <trkpt lat="46.96083" lon="-0.90046">
        <ele>133</ele>
        <time>2015-03-12T14:09:32Z</time>
      </trkpt>
      <trkpt lat="46.96085" lon="-0.90045">
        <ele>133</ele>
        <time>2015-03-12T14:09:34Z</time>
      </trkpt>
      <trkpt lat="46.96088" lon="-0.90045">
        <ele>133</ele>
        <time>2015-03-12T14:09:36Z</time>
      </trkpt>
      <trkpt lat="46.9609" lon="-0.90045">
        <ele>133</ele>
        <time>2015-03-12T14:09:38Z</time>
      </trkpt>
      <trkpt lat="46.96092" lon="-0.90046">
        <ele>133</ele>
        <time>2015-03-12T14:09:40Z</time>
      </trkpt>
      <trkpt lat="46.96093" lon="-0.90045">
        <ele>133</ele>
        <time>2015-03-12T14:09:43Z</time>
      </trkpt>
      <trkpt lat="46.96095" lon="-0.90045">
        <ele>133</ele>
        <time>2015-03-12T14:09:45Z</time>
      </trkpt>
      <trkpt lat="46.96098" lon="-0.90046">
        <ele>133</ele>
        <time>2015-03-12T14:09:47Z</time>
      </trkpt>
      <trkpt lat="46.96101" lon="-0.90047">
        <ele>133</ele>
        <time>2015-03-12T14:09:49Z</time>
      </trkpt>
      <trkpt lat="46.96104" lon="-0.90048">
        <ele>133</ele>
        <time>2015-03-12T14:09:51Z</time>
      </trkpt>
      <trkpt lat="46.96105" lon="-0.90048">
        <ele>133</ele>
        <time>2015-03-12T14:09:54Z</time>
      </trkpt>
      <trkpt lat="46.96106" lon="-0.90048">
        <ele>133</ele>
        <time>2015-03-12T14:09:56Z</time>
      </trkpt>
      <trkpt lat="46.96108" lon="-0.90048">
        <ele>133</ele>
        <time>2015-03-12T14:09:58Z</time>
      </trkpt>
      <trkpt lat="46.96111" lon="-0.90049">
        <ele>133</ele>
        <time>2015-03-12T14:10:01Z</time>
      </trkpt>
      <trkpt lat="46.96114" lon="-0.90049">
        <ele>133</ele>
        <time>2015-03-12T14:10:04Z</time>
      </trkpt>
      <trkpt lat="46.96116" lon="-0.9005">
        <ele>132</ele>
        <time>2015-03-12T14:10:06Z</time>
      </trkpt>
      <trkpt lat="46.96118" lon="-0.90051">
        <ele>132</ele>
        <time>2015-03-12T14:10:08Z</time>
      </trkpt>
      <trkpt lat="46.96121" lon="-0.90053">
        <ele>132</ele>
        <time>2015-03-12T14:10:11Z</time>
      </trkpt>
      <trkpt lat="46.96123" lon="-0.90053">
        <ele>131</ele>
        <time>2015-03-12T14:10:13Z</time>
      </trkpt>
      <trkpt lat="46.96124" lon="-0.90056">
        <ele>131</ele>
        <time>2015-03-12T14:10:15Z</time>
      </trkpt>
      <trkpt lat="46.96127" lon="-0.90056">
        <ele>131</ele>
        <time>2015-03-12T14:10:18Z</time>
      </trkpt>
      <trkpt lat="46.96129" lon="-0.90057">
        <ele>131</ele>
        <time>2015-03-12T14:10:20Z</time>
      </trkpt>
      <trkpt lat="46.96132" lon="-0.90059">
        <ele>131</ele>
        <time>2015-03-12T14:10:23Z</time>
      </trkpt>
      <trkpt lat="46.96134" lon="-0.90061">
        <ele>130</ele>
        <time>2015-03-12T14:10:25Z</time>
      </trkpt>
      <trkpt lat="46.96136" lon="-0.90062">
        <ele>130</ele>
        <time>2015-03-12T14:10:27Z</time>
      </trkpt>
      <trkpt lat="46.96139" lon="-0.90064">
        <ele>130</ele>
        <time>2015-03-12T14:10:29Z</time>
      </trkpt>
      <trkpt lat="46.96141" lon="-0.90065">
        <ele>130</ele>
        <time>2015-03-12T14:10:32Z</time>
      </trkpt>
      <trkpt lat="46.96145" lon="-0.90066">
        <ele>130</ele>
        <time>2015-03-12T14:10:35Z</time>
      </trkpt>
      <trkpt lat="46.96148" lon="-0.90066">
        <ele>130</ele>
        <time>2015-03-12T14:10:37Z</time>
      </trkpt>
      <trkpt lat="46.96151" lon="-0.90069">
        <ele>130</ele>
        <time>2015-03-12T14:10:40Z</time>
      </trkpt>
      <trkpt lat="46.96154" lon="-0.90071">
        <ele>130</ele>
        <time>2015-03-12T14:10:43Z</time>
      </trkpt>
      <trkpt lat="46.96157" lon="-0.90073">
        <ele>130</ele>
        <time>2015-03-12T14:10:46Z</time>
      </trkpt>
      <trkpt lat="46.96159" lon="-0.90075">
        <ele>130</ele>
        <time>2015-03-12T14:10:48Z</time>
      </trkpt>
      <trkpt lat="46.96161" lon="-0.90077">
        <ele>130</ele>
        <time>2015-03-12T14:10:50Z</time>
      </trkpt>
      <trkpt lat="46.96163" lon="-0.90079">
        <ele>130</ele>
        <time>2015-03-12T14:10:52Z</time>
      </trkpt>
      <trkpt lat="46.96165" lon="-0.9008">
        <ele>130</ele>
        <time>2015-03-12T14:10:54Z</time>
      </trkpt>
      <trkpt lat="46.96167" lon="-0.90082">
        <ele>130</ele>
        <time>2015-03-12T14:10:56Z</time>
      </trkpt>
      <trkpt lat="46.96169" lon="-0.90082">
        <ele>130</ele>
        <time>2015-03-12T14:10:58Z</time>
      </trkpt>
      <trkpt lat="46.96173" lon="-0.90083">
        <ele>130</ele>
        <time>2015-03-12T14:11:00Z</time>
      </trkpt>
      <trkpt lat="46.96174" lon="-0.90085">
        <ele>130</ele>
        <time>2015-03-12T14:11:02Z</time>
      </trkpt>
      <trkpt lat="46.96177" lon="-0.90087">
        <ele>129</ele>
        <time>2015-03-12T14:11:04Z</time>
      </trkpt>
      <trkpt lat="46.96182" lon="-0.90087">
        <ele>128</ele>
        <time>2015-03-12T14:11:06Z</time>
      </trkpt>
      <trkpt lat="46.96185" lon="-0.9009">
        <ele>128</ele>
        <time>2015-03-12T14:11:09Z</time>
      </trkpt>
      <trkpt lat="46.96187" lon="-0.90091">
        <ele>128</ele>
        <time>2015-03-12T14:11:11Z</time>
      </trkpt>
      <trkpt lat="46.96189" lon="-0.90092">
        <ele>128</ele>
        <time>2015-03-12T14:11:13Z</time>
      </trkpt>
      <trkpt lat="46.96192" lon="-0.90094">
        <ele>128</ele>
        <time>2015-03-12T14:11:15Z</time>
      </trkpt>
      <trkpt lat="46.96193" lon="-0.90096">
        <ele>128</ele>
        <time>2015-03-12T14:11:17Z</time>
      </trkpt>
      <trkpt lat="46.96195" lon="-0.901">
        <ele>128</ele>
        <time>2015-03-12T14:11:20Z</time>
      </trkpt>
      <trkpt lat="46.96196" lon="-0.90102">
        <ele>128</ele>
        <time>2015-03-12T14:11:22Z</time>
      </trkpt>
      <trkpt lat="46.96198" lon="-0.90104">
        <ele>128</ele>
        <time>2015-03-12T14:11:24Z</time>
      </trkpt>
      <trkpt lat="46.962" lon="-0.90103">
        <ele>128</ele>
        <time>2015-03-12T14:11:26Z</time>
      </trkpt>
      <trkpt lat="46.96201" lon="-0.90102">
        <ele>128</ele>
        <time>2015-03-12T14:11:28Z</time>
      </trkpt>
      <trkpt lat="46.96203" lon="-0.90103">
        <ele>128</ele>
        <time>2015-03-12T14:11:30Z</time>
      </trkpt>
      <trkpt lat="46.96205" lon="-0.90104">
        <ele>128</ele>
        <time>2015-03-12T14:11:32Z</time>
      </trkpt>
      <trkpt lat="46.96207" lon="-0.90106">
        <ele>128</ele>
        <time>2015-03-12T14:11:34Z</time>
      </trkpt>
      <trkpt lat="46.9621" lon="-0.90108">
        <ele>126</ele>
        <time>2015-03-12T14:11:37Z</time>
      </trkpt>
      <trkpt lat="46.96213" lon="-0.90109">
        <ele>126</ele>
        <time>2015-03-12T14:11:39Z</time>
      </trkpt>
      <trkpt lat="46.96215" lon="-0.90109">
        <ele>126</ele>
        <time>2015-03-12T14:11:41Z</time>
      </trkpt>
      <trkpt lat="46.96216" lon="-0.9011">
        <ele>126</ele>
        <time>2015-03-12T14:11:43Z</time>
      </trkpt>
      <trkpt lat="46.96219" lon="-0.9011">
        <ele>126</ele>
        <time>2015-03-12T14:11:45Z</time>
      </trkpt>
      <trkpt lat="46.96222" lon="-0.9011">
        <ele>126</ele>
        <time>2015-03-12T14:11:47Z</time>
      </trkpt>
      <trkpt lat="46.96225" lon="-0.90113">
        <ele>126</ele>
        <time>2015-03-12T14:11:50Z</time>
      </trkpt>
      <trkpt lat="46.96227" lon="-0.90115">
        <ele>126</ele>
        <time>2015-03-12T14:11:52Z</time>
      </trkpt>
      <trkpt lat="46.96228" lon="-0.90117">
        <ele>126</ele>
        <time>2015-03-12T14:11:54Z</time>
      </trkpt>
      <trkpt lat="46.9623" lon="-0.90119">
        <ele>126</ele>
        <time>2015-03-12T14:11:56Z</time>
      </trkpt>
      <trkpt lat="46.96231" lon="-0.90121">
        <ele>126</ele>
        <time>2015-03-12T14:11:58Z</time>
      </trkpt>
      <trkpt lat="46.96232" lon="-0.90123">
        <ele>125</ele>
        <time>2015-03-12T14:12:00Z</time>
      </trkpt>
      <trkpt lat="46.96235" lon="-0.90124">
        <ele>125</ele>
        <time>2015-03-12T14:12:02Z</time>
      </trkpt>
      <trkpt lat="46.96236" lon="-0.90126">
        <ele>125</ele>
        <time>2015-03-12T14:12:05Z</time>
      </trkpt>
      <trkpt lat="46.96238" lon="-0.90126">
        <ele>125</ele>
        <time>2015-03-12T14:12:08Z</time>
      </trkpt>
      <trkpt lat="46.96239" lon="-0.90126">
        <ele>125</ele>
        <time>2015-03-12T14:12:11Z</time>
      </trkpt>
      <trkpt lat="46.96242" lon="-0.9013">
        <ele>125</ele>
        <time>2015-03-12T14:12:14Z</time>
      </trkpt>
      <trkpt lat="46.96243" lon="-0.90132">
        <ele>125</ele>
        <time>2015-03-12T14:12:17Z</time>
      </trkpt>
      <trkpt lat="46.96244" lon="-0.90133">
        <ele>125</ele>
        <time>2015-03-12T14:12:19Z</time>
      </trkpt>
      <trkpt lat="46.96245" lon="-0.90134">
        <ele>125</ele>
        <time>2015-03-12T14:12:21Z</time>
      </trkpt>
      <trkpt lat="46.96247" lon="-0.90134">
        <ele>125</ele>
        <time>2015-03-12T14:12:23Z</time>
      </trkpt>
      <trkpt lat="46.9625" lon="-0.90134">
        <ele>125</ele>
        <time>2015-03-12T14:12:26Z</time>
      </trkpt>
      <trkpt lat="46.96252" lon="-0.90134">
        <ele>125</ele>
        <time>2015-03-12T14:12:28Z</time>
      </trkpt>
      <trkpt lat="46.96254" lon="-0.90134">
        <ele>125</ele>
        <time>2015-03-12T14:12:30Z</time>
      </trkpt>
      <trkpt lat="46.96258" lon="-0.90134">
        <ele>125</ele>
        <time>2015-03-12T14:12:33Z</time>
      </trkpt>
      <trkpt lat="46.96261" lon="-0.90134">
        <ele>126</ele>
        <time>2015-03-12T14:12:35Z</time>
      </trkpt>
      <trkpt lat="46.96263" lon="-0.90135">
        <ele>126</ele>
        <time>2015-03-12T14:12:37Z</time>
      </trkpt>
      <trkpt lat="46.96266" lon="-0.90135">
        <ele>127</ele>
        <time>2015-03-12T14:12:39Z</time>
      </trkpt>
      <trkpt lat="46.96267" lon="-0.90135">
        <ele>127</ele>
        <time>2015-03-12T14:12:41Z</time>
      </trkpt>
      <trkpt lat="46.9627" lon="-0.90136">
        <ele>128</ele>
        <time>2015-03-12T14:12:44Z</time>
      </trkpt>
      <trkpt lat="46.96273" lon="-0.90136">
        <ele>128</ele>
        <time>2015-03-12T14:12:46Z</time>
      </trkpt>
      <trkpt lat="46.96276" lon="-0.90137">
        <ele>128</ele>
        <time>2015-03-12T14:12:49Z</time>
      </trkpt>
      <trkpt lat="46.96279" lon="-0.90136">
        <ele>128</ele>
        <time>2015-03-12T14:12:52Z</time>
      </trkpt>
      <trkpt lat="46.96282" lon="-0.90136">
        <ele>128</ele>
        <time>2015-03-12T14:12:55Z</time>
      </trkpt>
      <trkpt lat="46.96284" lon="-0.90136">
        <ele>128</ele>
        <time>2015-03-12T14:12:57Z</time>
      </trkpt>
      <trkpt lat="46.96288" lon="-0.90136">
        <ele>128</ele>
        <time>2015-03-12T14:12:59Z</time>
      </trkpt>
      <trkpt lat="46.9629" lon="-0.90137">
        <ele>128</ele>
        <time>2015-03-12T14:13:01Z</time>
      </trkpt>
      <trkpt lat="46.96293" lon="-0.90137">
        <ele>128</ele>
        <time>2015-03-12T14:13:04Z</time>
      </trkpt>
      <trkpt lat="46.96296" lon="-0.90136">
        <ele>128</ele>
        <time>2015-03-12T14:13:06Z</time>
      </trkpt>
      <trkpt lat="46.96299" lon="-0.90135">
        <ele>127</ele>
        <time>2015-03-12T14:13:09Z</time>
      </trkpt>
      <trkpt lat="46.96302" lon="-0.90134">
        <ele>127</ele>
        <time>2015-03-12T14:13:11Z</time>
      </trkpt>
      <trkpt lat="46.96305" lon="-0.90134">
        <ele>127</ele>
        <time>2015-03-12T14:13:13Z</time>
      </trkpt>
      <trkpt lat="46.96307" lon="-0.90132">
        <ele>126</ele>
        <time>2015-03-12T14:13:16Z</time>
      </trkpt>
      <trkpt lat="46.96309" lon="-0.90132">
        <ele>126</ele>
        <time>2015-03-12T14:13:18Z</time>
      </trkpt>
      <trkpt lat="46.96311" lon="-0.90131">
        <ele>126</ele>
        <time>2015-03-12T14:13:20Z</time>
      </trkpt>
      <trkpt lat="46.96314" lon="-0.90131">
        <ele>126</ele>
        <time>2015-03-12T14:13:22Z</time>
      </trkpt>
      <trkpt lat="46.96317" lon="-0.90132">
        <ele>125</ele>
        <time>2015-03-12T14:13:25Z</time>
      </trkpt>
      <trkpt lat="46.96319" lon="-0.90135">
        <ele>125</ele>
        <time>2015-03-12T14:13:27Z</time>
      </trkpt>
      <trkpt lat="46.96322" lon="-0.90137">
        <ele>125</ele>
        <time>2015-03-12T14:13:30Z</time>
      </trkpt>
      <trkpt lat="46.96324" lon="-0.90139">
        <ele>124</ele>
        <time>2015-03-12T14:13:32Z</time>
      </trkpt>
      <trkpt lat="46.96326" lon="-0.90141">
        <ele>124</ele>
        <time>2015-03-12T14:13:34Z</time>
      </trkpt>
      <trkpt lat="46.96326" lon="-0.90144">
        <ele>123</ele>
        <time>2015-03-12T14:13:36Z</time>
      </trkpt>
      <trkpt lat="46.96328" lon="-0.90146">
        <ele>122</ele>
        <time>2015-03-12T14:13:38Z</time>
      </trkpt>
      <trkpt lat="46.96329" lon="-0.9015">
        <ele>121</ele>
        <time>2015-03-12T14:13:41Z</time>
      </trkpt>
      <trkpt lat="46.96331" lon="-0.90152">
        <ele>121</ele>
        <time>2015-03-12T14:13:43Z</time>
      </trkpt>
      <trkpt lat="46.96332" lon="-0.90156">
        <ele>120</ele>
        <time>2015-03-12T14:13:45Z</time>
      </trkpt>
      <trkpt lat="46.96333" lon="-0.90158">
        <ele>119</ele>
        <time>2015-03-12T14:13:47Z</time>
      </trkpt>
      <trkpt lat="46.96334" lon="-0.90159">
        <ele>117</ele>
        <time>2015-03-12T14:13:49Z</time>
      </trkpt>
      <trkpt lat="46.96335" lon="-0.90161">
        <ele>117</ele>
        <time>2015-03-12T14:13:51Z</time>
      </trkpt>
      <trkpt lat="46.96336" lon="-0.90165">
        <ele>117</ele>
        <time>2015-03-12T14:13:53Z</time>
      </trkpt>
      <trkpt lat="46.96338" lon="-0.90168">
        <ele>117</ele>
        <time>2015-03-12T14:13:55Z</time>
      </trkpt>
      <trkpt lat="46.96339" lon="-0.90172">
        <ele>117</ele>
        <time>2015-03-12T14:13:57Z</time>
      </trkpt>
      <trkpt lat="46.9634" lon="-0.90175">
        <ele>115</ele>
        <time>2015-03-12T14:13:59Z</time>
      </trkpt>
      <trkpt lat="46.96342" lon="-0.90179">
        <ele>114</ele>
        <time>2015-03-12T14:14:01Z</time>
      </trkpt>
      <trkpt lat="46.96343" lon="-0.90183">
        <ele>114</ele>
        <time>2015-03-12T14:14:04Z</time>
      </trkpt>
      <trkpt lat="46.96344" lon="-0.90184">
        <ele>114</ele>
        <time>2015-03-12T14:14:06Z</time>
      </trkpt>
      <trkpt lat="46.96345" lon="-0.90188">
        <ele>114</ele>
        <time>2015-03-12T14:14:08Z</time>
      </trkpt>
      <trkpt lat="46.96345" lon="-0.9019">
        <ele>114</ele>
        <time>2015-03-12T14:14:10Z</time>
      </trkpt>
      <trkpt lat="46.96346" lon="-0.90194">
        <ele>114</ele>
        <time>2015-03-12T14:14:12Z</time>
      </trkpt>
      <trkpt lat="46.96346" lon="-0.90197">
        <ele>114</ele>
        <time>2015-03-12T14:14:14Z</time>
      </trkpt>
      <trkpt lat="46.96346" lon="-0.90201">
        <ele>114</ele>
        <time>2015-03-12T14:14:16Z</time>
      </trkpt>
      <trkpt lat="46.96346" lon="-0.90204">
        <ele>114</ele>
        <time>2015-03-12T14:14:18Z</time>
      </trkpt>
      <trkpt lat="46.96346" lon="-0.90207">
        <ele>114</ele>
        <time>2015-03-12T14:14:20Z</time>
      </trkpt>
      <trkpt lat="46.96347" lon="-0.90211">
        <ele>114</ele>
        <time>2015-03-12T14:14:22Z</time>
      </trkpt>
      <trkpt lat="46.96346" lon="-0.90215">
        <ele>114</ele>
        <time>2015-03-12T14:14:25Z</time>
      </trkpt>
      <trkpt lat="46.96347" lon="-0.90219">
        <ele>114</ele>
        <time>2015-03-12T14:14:27Z</time>
      </trkpt>
      <trkpt lat="46.96347" lon="-0.9022">
        <ele>114</ele>
        <time>2015-03-12T14:14:29Z</time>
      </trkpt>
      <trkpt lat="46.96348" lon="-0.90224">
        <ele>114</ele>
        <time>2015-03-12T14:14:31Z</time>
      </trkpt>
      <trkpt lat="46.96348" lon="-0.90228">
        <ele>114</ele>
        <time>2015-03-12T14:14:33Z</time>
      </trkpt>
      <trkpt lat="46.96347" lon="-0.90232">
        <ele>114</ele>
        <time>2015-03-12T14:14:35Z</time>
      </trkpt>
      <trkpt lat="46.96347" lon="-0.90235">
        <ele>114</ele>
        <time>2015-03-12T14:14:37Z</time>
      </trkpt>
      <trkpt lat="46.96347" lon="-0.90237">
        <ele>114</ele>
        <time>2015-03-12T14:14:39Z</time>
      </trkpt>
      <trkpt lat="46.96349" lon="-0.9024">
        <ele>114</ele>
        <time>2015-03-12T14:14:41Z</time>
      </trkpt>
      <trkpt lat="46.96349" lon="-0.90243">
        <ele>114</ele>
        <time>2015-03-12T14:14:43Z</time>
      </trkpt>
      <trkpt lat="46.9635" lon="-0.90248">
        <ele>114</ele>
        <time>2015-03-12T14:14:46Z</time>
      </trkpt>
      <trkpt lat="46.96349" lon="-0.90251">
        <ele>114</ele>
        <time>2015-03-12T14:14:48Z</time>
      </trkpt>
      <trkpt lat="46.96349" lon="-0.90254">
        <ele>115</ele>
        <time>2015-03-12T14:14:50Z</time>
      </trkpt>
      <trkpt lat="46.96351" lon="-0.90258">
        <ele>115</ele>
        <time>2015-03-12T14:14:53Z</time>
      </trkpt>
      <trkpt lat="46.96352" lon="-0.90261">
        <ele>115</ele>
        <time>2015-03-12T14:14:55Z</time>
      </trkpt>
      <trkpt lat="46.96354" lon="-0.90263">
        <ele>115</ele>
        <time>2015-03-12T14:14:57Z</time>
      </trkpt>
      <trkpt lat="46.96356" lon="-0.90267">
        <ele>115</ele>
        <time>2015-03-12T14:15:00Z</time>
      </trkpt>
      <trkpt lat="46.96357" lon="-0.9027">
        <ele>115</ele>
        <time>2015-03-12T14:15:02Z</time>
      </trkpt>
      <trkpt lat="46.96359" lon="-0.90272">
        <ele>115</ele>
        <time>2015-03-12T14:15:04Z</time>
      </trkpt>
      <trkpt lat="46.96361" lon="-0.90273">
        <ele>115</ele>
        <time>2015-03-12T14:15:06Z</time>
      </trkpt>
      <trkpt lat="46.96363" lon="-0.90275">
        <ele>115</ele>
        <time>2015-03-12T14:15:08Z</time>
      </trkpt>
      <trkpt lat="46.96365" lon="-0.90276">
        <ele>115</ele>
        <time>2015-03-12T14:15:10Z</time>
      </trkpt>
      <trkpt lat="46.96368" lon="-0.90278">
        <ele>115</ele>
        <time>2015-03-12T14:15:13Z</time>
      </trkpt>
      <trkpt lat="46.9637" lon="-0.9028">
        <ele>115</ele>
        <time>2015-03-12T14:15:15Z</time>
      </trkpt>
      <trkpt lat="46.96371" lon="-0.90281">
        <ele>115</ele>
        <time>2015-03-12T14:15:17Z</time>
      </trkpt>
      <trkpt lat="46.96373" lon="-0.90283">
        <ele>115</ele>
        <time>2015-03-12T14:15:19Z</time>
      </trkpt>
      <trkpt lat="46.96374" lon="-0.90285">
        <ele>115</ele>
        <time>2015-03-12T14:15:21Z</time>
      </trkpt>
      <trkpt lat="46.96376" lon="-0.90286">
        <ele>116</ele>
        <time>2015-03-12T14:15:23Z</time>
      </trkpt>
      <trkpt lat="46.96379" lon="-0.90288">
        <ele>116</ele>
        <time>2015-03-12T14:15:26Z</time>
      </trkpt>
      <trkpt lat="46.9638" lon="-0.90289">
        <ele>116</ele>
        <time>2015-03-12T14:15:28Z</time>
      </trkpt>
      <trkpt lat="46.96382" lon="-0.90291">
        <ele>116</ele>
        <time>2015-03-12T14:15:30Z</time>
      </trkpt>
      <trkpt lat="46.96384" lon="-0.90291">
        <ele>116</ele>
        <time>2015-03-12T14:15:32Z</time>
      </trkpt>
      <trkpt lat="46.96386" lon="-0.90293">
        <ele>117</ele>
        <time>2015-03-12T14:15:34Z</time>
      </trkpt>
      <trkpt lat="46.96388" lon="-0.90294">
        <ele>118</ele>
        <time>2015-03-12T14:15:36Z</time>
      </trkpt>
      <trkpt lat="46.9639" lon="-0.90294">
        <ele>119</ele>
        <time>2015-03-12T14:15:38Z</time>
      </trkpt>
      <trkpt lat="46.96391" lon="-0.90295">
        <ele>120</ele>
        <time>2015-03-12T14:15:40Z</time>
      </trkpt>
      <trkpt lat="46.96393" lon="-0.90295">
        <ele>120</ele>
        <time>2015-03-12T14:15:42Z</time>
      </trkpt>
      <trkpt lat="46.96394" lon="-0.90297">
        <ele>121</ele>
        <time>2015-03-12T14:15:44Z</time>
      </trkpt>
      <trkpt lat="46.96396" lon="-0.90299">
        <ele>122</ele>
        <time>2015-03-12T14:15:47Z</time>
      </trkpt>
      <trkpt lat="46.96398" lon="-0.90302">
        <ele>122</ele>
        <time>2015-03-12T14:15:49Z</time>
      </trkpt>
      <trkpt lat="46.96399" lon="-0.90304">
        <ele>122</ele>
        <time>2015-03-12T14:15:51Z</time>
      </trkpt>
      <trkpt lat="46.964" lon="-0.90306">
        <ele>122</ele>
        <time>2015-03-12T14:15:53Z</time>
      </trkpt>
      <trkpt lat="46.964" lon="-0.9031">
        <ele>122</ele>
        <time>2015-03-12T14:15:56Z</time>
      </trkpt>
      <trkpt lat="46.96401" lon="-0.90312">
        <ele>122</ele>
        <time>2015-03-12T14:15:58Z</time>
      </trkpt>
      <trkpt lat="46.96402" lon="-0.90314">
        <ele>123</ele>
        <time>2015-03-12T14:16:01Z</time>
      </trkpt>
      <trkpt lat="46.96404" lon="-0.90318">
        <ele>123</ele>
        <time>2015-03-12T14:16:04Z</time>
      </trkpt>
      <trkpt lat="46.96404" lon="-0.90322">
        <ele>123</ele>
        <time>2015-03-12T14:16:06Z</time>
      </trkpt>
      <trkpt lat="46.96405" lon="-0.90324">
        <ele>123</ele>
        <time>2015-03-12T14:16:08Z</time>
      </trkpt>
      <trkpt lat="46.96405" lon="-0.90326">
        <ele>123</ele>
        <time>2015-03-12T14:16:10Z</time>
      </trkpt>
      <trkpt lat="46.96406" lon="-0.90328">
        <ele>123</ele>
        <time>2015-03-12T14:16:12Z</time>
      </trkpt>
      <trkpt lat="46.96407" lon="-0.90331">
        <ele>123</ele>
        <time>2015-03-12T14:16:14Z</time>
      </trkpt>
      <trkpt lat="46.96408" lon="-0.90334">
        <ele>123</ele>
        <time>2015-03-12T14:16:16Z</time>
      </trkpt>
      <trkpt lat="46.96409" lon="-0.90338">
        <ele>123</ele>
        <time>2015-03-12T14:16:19Z</time>
      </trkpt>
      <trkpt lat="46.9641" lon="-0.9034">
        <ele>123</ele>
        <time>2015-03-12T14:16:21Z</time>
      </trkpt>
      <trkpt lat="46.96413" lon="-0.90342">
        <ele>123</ele>
        <time>2015-03-12T14:16:23Z</time>
      </trkpt>
      <trkpt lat="46.96413" lon="-0.90343">
        <ele>123</ele>
        <time>2015-03-12T14:16:25Z</time>
      </trkpt>
      <trkpt lat="46.96415" lon="-0.90346">
        <ele>123</ele>
        <time>2015-03-12T14:16:27Z</time>
      </trkpt>
      <trkpt lat="46.96416" lon="-0.90347">
        <ele>124</ele>
        <time>2015-03-12T14:16:29Z</time>
      </trkpt>
      <trkpt lat="46.96418" lon="-0.90349">
        <ele>125</ele>
        <time>2015-03-12T14:16:31Z</time>
      </trkpt>
      <trkpt lat="46.96422" lon="-0.90351">
        <ele>127</ele>
        <time>2015-03-12T14:16:34Z</time>
      </trkpt>
      <trkpt lat="46.96423" lon="-0.90353">
        <ele>127</ele>
        <time>2015-03-12T14:16:36Z</time>
      </trkpt>
      <trkpt lat="46.96424" lon="-0.90355">
        <ele>127</ele>
        <time>2015-03-12T14:16:38Z</time>
      </trkpt>
      <trkpt lat="46.96425" lon="-0.90356">
        <ele>127</ele>
        <time>2015-03-12T14:16:40Z</time>
      </trkpt>
      <trkpt lat="46.96429" lon="-0.90358">
        <ele>129</ele>
        <time>2015-03-12T14:16:43Z</time>
      </trkpt>
      <trkpt lat="46.9643" lon="-0.90359">
        <ele>130</ele>
        <time>2015-03-12T14:16:45Z</time>
      </trkpt>
      <trkpt lat="46.96432" lon="-0.90361">
        <ele>131</ele>
        <time>2015-03-12T14:16:47Z</time>
      </trkpt>
      <trkpt lat="46.96434" lon="-0.90362">
        <ele>131</ele>
        <time>2015-03-12T14:16:49Z</time>
      </trkpt>
      <trkpt lat="46.96436" lon="-0.90364">
        <ele>132</ele>
        <time>2015-03-12T14:16:51Z</time>
      </trkpt>
      <trkpt lat="46.96438" lon="-0.90367">
        <ele>133</ele>
        <time>2015-03-12T14:16:53Z</time>
      </trkpt>
      <trkpt lat="46.96439" lon="-0.90368">
        <ele>134</ele>
        <time>2015-03-12T14:16:55Z</time>
      </trkpt>
      <trkpt lat="46.96442" lon="-0.90369">
        <ele>134</ele>
        <time>2015-03-12T14:16:57Z</time>
      </trkpt>
      <trkpt lat="46.96444" lon="-0.9037">
        <ele>134</ele>
        <time>2015-03-12T14:16:59Z</time>
      </trkpt>
      <trkpt lat="46.96447" lon="-0.90371">
        <ele>134</ele>
        <time>2015-03-12T14:17:02Z</time>
      </trkpt>
      <trkpt lat="46.96449" lon="-0.90373">
        <ele>134</ele>
        <time>2015-03-12T14:17:04Z</time>
      </trkpt>
      <trkpt lat="46.96452" lon="-0.90374">
        <ele>134</ele>
        <time>2015-03-12T14:17:07Z</time>
      </trkpt>
      <trkpt lat="46.96455" lon="-0.90376">
        <ele>134</ele>
        <time>2015-03-12T14:17:09Z</time>
      </trkpt>
      <trkpt lat="46.96457" lon="-0.90377">
        <ele>134</ele>
        <time>2015-03-12T14:17:11Z</time>
      </trkpt>
      <trkpt lat="46.96459" lon="-0.90379">
        <ele>134</ele>
        <time>2015-03-12T14:17:13Z</time>
      </trkpt>
      <trkpt lat="46.96461" lon="-0.9038">
        <ele>134</ele>
        <time>2015-03-12T14:17:15Z</time>
      </trkpt>
      <trkpt lat="46.96463" lon="-0.9038">
        <ele>134</ele>
        <time>2015-03-12T14:17:17Z</time>
      </trkpt>
      <trkpt lat="46.96465" lon="-0.90382">
        <ele>134</ele>
        <time>2015-03-12T14:17:19Z</time>
      </trkpt>
      <trkpt lat="46.96466" lon="-0.90383">
        <ele>134</ele>
        <time>2015-03-12T14:17:21Z</time>
      </trkpt>
      <trkpt lat="46.96469" lon="-0.90385">
        <ele>134</ele>
        <time>2015-03-12T14:17:24Z</time>
      </trkpt>
      <trkpt lat="46.96471" lon="-0.90386">
        <ele>134</ele>
        <time>2015-03-12T14:17:26Z</time>
      </trkpt>
      <trkpt lat="46.96473" lon="-0.90387">
        <ele>134</ele>
        <time>2015-03-12T14:17:28Z</time>
      </trkpt>
      <trkpt lat="46.96474" lon="-0.90389">
        <ele>134</ele>
        <time>2015-03-12T14:17:30Z</time>
      </trkpt>
      <trkpt lat="46.96476" lon="-0.9039">
        <ele>134</ele>
        <time>2015-03-12T14:17:32Z</time>
      </trkpt>
      <trkpt lat="46.96478" lon="-0.90393">
        <ele>134</ele>
        <time>2015-03-12T14:17:34Z</time>
      </trkpt>
      <trkpt lat="46.96479" lon="-0.90394">
        <ele>134</ele>
        <time>2015-03-12T14:17:36Z</time>
      </trkpt>
      <trkpt lat="46.96481" lon="-0.90395">
        <ele>134</ele>
        <time>2015-03-12T14:17:38Z</time>
      </trkpt>
      <trkpt lat="46.96483" lon="-0.90397">
        <ele>134</ele>
        <time>2015-03-12T14:17:40Z</time>
      </trkpt>
      <trkpt lat="46.96486" lon="-0.90399">
        <ele>134</ele>
        <time>2015-03-12T14:17:43Z</time>
      </trkpt>
      <trkpt lat="46.96489" lon="-0.904">
        <ele>134</ele>
        <time>2015-03-12T14:17:45Z</time>
      </trkpt>
      <trkpt lat="46.96492" lon="-0.90401">
        <ele>134</ele>
        <time>2015-03-12T14:17:48Z</time>
      </trkpt>
      <trkpt lat="46.96494" lon="-0.90402">
        <ele>134</ele>
        <time>2015-03-12T14:17:50Z</time>
      </trkpt>
      <trkpt lat="46.96497" lon="-0.90403">
        <ele>134</ele>
        <time>2015-03-12T14:17:52Z</time>
      </trkpt>
      <trkpt lat="46.96498" lon="-0.90403">
        <ele>134</ele>
        <time>2015-03-12T14:17:54Z</time>
      </trkpt>
      <trkpt lat="46.965" lon="-0.90405">
        <ele>134</ele>
        <time>2015-03-12T14:17:57Z</time>
      </trkpt>
      <trkpt lat="46.96502" lon="-0.90405">
        <ele>134</ele>
        <time>2015-03-12T14:17:59Z</time>
      </trkpt>
      <trkpt lat="46.96504" lon="-0.90407">
        <ele>134</ele>
        <time>2015-03-12T14:18:01Z</time>
      </trkpt>
      <trkpt lat="46.96507" lon="-0.90409">
        <ele>134</ele>
        <time>2015-03-12T14:18:04Z</time>
      </trkpt>
      <trkpt lat="46.96508" lon="-0.90412">
        <ele>134</ele>
        <time>2015-03-12T14:18:06Z</time>
      </trkpt>
      <trkpt lat="46.9651" lon="-0.90415">
        <ele>134</ele>
        <time>2015-03-12T14:18:08Z</time>
      </trkpt>
      <trkpt lat="46.96511" lon="-0.90419">
        <ele>134</ele>
        <time>2015-03-12T14:18:11Z</time>
      </trkpt>
      <trkpt lat="46.96511" lon="-0.90422">
        <ele>134</ele>
        <time>2015-03-12T14:18:13Z</time>
      </trkpt>
      <trkpt lat="46.96512" lon="-0.90424">
        <ele>133</ele>
        <time>2015-03-12T14:18:15Z</time>
      </trkpt>
      <trkpt lat="46.96514" lon="-0.90428">
        <ele>133</ele>
        <time>2015-03-12T14:18:17Z</time>
      </trkpt>
      <trkpt lat="46.96517" lon="-0.90431">
        <ele>133</ele>
        <time>2015-03-12T14:18:20Z</time>
      </trkpt>
      <trkpt lat="46.96518" lon="-0.90434">
        <ele>133</ele>
        <time>2015-03-12T14:18:22Z</time>
      </trkpt>
      <trkpt lat="46.96519" lon="-0.90437">
        <ele>133</ele>
        <time>2015-03-12T14:18:24Z</time>
      </trkpt>
      <trkpt lat="46.9652" lon="-0.90439">
        <ele>133</ele>
        <time>2015-03-12T14:18:26Z</time>
      </trkpt>
      <trkpt lat="46.96521" lon="-0.90441">
        <ele>133</ele>
        <time>2015-03-12T14:18:28Z</time>
      </trkpt>
      <trkpt lat="46.96521" lon="-0.90444">
        <ele>133</ele>
        <time>2015-03-12T14:18:30Z</time>
      </trkpt>
      <trkpt lat="46.96522" lon="-0.90447">
        <ele>133</ele>
        <time>2015-03-12T14:18:32Z</time>
      </trkpt>
      <trkpt lat="46.96522" lon="-0.90449">
        <ele>133</ele>
        <time>2015-03-12T14:18:34Z</time>
      </trkpt>
      <trkpt lat="46.96523" lon="-0.90452">
        <ele>133</ele>
        <time>2015-03-12T14:18:36Z</time>
      </trkpt>
      <trkpt lat="46.96523" lon="-0.90455">
        <ele>134</ele>
        <time>2015-03-12T14:18:38Z</time>
      </trkpt>
      <trkpt lat="46.96524" lon="-0.90459">
        <ele>134</ele>
        <time>2015-03-12T14:18:41Z</time>
      </trkpt>
      <trkpt lat="46.96525" lon="-0.90462">
        <ele>134</ele>
        <time>2015-03-12T14:18:43Z</time>
      </trkpt>
      <trkpt lat="46.96527" lon="-0.90464">
        <ele>135</ele>
        <time>2015-03-12T14:18:45Z</time>
      </trkpt>
      <trkpt lat="46.96527" lon="-0.90467">
        <ele>135</ele>
        <time>2015-03-12T14:18:47Z</time>
      </trkpt>
      <trkpt lat="46.96529" lon="-0.90469">
        <ele>135</ele>
        <time>2015-03-12T14:18:49Z</time>
      </trkpt>
      <trkpt lat="46.9653" lon="-0.90471">
        <ele>135</ele>
        <time>2015-03-12T14:18:51Z</time>
      </trkpt>
      <trkpt lat="46.96531" lon="-0.90474">
        <ele>135</ele>
        <time>2015-03-12T14:18:53Z</time>
      </trkpt>
      <trkpt lat="46.96532" lon="-0.90478">
        <ele>135</ele>
        <time>2015-03-12T14:18:56Z</time>
      </trkpt>
      <trkpt lat="46.96532" lon="-0.9048">
        <ele>135</ele>
        <time>2015-03-12T14:18:58Z</time>
      </trkpt>
      <trkpt lat="46.96532" lon="-0.90482">
        <ele>135</ele>
        <time>2015-03-12T14:19:00Z</time>
      </trkpt>
      <trkpt lat="46.96534" lon="-0.90484">
        <ele>135</ele>
        <time>2015-03-12T14:19:02Z</time>
      </trkpt>
      <trkpt lat="46.96534" lon="-0.90487">
        <ele>135</ele>
        <time>2015-03-12T14:19:04Z</time>
      </trkpt>
      <trkpt lat="46.96535" lon="-0.9049">
        <ele>135</ele>
        <time>2015-03-12T14:19:06Z</time>
      </trkpt>
      <trkpt lat="46.96536" lon="-0.90492">
        <ele>135</ele>
        <time>2015-03-12T14:19:08Z</time>
      </trkpt>
      <trkpt lat="46.96536" lon="-0.90495">
        <ele>135</ele>
        <time>2015-03-12T14:19:10Z</time>
      </trkpt>
      <trkpt lat="46.96537" lon="-0.90498">
        <ele>135</ele>
        <time>2015-03-12T14:19:12Z</time>
      </trkpt>
      <trkpt lat="46.96537" lon="-0.90501">
        <ele>135</ele>
        <time>2015-03-12T14:19:14Z</time>
      </trkpt>
      <trkpt lat="46.96537" lon="-0.90503">
        <ele>135</ele>
        <time>2015-03-12T14:19:16Z</time>
      </trkpt>
      <trkpt lat="46.96538" lon="-0.90506">
        <ele>135</ele>
        <time>2015-03-12T14:19:18Z</time>
      </trkpt>
      <trkpt lat="46.96538" lon="-0.90508">
        <ele>135</ele>
        <time>2015-03-12T14:19:20Z</time>
      </trkpt>
      <trkpt lat="46.9654" lon="-0.9051">
        <ele>135</ele>
        <time>2015-03-12T14:19:22Z</time>
      </trkpt>
      <trkpt lat="46.96541" lon="-0.90511">
        <ele>135</ele>
        <time>2015-03-12T14:19:24Z</time>
      </trkpt>
      <trkpt lat="46.96545" lon="-0.90512">
        <ele>135</ele>
        <time>2015-03-12T14:19:27Z</time>
      </trkpt>
      <trkpt lat="46.96547" lon="-0.90512">
        <ele>136</ele>
        <time>2015-03-12T14:19:30Z</time>
      </trkpt>
      <trkpt lat="46.9655" lon="-0.90514">
        <ele>136</ele>
        <time>2015-03-12T14:19:32Z</time>
      </trkpt>
      <trkpt lat="46.96552" lon="-0.90517">
        <ele>136</ele>
        <time>2015-03-12T14:19:34Z</time>
      </trkpt>
      <trkpt lat="46.96554" lon="-0.90519">
        <ele>136</ele>
        <time>2015-03-12T14:19:36Z</time>
      </trkpt>
      <trkpt lat="46.96555" lon="-0.90521">
        <ele>136</ele>
        <time>2015-03-12T14:19:38Z</time>
      </trkpt>
      <trkpt lat="46.96556" lon="-0.90523">
        <ele>136</ele>
        <time>2015-03-12T14:19:40Z</time>
      </trkpt>
      <trkpt lat="46.96558" lon="-0.90526">
        <ele>136</ele>
        <time>2015-03-12T14:19:42Z</time>
      </trkpt>
      <trkpt lat="46.96558" lon="-0.90531">
        <ele>136</ele>
        <time>2015-03-12T14:19:45Z</time>
      </trkpt>
      <trkpt lat="46.96558" lon="-0.90534">
        <ele>136</ele>
        <time>2015-03-12T14:19:47Z</time>
      </trkpt>
      <trkpt lat="46.96559" lon="-0.90536">
        <ele>137</ele>
        <time>2015-03-12T14:19:49Z</time>
      </trkpt>
      <trkpt lat="46.9656" lon="-0.90538">
        <ele>137</ele>
        <time>2015-03-12T14:19:51Z</time>
      </trkpt>
      <trkpt lat="46.9656" lon="-0.90541">
        <ele>137</ele>
        <time>2015-03-12T14:19:53Z</time>
      </trkpt>
      <trkpt lat="46.96562" lon="-0.90543">
        <ele>137</ele>
        <time>2015-03-12T14:19:55Z</time>
      </trkpt>
      <trkpt lat="46.96562" lon="-0.90548">
        <ele>137</ele>
        <time>2015-03-12T14:19:58Z</time>
      </trkpt>
      <trkpt lat="46.96563" lon="-0.9055">
        <ele>138</ele>
        <time>2015-03-12T14:20:00Z</time>
      </trkpt>
      <trkpt lat="46.96563" lon="-0.90555">
        <ele>139</ele>
        <time>2015-03-12T14:20:03Z</time>
      </trkpt>
      <trkpt lat="46.96564" lon="-0.90558">
        <ele>140</ele>
        <time>2015-03-12T14:20:06Z</time>
      </trkpt>
      <trkpt lat="46.96564" lon="-0.90561">
        <ele>141</ele>
        <time>2015-03-12T14:20:08Z</time>
      </trkpt>
      <trkpt lat="46.96565" lon="-0.90563">
        <ele>141</ele>
        <time>2015-03-12T14:20:10Z</time>
      </trkpt>
      <trkpt lat="46.96566" lon="-0.90566">
        <ele>141</ele>
        <time>2015-03-12T14:20:12Z</time>
      </trkpt>
      <trkpt lat="46.96566" lon="-0.90569">
        <ele>141</ele>
        <time>2015-03-12T14:20:14Z</time>
      </trkpt>
      <trkpt lat="46.96568" lon="-0.90572">
        <ele>141</ele>
        <time>2015-03-12T14:20:16Z</time>
      </trkpt>
      <trkpt lat="46.96569" lon="-0.90574">
        <ele>141</ele>
        <time>2015-03-12T14:20:18Z</time>
      </trkpt>
      <trkpt lat="46.96571" lon="-0.90577">
        <ele>142</ele>
        <time>2015-03-12T14:20:20Z</time>
      </trkpt>
      <trkpt lat="46.96571" lon="-0.90579">
        <ele>143</ele>
        <time>2015-03-12T14:20:22Z</time>
      </trkpt>
      <trkpt lat="46.9657" lon="-0.90583">
        <ele>143</ele>
        <time>2015-03-12T14:20:24Z</time>
      </trkpt>
      <trkpt lat="46.96569" lon="-0.90585">
        <ele>143</ele>
        <time>2015-03-12T14:20:26Z</time>
      </trkpt>
      <trkpt lat="46.96571" lon="-0.90587">
        <ele>143</ele>
        <time>2015-03-12T14:20:28Z</time>
      </trkpt>
      <trkpt lat="46.96573" lon="-0.90589">
        <ele>143</ele>
        <time>2015-03-12T14:20:32Z</time>
      </trkpt>
      <trkpt lat="46.96574" lon="-0.90591">
        <ele>143</ele>
        <time>2015-03-12T14:20:34Z</time>
      </trkpt>
      <trkpt lat="46.96576" lon="-0.90594">
        <ele>143</ele>
        <time>2015-03-12T14:20:36Z</time>
      </trkpt>
      <trkpt lat="46.96579" lon="-0.90596">
        <ele>141</ele>
        <time>2015-03-12T14:20:39Z</time>
      </trkpt>
      <trkpt lat="46.9658" lon="-0.90598">
        <ele>140</ele>
        <time>2015-03-12T14:20:41Z</time>
      </trkpt>
      <trkpt lat="46.96582" lon="-0.906">
        <ele>140</ele>
        <time>2015-03-12T14:20:43Z</time>
      </trkpt>
      <trkpt lat="46.96583" lon="-0.906">
        <ele>140</ele>
        <time>2015-03-12T14:20:45Z</time>
      </trkpt>
      <trkpt lat="46.96584" lon="-0.90601">
        <ele>140</ele>
        <time>2015-03-12T14:20:47Z</time>
      </trkpt>
      <trkpt lat="46.96587" lon="-0.90601">
        <ele>140</ele>
        <time>2015-03-12T14:20:49Z</time>
      </trkpt>
      <trkpt lat="46.96589" lon="-0.90602">
        <ele>140</ele>
        <time>2015-03-12T14:20:51Z</time>
      </trkpt>
      <trkpt lat="46.96592" lon="-0.90603">
        <ele>140</ele>
        <time>2015-03-12T14:20:53Z</time>
      </trkpt>
      <trkpt lat="46.96595" lon="-0.90604">
        <ele>140</ele>
        <time>2015-03-12T14:20:55Z</time>
      </trkpt>
      <trkpt lat="46.96597" lon="-0.90607">
        <ele>140</ele>
        <time>2015-03-12T14:20:58Z</time>
      </trkpt>
      <trkpt lat="46.96598" lon="-0.90609">
        <ele>140</ele>
        <time>2015-03-12T14:21:00Z</time>
      </trkpt>
      <trkpt lat="46.966" lon="-0.90611">
        <ele>140</ele>
        <time>2015-03-12T14:21:02Z</time>
      </trkpt>
      <trkpt lat="46.96601" lon="-0.90614">
        <ele>140</ele>
        <time>2015-03-12T14:21:04Z</time>
      </trkpt>
      <trkpt lat="46.96603" lon="-0.90615">
        <ele>140</ele>
        <time>2015-03-12T14:21:06Z</time>
      </trkpt>
      <trkpt lat="46.96604" lon="-0.90617">
        <ele>140</ele>
        <time>2015-03-12T14:21:08Z</time>
      </trkpt>
      <trkpt lat="46.96606" lon="-0.9062">
        <ele>140</ele>
        <time>2015-03-12T14:21:11Z</time>
      </trkpt>
      <trkpt lat="46.96607" lon="-0.90622">
        <ele>140</ele>
        <time>2015-03-12T14:21:13Z</time>
      </trkpt>
      <trkpt lat="46.96608" lon="-0.90623">
        <ele>140</ele>
        <time>2015-03-12T14:21:17Z</time>
      </trkpt>
      <trkpt lat="46.9661" lon="-0.90625">
        <ele>140</ele>
        <time>2015-03-12T14:21:19Z</time>
      </trkpt>
      <trkpt lat="46.96611" lon="-0.90627">
        <ele>140</ele>
        <time>2015-03-12T14:21:21Z</time>
      </trkpt>
      <trkpt lat="46.96612" lon="-0.90627">
        <ele>140</ele>
        <time>2015-03-12T14:21:24Z</time>
      </trkpt>
      <trkpt lat="46.96613" lon="-0.90628">
        <ele>140</ele>
        <time>2015-03-12T14:21:27Z</time>
      </trkpt>
      <trkpt lat="46.96615" lon="-0.9063">
        <ele>140</ele>
        <time>2015-03-12T14:21:30Z</time>
      </trkpt>
      <trkpt lat="46.96616" lon="-0.9063">
        <ele>140</ele>
        <time>2015-03-12T14:21:32Z</time>
      </trkpt>
      <trkpt lat="46.96618" lon="-0.90632">
        <ele>140</ele>
        <time>2015-03-12T14:21:34Z</time>
      </trkpt>
      <trkpt lat="46.96619" lon="-0.90633">
        <ele>140</ele>
        <time>2015-03-12T14:21:37Z</time>
      </trkpt>
      <trkpt lat="46.9662" lon="-0.90634">
        <ele>140</ele>
        <time>2015-03-12T14:21:39Z</time>
      </trkpt>
      <trkpt lat="46.96622" lon="-0.90635">
        <ele>140</ele>
        <time>2015-03-12T14:21:41Z</time>
      </trkpt>
      <trkpt lat="46.96624" lon="-0.90636">
        <ele>139</ele>
        <time>2015-03-12T14:21:44Z</time>
      </trkpt>
      <trkpt lat="46.96625" lon="-0.90638">
        <ele>138</ele>
        <time>2015-03-12T14:21:46Z</time>
      </trkpt>
      <trkpt lat="46.96627" lon="-0.9064">
        <ele>137</ele>
        <time>2015-03-12T14:21:49Z</time>
      </trkpt>
      <trkpt lat="46.96628" lon="-0.90642">
        <ele>135</ele>
        <time>2015-03-12T14:21:52Z</time>
      </trkpt>
      <trkpt lat="46.96629" lon="-0.90645">
        <ele>133</ele>
        <time>2015-03-12T14:21:54Z</time>
      </trkpt>
      <trkpt lat="46.96631" lon="-0.90644">
        <ele>132</ele>
        <time>2015-03-12T14:21:56Z</time>
      </trkpt>
      <trkpt lat="46.96632" lon="-0.90646">
        <ele>132</ele>
        <time>2015-03-12T14:21:58Z</time>
      </trkpt>
      <trkpt lat="46.96633" lon="-0.90648">
        <ele>130</ele>
        <time>2015-03-12T14:22:00Z</time>
      </trkpt>
      <trkpt lat="46.96635" lon="-0.90649">
        <ele>129</ele>
        <time>2015-03-12T14:22:02Z</time>
      </trkpt>
      <trkpt lat="46.96638" lon="-0.9065">
        <ele>128</ele>
        <time>2015-03-12T14:22:05Z</time>
      </trkpt>
      <trkpt lat="46.9664" lon="-0.9065">
        <ele>128</ele>
        <time>2015-03-12T14:22:08Z</time>
      </trkpt>
      <trkpt lat="46.96642" lon="-0.90651">
        <ele>128</ele>
        <time>2015-03-12T14:22:10Z</time>
      </trkpt>
      <trkpt lat="46.96644" lon="-0.90652">
        <ele>128</ele>
        <time>2015-03-12T14:22:12Z</time>
      </trkpt>
      <trkpt lat="46.96645" lon="-0.90653">
        <ele>128</ele>
        <time>2015-03-12T14:22:14Z</time>
      </trkpt>
      <trkpt lat="46.96648" lon="-0.90653">
        <ele>127</ele>
        <time>2015-03-12T14:22:16Z</time>
      </trkpt>
      <trkpt lat="46.96649" lon="-0.90655">
        <ele>127</ele>
        <time>2015-03-12T14:22:18Z</time>
      </trkpt>
      <trkpt lat="46.9665" lon="-0.90657">
        <ele>127</ele>
        <time>2015-03-12T14:22:20Z</time>
      </trkpt>
      <trkpt lat="46.96653" lon="-0.90658">
        <ele>127</ele>
        <time>2015-03-12T14:22:22Z</time>
      </trkpt>
      <trkpt lat="46.9666" lon="-0.90659">
        <ele>127</ele>
        <time>2015-03-12T14:22:24Z</time>
      </trkpt>
      <trkpt lat="46.96661" lon="-0.9066">
        <ele>127</ele>
        <time>2015-03-12T14:22:27Z</time>
      </trkpt>
      <trkpt lat="46.96661" lon="-0.90663">
        <ele>127</ele>
        <time>2015-03-12T14:22:31Z</time>
      </trkpt>
      <trkpt lat="46.96661" lon="-0.90665">
        <ele>127</ele>
        <time>2015-03-12T14:22:35Z</time>
      </trkpt>
      <trkpt lat="46.96662" lon="-0.90667">
        <ele>126</ele>
        <time>2015-03-12T14:22:37Z</time>
      </trkpt>
      <trkpt lat="46.96662" lon="-0.9067">
        <ele>124</ele>
        <time>2015-03-12T14:22:39Z</time>
      </trkpt>
      <trkpt lat="46.96663" lon="-0.9067">
        <ele>123</ele>
        <time>2015-03-12T14:22:41Z</time>
      </trkpt>
      <trkpt lat="46.96664" lon="-0.9067">
        <ele>122</ele>
        <time>2015-03-12T14:22:43Z</time>
      </trkpt>
      <trkpt lat="46.96666" lon="-0.90671">
        <ele>121</ele>
        <time>2015-03-12T14:22:46Z</time>
      </trkpt>
      <trkpt lat="46.96669" lon="-0.90675">
        <ele>119</ele>
        <time>2015-03-12T14:22:51Z</time>
      </trkpt>
      <trkpt lat="46.9667" lon="-0.90676">
        <ele>118</ele>
        <time>2015-03-12T14:22:54Z</time>
      </trkpt>
      <trkpt lat="46.96671" lon="-0.90678">
        <ele>116</ele>
        <time>2015-03-12T14:22:58Z</time>
      </trkpt>
      <trkpt lat="46.96673" lon="-0.9068">
        <ele>115</ele>
        <time>2015-03-12T14:23:00Z</time>
      </trkpt>
      <trkpt lat="46.96674" lon="-0.90682">
        <ele>113</ele>
        <time>2015-03-12T14:23:03Z</time>
      </trkpt>
      <trkpt lat="46.96678" lon="-0.90685">
        <ele>113</ele>
        <time>2015-03-12T14:23:06Z</time>
      </trkpt>
      <trkpt lat="46.96679" lon="-0.90685">
        <ele>113</ele>
        <time>2015-03-12T14:23:08Z</time>
      </trkpt>
      <trkpt lat="46.96679" lon="-0.90687">
        <ele>113</ele>
        <time>2015-03-12T14:23:11Z</time>
      </trkpt>
      <trkpt lat="46.96681" lon="-0.90688">
        <ele>113</ele>
        <time>2015-03-12T14:23:13Z</time>
      </trkpt>
      <trkpt lat="46.96682" lon="-0.90689">
        <ele>113</ele>
        <time>2015-03-12T14:23:15Z</time>
      </trkpt>
      <trkpt lat="46.96685" lon="-0.90689">
        <ele>113</ele>
        <time>2015-03-12T14:23:19Z</time>
      </trkpt>
      <trkpt lat="46.96685" lon="-0.90691">
        <ele>113</ele>
        <time>2015-03-12T14:23:21Z</time>
      </trkpt>
      <trkpt lat="46.96685" lon="-0.90693">
        <ele>113</ele>
        <time>2015-03-12T14:23:23Z</time>
      </trkpt>
      <trkpt lat="46.96687" lon="-0.90694">
        <ele>113</ele>
        <time>2015-03-12T14:23:25Z</time>
      </trkpt>
      <trkpt lat="46.96688" lon="-0.90695">
        <ele>113</ele>
        <time>2015-03-12T14:23:27Z</time>
      </trkpt>
      <trkpt lat="46.9669" lon="-0.90697">
        <ele>113</ele>
        <time>2015-03-12T14:23:29Z</time>
      </trkpt>
      <trkpt lat="46.96692" lon="-0.90699">
        <ele>113</ele>
        <time>2015-03-12T14:23:32Z</time>
      </trkpt>
      <trkpt lat="46.96693" lon="-0.90701">
        <ele>113</ele>
        <time>2015-03-12T14:23:34Z</time>
      </trkpt>
      <trkpt lat="46.96694" lon="-0.90703">
        <ele>113</ele>
        <time>2015-03-12T14:23:36Z</time>
      </trkpt>
      <trkpt lat="46.96696" lon="-0.90705">
        <ele>113</ele>
        <time>2015-03-12T14:23:38Z</time>
      </trkpt>
      <trkpt lat="46.96699" lon="-0.90705">
        <ele>113</ele>
        <time>2015-03-12T14:23:40Z</time>
      </trkpt>
      <trkpt lat="46.967" lon="-0.90707">
        <ele>113</ele>
        <time>2015-03-12T14:23:42Z</time>
      </trkpt>
      <trkpt lat="46.96702" lon="-0.90709">
        <ele>113</ele>
        <time>2015-03-12T14:23:44Z</time>
      </trkpt>
      <trkpt lat="46.96703" lon="-0.90711">
        <ele>113</ele>
        <time>2015-03-12T14:23:46Z</time>
      </trkpt>
      <trkpt lat="46.96706" lon="-0.90713">
        <ele>113</ele>
        <time>2015-03-12T14:23:48Z</time>
      </trkpt>
      <trkpt lat="46.96709" lon="-0.90716">
        <ele>112</ele>
        <time>2015-03-12T14:23:51Z</time>
      </trkpt>
      <trkpt lat="46.96708" lon="-0.90718">
        <ele>112</ele>
        <time>2015-03-12T14:23:53Z</time>
      </trkpt>
      <trkpt lat="46.96708" lon="-0.9072">
        <ele>111</ele>
        <time>2015-03-12T14:23:55Z</time>
      </trkpt>
      <trkpt lat="46.96706" lon="-0.90723">
        <ele>110</ele>
        <time>2015-03-12T14:23:57Z</time>
      </trkpt>
      <trkpt lat="46.96706" lon="-0.90725">
        <ele>108</ele>
        <time>2015-03-12T14:23:59Z</time>
      </trkpt>
      <trkpt lat="46.96704" lon="-0.90726">
        <ele>106</ele>
        <time>2015-03-12T14:24:01Z</time>
      </trkpt>
      <trkpt lat="46.96704" lon="-0.90729">
        <ele>104</ele>
        <time>2015-03-12T14:24:03Z</time>
      </trkpt>
      <trkpt lat="46.96705" lon="-0.90731">
        <ele>101</ele>
        <time>2015-03-12T14:24:06Z</time>
      </trkpt>
      <trkpt lat="46.96704" lon="-0.90733">
        <ele>99</ele>
        <time>2015-03-12T14:24:08Z</time>
      </trkpt>
      <trkpt lat="46.96704" lon="-0.90734">
        <ele>97</ele>
        <time>2015-03-12T14:24:10Z</time>
      </trkpt>
      <trkpt lat="46.96703" lon="-0.90736">
        <ele>95</ele>
        <time>2015-03-12T14:24:12Z</time>
      </trkpt>
      <trkpt lat="46.96703" lon="-0.90738">
        <ele>93</ele>
        <time>2015-03-12T14:24:15Z</time>
      </trkpt>
      <trkpt lat="46.96703" lon="-0.9074">
        <ele>93</ele>
        <time>2015-03-12T14:24:17Z</time>
      </trkpt>
      <trkpt lat="46.96704" lon="-0.90744">
        <ele>93</ele>
        <time>2015-03-12T14:24:19Z</time>
      </trkpt>
      <trkpt lat="46.96704" lon="-0.90747">
        <ele>93</ele>
        <time>2015-03-12T14:24:21Z</time>
      </trkpt>
      <trkpt lat="46.96704" lon="-0.90751">
        <ele>93</ele>
        <time>2015-03-12T14:24:24Z</time>
      </trkpt>
      <trkpt lat="46.96704" lon="-0.90755">
        <ele>93</ele>
        <time>2015-03-12T14:24:27Z</time>
      </trkpt>
      <trkpt lat="46.96704" lon="-0.90758">
        <ele>94</ele>
        <time>2015-03-12T14:24:29Z</time>
      </trkpt>
      <trkpt lat="46.96704" lon="-0.90762">
        <ele>94</ele>
        <time>2015-03-12T14:24:32Z</time>
      </trkpt>
      <trkpt lat="46.96704" lon="-0.90763">
        <ele>95</ele>
        <time>2015-03-12T14:24:34Z</time>
      </trkpt>
      <trkpt lat="46.96705" lon="-0.90766">
        <ele>95</ele>
        <time>2015-03-12T14:24:36Z</time>
      </trkpt>
      <trkpt lat="46.96705" lon="-0.90768">
        <ele>95</ele>
        <time>2015-03-12T14:24:38Z</time>
      </trkpt>
      <trkpt lat="46.96704" lon="-0.90771">
        <ele>95</ele>
        <time>2015-03-12T14:24:40Z</time>
      </trkpt>
      <trkpt lat="46.96705" lon="-0.90772">
        <ele>96</ele>
        <time>2015-03-12T14:24:42Z</time>
      </trkpt>
      <trkpt lat="46.96706" lon="-0.90775">
        <ele>96</ele>
        <time>2015-03-12T14:24:44Z</time>
      </trkpt>
      <trkpt lat="46.96705" lon="-0.90776">
        <ele>96</ele>
        <time>2015-03-12T14:24:46Z</time>
      </trkpt>
      <trkpt lat="46.96704" lon="-0.90778">
        <ele>97</ele>
        <time>2015-03-12T14:24:48Z</time>
      </trkpt>
      <trkpt lat="46.96705" lon="-0.9078">
        <ele>97</ele>
        <time>2015-03-12T14:24:50Z</time>
      </trkpt>
      <trkpt lat="46.96705" lon="-0.90782">
        <ele>98</ele>
        <time>2015-03-12T14:24:53Z</time>
      </trkpt>
      <trkpt lat="46.96704" lon="-0.90784">
        <ele>98</ele>
        <time>2015-03-12T14:24:56Z</time>
      </trkpt>
      <trkpt lat="46.96701" lon="-0.90787">
        <ele>98</ele>
        <time>2015-03-12T14:25:01Z</time>
      </trkpt>
      <trkpt lat="46.967" lon="-0.90789">
        <ele>99</ele>
        <time>2015-03-12T14:25:03Z</time>
      </trkpt>
      <trkpt lat="46.96699" lon="-0.90791">
        <ele>99</ele>
        <time>2015-03-12T14:25:05Z</time>
      </trkpt>
      <trkpt lat="46.96698" lon="-0.90792">
        <ele>99</ele>
        <time>2015-03-12T14:25:07Z</time>
      </trkpt>
      <trkpt lat="46.96695" lon="-0.90791">
        <ele>100</ele>
        <time>2015-03-12T14:25:10Z</time>
      </trkpt>
      <trkpt lat="46.96693" lon="-0.90792">
        <ele>102</ele>
        <time>2015-03-12T14:25:14Z</time>
      </trkpt>
      <trkpt lat="46.96692" lon="-0.90794">
        <ele>103</ele>
        <time>2015-03-12T14:25:16Z</time>
      </trkpt>
      <trkpt lat="46.96691" lon="-0.90796">
        <ele>106</ele>
        <time>2015-03-12T14:25:20Z</time>
      </trkpt>
      <trkpt lat="46.96688" lon="-0.90799">
        <ele>108</ele>
        <time>2015-03-12T14:25:23Z</time>
      </trkpt>
      <trkpt lat="46.96687" lon="-0.90802">
        <ele>109</ele>
        <time>2015-03-12T14:25:25Z</time>
      </trkpt>
      <trkpt lat="46.96686" lon="-0.90804">
        <ele>111</ele>
        <time>2015-03-12T14:25:27Z</time>
      </trkpt>
      <trkpt lat="46.96683" lon="-0.90806">
        <ele>113</ele>
        <time>2015-03-12T14:25:32Z</time>
      </trkpt>
      <trkpt lat="46.96682" lon="-0.90808">
        <ele>115</ele>
        <time>2015-03-12T14:25:37Z</time>
      </trkpt>
      <trkpt lat="46.96681" lon="-0.9081">
        <ele>117</ele>
        <time>2015-03-12T14:25:41Z</time>
      </trkpt>
      <trkpt lat="46.96681" lon="-0.90812">
        <ele>118</ele>
        <time>2015-03-12T14:25:43Z</time>
      </trkpt>
      <trkpt lat="46.9668" lon="-0.90814">
        <ele>118</ele>
        <time>2015-03-12T14:25:45Z</time>
      </trkpt>
      <trkpt lat="46.96678" lon="-0.90815">
        <ele>118</ele>
        <time>2015-03-12T14:25:52Z</time>
      </trkpt>
      <trkpt lat="46.96677" lon="-0.90819">
        <ele>118</ele>
        <time>2015-03-12T14:25:54Z</time>
      </trkpt>
      <trkpt lat="46.96675" lon="-0.9082">
        <ele>118</ele>
        <time>2015-03-12T14:25:58Z</time>
      </trkpt>
      <trkpt lat="46.96675" lon="-0.90822">
        <ele>118</ele>
        <time>2015-03-12T14:26:00Z</time>
      </trkpt>
      <trkpt lat="46.96672" lon="-0.90825">
        <ele>118</ele>
        <time>2015-03-12T14:26:04Z</time>
      </trkpt>
      <trkpt lat="46.9667" lon="-0.90828">
        <ele>118</ele>
        <time>2015-03-12T14:26:08Z</time>
      </trkpt>
      <trkpt lat="46.96668" lon="-0.90829">
        <ele>118</ele>
        <time>2015-03-12T14:26:10Z</time>
      </trkpt>
      <trkpt lat="46.96666" lon="-0.9083">
        <ele>117</ele>
        <time>2015-03-12T14:26:12Z</time>
      </trkpt>
      <trkpt lat="46.96664" lon="-0.90832">
        <ele>117</ele>
        <time>2015-03-12T14:26:15Z</time>
      </trkpt>
      <trkpt lat="46.96662" lon="-0.90834">
        <ele>117</ele>
        <time>2015-03-12T14:26:18Z</time>
      </trkpt>
      <trkpt lat="46.96661" lon="-0.90836">
        <ele>117</ele>
        <time>2015-03-12T14:26:20Z</time>
      </trkpt>
      <trkpt lat="46.96661" lon="-0.90839">
        <ele>117</ele>
        <time>2015-03-12T14:26:22Z</time>
      </trkpt>
      <trkpt lat="46.9666" lon="-0.90841">
        <ele>117</ele>
        <time>2015-03-12T14:26:24Z</time>
      </trkpt>
      <trkpt lat="46.96659" lon="-0.90843">
        <ele>117</ele>
        <time>2015-03-12T14:26:27Z</time>
      </trkpt>
      <trkpt lat="46.96659" lon="-0.90845">
        <ele>117</ele>
        <time>2015-03-12T14:26:29Z</time>
      </trkpt>
      <trkpt lat="46.96658" lon="-0.90847">
        <ele>117</ele>
        <time>2015-03-12T14:26:32Z</time>
      </trkpt>
      <trkpt lat="46.96655" lon="-0.90851">
        <ele>119</ele>
        <time>2015-03-12T14:26:36Z</time>
      </trkpt>
      <trkpt lat="46.96653" lon="-0.90852">
        <ele>121</ele>
        <time>2015-03-12T14:26:39Z</time>
      </trkpt>
      <trkpt lat="46.96652" lon="-0.90855">
        <ele>124</ele>
        <time>2015-03-12T14:26:41Z</time>
      </trkpt>
      <trkpt lat="46.96651" lon="-0.90858">
        <ele>126</ele>
        <time>2015-03-12T14:26:45Z</time>
      </trkpt>
      <trkpt lat="46.96651" lon="-0.90861">
        <ele>126</ele>
        <time>2015-03-12T14:26:48Z</time>
      </trkpt>
      <trkpt lat="46.96653" lon="-0.90863">
        <ele>126</ele>
        <time>2015-03-12T14:26:54Z</time>
      </trkpt>
      <trkpt lat="46.96654" lon="-0.90865">
        <ele>126</ele>
        <time>2015-03-12T14:26:56Z</time>
      </trkpt>
      <trkpt lat="46.96655" lon="-0.90866">
        <ele>126</ele>
        <time>2015-03-12T14:26:59Z</time>
      </trkpt>
      <trkpt lat="46.96657" lon="-0.90869">
        <ele>126</ele>
        <time>2015-03-12T14:27:02Z</time>
      </trkpt>
      <trkpt lat="46.96658" lon="-0.90871">
        <ele>126</ele>
        <time>2015-03-12T14:27:06Z</time>
      </trkpt>
      <trkpt lat="46.9666" lon="-0.90873">
        <ele>127</ele>
        <time>2015-03-12T14:27:08Z</time>
      </trkpt>
      <trkpt lat="46.96661" lon="-0.90874">
        <ele>127</ele>
        <time>2015-03-12T14:27:11Z</time>
      </trkpt>
      <trkpt lat="46.96664" lon="-0.90877">
        <ele>127</ele>
        <time>2015-03-12T14:27:15Z</time>
      </trkpt>
      <trkpt lat="46.96664" lon="-0.90879">
        <ele>127</ele>
        <time>2015-03-12T14:27:17Z</time>
      </trkpt>
      <trkpt lat="46.96665" lon="-0.90881">
        <ele>127</ele>
        <time>2015-03-12T14:27:21Z</time>
      </trkpt>
      <trkpt lat="46.96666" lon="-0.90883">
        <ele>127</ele>
        <time>2015-03-12T14:27:23Z</time>
      </trkpt>
      <trkpt lat="46.96668" lon="-0.90888">
        <ele>127</ele>
        <time>2015-03-12T14:27:27Z</time>
      </trkpt>
      <trkpt lat="46.96669" lon="-0.9089">
        <ele>127</ele>
        <time>2015-03-12T14:27:29Z</time>
      </trkpt>
      <trkpt lat="46.96671" lon="-0.90892">
        <ele>127</ele>
        <time>2015-03-12T14:27:32Z</time>
      </trkpt>
      <trkpt lat="46.96672" lon="-0.90894">
        <ele>127</ele>
        <time>2015-03-12T14:27:35Z</time>
      </trkpt>
      <trkpt lat="46.96675" lon="-0.90896">
        <ele>127</ele>
        <time>2015-03-12T14:27:38Z</time>
      </trkpt>
      <trkpt lat="46.96676" lon="-0.90899">
        <ele>127</ele>
        <time>2015-03-12T14:27:42Z</time>
      </trkpt>
      <trkpt lat="46.96679" lon="-0.90902">
        <ele>127</ele>
        <time>2015-03-12T14:27:45Z</time>
      </trkpt>
      <trkpt lat="46.96682" lon="-0.90905">
        <ele>128</ele>
        <time>2015-03-12T14:27:48Z</time>
      </trkpt>
      <trkpt lat="46.96682" lon="-0.90907">
        <ele>129</ele>
        <time>2015-03-12T14:27:50Z</time>
      </trkpt>
      <trkpt lat="46.96683" lon="-0.9091">
        <ele>130</ele>
        <time>2015-03-12T14:27:53Z</time>
      </trkpt>
      <trkpt lat="46.96686" lon="-0.90912">
        <ele>133</ele>
        <time>2015-03-12T14:27:56Z</time>
      </trkpt>
      <trkpt lat="46.96688" lon="-0.90914">
        <ele>134</ele>
        <time>2015-03-12T14:28:00Z</time>
      </trkpt>
      <trkpt lat="46.96691" lon="-0.90912">
        <ele>135</ele>
        <time>2015-03-12T14:28:03Z</time>
      </trkpt>
      <trkpt lat="46.96693" lon="-0.90913">
        <ele>137</ele>
        <time>2015-03-12T14:28:09Z</time>
      </trkpt>
      <trkpt lat="46.96695" lon="-0.90915">
        <ele>137</ele>
        <time>2015-03-12T14:28:12Z</time>
      </trkpt>
      <trkpt lat="46.96697" lon="-0.90916">
        <ele>137</ele>
        <time>2015-03-12T14:28:15Z</time>
      </trkpt>
      <trkpt lat="46.967" lon="-0.90918">
        <ele>137</ele>
        <time>2015-03-12T14:28:18Z</time>
      </trkpt>
      <trkpt lat="46.96702" lon="-0.90918">
        <ele>137</ele>
        <time>2015-03-12T14:28:21Z</time>
      </trkpt>
      <trkpt lat="46.96706" lon="-0.9092">
        <ele>137</ele>
        <time>2015-03-12T14:28:23Z</time>
      </trkpt>
      <trkpt lat="46.96709" lon="-0.90922">
        <ele>137</ele>
        <time>2015-03-12T14:28:28Z</time>
      </trkpt>
      <trkpt lat="46.96713" lon="-0.90922">
        <ele>137</ele>
        <time>2015-03-12T14:28:33Z</time>
      </trkpt>
      <trkpt lat="46.96717" lon="-0.90924">
        <ele>137</ele>
        <time>2015-03-12T14:28:38Z</time>
      </trkpt>
      <trkpt lat="46.9672" lon="-0.90927">
        <ele>135</ele>
        <time>2015-03-12T14:28:43Z</time>
      </trkpt>
      <trkpt lat="46.96723" lon="-0.90929">
        <ele>134</ele>
        <time>2015-03-12T14:28:46Z</time>
      </trkpt>
      <trkpt lat="46.96724" lon="-0.9093">
        <ele>134</ele>
        <time>2015-03-12T14:28:49Z</time>
      </trkpt>
      <trkpt lat="46.96727" lon="-0.90932">
        <ele>134</ele>
        <time>2015-03-12T14:28:51Z</time>
      </trkpt>
      <trkpt lat="46.96729" lon="-0.90932">
        <ele>134</ele>
        <time>2015-03-12T14:28:54Z</time>
      </trkpt>
      <trkpt lat="46.96731" lon="-0.90933">
        <ele>134</ele>
        <time>2015-03-12T14:28:56Z</time>
      </trkpt>
      <trkpt lat="46.96734" lon="-0.90936">
        <ele>133</ele>
        <time>2015-03-12T14:29:00Z</time>
      </trkpt>
      <trkpt lat="46.96737" lon="-0.90938">
        <ele>133</ele>
        <time>2015-03-12T14:29:05Z</time>
      </trkpt>
      <trkpt lat="46.96739" lon="-0.9094">
        <ele>132</ele>
        <time>2015-03-12T14:29:10Z</time>
      </trkpt>
      <trkpt lat="46.96741" lon="-0.9094">
        <ele>131</ele>
        <time>2015-03-12T14:29:12Z</time>
      </trkpt>
      <trkpt lat="46.96742" lon="-0.90941">
        <ele>131</ele>
        <time>2015-03-12T14:29:16Z</time>
      </trkpt>
      <trkpt lat="46.96744" lon="-0.90943">
        <ele>131</ele>
        <time>2015-03-12T14:29:21Z</time>
      </trkpt>
      <trkpt lat="46.96747" lon="-0.90945">
        <ele>131</ele>
        <time>2015-03-12T14:29:27Z</time>
      </trkpt>
      <trkpt lat="46.96748" lon="-0.90947">
        <ele>131</ele>
        <time>2015-03-12T14:29:29Z</time>
      </trkpt>
      <trkpt lat="46.9675" lon="-0.90949">
        <ele>131</ele>
        <time>2015-03-12T14:29:33Z</time>
      </trkpt>
      <trkpt lat="46.96751" lon="-0.90949">
        <ele>131</ele>
        <time>2015-03-12T14:29:35Z</time>
      </trkpt>
      <trkpt lat="46.96753" lon="-0.9095">
        <ele>131</ele>
        <time>2015-03-12T14:29:38Z</time>
      </trkpt>
      <trkpt lat="46.96753" lon="-0.90953">
        <ele>131</ele>
        <time>2015-03-12T14:29:40Z</time>
      </trkpt>
      <trkpt lat="46.96755" lon="-0.90955">
        <ele>131</ele>
        <time>2015-03-12T14:29:44Z</time>
      </trkpt>
      <trkpt lat="46.96759" lon="-0.90957">
        <ele>131</ele>
        <time>2015-03-12T14:29:47Z</time>
      </trkpt>
      <trkpt lat="46.96759" lon="-0.9096">
        <ele>131</ele>
        <time>2015-03-12T14:29:51Z</time>
      </trkpt>
      <trkpt lat="46.9676" lon="-0.90962">
        <ele>131</ele>
        <time>2015-03-12T14:29:53Z</time>
      </trkpt>
      <trkpt lat="46.96761" lon="-0.90964">
        <ele>131</ele>
        <time>2015-03-12T14:29:56Z</time>
      </trkpt>
      <trkpt lat="46.96762" lon="-0.90965">
        <ele>130</ele>
        <time>2015-03-12T14:30:00Z</time>
      </trkpt>
      <trkpt lat="46.96764" lon="-0.90967">
        <ele>130</ele>
        <time>2015-03-12T14:30:05Z</time>
      </trkpt>
      <trkpt lat="46.96765" lon="-0.9097">
        <ele>129</ele>
        <time>2015-03-12T14:30:10Z</time>
      </trkpt>
      <trkpt lat="46.96768" lon="-0.9097">
        <ele>129</ele>
        <time>2015-03-12T14:30:12Z</time>
      </trkpt>
      <trkpt lat="46.96769" lon="-0.9097">
        <ele>128</ele>
        <time>2015-03-12T14:30:15Z</time>
      </trkpt>
      <trkpt lat="46.9677" lon="-0.90972">
        <ele>128</ele>
        <time>2015-03-12T14:30:17Z</time>
      </trkpt>
      <trkpt lat="46.96771" lon="-0.90974">
        <ele>128</ele>
        <time>2015-03-12T14:30:21Z</time>
      </trkpt>
      <trkpt lat="46.96773" lon="-0.90974">
        <ele>128</ele>
        <time>2015-03-12T14:30:23Z</time>
      </trkpt>
      <trkpt lat="46.96774" lon="-0.90976">
        <ele>128</ele>
        <time>2015-03-12T14:30:25Z</time>
      </trkpt>
      <trkpt lat="46.96776" lon="-0.90977">
        <ele>128</ele>
        <time>2015-03-12T14:30:28Z</time>
      </trkpt>
      <trkpt lat="46.96778" lon="-0.9098">
        <ele>126</ele>
        <time>2015-03-12T14:30:31Z</time>
      </trkpt>
      <trkpt lat="46.96778" lon="-0.90982">
        <ele>125</ele>
        <time>2015-03-12T14:30:34Z</time>
      </trkpt>
      <trkpt lat="46.9678" lon="-0.90987">
        <ele>122</ele>
        <time>2015-03-12T14:30:39Z</time>
      </trkpt>
      <trkpt lat="46.96782" lon="-0.90991">
        <ele>121</ele>
        <time>2015-03-12T14:30:42Z</time>
      </trkpt>
      <trkpt lat="46.96783" lon="-0.90991">
        <ele>121</ele>
        <time>2015-03-12T14:30:45Z</time>
      </trkpt>
      <trkpt lat="46.96785" lon="-0.90992">
        <ele>121</ele>
        <time>2015-03-12T14:30:47Z</time>
      </trkpt>
      <trkpt lat="46.96787" lon="-0.90993">
        <ele>121</ele>
        <time>2015-03-12T14:30:50Z</time>
      </trkpt>
      <trkpt lat="46.96787" lon="-0.90996">
        <ele>121</ele>
        <time>2015-03-12T14:30:55Z</time>
      </trkpt>
      <trkpt lat="46.96788" lon="-0.90997">
        <ele>123</ele>
        <time>2015-03-12T14:30:57Z</time>
      </trkpt>
      <trkpt lat="46.96789" lon="-0.90998">
        <ele>125</ele>
        <time>2015-03-12T14:31:00Z</time>
      </trkpt>
      <trkpt lat="46.96791" lon="-0.91001">
        <ele>127</ele>
        <time>2015-03-12T14:31:04Z</time>
      </trkpt>
      <trkpt lat="46.96791" lon="-0.91002">
        <ele>127</ele>
        <time>2015-03-12T14:31:08Z</time>
      </trkpt>
      <trkpt lat="46.96794" lon="-0.91004">
        <ele>127</ele>
        <time>2015-03-12T14:31:12Z</time>
      </trkpt>
      <trkpt lat="46.96796" lon="-0.91005">
        <ele>127</ele>
        <time>2015-03-12T14:31:14Z</time>
      </trkpt>
      <trkpt lat="46.96798" lon="-0.91006">
        <ele>127</ele>
        <time>2015-03-12T14:31:16Z</time>
      </trkpt>
      <trkpt lat="46.96799" lon="-0.91008">
        <ele>127</ele>
        <time>2015-03-12T14:31:20Z</time>
      </trkpt>
      <trkpt lat="46.96799" lon="-0.91011">
        <ele>127</ele>
        <time>2015-03-12T14:31:23Z</time>
      </trkpt>
      <trkpt lat="46.96799" lon="-0.91013">
        <ele>125</ele>
        <time>2015-03-12T14:31:26Z</time>
      </trkpt>
      <trkpt lat="46.96801" lon="-0.91015">
        <ele>123</ele>
        <time>2015-03-12T14:31:28Z</time>
      </trkpt>
      <trkpt lat="46.96803" lon="-0.91016">
        <ele>121</ele>
        <time>2015-03-12T14:31:32Z</time>
      </trkpt>
      <trkpt lat="46.96804" lon="-0.91019">
        <ele>119</ele>
        <time>2015-03-12T14:31:35Z</time>
      </trkpt>
      <trkpt lat="46.96805" lon="-0.91021">
        <ele>116</ele>
        <time>2015-03-12T14:31:39Z</time>
      </trkpt>
      <trkpt lat="46.96805" lon="-0.91025">
        <ele>114</ele>
        <time>2015-03-12T14:31:42Z</time>
      </trkpt>
      <trkpt lat="46.96806" lon="-0.91026">
        <ele>114</ele>
        <time>2015-03-12T14:31:45Z</time>
      </trkpt>
      <trkpt lat="46.96808" lon="-0.91028">
        <ele>114</ele>
        <time>2015-03-12T14:31:47Z</time>
      </trkpt>
      <trkpt lat="46.96809" lon="-0.9103">
        <ele>114</ele>
        <time>2015-03-12T14:31:49Z</time>
      </trkpt>
      <trkpt lat="46.9681" lon="-0.91033">
        <ele>114</ele>
        <time>2015-03-12T14:31:52Z</time>
      </trkpt>
      <trkpt lat="46.96812" lon="-0.91036">
        <ele>113</ele>
        <time>2015-03-12T14:31:55Z</time>
      </trkpt>
      <trkpt lat="46.96813" lon="-0.91037">
        <ele>113</ele>
        <time>2015-03-12T14:31:57Z</time>
      </trkpt>
      <trkpt lat="46.96815" lon="-0.91037">
        <ele>112</ele>
        <time>2015-03-12T14:31:59Z</time>
      </trkpt>
      <trkpt lat="46.96815" lon="-0.91039">
        <ele>112</ele>
        <time>2015-03-12T14:32:02Z</time>
      </trkpt>
      <trkpt lat="46.96816" lon="-0.91042">
        <ele>111</ele>
        <time>2015-03-12T14:32:04Z</time>
      </trkpt>
      <trkpt lat="46.96817" lon="-0.91042">
        <ele>111</ele>
        <time>2015-03-12T14:32:08Z</time>
      </trkpt>
      <trkpt lat="46.96818" lon="-0.91044">
        <ele>111</ele>
        <time>2015-03-12T14:32:10Z</time>
      </trkpt>
      <trkpt lat="46.96819" lon="-0.91047">
        <ele>110</ele>
        <time>2015-03-12T14:32:12Z</time>
      </trkpt>
      <trkpt lat="46.9682" lon="-0.91048">
        <ele>109</ele>
        <time>2015-03-12T14:32:14Z</time>
      </trkpt>
      <trkpt lat="46.96821" lon="-0.9105">
        <ele>107</ele>
        <time>2015-03-12T14:32:17Z</time>
      </trkpt>
      <trkpt lat="46.96823" lon="-0.9105">
        <ele>106</ele>
        <time>2015-03-12T14:32:24Z</time>
      </trkpt>
      <trkpt lat="46.96824" lon="-0.9105">
        <ele>106</ele>
        <time>2015-03-12T14:32:26Z</time>
      </trkpt>
      <trkpt lat="46.96824" lon="-0.91052">
        <ele>106</ele>
        <time>2015-03-12T14:32:28Z</time>
      </trkpt>
      <trkpt lat="46.96825" lon="-0.91054">
        <ele>106</ele>
        <time>2015-03-12T14:32:34Z</time>
      </trkpt>
      <trkpt lat="46.96825" lon="-0.91056">
        <ele>106</ele>
        <time>2015-03-12T14:32:36Z</time>
      </trkpt>
      <trkpt lat="46.96824" lon="-0.91057">
        <ele>106</ele>
        <time>2015-03-12T14:32:39Z</time>
      </trkpt>
      <trkpt lat="46.96823" lon="-0.91059">
        <ele>106</ele>
        <time>2015-03-12T14:32:41Z</time>
      </trkpt>
      <trkpt lat="46.96822" lon="-0.91061">
        <ele>106</ele>
        <time>2015-03-12T14:32:43Z</time>
      </trkpt>
      <trkpt lat="46.96821" lon="-0.91063">
        <ele>105</ele>
        <time>2015-03-12T14:32:45Z</time>
      </trkpt>
      <trkpt lat="46.9682" lon="-0.91065">
        <ele>105</ele>
        <time>2015-03-12T14:32:47Z</time>
      </trkpt>
      <trkpt lat="46.96816" lon="-0.91069">
        <ele>105</ele>
        <time>2015-03-12T14:32:49Z</time>
      </trkpt>
      <trkpt lat="46.96821" lon="-0.91071">
        <ele>106</ele>
        <time>2015-03-12T14:32:52Z</time>
      </trkpt>
      <trkpt lat="46.9682" lon="-0.91075">
        <ele>108</ele>
        <time>2015-03-12T14:32:54Z</time>
      </trkpt>
      <trkpt lat="46.9682" lon="-0.91077">
        <ele>110</ele>
        <time>2015-03-12T14:32:56Z</time>
      </trkpt>
      <trkpt lat="46.9682" lon="-0.91078">
        <ele>110</ele>
        <time>2015-03-12T14:32:58Z</time>
      </trkpt>
      <trkpt lat="46.9682" lon="-0.9108">
        <ele>110</ele>
        <time>2015-03-12T14:33:00Z</time>
      </trkpt>
      <trkpt lat="46.9682" lon="-0.91083">
        <ele>110</ele>
        <time>2015-03-12T14:33:02Z</time>
      </trkpt>
      <trkpt lat="46.96821" lon="-0.91084">
        <ele>110</ele>
        <time>2015-03-12T14:33:04Z</time>
      </trkpt>
      <trkpt lat="46.96823" lon="-0.91085">
        <ele>110</ele>
        <time>2015-03-12T14:33:06Z</time>
      </trkpt>
      <trkpt lat="46.96823" lon="-0.91087">
        <ele>110</ele>
        <time>2015-03-12T14:33:08Z</time>
      </trkpt>
      <trkpt lat="46.96824" lon="-0.91088">
        <ele>110</ele>
        <time>2015-03-12T14:33:10Z</time>
      </trkpt>
      <trkpt lat="46.96824" lon="-0.9109">
        <ele>110</ele>
        <time>2015-03-12T14:33:12Z</time>
      </trkpt>
      <trkpt lat="46.96825" lon="-0.91092">
        <ele>110</ele>
        <time>2015-03-12T14:33:14Z</time>
      </trkpt>
      <trkpt lat="46.96826" lon="-0.91093">
        <ele>110</ele>
        <time>2015-03-12T14:33:16Z</time>
      </trkpt>
      <trkpt lat="46.96827" lon="-0.91095">
        <ele>110</ele>
        <time>2015-03-12T14:33:18Z</time>
      </trkpt>
      <trkpt lat="46.96828" lon="-0.91097">
        <ele>110</ele>
        <time>2015-03-12T14:33:20Z</time>
      </trkpt>
      <trkpt lat="46.9683" lon="-0.91099">
        <ele>109</ele>
        <time>2015-03-12T14:33:23Z</time>
      </trkpt>
      <trkpt lat="46.96832" lon="-0.91101">
        <ele>109</ele>
        <time>2015-03-12T14:33:25Z</time>
      </trkpt>
      <trkpt lat="46.96833" lon="-0.91105">
        <ele>108</ele>
        <time>2015-03-12T14:33:28Z</time>
      </trkpt>
      <trkpt lat="46.96832" lon="-0.91108">
        <ele>106</ele>
        <time>2015-03-12T14:33:30Z</time>
      </trkpt>
      <trkpt lat="46.96832" lon="-0.91112">
        <ele>105</ele>
        <time>2015-03-12T14:33:32Z</time>
      </trkpt>
      <trkpt lat="46.96832" lon="-0.91115">
        <ele>104</ele>
        <time>2015-03-12T14:33:34Z</time>
      </trkpt>
      <trkpt lat="46.96833" lon="-0.91118">
        <ele>104</ele>
        <time>2015-03-12T14:33:36Z</time>
      </trkpt>
      <trkpt lat="46.96833" lon="-0.9112">
        <ele>103</ele>
        <time>2015-03-12T14:33:38Z</time>
      </trkpt>
      <trkpt lat="46.96832" lon="-0.91123">
        <ele>103</ele>
        <time>2015-03-12T14:33:40Z</time>
      </trkpt>
      <trkpt lat="46.96831" lon="-0.91127">
        <ele>101</ele>
        <time>2015-03-12T14:33:43Z</time>
      </trkpt>
      <trkpt lat="46.96832" lon="-0.91131">
        <ele>101</ele>
        <time>2015-03-12T14:33:45Z</time>
      </trkpt>
      <trkpt lat="46.96831" lon="-0.91135">
        <ele>100</ele>
        <time>2015-03-12T14:33:48Z</time>
      </trkpt>
      <trkpt lat="46.9683" lon="-0.91138">
        <ele>100</ele>
        <time>2015-03-12T14:33:50Z</time>
      </trkpt>
      <trkpt lat="46.9683" lon="-0.91141">
        <ele>100</ele>
        <time>2015-03-12T14:33:52Z</time>
      </trkpt>
      <trkpt lat="46.9683" lon="-0.91144">
        <ele>100</ele>
        <time>2015-03-12T14:33:54Z</time>
      </trkpt>
      <trkpt lat="46.96828" lon="-0.91148">
        <ele>103</ele>
        <time>2015-03-12T14:33:57Z</time>
      </trkpt>
      <trkpt lat="46.96827" lon="-0.9115">
        <ele>105</ele>
        <time>2015-03-12T14:33:59Z</time>
      </trkpt>
      <trkpt lat="46.96827" lon="-0.91153">
        <ele>105</ele>
        <time>2015-03-12T14:34:01Z</time>
      </trkpt>
      <trkpt lat="46.96828" lon="-0.91154">
        <ele>105</ele>
        <time>2015-03-12T14:34:03Z</time>
      </trkpt>
      <trkpt lat="46.96828" lon="-0.91157">
        <ele>105</ele>
        <time>2015-03-12T14:34:05Z</time>
      </trkpt>
      <trkpt lat="46.96827" lon="-0.9116">
        <ele>105</ele>
        <time>2015-03-12T14:34:07Z</time>
      </trkpt>
      <trkpt lat="46.96829" lon="-0.91164">
        <ele>105</ele>
        <time>2015-03-12T14:34:11Z</time>
      </trkpt>
      <trkpt lat="46.9683" lon="-0.91167">
        <ele>106</ele>
        <time>2015-03-12T14:34:13Z</time>
      </trkpt>
      <trkpt lat="46.9683" lon="-0.9117">
        <ele>106</ele>
        <time>2015-03-12T14:34:16Z</time>
      </trkpt>
      <trkpt lat="46.96829" lon="-0.91172">
        <ele>106</ele>
        <time>2015-03-12T14:34:18Z</time>
      </trkpt>
      <trkpt lat="46.96829" lon="-0.91175">
        <ele>106</ele>
        <time>2015-03-12T14:34:21Z</time>
      </trkpt>
      <trkpt lat="46.96828" lon="-0.91179">
        <ele>106</ele>
        <time>2015-03-12T14:34:24Z</time>
      </trkpt>
      <trkpt lat="46.96829" lon="-0.91183">
        <ele>106</ele>
        <time>2015-03-12T14:34:26Z</time>
      </trkpt>
      <trkpt lat="46.9683" lon="-0.91187">
        <ele>106</ele>
        <time>2015-03-12T14:34:29Z</time>
      </trkpt>
      <trkpt lat="46.9683" lon="-0.91189">
        <ele>106</ele>
        <time>2015-03-12T14:34:31Z</time>
      </trkpt>
      <trkpt lat="46.96831" lon="-0.91191">
        <ele>106</ele>
        <time>2015-03-12T14:34:33Z</time>
      </trkpt>
      <trkpt lat="46.96831" lon="-0.91193">
        <ele>106</ele>
        <time>2015-03-12T14:34:35Z</time>
      </trkpt>
      <trkpt lat="46.96831" lon="-0.91195">
        <ele>106</ele>
        <time>2015-03-12T14:34:37Z</time>
      </trkpt>
      <trkpt lat="46.96831" lon="-0.91198">
        <ele>106</ele>
        <time>2015-03-12T14:34:39Z</time>
      </trkpt>
      <trkpt lat="46.9683" lon="-0.912">
        <ele>106</ele>
        <time>2015-03-12T14:34:41Z</time>
      </trkpt>
      <trkpt lat="46.9683" lon="-0.91204">
        <ele>106</ele>
        <time>2015-03-12T14:34:44Z</time>
      </trkpt>
      <trkpt lat="46.96831" lon="-0.91206">
        <ele>106</ele>
        <time>2015-03-12T14:34:46Z</time>
      </trkpt>
      <trkpt lat="46.96832" lon="-0.91207">
        <ele>106</ele>
        <time>2015-03-12T14:34:48Z</time>
      </trkpt>
      <trkpt lat="46.96832" lon="-0.91209">
        <ele>106</ele>
        <time>2015-03-12T14:34:50Z</time>
      </trkpt>
      <trkpt lat="46.96833" lon="-0.91211">
        <ele>106</ele>
        <time>2015-03-12T14:34:52Z</time>
      </trkpt>
      <trkpt lat="46.96832" lon="-0.91214">
        <ele>106</ele>
        <time>2015-03-12T14:34:54Z</time>
      </trkpt>
      <trkpt lat="46.96831" lon="-0.91219">
        <ele>106</ele>
        <time>2015-03-12T14:34:57Z</time>
      </trkpt>
      <trkpt lat="46.96831" lon="-0.91221">
        <ele>106</ele>
        <time>2015-03-12T14:34:59Z</time>
      </trkpt>
      <trkpt lat="46.96832" lon="-0.91226">
        <ele>106</ele>
        <time>2015-03-12T14:35:02Z</time>
      </trkpt>
      <trkpt lat="46.96832" lon="-0.91228">
        <ele>106</ele>
        <time>2015-03-12T14:35:04Z</time>
      </trkpt>
      <trkpt lat="46.96832" lon="-0.9123">
        <ele>106</ele>
        <time>2015-03-12T14:35:06Z</time>
      </trkpt>
      <trkpt lat="46.96832" lon="-0.91234">
        <ele>106</ele>
        <time>2015-03-12T14:35:09Z</time>
      </trkpt>
      <trkpt lat="46.96831" lon="-0.91235">
        <ele>106</ele>
        <time>2015-03-12T14:35:11Z</time>
      </trkpt>
      <trkpt lat="46.96832" lon="-0.91238">
        <ele>106</ele>
        <time>2015-03-12T14:35:14Z</time>
      </trkpt>
      <trkpt lat="46.96833" lon="-0.9124">
        <ele>106</ele>
        <time>2015-03-12T14:35:16Z</time>
      </trkpt>
      <trkpt lat="46.96833" lon="-0.91242">
        <ele>106</ele>
        <time>2015-03-12T14:35:19Z</time>
      </trkpt>
      <trkpt lat="46.96833" lon="-0.91245">
        <ele>106</ele>
        <time>2015-03-12T14:35:22Z</time>
      </trkpt>
      <trkpt lat="46.96832" lon="-0.91249">
        <ele>106</ele>
        <time>2015-03-12T14:35:25Z</time>
      </trkpt>
      <trkpt lat="46.96831" lon="-0.91251">
        <ele>106</ele>
        <time>2015-03-12T14:35:27Z</time>
      </trkpt>
      <trkpt lat="46.96831" lon="-0.91252">
        <ele>106</ele>
        <time>2015-03-12T14:35:29Z</time>
      </trkpt>
      <trkpt lat="46.9683" lon="-0.91253">
        <ele>106</ele>
        <time>2015-03-12T14:35:31Z</time>
      </trkpt>
      <trkpt lat="46.96828" lon="-0.91254">
        <ele>107</ele>
        <time>2015-03-12T14:35:33Z</time>
      </trkpt>
      <trkpt lat="46.96827" lon="-0.91257">
        <ele>108</ele>
        <time>2015-03-12T14:35:35Z</time>
      </trkpt>
      <trkpt lat="46.96827" lon="-0.9126">
        <ele>108</ele>
        <time>2015-03-12T14:35:37Z</time>
      </trkpt>
      <trkpt lat="46.96828" lon="-0.91263">
        <ele>108</ele>
        <time>2015-03-12T14:35:39Z</time>
      </trkpt>
      <trkpt lat="46.96827" lon="-0.91266">
        <ele>108</ele>
        <time>2015-03-12T14:35:41Z</time>
      </trkpt>
      <trkpt lat="46.96827" lon="-0.9127">
        <ele>108</ele>
        <time>2015-03-12T14:35:44Z</time>
      </trkpt>
      <trkpt lat="46.96827" lon="-0.91272">
        <ele>108</ele>
        <time>2015-03-12T14:35:46Z</time>
      </trkpt>
      <trkpt lat="46.96827" lon="-0.91273">
        <ele>108</ele>
        <time>2015-03-12T14:35:48Z</time>
      </trkpt>
      <trkpt lat="46.96828" lon="-0.91276">
        <ele>108</ele>
        <time>2015-03-12T14:35:53Z</time>
      </trkpt>
      <trkpt lat="46.96827" lon="-0.91278">
        <ele>108</ele>
        <time>2015-03-12T14:35:55Z</time>
      </trkpt>
      <trkpt lat="46.96826" lon="-0.9128">
        <ele>108</ele>
        <time>2015-03-12T14:35:57Z</time>
      </trkpt>
      <trkpt lat="46.96825" lon="-0.91282">
        <ele>108</ele>
        <time>2015-03-12T14:35:59Z</time>
      </trkpt>
      <trkpt lat="46.96825" lon="-0.91285">
        <ele>108</ele>
        <time>2015-03-12T14:36:01Z</time>
      </trkpt>
      <trkpt lat="46.96824" lon="-0.91289">
        <ele>108</ele>
        <time>2015-03-12T14:36:04Z</time>
      </trkpt>
      <trkpt lat="46.96822" lon="-0.91291">
        <ele>107</ele>
        <time>2015-03-12T14:36:07Z</time>
      </trkpt>
      <trkpt lat="46.96821" lon="-0.91295">
        <ele>106</ele>
        <time>2015-03-12T14:36:09Z</time>
      </trkpt>
      <trkpt lat="46.9682" lon="-0.91298">
        <ele>106</ele>
        <time>2015-03-12T14:36:11Z</time>
      </trkpt>
      <trkpt lat="46.9682" lon="-0.91301">
        <ele>106</ele>
        <time>2015-03-12T14:36:13Z</time>
      </trkpt>
      <trkpt lat="46.96819" lon="-0.91304">
        <ele>106</ele>
        <time>2015-03-12T14:36:15Z</time>
      </trkpt>
      <trkpt lat="46.96818" lon="-0.91306">
        <ele>106</ele>
        <time>2015-03-12T14:36:19Z</time>
      </trkpt>
      <trkpt lat="46.96817" lon="-0.91305">
        <ele>106</ele>
        <time>2015-03-12T14:36:23Z</time>
      </trkpt>
      <trkpt lat="46.96818" lon="-0.91307">
        <ele>105</ele>
        <time>2015-03-12T14:36:26Z</time>
      </trkpt>
      <trkpt lat="46.96818" lon="-0.9131">
        <ele>105</ele>
        <time>2015-03-12T14:36:28Z</time>
      </trkpt>
      <trkpt lat="46.96819" lon="-0.91312">
        <ele>104</ele>
        <time>2015-03-12T14:36:30Z</time>
      </trkpt>
      <trkpt lat="46.96819" lon="-0.91315">
        <ele>104</ele>
        <time>2015-03-12T14:36:32Z</time>
      </trkpt>
      <trkpt lat="46.96819" lon="-0.91318">
        <ele>102</ele>
        <time>2015-03-12T14:36:35Z</time>
      </trkpt>
      <trkpt lat="46.96818" lon="-0.9132">
        <ele>101</ele>
        <time>2015-03-12T14:36:37Z</time>
      </trkpt>
      <trkpt lat="46.96817" lon="-0.91321">
        <ele>100</ele>
        <time>2015-03-12T14:36:41Z</time>
      </trkpt>
      <trkpt lat="46.96815" lon="-0.91322">
        <ele>100</ele>
        <time>2015-03-12T14:36:44Z</time>
      </trkpt>
      <trkpt lat="46.96814" lon="-0.91325">
        <ele>101</ele>
        <time>2015-03-12T14:36:47Z</time>
      </trkpt>
      <trkpt lat="46.96813" lon="-0.91325">
        <ele>104</ele>
        <time>2015-03-12T14:36:50Z</time>
      </trkpt>
      <trkpt lat="46.96812" lon="-0.91327">
        <ele>110</ele>
        <time>2015-03-12T14:36:56Z</time>
      </trkpt>
      <trkpt lat="46.96812" lon="-0.91329">
        <ele>111</ele>
        <time>2015-03-12T14:36:59Z</time>
      </trkpt>
      <trkpt lat="46.96812" lon="-0.91331">
        <ele>111</ele>
        <time>2015-03-12T14:37:01Z</time>
      </trkpt>
      <trkpt lat="46.96811" lon="-0.91332">
        <ele>111</ele>
        <time>2015-03-12T14:37:03Z</time>
      </trkpt>
      <trkpt lat="46.96809" lon="-0.91335">
        <ele>111</ele>
        <time>2015-03-12T14:37:05Z</time>
      </trkpt>
      <trkpt lat="46.96808" lon="-0.91336">
        <ele>110</ele>
        <time>2015-03-12T14:37:07Z</time>
      </trkpt>
      <trkpt lat="46.96807" lon="-0.91338">
        <ele>110</ele>
        <time>2015-03-12T14:37:09Z</time>
      </trkpt>
      <trkpt lat="46.96806" lon="-0.91343">
        <ele>108</ele>
        <time>2015-03-12T14:37:12Z</time>
      </trkpt>
      <trkpt lat="46.96806" lon="-0.91344">
        <ele>107</ele>
        <time>2015-03-12T14:37:14Z</time>
      </trkpt>
      <trkpt lat="46.96804" lon="-0.91348">
        <ele>105</ele>
        <time>2015-03-12T14:37:17Z</time>
      </trkpt>
      <trkpt lat="46.96802" lon="-0.91348">
        <ele>104</ele>
        <time>2015-03-12T14:37:19Z</time>
      </trkpt>
      <trkpt lat="46.968" lon="-0.91351">
        <ele>103</ele>
        <time>2015-03-12T14:37:21Z</time>
      </trkpt>
      <trkpt lat="46.96798" lon="-0.91355">
        <ele>103</ele>
        <time>2015-03-12T14:37:23Z</time>
      </trkpt>
      <trkpt lat="46.96797" lon="-0.91358">
        <ele>102</ele>
        <time>2015-03-12T14:37:25Z</time>
      </trkpt>
      <trkpt lat="46.96797" lon="-0.9136">
        <ele>102</ele>
        <time>2015-03-12T14:37:27Z</time>
      </trkpt>
      <trkpt lat="46.96798" lon="-0.91361">
        <ele>102</ele>
        <time>2015-03-12T14:37:31Z</time>
      </trkpt>
      <trkpt lat="46.96798" lon="-0.91363">
        <ele>102</ele>
        <time>2015-03-12T14:37:33Z</time>
      </trkpt>
      <trkpt lat="46.96798" lon="-0.91365">
        <ele>102</ele>
        <time>2015-03-12T14:37:36Z</time>
      </trkpt>
      <trkpt lat="46.96799" lon="-0.91367">
        <ele>102</ele>
        <time>2015-03-12T14:37:39Z</time>
      </trkpt>
      <trkpt lat="46.96799" lon="-0.9137">
        <ele>102</ele>
        <time>2015-03-12T14:37:41Z</time>
      </trkpt>
      <trkpt lat="46.96797" lon="-0.91373">
        <ele>102</ele>
        <time>2015-03-12T14:37:44Z</time>
      </trkpt>
      <trkpt lat="46.96798" lon="-0.91375">
        <ele>102</ele>
        <time>2015-03-12T14:37:46Z</time>
      </trkpt>
      <trkpt lat="46.968" lon="-0.91375">
        <ele>102</ele>
        <time>2015-03-12T14:37:50Z</time>
      </trkpt>
      <trkpt lat="46.96801" lon="-0.91376">
        <ele>102</ele>
        <time>2015-03-12T14:37:52Z</time>
      </trkpt>
      <trkpt lat="46.968" lon="-0.91378">
        <ele>102</ele>
        <time>2015-03-12T14:37:54Z</time>
      </trkpt>
      <trkpt lat="46.96798" lon="-0.91378">
        <ele>102</ele>
        <time>2015-03-12T14:37:56Z</time>
      </trkpt>
      <trkpt lat="46.96797" lon="-0.91379">
        <ele>98</ele>
        <time>2015-03-12T14:38:00Z</time>
      </trkpt>
      <trkpt lat="46.96795" lon="-0.91381">
        <ele>97</ele>
        <time>2015-03-12T14:38:03Z</time>
      </trkpt>
      <trkpt lat="46.96795" lon="-0.91383">
        <ele>97</ele>
        <time>2015-03-12T14:38:05Z</time>
      </trkpt>
      <trkpt lat="46.96797" lon="-0.91385">
        <ele>97</ele>
        <time>2015-03-12T14:38:07Z</time>
      </trkpt>
      <trkpt lat="46.96797" lon="-0.91387">
        <ele>97</ele>
        <time>2015-03-12T14:38:09Z</time>
      </trkpt>
      <trkpt lat="46.96794" lon="-0.91389">
        <ele>97</ele>
        <time>2015-03-12T14:38:11Z</time>
      </trkpt>
      <trkpt lat="46.96792" lon="-0.9139">
        <ele>97</ele>
        <time>2015-03-12T14:38:13Z</time>
      </trkpt>
      <trkpt lat="46.9679" lon="-0.91391">
        <ele>96</ele>
        <time>2015-03-12T14:38:15Z</time>
      </trkpt>
      <trkpt lat="46.96787" lon="-0.91391">
        <ele>94</ele>
        <time>2015-03-12T14:38:17Z</time>
      </trkpt>
      <trkpt lat="46.96785" lon="-0.91391">
        <ele>93</ele>
        <time>2015-03-12T14:38:19Z</time>
      </trkpt>
      <trkpt lat="46.96781" lon="-0.91392">
        <ele>93</ele>
        <time>2015-03-12T14:38:22Z</time>
      </trkpt>
      <trkpt lat="46.96779" lon="-0.91394">
        <ele>94</ele>
        <time>2015-03-12T14:38:24Z</time>
      </trkpt>
      <trkpt lat="46.96777" lon="-0.91395">
        <ele>94</ele>
        <time>2015-03-12T14:38:26Z</time>
      </trkpt>
      <trkpt lat="46.96775" lon="-0.914">
        <ele>94</ele>
        <time>2015-03-12T14:38:29Z</time>
      </trkpt>
      <trkpt lat="46.96773" lon="-0.91403">
        <ele>95</ele>
        <time>2015-03-12T14:38:32Z</time>
      </trkpt>
      <trkpt lat="46.96772" lon="-0.91404">
        <ele>95</ele>
        <time>2015-03-12T14:38:34Z</time>
      </trkpt>
      <trkpt lat="46.9677" lon="-0.91404">
        <ele>95</ele>
        <time>2015-03-12T14:38:36Z</time>
      </trkpt>
      <trkpt lat="46.96769" lon="-0.91405">
        <ele>95</ele>
        <time>2015-03-12T14:38:39Z</time>
      </trkpt>
      <trkpt lat="46.96766" lon="-0.91408">
        <ele>95</ele>
        <time>2015-03-12T14:38:42Z</time>
      </trkpt>
      <trkpt lat="46.96763" lon="-0.91412">
        <ele>97</ele>
        <time>2015-03-12T14:38:45Z</time>
      </trkpt>
      <trkpt lat="46.96761" lon="-0.91415">
        <ele>99</ele>
        <time>2015-03-12T14:38:48Z</time>
      </trkpt>
      <trkpt lat="46.96759" lon="-0.91416">
        <ele>99</ele>
        <time>2015-03-12T14:38:50Z</time>
      </trkpt>
      <trkpt lat="46.96758" lon="-0.91417">
        <ele>100</ele>
        <time>2015-03-12T14:38:53Z</time>
      </trkpt>
      <trkpt lat="46.96758" lon="-0.91419">
        <ele>100</ele>
        <time>2015-03-12T14:38:56Z</time>
      </trkpt>
      <trkpt lat="46.96755" lon="-0.91422">
        <ele>103</ele>
        <time>2015-03-12T14:38:59Z</time>
      </trkpt>
      <trkpt lat="46.96752" lon="-0.91427">
        <ele>106</ele>
        <time>2015-03-12T14:39:02Z</time>
      </trkpt>
      <trkpt lat="46.96751" lon="-0.91429">
        <ele>108</ele>
        <time>2015-03-12T14:39:04Z</time>
      </trkpt>
      <trkpt lat="46.9675" lon="-0.91429">
        <ele>111</ele>
        <time>2015-03-12T14:39:07Z</time>
      </trkpt>
      <trkpt lat="46.96748" lon="-0.91427">
        <ele>112</ele>
        <time>2015-03-12T14:39:12Z</time>
      </trkpt>
      <trkpt lat="46.96747" lon="-0.91426">
        <ele>113</ele>
        <time>2015-03-12T14:39:14Z</time>
      </trkpt>
      <trkpt lat="46.96746" lon="-0.91426">
        <ele>115</ele>
        <time>2015-03-12T14:39:19Z</time>
      </trkpt>
      <trkpt lat="46.96745" lon="-0.91424">
        <ele>115</ele>
        <time>2015-03-12T14:39:21Z</time>
      </trkpt>
      <trkpt lat="46.96744" lon="-0.91422">
        <ele>115</ele>
        <time>2015-03-12T14:39:23Z</time>
      </trkpt>
      <trkpt lat="46.96743" lon="-0.91421">
        <ele>115</ele>
        <time>2015-03-12T14:39:25Z</time>
      </trkpt>
      <trkpt lat="46.96742" lon="-0.91419">
        <ele>115</ele>
        <time>2015-03-12T14:39:27Z</time>
      </trkpt>
      <trkpt lat="46.96741" lon="-0.91419">
        <ele>115</ele>
        <time>2015-03-12T14:39:30Z</time>
      </trkpt>
      <trkpt lat="46.9674" lon="-0.9142">
        <ele>115</ele>
        <time>2015-03-12T14:39:33Z</time>
      </trkpt>
      <trkpt lat="46.96738" lon="-0.9142">
        <ele>115</ele>
        <time>2015-03-12T14:39:35Z</time>
      </trkpt>
      <trkpt lat="46.96736" lon="-0.91418">
        <ele>115</ele>
        <time>2015-03-12T14:39:37Z</time>
      </trkpt>
      <trkpt lat="46.96734" lon="-0.91417">
        <ele>115</ele>
        <time>2015-03-12T14:39:39Z</time>
      </trkpt>
      <trkpt lat="46.96733" lon="-0.91419">
        <ele>115</ele>
        <time>2015-03-12T14:39:41Z</time>
      </trkpt>
      <trkpt lat="46.96733" lon="-0.91421">
        <ele>115</ele>
        <time>2015-03-12T14:39:43Z</time>
      </trkpt>
      <trkpt lat="46.96731" lon="-0.91422">
        <ele>112</ele>
        <time>2015-03-12T14:39:48Z</time>
      </trkpt>
      <trkpt lat="46.96731" lon="-0.91423">
        <ele>111</ele>
        <time>2015-03-12T14:39:53Z</time>
      </trkpt>
      <trkpt lat="46.9673" lon="-0.91424">
        <ele>110</ele>
        <time>2015-03-12T14:39:55Z</time>
      </trkpt>
      <trkpt lat="46.96728" lon="-0.91424">
        <ele>110</ele>
        <time>2015-03-12T14:39:59Z</time>
      </trkpt>
      <trkpt lat="46.96727" lon="-0.91425">
        <ele>110</ele>
        <time>2015-03-12T14:40:01Z</time>
      </trkpt>
      <trkpt lat="46.96724" lon="-0.91425">
        <ele>110</ele>
        <time>2015-03-12T14:40:03Z</time>
      </trkpt>
      <trkpt lat="46.96723" lon="-0.91426">
        <ele>110</ele>
        <time>2015-03-12T14:40:05Z</time>
      </trkpt>
      <trkpt lat="46.96721" lon="-0.91427">
        <ele>110</ele>
        <time>2015-03-12T14:40:07Z</time>
      </trkpt>
      <trkpt lat="46.96719" lon="-0.91426">
        <ele>110</ele>
        <time>2015-03-12T14:40:09Z</time>
      </trkpt>
      <trkpt lat="46.96717" lon="-0.91425">
        <ele>110</ele>
        <time>2015-03-12T14:40:11Z</time>
      </trkpt>
      <trkpt lat="46.96715" lon="-0.91426">
        <ele>110</ele>
        <time>2015-03-12T14:40:13Z</time>
      </trkpt>
      <trkpt lat="46.96714" lon="-0.91426">
        <ele>110</ele>
        <time>2015-03-12T14:40:15Z</time>
      </trkpt>
      <trkpt lat="46.96711" lon="-0.91426">
        <ele>110</ele>
        <time>2015-03-12T14:40:17Z</time>
      </trkpt>
      <trkpt lat="46.96707" lon="-0.91426">
        <ele>110</ele>
        <time>2015-03-12T14:40:20Z</time>
      </trkpt>
      <trkpt lat="46.96705" lon="-0.91427">
        <ele>110</ele>
        <time>2015-03-12T14:40:22Z</time>
      </trkpt>
      <trkpt lat="46.96704" lon="-0.91429">
        <ele>110</ele>
        <time>2015-03-12T14:40:25Z</time>
      </trkpt>
      <trkpt lat="46.96703" lon="-0.9143">
        <ele>110</ele>
        <time>2015-03-12T14:40:27Z</time>
      </trkpt>
      <trkpt lat="46.967" lon="-0.91429">
        <ele>110</ele>
        <time>2015-03-12T14:40:31Z</time>
      </trkpt>
      <trkpt lat="46.96696" lon="-0.91427">
        <ele>110</ele>
        <time>2015-03-12T14:40:34Z</time>
      </trkpt>
      <trkpt lat="46.96694" lon="-0.91425">
        <ele>110</ele>
        <time>2015-03-12T14:40:36Z</time>
      </trkpt>
      <trkpt lat="46.96691" lon="-0.91424">
        <ele>110</ele>
        <time>2015-03-12T14:40:39Z</time>
      </trkpt>
      <trkpt lat="46.96687" lon="-0.91423">
        <ele>110</ele>
        <time>2015-03-12T14:40:41Z</time>
      </trkpt>
      <trkpt lat="46.96684" lon="-0.91422">
        <ele>111</ele>
        <time>2015-03-12T14:40:44Z</time>
      </trkpt>
      <trkpt lat="46.96682" lon="-0.9142">
        <ele>111</ele>
        <time>2015-03-12T14:40:47Z</time>
      </trkpt>
      <trkpt lat="46.96681" lon="-0.9142">
        <ele>111</ele>
        <time>2015-03-12T14:40:49Z</time>
      </trkpt>
      <trkpt lat="46.96679" lon="-0.9142">
        <ele>111</ele>
        <time>2015-03-12T14:40:51Z</time>
      </trkpt>
      <trkpt lat="46.96678" lon="-0.91421">
        <ele>111</ele>
        <time>2015-03-12T14:40:53Z</time>
      </trkpt>
      <trkpt lat="46.96678" lon="-0.91423">
        <ele>111</ele>
        <time>2015-03-12T14:40:55Z</time>
      </trkpt>
      <trkpt lat="46.96677" lon="-0.91427">
        <ele>111</ele>
        <time>2015-03-12T14:40:58Z</time>
      </trkpt>
      <trkpt lat="46.96676" lon="-0.9143">
        <ele>111</ele>
        <time>2015-03-12T14:41:01Z</time>
      </trkpt>
      <trkpt lat="46.96675" lon="-0.91431">
        <ele>111</ele>
        <time>2015-03-12T14:41:04Z</time>
      </trkpt>
      <trkpt lat="46.96675" lon="-0.91434">
        <ele>111</ele>
        <time>2015-03-12T14:41:06Z</time>
      </trkpt>
      <trkpt lat="46.96673" lon="-0.91437">
        <ele>111</ele>
        <time>2015-03-12T14:41:08Z</time>
      </trkpt>
      <trkpt lat="46.96672" lon="-0.91439">
        <ele>111</ele>
        <time>2015-03-12T14:41:10Z</time>
      </trkpt>
      <trkpt lat="46.96671" lon="-0.91441">
        <ele>111</ele>
        <time>2015-03-12T14:41:12Z</time>
      </trkpt>
      <trkpt lat="46.96671" lon="-0.91443">
        <ele>111</ele>
        <time>2015-03-12T14:41:14Z</time>
      </trkpt>
      <trkpt lat="46.96671" lon="-0.91444">
        <ele>111</ele>
        <time>2015-03-12T14:41:16Z</time>
      </trkpt>
      <trkpt lat="46.96673" lon="-0.91446">
        <ele>113</ele>
        <time>2015-03-12T14:41:18Z</time>
      </trkpt>
      <trkpt lat="46.96673" lon="-0.91448">
        <ele>114</ele>
        <time>2015-03-12T14:41:20Z</time>
      </trkpt>
      <trkpt lat="46.96672" lon="-0.9145">
        <ele>114</ele>
        <time>2015-03-12T14:41:22Z</time>
      </trkpt>
      <trkpt lat="46.9667" lon="-0.91454">
        <ele>114</ele>
        <time>2015-03-12T14:41:25Z</time>
      </trkpt>
      <trkpt lat="46.96669" lon="-0.91456">
        <ele>114</ele>
        <time>2015-03-12T14:41:29Z</time>
      </trkpt>
      <trkpt lat="46.96668" lon="-0.91458">
        <ele>114</ele>
        <time>2015-03-12T14:41:32Z</time>
      </trkpt>
      <trkpt lat="46.96667" lon="-0.91459">
        <ele>114</ele>
        <time>2015-03-12T14:41:34Z</time>
      </trkpt>
      <trkpt lat="46.96666" lon="-0.9146">
        <ele>114</ele>
        <time>2015-03-12T14:41:36Z</time>
      </trkpt>
      <trkpt lat="46.96664" lon="-0.91461">
        <ele>114</ele>
        <time>2015-03-12T14:41:39Z</time>
      </trkpt>
      <trkpt lat="46.96662" lon="-0.91461">
        <ele>114</ele>
        <time>2015-03-12T14:41:41Z</time>
      </trkpt>
      <trkpt lat="46.96661" lon="-0.91462">
        <ele>114</ele>
        <time>2015-03-12T14:41:43Z</time>
      </trkpt>
      <trkpt lat="46.96659" lon="-0.91465">
        <ele>114</ele>
        <time>2015-03-12T14:41:45Z</time>
      </trkpt>
      <trkpt lat="46.96658" lon="-0.91466">
        <ele>114</ele>
        <time>2015-03-12T14:41:47Z</time>
      </trkpt>
      <trkpt lat="46.96656" lon="-0.91468">
        <ele>114</ele>
        <time>2015-03-12T14:41:49Z</time>
      </trkpt>
      <trkpt lat="46.96655" lon="-0.91469">
        <ele>115</ele>
        <time>2015-03-12T14:41:51Z</time>
      </trkpt>
      <trkpt lat="46.96651" lon="-0.91472">
        <ele>116</ele>
        <time>2015-03-12T14:41:55Z</time>
      </trkpt>
      <trkpt lat="46.9665" lon="-0.91471">
        <ele>116</ele>
        <time>2015-03-12T14:41:57Z</time>
      </trkpt>
      <trkpt lat="46.96648" lon="-0.91473">
        <ele>117</ele>
        <time>2015-03-12T14:41:59Z</time>
      </trkpt>
      <trkpt lat="46.96647" lon="-0.91477">
        <ele>117</ele>
        <time>2015-03-12T14:42:01Z</time>
      </trkpt>
      <trkpt lat="46.96645" lon="-0.91479">
        <ele>118</ele>
        <time>2015-03-12T14:42:03Z</time>
      </trkpt>
      <trkpt lat="46.96644" lon="-0.91483">
        <ele>118</ele>
        <time>2015-03-12T14:42:05Z</time>
      </trkpt>
      <trkpt lat="46.96643" lon="-0.91485">
        <ele>118</ele>
        <time>2015-03-12T14:42:07Z</time>
      </trkpt>
      <trkpt lat="46.9664" lon="-0.91484">
        <ele>118</ele>
        <time>2015-03-12T14:42:09Z</time>
      </trkpt>
      <trkpt lat="46.96639" lon="-0.91487">
        <ele>120</ele>
        <time>2015-03-12T14:42:11Z</time>
      </trkpt>
      <trkpt lat="46.96637" lon="-0.91487">
        <ele>121</ele>
        <time>2015-03-12T14:42:13Z</time>
      </trkpt>
      <trkpt lat="46.96636" lon="-0.91488">
        <ele>121</ele>
        <time>2015-03-12T14:42:15Z</time>
      </trkpt>
      <trkpt lat="46.96634" lon="-0.91492">
        <ele>121</ele>
        <time>2015-03-12T14:42:19Z</time>
      </trkpt>
      <trkpt lat="46.96633" lon="-0.91494">
        <ele>121</ele>
        <time>2015-03-12T14:42:21Z</time>
      </trkpt>
      <trkpt lat="46.96632" lon="-0.91497">
        <ele>121</ele>
        <time>2015-03-12T14:42:24Z</time>
      </trkpt>
      <trkpt lat="46.96631" lon="-0.91501">
        <ele>121</ele>
        <time>2015-03-12T14:42:27Z</time>
      </trkpt>
      <trkpt lat="46.96629" lon="-0.91503">
        <ele>121</ele>
        <time>2015-03-12T14:42:29Z</time>
      </trkpt>
      <trkpt lat="46.96627" lon="-0.91505">
        <ele>121</ele>
        <time>2015-03-12T14:42:31Z</time>
      </trkpt>
      <trkpt lat="46.96625" lon="-0.91507">
        <ele>121</ele>
        <time>2015-03-12T14:42:33Z</time>
      </trkpt>
      <trkpt lat="46.96623" lon="-0.91509">
        <ele>121</ele>
        <time>2015-03-12T14:42:35Z</time>
      </trkpt>
      <trkpt lat="46.96622" lon="-0.91511">
        <ele>121</ele>
        <time>2015-03-12T14:42:37Z</time>
      </trkpt>
      <trkpt lat="46.96622" lon="-0.91513">
        <ele>121</ele>
        <time>2015-03-12T14:42:39Z</time>
      </trkpt>
      <trkpt lat="46.96621" lon="-0.91514">
        <ele>121</ele>
        <time>2015-03-12T14:42:41Z</time>
      </trkpt>
      <trkpt lat="46.96621" lon="-0.91518">
        <ele>121</ele>
        <time>2015-03-12T14:42:44Z</time>
      </trkpt>
      <trkpt lat="46.96621" lon="-0.9152">
        <ele>121</ele>
        <time>2015-03-12T14:42:46Z</time>
      </trkpt>
      <trkpt lat="46.9662" lon="-0.91523">
        <ele>121</ele>
        <time>2015-03-12T14:42:49Z</time>
      </trkpt>
      <trkpt lat="46.96619" lon="-0.91524">
        <ele>121</ele>
        <time>2015-03-12T14:42:51Z</time>
      </trkpt>
      <trkpt lat="46.96619" lon="-0.91527">
        <ele>121</ele>
        <time>2015-03-12T14:42:53Z</time>
      </trkpt>
      <trkpt lat="46.96619" lon="-0.91529">
        <ele>121</ele>
        <time>2015-03-12T14:42:55Z</time>
      </trkpt>
      <trkpt lat="46.96614" lon="-0.91537">
        <ele>130</ele>
        <time>2015-03-12T14:43:00Z</time>
      </trkpt>
      <trkpt lat="46.96612" lon="-0.91537">
        <ele>130</ele>
        <time>2015-03-12T14:43:02Z</time>
      </trkpt>
      <trkpt lat="46.96611" lon="-0.91538">
        <ele>130</ele>
        <time>2015-03-12T14:43:04Z</time>
      </trkpt>
      <trkpt lat="46.96608" lon="-0.91536">
        <ele>130</ele>
        <time>2015-03-12T14:43:06Z</time>
      </trkpt>
      <trkpt lat="46.96606" lon="-0.91534">
        <ele>130</ele>
        <time>2015-03-12T14:43:08Z</time>
      </trkpt>
      <trkpt lat="46.96604" lon="-0.91533">
        <ele>130</ele>
        <time>2015-03-12T14:43:10Z</time>
      </trkpt>
      <trkpt lat="46.96603" lon="-0.91532">
        <ele>130</ele>
        <time>2015-03-12T14:43:12Z</time>
      </trkpt>
      <trkpt lat="46.96602" lon="-0.91531">
        <ele>130</ele>
        <time>2015-03-12T14:43:14Z</time>
      </trkpt>
      <trkpt lat="46.96603" lon="-0.91529">
        <ele>130</ele>
        <time>2015-03-12T14:43:18Z</time>
      </trkpt>
      <trkpt lat="46.96604" lon="-0.91527">
        <ele>130</ele>
        <time>2015-03-12T14:43:20Z</time>
      </trkpt>
      <trkpt lat="46.96601" lon="-0.91527">
        <ele>130</ele>
        <time>2015-03-12T14:43:22Z</time>
      </trkpt>
      <trkpt lat="46.96598" lon="-0.91526">
        <ele>130</ele>
        <time>2015-03-12T14:43:24Z</time>
      </trkpt>
      <trkpt lat="46.96596" lon="-0.91524">
        <ele>130</ele>
        <time>2015-03-12T14:43:26Z</time>
      </trkpt>
      <trkpt lat="46.96595" lon="-0.91523">
        <ele>130</ele>
        <time>2015-03-12T14:43:29Z</time>
      </trkpt>
      <trkpt lat="46.96593" lon="-0.91522">
        <ele>130</ele>
        <time>2015-03-12T14:43:31Z</time>
      </trkpt>
      <trkpt lat="46.96592" lon="-0.91522">
        <ele>130</ele>
        <time>2015-03-12T14:43:33Z</time>
      </trkpt>
      <trkpt lat="46.9659" lon="-0.91522">
        <ele>130</ele>
        <time>2015-03-12T14:43:35Z</time>
      </trkpt>
      <trkpt lat="46.96588" lon="-0.91521">
        <ele>130</ele>
        <time>2015-03-12T14:43:37Z</time>
      </trkpt>
      <trkpt lat="46.96586" lon="-0.91519">
        <ele>130</ele>
        <time>2015-03-12T14:43:39Z</time>
      </trkpt>
      <trkpt lat="46.96584" lon="-0.91519">
        <ele>130</ele>
        <time>2015-03-12T14:43:41Z</time>
      </trkpt>
      <trkpt lat="46.96583" lon="-0.91518">
        <ele>130</ele>
        <time>2015-03-12T14:43:43Z</time>
      </trkpt>
      <trkpt lat="46.96581" lon="-0.91517">
        <ele>130</ele>
        <time>2015-03-12T14:43:45Z</time>
      </trkpt>
      <trkpt lat="46.9658" lon="-0.91517">
        <ele>130</ele>
        <time>2015-03-12T14:43:48Z</time>
      </trkpt>
      <trkpt lat="46.96579" lon="-0.91517">
        <ele>130</ele>
        <time>2015-03-12T14:43:51Z</time>
      </trkpt>
      <trkpt lat="46.96578" lon="-0.91517">
        <ele>130</ele>
        <time>2015-03-12T14:43:53Z</time>
      </trkpt>
      <trkpt lat="46.96576" lon="-0.91518">
        <ele>130</ele>
        <time>2015-03-12T14:43:55Z</time>
      </trkpt>
      <trkpt lat="46.96572" lon="-0.91517">
        <ele>129</ele>
        <time>2015-03-12T14:43:57Z</time>
      </trkpt>
      <trkpt lat="46.9657" lon="-0.91515">
        <ele>129</ele>
        <time>2015-03-12T14:43:59Z</time>
      </trkpt>
      <trkpt lat="46.96567" lon="-0.91514">
        <ele>129</ele>
        <time>2015-03-12T14:44:02Z</time>
      </trkpt>
      <trkpt lat="46.96564" lon="-0.91513">
        <ele>129</ele>
        <time>2015-03-12T14:44:05Z</time>
      </trkpt>
      <trkpt lat="46.96563" lon="-0.91515">
        <ele>129</ele>
        <time>2015-03-12T14:44:07Z</time>
      </trkpt>
      <trkpt lat="46.96561" lon="-0.91518">
        <ele>129</ele>
        <time>2015-03-12T14:44:09Z</time>
      </trkpt>
      <trkpt lat="46.9656" lon="-0.91521">
        <ele>129</ele>
        <time>2015-03-12T14:44:12Z</time>
      </trkpt>
      <trkpt lat="46.96558" lon="-0.91521">
        <ele>129</ele>
        <time>2015-03-12T14:44:14Z</time>
      </trkpt>
      <trkpt lat="46.96557" lon="-0.91519">
        <ele>129</ele>
        <time>2015-03-12T14:44:16Z</time>
      </trkpt>
      <trkpt lat="46.96555" lon="-0.91518">
        <ele>129</ele>
        <time>2015-03-12T14:44:18Z</time>
      </trkpt>
      <trkpt lat="46.96553" lon="-0.91517">
        <ele>129</ele>
        <time>2015-03-12T14:44:20Z</time>
      </trkpt>
      <trkpt lat="46.9655" lon="-0.91515">
        <ele>129</ele>
        <time>2015-03-12T14:44:22Z</time>
      </trkpt>
      <trkpt lat="46.96549" lon="-0.91513">
        <ele>129</ele>
        <time>2015-03-12T14:44:24Z</time>
      </trkpt>
      <trkpt lat="46.96547" lon="-0.91514">
        <ele>129</ele>
        <time>2015-03-12T14:44:28Z</time>
      </trkpt>
      <trkpt lat="46.96545" lon="-0.9151">
        <ele>129</ele>
        <time>2015-03-12T14:44:30Z</time>
      </trkpt>
      <trkpt lat="46.96543" lon="-0.91508">
        <ele>129</ele>
        <time>2015-03-12T14:44:32Z</time>
      </trkpt>
      <trkpt lat="46.96542" lon="-0.91505">
        <ele>129</ele>
        <time>2015-03-12T14:44:34Z</time>
      </trkpt>
      <trkpt lat="46.96539" lon="-0.91502">
        <ele>129</ele>
        <time>2015-03-12T14:44:37Z</time>
      </trkpt>
      <trkpt lat="46.96535" lon="-0.91498">
        <ele>129</ele>
        <time>2015-03-12T14:44:40Z</time>
      </trkpt>
      <trkpt lat="46.96533" lon="-0.91495">
        <ele>129</ele>
        <time>2015-03-12T14:44:43Z</time>
      </trkpt>
      <trkpt lat="46.96531" lon="-0.91493">
        <ele>129</ele>
        <time>2015-03-12T14:44:45Z</time>
      </trkpt>
      <trkpt lat="46.96529" lon="-0.91492">
        <ele>129</ele>
        <time>2015-03-12T14:44:47Z</time>
      </trkpt>
      <trkpt lat="46.96527" lon="-0.9149">
        <ele>129</ele>
        <time>2015-03-12T14:44:49Z</time>
      </trkpt>
      <trkpt lat="46.96526" lon="-0.91488">
        <ele>129</ele>
        <time>2015-03-12T14:44:51Z</time>
      </trkpt>
      <trkpt lat="46.96523" lon="-0.91486">
        <ele>129</ele>
        <time>2015-03-12T14:44:54Z</time>
      </trkpt>
      <trkpt lat="46.96521" lon="-0.91484">
        <ele>129</ele>
        <time>2015-03-12T14:44:56Z</time>
      </trkpt>
      <trkpt lat="46.96519" lon="-0.91483">
        <ele>129</ele>
        <time>2015-03-12T14:44:58Z</time>
      </trkpt>
      <trkpt lat="46.96517" lon="-0.9148">
        <ele>129</ele>
        <time>2015-03-12T14:45:00Z</time>
      </trkpt>
      <trkpt lat="46.96515" lon="-0.91478">
        <ele>129</ele>
        <time>2015-03-12T14:45:02Z</time>
      </trkpt>
      <trkpt lat="46.96512" lon="-0.91474">
        <ele>129</ele>
        <time>2015-03-12T14:45:05Z</time>
      </trkpt>
      <trkpt lat="46.96511" lon="-0.91474">
        <ele>129</ele>
        <time>2015-03-12T14:45:07Z</time>
      </trkpt>
      <trkpt lat="46.96508" lon="-0.91471">
        <ele>129</ele>
        <time>2015-03-12T14:45:09Z</time>
      </trkpt>
      <trkpt lat="46.96505" lon="-0.91467">
        <ele>129</ele>
        <time>2015-03-12T14:45:12Z</time>
      </trkpt>
      <trkpt lat="46.96503" lon="-0.91465">
        <ele>129</ele>
        <time>2015-03-12T14:45:14Z</time>
      </trkpt>
      <trkpt lat="46.96501" lon="-0.91464">
        <ele>129</ele>
        <time>2015-03-12T14:45:16Z</time>
      </trkpt>
      <trkpt lat="46.96499" lon="-0.91462">
        <ele>129</ele>
        <time>2015-03-12T14:45:18Z</time>
      </trkpt>
      <trkpt lat="46.96497" lon="-0.9146">
        <ele>129</ele>
        <time>2015-03-12T14:45:20Z</time>
      </trkpt>
      <trkpt lat="46.96495" lon="-0.91457">
        <ele>129</ele>
        <time>2015-03-12T14:45:22Z</time>
      </trkpt>
      <trkpt lat="46.96492" lon="-0.91455">
        <ele>129</ele>
        <time>2015-03-12T14:45:24Z</time>
      </trkpt>
      <trkpt lat="46.96491" lon="-0.91454">
        <ele>129</ele>
        <time>2015-03-12T14:45:26Z</time>
      </trkpt>
      <trkpt lat="46.96489" lon="-0.91452">
        <ele>129</ele>
        <time>2015-03-12T14:45:28Z</time>
      </trkpt>
      <trkpt lat="46.96487" lon="-0.9145">
        <ele>129</ele>
        <time>2015-03-12T14:45:30Z</time>
      </trkpt>
      <trkpt lat="46.96485" lon="-0.91449">
        <ele>129</ele>
        <time>2015-03-12T14:45:32Z</time>
      </trkpt>
      <trkpt lat="46.96483" lon="-0.91447">
        <ele>129</ele>
        <time>2015-03-12T14:45:34Z</time>
      </trkpt>
      <trkpt lat="46.96481" lon="-0.91445">
        <ele>129</ele>
        <time>2015-03-12T14:45:36Z</time>
      </trkpt>
      <trkpt lat="46.9648" lon="-0.91444">
        <ele>129</ele>
        <time>2015-03-12T14:45:38Z</time>
      </trkpt>
      <trkpt lat="46.96478" lon="-0.91444">
        <ele>129</ele>
        <time>2015-03-12T14:45:40Z</time>
      </trkpt>
      <trkpt lat="46.96476" lon="-0.91441">
        <ele>129</ele>
        <time>2015-03-12T14:45:42Z</time>
      </trkpt>
      <trkpt lat="46.96475" lon="-0.91439">
        <ele>129</ele>
        <time>2015-03-12T14:45:44Z</time>
      </trkpt>
      <trkpt lat="46.96473" lon="-0.91437">
        <ele>129</ele>
        <time>2015-03-12T14:45:46Z</time>
      </trkpt>
      <trkpt lat="46.96472" lon="-0.91436">
        <ele>129</ele>
        <time>2015-03-12T14:45:48Z</time>
      </trkpt>
      <trkpt lat="46.9647" lon="-0.91435">
        <ele>129</ele>
        <time>2015-03-12T14:45:50Z</time>
      </trkpt>
      <trkpt lat="46.96468" lon="-0.91435">
        <ele>129</ele>
        <time>2015-03-12T14:45:53Z</time>
      </trkpt>
      <trkpt lat="46.96466" lon="-0.91433">
        <ele>129</ele>
        <time>2015-03-12T14:45:55Z</time>
      </trkpt>
      <trkpt lat="46.96464" lon="-0.9143">
        <ele>129</ele>
        <time>2015-03-12T14:45:57Z</time>
      </trkpt>
      <trkpt lat="46.96461" lon="-0.91428">
        <ele>129</ele>
        <time>2015-03-12T14:45:59Z</time>
      </trkpt>
      <trkpt lat="46.9646" lon="-0.91426">
        <ele>129</ele>
        <time>2015-03-12T14:46:01Z</time>
      </trkpt>
      <trkpt lat="46.96458" lon="-0.91423">
        <ele>129</ele>
        <time>2015-03-12T14:46:03Z</time>
      </trkpt>
      <trkpt lat="46.96454" lon="-0.9142">
        <ele>129</ele>
        <time>2015-03-12T14:46:06Z</time>
      </trkpt>
      <trkpt lat="46.96452" lon="-0.91418">
        <ele>129</ele>
        <time>2015-03-12T14:46:08Z</time>
      </trkpt>
      <trkpt lat="46.9645" lon="-0.91415">
        <ele>129</ele>
        <time>2015-03-12T14:46:10Z</time>
      </trkpt>
      <trkpt lat="46.96449" lon="-0.91413">
        <ele>129</ele>
        <time>2015-03-12T14:46:12Z</time>
      </trkpt>
      <trkpt lat="46.96447" lon="-0.91411">
        <ele>129</ele>
        <time>2015-03-12T14:46:14Z</time>
      </trkpt>
      <trkpt lat="46.96445" lon="-0.9141">
        <ele>129</ele>
        <time>2015-03-12T14:46:16Z</time>
      </trkpt>
      <trkpt lat="46.96443" lon="-0.91408">
        <ele>129</ele>
        <time>2015-03-12T14:46:18Z</time>
      </trkpt>
      <trkpt lat="46.96441" lon="-0.91406">
        <ele>129</ele>
        <time>2015-03-12T14:46:20Z</time>
      </trkpt>
      <trkpt lat="46.96439" lon="-0.91405">
        <ele>129</ele>
        <time>2015-03-12T14:46:22Z</time>
      </trkpt>
      <trkpt lat="46.96437" lon="-0.91402">
        <ele>129</ele>
        <time>2015-03-12T14:46:24Z</time>
      </trkpt>
      <trkpt lat="46.96435" lon="-0.91401">
        <ele>129</ele>
        <time>2015-03-12T14:46:26Z</time>
      </trkpt>
      <trkpt lat="46.96432" lon="-0.91397">
        <ele>129</ele>
        <time>2015-03-12T14:46:29Z</time>
      </trkpt>
      <trkpt lat="46.9643" lon="-0.91395">
        <ele>129</ele>
        <time>2015-03-12T14:46:32Z</time>
      </trkpt>
      <trkpt lat="46.96428" lon="-0.91393">
        <ele>129</ele>
        <time>2015-03-12T14:46:34Z</time>
      </trkpt>
      <trkpt lat="46.96426" lon="-0.91391">
        <ele>129</ele>
        <time>2015-03-12T14:46:36Z</time>
      </trkpt>
      <trkpt lat="46.96424" lon="-0.91389">
        <ele>129</ele>
        <time>2015-03-12T14:46:38Z</time>
      </trkpt>
      <trkpt lat="46.96423" lon="-0.91387">
        <ele>129</ele>
        <time>2015-03-12T14:46:40Z</time>
      </trkpt>
      <trkpt lat="46.96421" lon="-0.91385">
        <ele>129</ele>
        <time>2015-03-12T14:46:42Z</time>
      </trkpt>
      <trkpt lat="46.96417" lon="-0.91382">
        <ele>129</ele>
        <time>2015-03-12T14:46:45Z</time>
      </trkpt>
      <trkpt lat="46.96414" lon="-0.9138">
        <ele>129</ele>
        <time>2015-03-12T14:46:48Z</time>
      </trkpt>
      <trkpt lat="46.96412" lon="-0.91379">
        <ele>129</ele>
        <time>2015-03-12T14:46:50Z</time>
      </trkpt>
      <trkpt lat="46.9641" lon="-0.91377">
        <ele>129</ele>
        <time>2015-03-12T14:46:52Z</time>
      </trkpt>
      <trkpt lat="46.96407" lon="-0.91373">
        <ele>129</ele>
        <time>2015-03-12T14:46:55Z</time>
      </trkpt>
      <trkpt lat="46.96404" lon="-0.91369">
        <ele>129</ele>
        <time>2015-03-12T14:46:58Z</time>
      </trkpt>
      <trkpt lat="46.96402" lon="-0.91367">
        <ele>129</ele>
        <time>2015-03-12T14:47:00Z</time>
      </trkpt>
      <trkpt lat="46.964" lon="-0.91365">
        <ele>129</ele>
        <time>2015-03-12T14:47:02Z</time>
      </trkpt>
      <trkpt lat="46.96398" lon="-0.91363">
        <ele>129</ele>
        <time>2015-03-12T14:47:04Z</time>
      </trkpt>
      <trkpt lat="46.96396" lon="-0.91361">
        <ele>129</ele>
        <time>2015-03-12T14:47:06Z</time>
      </trkpt>
      <trkpt lat="46.96394" lon="-0.91359">
        <ele>129</ele>
        <time>2015-03-12T14:47:09Z</time>
      </trkpt>
      <trkpt lat="46.96392" lon="-0.91358">
        <ele>129</ele>
        <time>2015-03-12T14:47:11Z</time>
      </trkpt>
      <trkpt lat="46.96391" lon="-0.91357">
        <ele>129</ele>
        <time>2015-03-12T14:47:13Z</time>
      </trkpt>
      <trkpt lat="46.96389" lon="-0.91356">
        <ele>129</ele>
        <time>2015-03-12T14:47:15Z</time>
      </trkpt>
      <trkpt lat="46.96387" lon="-0.91353">
        <ele>129</ele>
        <time>2015-03-12T14:47:17Z</time>
      </trkpt>
      <trkpt lat="46.96386" lon="-0.91352">
        <ele>129</ele>
        <time>2015-03-12T14:47:19Z</time>
      </trkpt>
      <trkpt lat="46.96384" lon="-0.91351">
        <ele>129</ele>
        <time>2015-03-12T14:47:21Z</time>
      </trkpt>
      <trkpt lat="46.96382" lon="-0.91349">
        <ele>129</ele>
        <time>2015-03-12T14:47:23Z</time>
      </trkpt>
      <trkpt lat="46.9638" lon="-0.91348">
        <ele>129</ele>
        <time>2015-03-12T14:47:25Z</time>
      </trkpt>
      <trkpt lat="46.96378" lon="-0.91347">
        <ele>129</ele>
        <time>2015-03-12T14:47:27Z</time>
      </trkpt>
      <trkpt lat="46.96377" lon="-0.91345">
        <ele>129</ele>
        <time>2015-03-12T14:47:29Z</time>
      </trkpt>
      <trkpt lat="46.96376" lon="-0.91345">
        <ele>129</ele>
        <time>2015-03-12T14:47:31Z</time>
      </trkpt>
      <trkpt lat="46.96374" lon="-0.91343">
        <ele>130</ele>
        <time>2015-03-12T14:47:33Z</time>
      </trkpt>
      <trkpt lat="46.96372" lon="-0.9134">
        <ele>130</ele>
        <time>2015-03-12T14:47:36Z</time>
      </trkpt>
      <trkpt lat="46.96371" lon="-0.91338">
        <ele>130</ele>
        <time>2015-03-12T14:47:38Z</time>
      </trkpt>
      <trkpt lat="46.9637" lon="-0.91337">
        <ele>130</ele>
        <time>2015-03-12T14:47:40Z</time>
      </trkpt>
      <trkpt lat="46.96368" lon="-0.91336">
        <ele>131</ele>
        <time>2015-03-12T14:47:42Z</time>
      </trkpt>
      <trkpt lat="46.96364" lon="-0.91334">
        <ele>131</ele>
        <time>2015-03-12T14:47:45Z</time>
      </trkpt>
      <trkpt lat="46.9636" lon="-0.9133">
        <ele>131</ele>
        <time>2015-03-12T14:47:48Z</time>
      </trkpt>
      <trkpt lat="46.96359" lon="-0.91328">
        <ele>132</ele>
        <time>2015-03-12T14:47:50Z</time>
      </trkpt>
      <trkpt lat="46.96356" lon="-0.91324">
        <ele>132</ele>
        <time>2015-03-12T14:47:53Z</time>
      </trkpt>
      <trkpt lat="46.96354" lon="-0.91323">
        <ele>132</ele>
        <time>2015-03-12T14:47:55Z</time>
      </trkpt>
      <trkpt lat="46.96351" lon="-0.9132">
        <ele>132</ele>
        <time>2015-03-12T14:47:58Z</time>
      </trkpt>
      <trkpt lat="46.96348" lon="-0.91315">
        <ele>132</ele>
        <time>2015-03-12T14:48:01Z</time>
      </trkpt>
      <trkpt lat="46.96345" lon="-0.91312">
        <ele>132</ele>
        <time>2015-03-12T14:48:03Z</time>
      </trkpt>
      <trkpt lat="46.96343" lon="-0.91311">
        <ele>132</ele>
        <time>2015-03-12T14:48:05Z</time>
      </trkpt>
      <trkpt lat="46.96342" lon="-0.91309">
        <ele>132</ele>
        <time>2015-03-12T14:48:07Z</time>
      </trkpt>
      <trkpt lat="46.9634" lon="-0.91307">
        <ele>132</ele>
        <time>2015-03-12T14:48:09Z</time>
      </trkpt>
      <trkpt lat="46.96337" lon="-0.91305">
        <ele>132</ele>
        <time>2015-03-12T14:48:11Z</time>
      </trkpt>
      <trkpt lat="46.96335" lon="-0.91302">
        <ele>132</ele>
        <time>2015-03-12T14:48:13Z</time>
      </trkpt>
      <trkpt lat="46.96333" lon="-0.91299">
        <ele>132</ele>
        <time>2015-03-12T14:48:15Z</time>
      </trkpt>
      <trkpt lat="46.9633" lon="-0.91297">
        <ele>132</ele>
        <time>2015-03-12T14:48:17Z</time>
      </trkpt>
      <trkpt lat="46.96327" lon="-0.91294">
        <ele>132</ele>
        <time>2015-03-12T14:48:20Z</time>
      </trkpt>
      <trkpt lat="46.96325" lon="-0.91293">
        <ele>132</ele>
        <time>2015-03-12T14:48:22Z</time>
      </trkpt>
      <trkpt lat="46.96323" lon="-0.91291">
        <ele>132</ele>
        <time>2015-03-12T14:48:24Z</time>
      </trkpt>
      <trkpt lat="46.96322" lon="-0.9129">
        <ele>132</ele>
        <time>2015-03-12T14:48:26Z</time>
      </trkpt>
      <trkpt lat="46.96321" lon="-0.91289">
        <ele>132</ele>
        <time>2015-03-12T14:48:28Z</time>
      </trkpt>
      <trkpt lat="46.96319" lon="-0.91287">
        <ele>132</ele>
        <time>2015-03-12T14:48:30Z</time>
      </trkpt>
      <trkpt lat="46.96316" lon="-0.91289">
        <ele>132</ele>
        <time>2015-03-12T14:48:32Z</time>
      </trkpt>
      <trkpt lat="46.96313" lon="-0.9129">
        <ele>132</ele>
        <time>2015-03-12T14:48:34Z</time>
      </trkpt>
      <trkpt lat="46.9631" lon="-0.91293">
        <ele>132</ele>
        <time>2015-03-12T14:48:37Z</time>
      </trkpt>
      <trkpt lat="46.96307" lon="-0.91296">
        <ele>132</ele>
        <time>2015-03-12T14:48:39Z</time>
      </trkpt>
      <trkpt lat="46.96306" lon="-0.91299">
        <ele>132</ele>
        <time>2015-03-12T14:48:41Z</time>
      </trkpt>
      <trkpt lat="46.96304" lon="-0.91301">
        <ele>132</ele>
        <time>2015-03-12T14:48:43Z</time>
      </trkpt>
      <trkpt lat="46.96303" lon="-0.91304">
        <ele>132</ele>
        <time>2015-03-12T14:48:45Z</time>
      </trkpt>
      <trkpt lat="46.96301" lon="-0.91309">
        <ele>132</ele>
        <time>2015-03-12T14:48:48Z</time>
      </trkpt>
      <trkpt lat="46.96299" lon="-0.91312">
        <ele>132</ele>
        <time>2015-03-12T14:48:50Z</time>
      </trkpt>
      <trkpt lat="46.96298" lon="-0.91316">
        <ele>132</ele>
        <time>2015-03-12T14:48:52Z</time>
      </trkpt>
      <trkpt lat="46.96299" lon="-0.91321">
        <ele>132</ele>
        <time>2015-03-12T14:48:54Z</time>
      </trkpt>
      <trkpt lat="46.96299" lon="-0.91324">
        <ele>132</ele>
        <time>2015-03-12T14:48:56Z</time>
      </trkpt>
      <trkpt lat="46.96299" lon="-0.91329">
        <ele>132</ele>
        <time>2015-03-12T14:48:59Z</time>
      </trkpt>
      <trkpt lat="46.963" lon="-0.91333">
        <ele>132</ele>
        <time>2015-03-12T14:49:02Z</time>
      </trkpt>
      <trkpt lat="46.96301" lon="-0.91337">
        <ele>132</ele>
        <time>2015-03-12T14:49:04Z</time>
      </trkpt>
      <trkpt lat="46.96301" lon="-0.9134">
        <ele>132</ele>
        <time>2015-03-12T14:49:06Z</time>
      </trkpt>
      <trkpt lat="46.96301" lon="-0.91344">
        <ele>132</ele>
        <time>2015-03-12T14:49:08Z</time>
      </trkpt>
      <trkpt lat="46.96301" lon="-0.91348">
        <ele>132</ele>
        <time>2015-03-12T14:49:10Z</time>
      </trkpt>
      <trkpt lat="46.96301" lon="-0.91351">
        <ele>132</ele>
        <time>2015-03-12T14:49:12Z</time>
      </trkpt>
      <trkpt lat="46.96301" lon="-0.91354">
        <ele>132</ele>
        <time>2015-03-12T14:49:14Z</time>
      </trkpt>
      <trkpt lat="46.96301" lon="-0.91358">
        <ele>132</ele>
        <time>2015-03-12T14:49:16Z</time>
      </trkpt>
      <trkpt lat="46.96301" lon="-0.91361">
        <ele>132</ele>
        <time>2015-03-12T14:49:18Z</time>
      </trkpt>
      <trkpt lat="46.96301" lon="-0.91364">
        <ele>132</ele>
        <time>2015-03-12T14:49:20Z</time>
      </trkpt>
      <trkpt lat="46.96301" lon="-0.91368">
        <ele>132</ele>
        <time>2015-03-12T14:49:22Z</time>
      </trkpt>
      <trkpt lat="46.963" lon="-0.91371">
        <ele>132</ele>
        <time>2015-03-12T14:49:24Z</time>
      </trkpt>
      <trkpt lat="46.96299" lon="-0.91375">
        <ele>132</ele>
        <time>2015-03-12T14:49:27Z</time>
      </trkpt>
      <trkpt lat="46.96299" lon="-0.91378">
        <ele>132</ele>
        <time>2015-03-12T14:49:29Z</time>
      </trkpt>
      <trkpt lat="46.963" lon="-0.91382">
        <ele>132</ele>
        <time>2015-03-12T14:49:32Z</time>
      </trkpt>
      <trkpt lat="46.963" lon="-0.91386">
        <ele>132</ele>
        <time>2015-03-12T14:49:35Z</time>
      </trkpt>
      <trkpt lat="46.96299" lon="-0.91389">
        <ele>132</ele>
        <time>2015-03-12T14:49:38Z</time>
      </trkpt>
      <trkpt lat="46.96301" lon="-0.91394">
        <ele>129</ele>
        <time>2015-03-12T14:49:41Z</time>
      </trkpt>
      <trkpt lat="46.963" lon="-0.91396">
        <ele>128</ele>
        <time>2015-03-12T14:49:43Z</time>
      </trkpt>
      <trkpt lat="46.963" lon="-0.91401">
        <ele>127</ele>
        <time>2015-03-12T14:49:46Z</time>
      </trkpt>
      <trkpt lat="46.96299" lon="-0.91406">
        <ele>126</ele>
        <time>2015-03-12T14:49:48Z</time>
      </trkpt>
      <trkpt lat="46.963" lon="-0.9141">
        <ele>126</ele>
        <time>2015-03-12T14:49:50Z</time>
      </trkpt>
      <trkpt lat="46.96301" lon="-0.91414">
        <ele>126</ele>
        <time>2015-03-12T14:49:53Z</time>
      </trkpt>
      <trkpt lat="46.96301" lon="-0.91418">
        <ele>126</ele>
        <time>2015-03-12T14:49:55Z</time>
      </trkpt>
      <trkpt lat="46.96302" lon="-0.91421">
        <ele>126</ele>
        <time>2015-03-12T14:49:57Z</time>
      </trkpt>
      <trkpt lat="46.96302" lon="-0.91424">
        <ele>126</ele>
        <time>2015-03-12T14:49:59Z</time>
      </trkpt>
      <trkpt lat="46.96302" lon="-0.91428">
        <ele>126</ele>
        <time>2015-03-12T14:50:01Z</time>
      </trkpt>
      <trkpt lat="46.96303" lon="-0.91431">
        <ele>126</ele>
        <time>2015-03-12T14:50:03Z</time>
      </trkpt>
      <trkpt lat="46.96303" lon="-0.91435">
        <ele>126</ele>
        <time>2015-03-12T14:50:06Z</time>
      </trkpt>
      <trkpt lat="46.96304" lon="-0.9144">
        <ele>125</ele>
        <time>2015-03-12T14:50:08Z</time>
      </trkpt>
      <trkpt lat="46.96304" lon="-0.91443">
        <ele>124</ele>
        <time>2015-03-12T14:50:10Z</time>
      </trkpt>
      <trkpt lat="46.96304" lon="-0.91445">
        <ele>124</ele>
        <time>2015-03-12T14:50:12Z</time>
      </trkpt>
      <trkpt lat="46.96304" lon="-0.91449">
        <ele>124</ele>
        <time>2015-03-12T14:50:14Z</time>
      </trkpt>
      <trkpt lat="46.96305" lon="-0.91454">
        <ele>124</ele>
        <time>2015-03-12T14:50:16Z</time>
      </trkpt>
      <trkpt lat="46.96306" lon="-0.91459">
        <ele>124</ele>
        <time>2015-03-12T14:50:19Z</time>
      </trkpt>
      <trkpt lat="46.96306" lon="-0.91461">
        <ele>124</ele>
        <time>2015-03-12T14:50:21Z</time>
      </trkpt>
      <trkpt lat="46.96305" lon="-0.91464">
        <ele>124</ele>
        <time>2015-03-12T14:50:23Z</time>
      </trkpt>
      <trkpt lat="46.96306" lon="-0.91465">
        <ele>124</ele>
        <time>2015-03-12T14:50:25Z</time>
      </trkpt>
      <trkpt lat="46.96308" lon="-0.91468">
        <ele>124</ele>
        <time>2015-03-12T14:50:27Z</time>
      </trkpt>
      <trkpt lat="46.96308" lon="-0.91472">
        <ele>124</ele>
        <time>2015-03-12T14:50:29Z</time>
      </trkpt>
      <trkpt lat="46.9631" lon="-0.91475">
        <ele>124</ele>
        <time>2015-03-12T14:50:31Z</time>
      </trkpt>
      <trkpt lat="46.9631" lon="-0.9148">
        <ele>124</ele>
        <time>2015-03-12T14:50:34Z</time>
      </trkpt>
      <trkpt lat="46.96313" lon="-0.91484">
        <ele>124</ele>
        <time>2015-03-12T14:50:37Z</time>
      </trkpt>
      <trkpt lat="46.96314" lon="-0.91487">
        <ele>124</ele>
        <time>2015-03-12T14:50:39Z</time>
      </trkpt>
      <trkpt lat="46.96316" lon="-0.9149">
        <ele>124</ele>
        <time>2015-03-12T14:50:41Z</time>
      </trkpt>
      <trkpt lat="46.96317" lon="-0.91494">
        <ele>124</ele>
        <time>2015-03-12T14:50:43Z</time>
      </trkpt>
      <trkpt lat="46.96319" lon="-0.91499">
        <ele>124</ele>
        <time>2015-03-12T14:50:46Z</time>
      </trkpt>
      <trkpt lat="46.9632" lon="-0.91502">
        <ele>124</ele>
        <time>2015-03-12T14:50:48Z</time>
      </trkpt>
      <trkpt lat="46.96321" lon="-0.91505">
        <ele>124</ele>
        <time>2015-03-12T14:50:50Z</time>
      </trkpt>
      <trkpt lat="46.96322" lon="-0.91509">
        <ele>124</ele>
        <time>2015-03-12T14:50:52Z</time>
      </trkpt>
      <trkpt lat="46.96323" lon="-0.91512">
        <ele>124</ele>
        <time>2015-03-12T14:50:54Z</time>
      </trkpt>
      <trkpt lat="46.96325" lon="-0.91517">
        <ele>124</ele>
        <time>2015-03-12T14:50:57Z</time>
      </trkpt>
      <trkpt lat="46.96326" lon="-0.91519">
        <ele>124</ele>
        <time>2015-03-12T14:50:59Z</time>
      </trkpt>
      <trkpt lat="46.96326" lon="-0.91521">
        <ele>124</ele>
        <time>2015-03-12T14:51:01Z</time>
      </trkpt>
      <trkpt lat="46.96328" lon="-0.91523">
        <ele>124</ele>
        <time>2015-03-12T14:51:03Z</time>
      </trkpt>
      <trkpt lat="46.96328" lon="-0.91526">
        <ele>124</ele>
        <time>2015-03-12T14:51:05Z</time>
      </trkpt>
      <trkpt lat="46.96329" lon="-0.91529">
        <ele>124</ele>
        <time>2015-03-12T14:51:07Z</time>
      </trkpt>
      <trkpt lat="46.9633" lon="-0.91533">
        <ele>124</ele>
        <time>2015-03-12T14:51:09Z</time>
      </trkpt>
      <trkpt lat="46.96331" lon="-0.91536">
        <ele>124</ele>
        <time>2015-03-12T14:51:11Z</time>
      </trkpt>
      <trkpt lat="46.96333" lon="-0.91538">
        <ele>124</ele>
        <time>2015-03-12T14:51:13Z</time>
      </trkpt>
      <trkpt lat="46.96335" lon="-0.9154">
        <ele>124</ele>
        <time>2015-03-12T14:51:15Z</time>
      </trkpt>
      <trkpt lat="46.96337" lon="-0.91543">
        <ele>124</ele>
        <time>2015-03-12T14:51:17Z</time>
      </trkpt>
      <trkpt lat="46.96338" lon="-0.91546">
        <ele>124</ele>
        <time>2015-03-12T14:51:19Z</time>
      </trkpt>
      <trkpt lat="46.96339" lon="-0.91549">
        <ele>124</ele>
        <time>2015-03-12T14:51:21Z</time>
      </trkpt>
      <trkpt lat="46.9634" lon="-0.91553">
        <ele>124</ele>
        <time>2015-03-12T14:51:23Z</time>
      </trkpt>
      <trkpt lat="46.96341" lon="-0.91555">
        <ele>124</ele>
        <time>2015-03-12T14:51:25Z</time>
      </trkpt>
      <trkpt lat="46.96343" lon="-0.91558">
        <ele>124</ele>
        <time>2015-03-12T14:51:27Z</time>
      </trkpt>
      <trkpt lat="46.96343" lon="-0.91561">
        <ele>124</ele>
        <time>2015-03-12T14:51:29Z</time>
      </trkpt>
      <trkpt lat="46.96344" lon="-0.91565">
        <ele>124</ele>
        <time>2015-03-12T14:51:31Z</time>
      </trkpt>
      <trkpt lat="46.96345" lon="-0.91568">
        <ele>124</ele>
        <time>2015-03-12T14:51:33Z</time>
      </trkpt>
      <trkpt lat="46.96348" lon="-0.91571">
        <ele>124</ele>
        <time>2015-03-12T14:51:36Z</time>
      </trkpt>
      <trkpt lat="46.9635" lon="-0.91573">
        <ele>124</ele>
        <time>2015-03-12T14:51:38Z</time>
      </trkpt>
      <trkpt lat="46.96352" lon="-0.91578">
        <ele>124</ele>
        <time>2015-03-12T14:51:41Z</time>
      </trkpt>
      <trkpt lat="46.96353" lon="-0.91582">
        <ele>124</ele>
        <time>2015-03-12T14:51:44Z</time>
      </trkpt>
      <trkpt lat="46.96355" lon="-0.91584">
        <ele>124</ele>
        <time>2015-03-12T14:51:46Z</time>
      </trkpt>
      <trkpt lat="46.96358" lon="-0.91588">
        <ele>124</ele>
        <time>2015-03-12T14:51:49Z</time>
      </trkpt>
      <trkpt lat="46.96361" lon="-0.91591">
        <ele>124</ele>
        <time>2015-03-12T14:51:52Z</time>
      </trkpt>
      <trkpt lat="46.96363" lon="-0.91594">
        <ele>124</ele>
        <time>2015-03-12T14:51:55Z</time>
      </trkpt>
      <trkpt lat="46.96365" lon="-0.91597">
        <ele>124</ele>
        <time>2015-03-12T14:51:57Z</time>
      </trkpt>
      <trkpt lat="46.96366" lon="-0.916">
        <ele>124</ele>
        <time>2015-03-12T14:51:59Z</time>
      </trkpt>
      <trkpt lat="46.96368" lon="-0.91602">
        <ele>124</ele>
        <time>2015-03-12T14:52:01Z</time>
      </trkpt>
      <trkpt lat="46.96372" lon="-0.91603">
        <ele>124</ele>
        <time>2015-03-12T14:52:03Z</time>
      </trkpt>
      <trkpt lat="46.96375" lon="-0.91604">
        <ele>124</ele>
        <time>2015-03-12T14:52:05Z</time>
      </trkpt>
      <trkpt lat="46.96378" lon="-0.91606">
        <ele>124</ele>
        <time>2015-03-12T14:52:08Z</time>
      </trkpt>
      <trkpt lat="46.96381" lon="-0.91608">
        <ele>124</ele>
        <time>2015-03-12T14:52:10Z</time>
      </trkpt>
      <trkpt lat="46.96384" lon="-0.9161">
        <ele>124</ele>
        <time>2015-03-12T14:52:13Z</time>
      </trkpt>
      <trkpt lat="46.96387" lon="-0.91612">
        <ele>124</ele>
        <time>2015-03-12T14:52:16Z</time>
      </trkpt>
      <trkpt lat="46.96389" lon="-0.91613">
        <ele>124</ele>
        <time>2015-03-12T14:52:18Z</time>
      </trkpt>
      <trkpt lat="46.96391" lon="-0.91613">
        <ele>124</ele>
        <time>2015-03-12T14:52:20Z</time>
      </trkpt>
      <trkpt lat="46.96394" lon="-0.91614">
        <ele>124</ele>
        <time>2015-03-12T14:52:23Z</time>
      </trkpt>
      <trkpt lat="46.96397" lon="-0.91617">
        <ele>124</ele>
        <time>2015-03-12T14:52:26Z</time>
      </trkpt>
      <trkpt lat="46.96398" lon="-0.91618">
        <ele>123</ele>
        <time>2015-03-12T14:52:28Z</time>
      </trkpt>
      <trkpt lat="46.96401" lon="-0.9162">
        <ele>123</ele>
        <time>2015-03-12T14:52:30Z</time>
      </trkpt>
      <trkpt lat="46.96404" lon="-0.91622">
        <ele>123</ele>
        <time>2015-03-12T14:52:32Z</time>
      </trkpt>
      <trkpt lat="46.96406" lon="-0.91623">
        <ele>123</ele>
        <time>2015-03-12T14:52:34Z</time>
      </trkpt>
      <trkpt lat="46.96409" lon="-0.91624">
        <ele>123</ele>
        <time>2015-03-12T14:52:36Z</time>
      </trkpt>
      <trkpt lat="46.96412" lon="-0.91626">
        <ele>123</ele>
        <time>2015-03-12T14:52:39Z</time>
      </trkpt>
      <trkpt lat="46.96413" lon="-0.91626">
        <ele>123</ele>
        <time>2015-03-12T14:52:41Z</time>
      </trkpt>
      <trkpt lat="46.96415" lon="-0.91627">
        <ele>123</ele>
        <time>2015-03-12T14:52:43Z</time>
      </trkpt>
      <trkpt lat="46.96416" lon="-0.91628">
        <ele>123</ele>
        <time>2015-03-12T14:52:45Z</time>
      </trkpt>
      <trkpt lat="46.96418" lon="-0.9163">
        <ele>123</ele>
        <time>2015-03-12T14:52:47Z</time>
      </trkpt>
      <trkpt lat="46.96422" lon="-0.9163">
        <ele>123</ele>
        <time>2015-03-12T14:52:49Z</time>
      </trkpt>
      <trkpt lat="46.96424" lon="-0.91631">
        <ele>123</ele>
        <time>2015-03-12T14:52:51Z</time>
      </trkpt>
      <trkpt lat="46.96426" lon="-0.91631">
        <ele>123</ele>
        <time>2015-03-12T14:52:53Z</time>
      </trkpt>
      <trkpt lat="46.96429" lon="-0.91631">
        <ele>123</ele>
        <time>2015-03-12T14:52:55Z</time>
      </trkpt>
      <trkpt lat="46.96432" lon="-0.91631">
        <ele>122</ele>
        <time>2015-03-12T14:52:57Z</time>
      </trkpt>
      <trkpt lat="46.96435" lon="-0.91631">
        <ele>121</ele>
        <time>2015-03-12T14:53:01Z</time>
      </trkpt>
      <trkpt lat="46.96438" lon="-0.91631">
        <ele>120</ele>
        <time>2015-03-12T14:53:03Z</time>
      </trkpt>
      <trkpt lat="46.96441" lon="-0.9163">
        <ele>119</ele>
        <time>2015-03-12T14:53:05Z</time>
      </trkpt>
      <trkpt lat="46.96443" lon="-0.91632">
        <ele>119</ele>
        <time>2015-03-12T14:53:07Z</time>
      </trkpt>
      <trkpt lat="46.96445" lon="-0.91631">
        <ele>119</ele>
        <time>2015-03-12T14:53:09Z</time>
      </trkpt>
      <trkpt lat="46.96448" lon="-0.91632">
        <ele>119</ele>
        <time>2015-03-12T14:53:11Z</time>
      </trkpt>
      <trkpt lat="46.9645" lon="-0.91632">
        <ele>119</ele>
        <time>2015-03-12T14:53:13Z</time>
      </trkpt>
      <trkpt lat="46.96452" lon="-0.91633">
        <ele>118</ele>
        <time>2015-03-12T14:53:15Z</time>
      </trkpt>
      <trkpt lat="46.96455" lon="-0.91633">
        <ele>118</ele>
        <time>2015-03-12T14:53:17Z</time>
      </trkpt>
      <trkpt lat="46.96457" lon="-0.91633">
        <ele>117</ele>
        <time>2015-03-12T14:53:19Z</time>
      </trkpt>
      <trkpt lat="46.96459" lon="-0.91635">
        <ele>116</ele>
        <time>2015-03-12T14:53:21Z</time>
      </trkpt>
      <trkpt lat="46.96463" lon="-0.91636">
        <ele>115</ele>
        <time>2015-03-12T14:53:23Z</time>
      </trkpt>
      <trkpt lat="46.96468" lon="-0.91637">
        <ele>115</ele>
        <time>2015-03-12T14:53:25Z</time>
      </trkpt>
      <trkpt lat="46.96471" lon="-0.91639">
        <ele>115</ele>
        <time>2015-03-12T14:53:27Z</time>
      </trkpt>
      <trkpt lat="46.96474" lon="-0.91641">
        <ele>115</ele>
        <time>2015-03-12T14:53:30Z</time>
      </trkpt>
      <trkpt lat="46.96477" lon="-0.91641">
        <ele>115</ele>
        <time>2015-03-12T14:53:33Z</time>
      </trkpt>
      <trkpt lat="46.96477" lon="-0.91643">
        <ele>115</ele>
        <time>2015-03-12T14:53:35Z</time>
      </trkpt>
      <trkpt lat="46.9648" lon="-0.91645">
        <ele>115</ele>
        <time>2015-03-12T14:53:37Z</time>
      </trkpt>
      <trkpt lat="46.96482" lon="-0.91645">
        <ele>115</ele>
        <time>2015-03-12T14:53:40Z</time>
      </trkpt>
      <trkpt lat="46.96484" lon="-0.91646">
        <ele>115</ele>
        <time>2015-03-12T14:53:42Z</time>
      </trkpt>
      <trkpt lat="46.96485" lon="-0.91648">
        <ele>115</ele>
        <time>2015-03-12T14:53:45Z</time>
      </trkpt>
      <trkpt lat="46.96489" lon="-0.91647">
        <ele>117</ele>
        <time>2015-03-12T14:53:48Z</time>
      </trkpt>
      <trkpt lat="46.96492" lon="-0.9165">
        <ele>117</ele>
        <time>2015-03-12T14:53:50Z</time>
      </trkpt>
      <trkpt lat="46.96495" lon="-0.91651">
        <ele>119</ele>
        <time>2015-03-12T14:53:52Z</time>
      </trkpt>
      <trkpt lat="46.96497" lon="-0.91652">
        <ele>120</ele>
        <time>2015-03-12T14:53:54Z</time>
      </trkpt>
      <trkpt lat="46.965" lon="-0.91654">
        <ele>120</ele>
        <time>2015-03-12T14:53:56Z</time>
      </trkpt>
      <trkpt lat="46.96502" lon="-0.91656">
        <ele>120</ele>
        <time>2015-03-12T14:53:59Z</time>
      </trkpt>
      <trkpt lat="46.96503" lon="-0.91658">
        <ele>120</ele>
        <time>2015-03-12T14:54:01Z</time>
      </trkpt>
      <trkpt lat="46.96505" lon="-0.91662">
        <ele>120</ele>
        <time>2015-03-12T14:54:04Z</time>
      </trkpt>
      <trkpt lat="46.96505" lon="-0.91664">
        <ele>120</ele>
        <time>2015-03-12T14:54:07Z</time>
      </trkpt>
      <trkpt lat="46.96505" lon="-0.91668">
        <ele>119</ele>
        <time>2015-03-12T14:54:10Z</time>
      </trkpt>
      <trkpt lat="46.96505" lon="-0.91671">
        <ele>118</ele>
        <time>2015-03-12T14:54:12Z</time>
      </trkpt>
      <trkpt lat="46.96506" lon="-0.91676">
        <ele>118</ele>
        <time>2015-03-12T14:54:15Z</time>
      </trkpt>
      <trkpt lat="46.96507" lon="-0.91677">
        <ele>117</ele>
        <time>2015-03-12T14:54:17Z</time>
      </trkpt>
      <trkpt lat="46.96508" lon="-0.9168">
        <ele>116</ele>
        <time>2015-03-12T14:54:19Z</time>
      </trkpt>
      <trkpt lat="46.9651" lon="-0.91685">
        <ele>114</ele>
        <time>2015-03-12T14:54:22Z</time>
      </trkpt>
      <trkpt lat="46.9651" lon="-0.91689">
        <ele>114</ele>
        <time>2015-03-12T14:54:25Z</time>
      </trkpt>
      <trkpt lat="46.96512" lon="-0.91689">
        <ele>114</ele>
        <time>2015-03-12T14:54:27Z</time>
      </trkpt>
      <trkpt lat="46.96513" lon="-0.9169">
        <ele>114</ele>
        <time>2015-03-12T14:54:29Z</time>
      </trkpt>
      <trkpt lat="46.96515" lon="-0.91691">
        <ele>114</ele>
        <time>2015-03-12T14:54:31Z</time>
      </trkpt>
      <trkpt lat="46.96516" lon="-0.91693">
        <ele>113</ele>
        <time>2015-03-12T14:54:33Z</time>
      </trkpt>
      <trkpt lat="46.96517" lon="-0.91694">
        <ele>113</ele>
        <time>2015-03-12T14:54:35Z</time>
      </trkpt>
      <trkpt lat="46.96518" lon="-0.91695">
        <ele>113</ele>
        <time>2015-03-12T14:54:38Z</time>
      </trkpt>
      <trkpt lat="46.96519" lon="-0.91697">
        <ele>113</ele>
        <time>2015-03-12T14:54:40Z</time>
      </trkpt>
      <trkpt lat="46.96521" lon="-0.91698">
        <ele>112</ele>
        <time>2015-03-12T14:54:42Z</time>
      </trkpt>
      <trkpt lat="46.96523" lon="-0.91699">
        <ele>112</ele>
        <time>2015-03-12T14:54:44Z</time>
      </trkpt>
      <trkpt lat="46.96524" lon="-0.91701">
        <ele>112</ele>
        <time>2015-03-12T14:54:46Z</time>
      </trkpt>
      <trkpt lat="46.96526" lon="-0.91705">
        <ele>112</ele>
        <time>2015-03-12T14:54:49Z</time>
      </trkpt>
      <trkpt lat="46.96529" lon="-0.91707">
        <ele>112</ele>
        <time>2015-03-12T14:54:51Z</time>
      </trkpt>
      <trkpt lat="46.9653" lon="-0.9171">
        <ele>112</ele>
        <time>2015-03-12T14:54:53Z</time>
      </trkpt>
      <trkpt lat="46.96531" lon="-0.91711">
        <ele>111</ele>
        <time>2015-03-12T14:54:55Z</time>
      </trkpt>
      <trkpt lat="46.96532" lon="-0.91713">
        <ele>111</ele>
        <time>2015-03-12T14:54:57Z</time>
      </trkpt>
      <trkpt lat="46.96533" lon="-0.91714">
        <ele>111</ele>
        <time>2015-03-12T14:54:59Z</time>
      </trkpt>
      <trkpt lat="46.96534" lon="-0.91717">
        <ele>111</ele>
        <time>2015-03-12T14:55:01Z</time>
      </trkpt>
      <trkpt lat="46.96536" lon="-0.91721">
        <ele>111</ele>
        <time>2015-03-12T14:55:04Z</time>
      </trkpt>
      <trkpt lat="46.96537" lon="-0.91724">
        <ele>111</ele>
        <time>2015-03-12T14:55:06Z</time>
      </trkpt>
      <trkpt lat="46.96539" lon="-0.91728">
        <ele>110</ele>
        <time>2015-03-12T14:55:09Z</time>
      </trkpt>
      <trkpt lat="46.96541" lon="-0.9173">
        <ele>110</ele>
        <time>2015-03-12T14:55:11Z</time>
      </trkpt>
      <trkpt lat="46.96542" lon="-0.91733">
        <ele>109</ele>
        <time>2015-03-12T14:55:13Z</time>
      </trkpt>
      <trkpt lat="46.96543" lon="-0.91735">
        <ele>107</ele>
        <time>2015-03-12T14:55:15Z</time>
      </trkpt>
      <trkpt lat="46.96545" lon="-0.91735">
        <ele>106</ele>
        <time>2015-03-12T14:55:17Z</time>
      </trkpt>
      <trkpt lat="46.96546" lon="-0.91736">
        <ele>105</ele>
        <time>2015-03-12T14:55:19Z</time>
      </trkpt>
      <trkpt lat="46.96548" lon="-0.91738">
        <ele>104</ele>
        <time>2015-03-12T14:55:21Z</time>
      </trkpt>
      <trkpt lat="46.96551" lon="-0.91741">
        <ele>104</ele>
        <time>2015-03-12T14:55:24Z</time>
      </trkpt>
      <trkpt lat="46.96552" lon="-0.91743">
        <ele>104</ele>
        <time>2015-03-12T14:55:26Z</time>
      </trkpt>
      <trkpt lat="46.96553" lon="-0.91747">
        <ele>104</ele>
        <time>2015-03-12T14:55:28Z</time>
      </trkpt>
      <trkpt lat="46.96555" lon="-0.91751">
        <ele>104</ele>
        <time>2015-03-12T14:55:30Z</time>
      </trkpt>
      <trkpt lat="46.96556" lon="-0.91753">
        <ele>104</ele>
        <time>2015-03-12T14:55:32Z</time>
      </trkpt>
      <trkpt lat="46.96557" lon="-0.91755">
        <ele>104</ele>
        <time>2015-03-12T14:55:34Z</time>
      </trkpt>
      <trkpt lat="46.96559" lon="-0.91759">
        <ele>103</ele>
        <time>2015-03-12T14:55:37Z</time>
      </trkpt>
      <trkpt lat="46.9656" lon="-0.91761">
        <ele>102</ele>
        <time>2015-03-12T14:55:39Z</time>
      </trkpt>
      <trkpt lat="46.96561" lon="-0.91763">
        <ele>101</ele>
        <time>2015-03-12T14:55:41Z</time>
      </trkpt>
      <trkpt lat="46.96562" lon="-0.91766">
        <ele>100</ele>
        <time>2015-03-12T14:55:43Z</time>
      </trkpt>
      <trkpt lat="46.96563" lon="-0.91769">
        <ele>99</ele>
        <time>2015-03-12T14:55:45Z</time>
      </trkpt>
      <trkpt lat="46.96564" lon="-0.91773">
        <ele>99</ele>
        <time>2015-03-12T14:55:47Z</time>
      </trkpt>
      <trkpt lat="46.96563" lon="-0.91776">
        <ele>98</ele>
        <time>2015-03-12T14:55:49Z</time>
      </trkpt>
      <trkpt lat="46.96563" lon="-0.9178">
        <ele>97</ele>
        <time>2015-03-12T14:55:51Z</time>
      </trkpt>
      <trkpt lat="46.96562" lon="-0.91783">
        <ele>97</ele>
        <time>2015-03-12T14:55:53Z</time>
      </trkpt>
      <trkpt lat="46.96562" lon="-0.91786">
        <ele>96</ele>
        <time>2015-03-12T14:55:55Z</time>
      </trkpt>
      <trkpt lat="46.96561" lon="-0.9179">
        <ele>96</ele>
        <time>2015-03-12T14:55:57Z</time>
      </trkpt>
      <trkpt lat="46.9656" lon="-0.91794">
        <ele>96</ele>
        <time>2015-03-12T14:55:59Z</time>
      </trkpt>
      <trkpt lat="46.96559" lon="-0.91797">
        <ele>96</ele>
        <time>2015-03-12T14:56:01Z</time>
      </trkpt>
      <trkpt lat="46.96559" lon="-0.918">
        <ele>96</ele>
        <time>2015-03-12T14:56:03Z</time>
      </trkpt>
      <trkpt lat="46.96558" lon="-0.91804">
        <ele>96</ele>
        <time>2015-03-12T14:56:05Z</time>
      </trkpt>
      <trkpt lat="46.96557" lon="-0.91808">
        <ele>96</ele>
        <time>2015-03-12T14:56:07Z</time>
      </trkpt>
      <trkpt lat="46.96556" lon="-0.91811">
        <ele>96</ele>
        <time>2015-03-12T14:56:09Z</time>
      </trkpt>
      <trkpt lat="46.96555" lon="-0.91815">
        <ele>96</ele>
        <time>2015-03-12T14:56:11Z</time>
      </trkpt>
      <trkpt lat="46.96554" lon="-0.91819">
        <ele>96</ele>
        <time>2015-03-12T14:56:14Z</time>
      </trkpt>
      <trkpt lat="46.96553" lon="-0.91823">
        <ele>96</ele>
        <time>2015-03-12T14:56:16Z</time>
      </trkpt>
      <trkpt lat="46.96551" lon="-0.91827">
        <ele>96</ele>
        <time>2015-03-12T14:56:19Z</time>
      </trkpt>
      <trkpt lat="46.9655" lon="-0.9183">
        <ele>96</ele>
        <time>2015-03-12T14:56:21Z</time>
      </trkpt>
      <trkpt lat="46.96548" lon="-0.91834">
        <ele>96</ele>
        <time>2015-03-12T14:56:23Z</time>
      </trkpt>
      <trkpt lat="46.96547" lon="-0.91837">
        <ele>96</ele>
        <time>2015-03-12T14:56:25Z</time>
      </trkpt>
      <trkpt lat="46.96546" lon="-0.9184">
        <ele>96</ele>
        <time>2015-03-12T14:56:27Z</time>
      </trkpt>
      <trkpt lat="46.96545" lon="-0.91843">
        <ele>96</ele>
        <time>2015-03-12T14:56:29Z</time>
      </trkpt>
      <trkpt lat="46.96545" lon="-0.91846">
        <ele>96</ele>
        <time>2015-03-12T14:56:31Z</time>
      </trkpt>
      <trkpt lat="46.96543" lon="-0.91849">
        <ele>96</ele>
        <time>2015-03-12T14:56:33Z</time>
      </trkpt>
      <trkpt lat="46.96542" lon="-0.91853">
        <ele>96</ele>
        <time>2015-03-12T14:56:35Z</time>
      </trkpt>
      <trkpt lat="46.96541" lon="-0.91856">
        <ele>96</ele>
        <time>2015-03-12T14:56:37Z</time>
      </trkpt>
      <trkpt lat="46.9654" lon="-0.91859">
        <ele>96</ele>
        <time>2015-03-12T14:56:39Z</time>
      </trkpt>
      <trkpt lat="46.96538" lon="-0.91864">
        <ele>96</ele>
        <time>2015-03-12T14:56:42Z</time>
      </trkpt>
      <trkpt lat="46.96537" lon="-0.91867">
        <ele>96</ele>
        <time>2015-03-12T14:56:44Z</time>
      </trkpt>
      <trkpt lat="46.96536" lon="-0.91871">
        <ele>96</ele>
        <time>2015-03-12T14:56:46Z</time>
      </trkpt>
      <trkpt lat="46.96535" lon="-0.91873">
        <ele>96</ele>
        <time>2015-03-12T14:56:48Z</time>
      </trkpt>
      <trkpt lat="46.96534" lon="-0.91876">
        <ele>96</ele>
        <time>2015-03-12T14:56:50Z</time>
      </trkpt>
      <trkpt lat="46.96533" lon="-0.91879">
        <ele>96</ele>
        <time>2015-03-12T14:56:52Z</time>
      </trkpt>
      <trkpt lat="46.96532" lon="-0.91882">
        <ele>96</ele>
        <time>2015-03-12T14:56:54Z</time>
      </trkpt>
      <trkpt lat="46.96531" lon="-0.91885">
        <ele>96</ele>
        <time>2015-03-12T14:56:56Z</time>
      </trkpt>
      <trkpt lat="46.9653" lon="-0.91888">
        <ele>96</ele>
        <time>2015-03-12T14:56:58Z</time>
      </trkpt>
      <trkpt lat="46.96529" lon="-0.91891">
        <ele>96</ele>
        <time>2015-03-12T14:57:00Z</time>
      </trkpt>
      <trkpt lat="46.96528" lon="-0.91894">
        <ele>96</ele>
        <time>2015-03-12T14:57:02Z</time>
      </trkpt>
      <trkpt lat="46.96526" lon="-0.91898">
        <ele>96</ele>
        <time>2015-03-12T14:57:05Z</time>
      </trkpt>
      <trkpt lat="46.96525" lon="-0.919">
        <ele>96</ele>
        <time>2015-03-12T14:57:07Z</time>
      </trkpt>
      <trkpt lat="46.96523" lon="-0.91903">
        <ele>96</ele>
        <time>2015-03-12T14:57:09Z</time>
      </trkpt>
      <trkpt lat="46.96521" lon="-0.91906">
        <ele>96</ele>
        <time>2015-03-12T14:57:11Z</time>
      </trkpt>
      <trkpt lat="46.9652" lon="-0.91908">
        <ele>96</ele>
        <time>2015-03-12T14:57:13Z</time>
      </trkpt>
      <trkpt lat="46.96519" lon="-0.91911">
        <ele>96</ele>
        <time>2015-03-12T14:57:15Z</time>
      </trkpt>
      <trkpt lat="46.96517" lon="-0.91913">
        <ele>96</ele>
        <time>2015-03-12T14:57:17Z</time>
      </trkpt>
      <trkpt lat="46.96515" lon="-0.91915">
        <ele>96</ele>
        <time>2015-03-12T14:57:19Z</time>
      </trkpt>
      <trkpt lat="46.96513" lon="-0.91916">
        <ele>96</ele>
        <time>2015-03-12T14:57:21Z</time>
      </trkpt>
      <trkpt lat="46.9651" lon="-0.91917">
        <ele>96</ele>
        <time>2015-03-12T14:57:24Z</time>
      </trkpt>
      <trkpt lat="46.96507" lon="-0.91917">
        <ele>96</ele>
        <time>2015-03-12T14:57:26Z</time>
      </trkpt>
      <trkpt lat="46.96504" lon="-0.91915">
        <ele>96</ele>
        <time>2015-03-12T14:57:29Z</time>
      </trkpt>
      <trkpt lat="46.96503" lon="-0.91914">
        <ele>96</ele>
        <time>2015-03-12T14:57:31Z</time>
      </trkpt>
      <trkpt lat="46.96501" lon="-0.91914">
        <ele>96</ele>
        <time>2015-03-12T14:57:33Z</time>
      </trkpt>
      <trkpt lat="46.96499" lon="-0.91913">
        <ele>96</ele>
        <time>2015-03-12T14:57:35Z</time>
      </trkpt>
      <trkpt lat="46.96497" lon="-0.91913">
        <ele>96</ele>
        <time>2015-03-12T14:57:37Z</time>
      </trkpt>
      <trkpt lat="46.96495" lon="-0.91912">
        <ele>96</ele>
        <time>2015-03-12T14:57:39Z</time>
      </trkpt>
      <trkpt lat="46.96493" lon="-0.91911">
        <ele>96</ele>
        <time>2015-03-12T14:57:41Z</time>
      </trkpt>
      <trkpt lat="46.96491" lon="-0.91912">
        <ele>96</ele>
        <time>2015-03-12T14:57:43Z</time>
      </trkpt>
      <trkpt lat="46.96488" lon="-0.91912">
        <ele>96</ele>
        <time>2015-03-12T14:57:45Z</time>
      </trkpt>
      <trkpt lat="46.96486" lon="-0.91912">
        <ele>96</ele>
        <time>2015-03-12T14:57:47Z</time>
      </trkpt>
      <trkpt lat="46.96484" lon="-0.91913">
        <ele>96</ele>
        <time>2015-03-12T14:57:49Z</time>
      </trkpt>
      <trkpt lat="46.96481" lon="-0.91914">
        <ele>96</ele>
        <time>2015-03-12T14:57:52Z</time>
      </trkpt>
      <trkpt lat="46.9648" lon="-0.91915">
        <ele>96</ele>
        <time>2015-03-12T14:57:54Z</time>
      </trkpt>
      <trkpt lat="46.96478" lon="-0.91917">
        <ele>96</ele>
        <time>2015-03-12T14:57:56Z</time>
      </trkpt>
      <trkpt lat="46.96476" lon="-0.91918">
        <ele>96</ele>
        <time>2015-03-12T14:57:58Z</time>
      </trkpt>
      <trkpt lat="46.96475" lon="-0.9192">
        <ele>96</ele>
        <time>2015-03-12T14:58:00Z</time>
      </trkpt>
      <trkpt lat="46.96474" lon="-0.91922">
        <ele>96</ele>
        <time>2015-03-12T14:58:02Z</time>
      </trkpt>
      <trkpt lat="46.96472" lon="-0.91923">
        <ele>96</ele>
        <time>2015-03-12T14:58:04Z</time>
      </trkpt>
      <trkpt lat="46.96468" lon="-0.91925">
        <ele>96</ele>
        <time>2015-03-12T14:58:07Z</time>
      </trkpt>
      <trkpt lat="46.96466" lon="-0.91927">
        <ele>96</ele>
        <time>2015-03-12T14:58:09Z</time>
      </trkpt>
      <trkpt lat="46.96464" lon="-0.91929">
        <ele>96</ele>
        <time>2015-03-12T14:58:11Z</time>
      </trkpt>
      <trkpt lat="46.96462" lon="-0.91931">
        <ele>96</ele>
        <time>2015-03-12T14:58:13Z</time>
      </trkpt>
      <trkpt lat="46.9646" lon="-0.91933">
        <ele>96</ele>
        <time>2015-03-12T14:58:15Z</time>
      </trkpt>
      <trkpt lat="46.96458" lon="-0.91937">
        <ele>97</ele>
        <time>2015-03-12T14:58:18Z</time>
      </trkpt>
      <trkpt lat="46.96455" lon="-0.91939">
        <ele>97</ele>
        <time>2015-03-12T14:58:20Z</time>
      </trkpt>
      <trkpt lat="46.96452" lon="-0.91941">
        <ele>98</ele>
        <time>2015-03-12T14:58:23Z</time>
      </trkpt>
      <trkpt lat="46.9645" lon="-0.91944">
        <ele>99</ele>
        <time>2015-03-12T14:58:25Z</time>
      </trkpt>
      <trkpt lat="46.96449" lon="-0.91946">
        <ele>99</ele>
        <time>2015-03-12T14:58:27Z</time>
      </trkpt>
      <trkpt lat="46.96447" lon="-0.91948">
        <ele>100</ele>
        <time>2015-03-12T14:58:29Z</time>
      </trkpt>
      <trkpt lat="46.96444" lon="-0.9195">
        <ele>101</ele>
        <time>2015-03-12T14:58:31Z</time>
      </trkpt>
      <trkpt lat="46.96442" lon="-0.91951">
        <ele>101</ele>
        <time>2015-03-12T14:58:33Z</time>
      </trkpt>
      <trkpt lat="46.96439" lon="-0.91952">
        <ele>102</ele>
        <time>2015-03-12T14:58:35Z</time>
      </trkpt>
      <trkpt lat="46.96437" lon="-0.91954">
        <ele>102</ele>
        <time>2015-03-12T14:58:37Z</time>
      </trkpt>
      <trkpt lat="46.96435" lon="-0.91956">
        <ele>103</ele>
        <time>2015-03-12T14:58:39Z</time>
      </trkpt>
      <trkpt lat="46.96434" lon="-0.91958">
        <ele>104</ele>
        <time>2015-03-12T14:58:41Z</time>
      </trkpt>
      <trkpt lat="46.96432" lon="-0.9196">
        <ele>104</ele>
        <time>2015-03-12T14:58:43Z</time>
      </trkpt>
      <trkpt lat="46.9643" lon="-0.91961">
        <ele>105</ele>
        <time>2015-03-12T14:58:45Z</time>
      </trkpt>
      <trkpt lat="46.96428" lon="-0.91964">
        <ele>105</ele>
        <time>2015-03-12T14:58:47Z</time>
      </trkpt>
      <trkpt lat="46.96426" lon="-0.91966">
        <ele>105</ele>
        <time>2015-03-12T14:58:49Z</time>
      </trkpt>
      <trkpt lat="46.96425" lon="-0.91969">
        <ele>105</ele>
        <time>2015-03-12T14:58:51Z</time>
      </trkpt>
      <trkpt lat="46.96424" lon="-0.9197">
        <ele>105</ele>
        <time>2015-03-12T14:58:53Z</time>
      </trkpt>
      <trkpt lat="46.96422" lon="-0.91972">
        <ele>105</ele>
        <time>2015-03-12T14:58:55Z</time>
      </trkpt>
      <trkpt lat="46.96421" lon="-0.91974">
        <ele>105</ele>
        <time>2015-03-12T14:58:57Z</time>
      </trkpt>
      <trkpt lat="46.9642" lon="-0.91975">
        <ele>105</ele>
        <time>2015-03-12T14:58:59Z</time>
      </trkpt>
      <trkpt lat="46.96419" lon="-0.91977">
        <ele>105</ele>
        <time>2015-03-12T14:59:01Z</time>
      </trkpt>
      <trkpt lat="46.96418" lon="-0.91979">
        <ele>105</ele>
        <time>2015-03-12T14:59:03Z</time>
      </trkpt>
      <trkpt lat="46.96417" lon="-0.91982">
        <ele>105</ele>
        <time>2015-03-12T14:59:05Z</time>
      </trkpt>
      <trkpt lat="46.96417" lon="-0.91986">
        <ele>105</ele>
        <time>2015-03-12T14:59:08Z</time>
      </trkpt>
      <trkpt lat="46.96417" lon="-0.91989">
        <ele>105</ele>
        <time>2015-03-12T14:59:10Z</time>
      </trkpt>
      <trkpt lat="46.96417" lon="-0.91993">
        <ele>105</ele>
        <time>2015-03-12T14:59:12Z</time>
      </trkpt>
      <trkpt lat="46.96419" lon="-0.91995">
        <ele>105</ele>
        <time>2015-03-12T14:59:14Z</time>
      </trkpt>
      <trkpt lat="46.96419" lon="-0.91999">
        <ele>105</ele>
        <time>2015-03-12T14:59:16Z</time>
      </trkpt>
      <trkpt lat="46.96419" lon="-0.92002">
        <ele>105</ele>
        <time>2015-03-12T14:59:18Z</time>
      </trkpt>
      <trkpt lat="46.9642" lon="-0.92006">
        <ele>105</ele>
        <time>2015-03-12T14:59:20Z</time>
      </trkpt>
      <trkpt lat="46.9642" lon="-0.9201">
        <ele>105</ele>
        <time>2015-03-12T14:59:22Z</time>
      </trkpt>
      <trkpt lat="46.9642" lon="-0.92013">
        <ele>105</ele>
        <time>2015-03-12T14:59:24Z</time>
      </trkpt>
      <trkpt lat="46.9642" lon="-0.92017">
        <ele>105</ele>
        <time>2015-03-12T14:59:26Z</time>
      </trkpt>
      <trkpt lat="46.9642" lon="-0.9202">
        <ele>105</ele>
        <time>2015-03-12T14:59:28Z</time>
      </trkpt>
      <trkpt lat="46.9642" lon="-0.92025">
        <ele>105</ele>
        <time>2015-03-12T14:59:31Z</time>
      </trkpt>
      <trkpt lat="46.9642" lon="-0.92028">
        <ele>105</ele>
        <time>2015-03-12T14:59:33Z</time>
      </trkpt>
      <trkpt lat="46.96421" lon="-0.92032">
        <ele>105</ele>
        <time>2015-03-12T14:59:35Z</time>
      </trkpt>
      <trkpt lat="46.96421" lon="-0.92036">
        <ele>105</ele>
        <time>2015-03-12T14:59:38Z</time>
      </trkpt>
      <trkpt lat="46.96422" lon="-0.92041">
        <ele>105</ele>
        <time>2015-03-12T14:59:41Z</time>
      </trkpt>
      <trkpt lat="46.96422" lon="-0.92044">
        <ele>105</ele>
        <time>2015-03-12T14:59:43Z</time>
      </trkpt>
      <trkpt lat="46.96422" lon="-0.92048">
        <ele>105</ele>
        <time>2015-03-12T14:59:45Z</time>
      </trkpt>
      <trkpt lat="46.96422" lon="-0.92051">
        <ele>105</ele>
        <time>2015-03-12T14:59:47Z</time>
      </trkpt>
      <trkpt lat="46.96421" lon="-0.92054">
        <ele>105</ele>
        <time>2015-03-12T14:59:49Z</time>
      </trkpt>
      <trkpt lat="46.96422" lon="-0.92058">
        <ele>105</ele>
        <time>2015-03-12T14:59:51Z</time>
      </trkpt>
      <trkpt lat="46.96423" lon="-0.92061">
        <ele>105</ele>
        <time>2015-03-12T14:59:53Z</time>
      </trkpt>
      <trkpt lat="46.96423" lon="-0.92063">
        <ele>105</ele>
        <time>2015-03-12T14:59:55Z</time>
      </trkpt>
      <trkpt lat="46.96423" lon="-0.92067">
        <ele>105</ele>
        <time>2015-03-12T14:59:57Z</time>
      </trkpt>
      <trkpt lat="46.96423" lon="-0.9207">
        <ele>104</ele>
        <time>2015-03-12T14:59:59Z</time>
      </trkpt>
      <trkpt lat="46.96424" lon="-0.92074">
        <ele>104</ele>
        <time>2015-03-12T15:00:01Z</time>
      </trkpt>
      <trkpt lat="46.96424" lon="-0.92077">
        <ele>104</ele>
        <time>2015-03-12T15:00:03Z</time>
      </trkpt>
      <trkpt lat="46.96424" lon="-0.9208">
        <ele>104</ele>
        <time>2015-03-12T15:00:05Z</time>
      </trkpt>
      <trkpt lat="46.96424" lon="-0.92084">
        <ele>104</ele>
        <time>2015-03-12T15:00:07Z</time>
      </trkpt>
      <trkpt lat="46.96424" lon="-0.92087">
        <ele>104</ele>
        <time>2015-03-12T15:00:09Z</time>
      </trkpt>
      <trkpt lat="46.96423" lon="-0.92091">
        <ele>104</ele>
        <time>2015-03-12T15:00:11Z</time>
      </trkpt>
      <trkpt lat="46.96424" lon="-0.92094">
        <ele>104</ele>
        <time>2015-03-12T15:00:13Z</time>
      </trkpt>
      <trkpt lat="46.96424" lon="-0.92099">
        <ele>104</ele>
        <time>2015-03-12T15:00:15Z</time>
      </trkpt>
      <trkpt lat="46.96424" lon="-0.92102">
        <ele>104</ele>
        <time>2015-03-12T15:00:17Z</time>
      </trkpt>
      <trkpt lat="46.96424" lon="-0.92106">
        <ele>104</ele>
        <time>2015-03-12T15:00:19Z</time>
      </trkpt>
      <trkpt lat="46.96424" lon="-0.92109">
        <ele>104</ele>
        <time>2015-03-12T15:00:21Z</time>
      </trkpt>
      <trkpt lat="46.96426" lon="-0.92113">
        <ele>104</ele>
        <time>2015-03-12T15:00:23Z</time>
      </trkpt>
      <trkpt lat="46.96429" lon="-0.92117">
        <ele>104</ele>
        <time>2015-03-12T15:00:26Z</time>
      </trkpt>
      <trkpt lat="46.96431" lon="-0.92119">
        <ele>104</ele>
        <time>2015-03-12T15:00:28Z</time>
      </trkpt>
      <trkpt lat="46.96434" lon="-0.9212">
        <ele>104</ele>
        <time>2015-03-12T15:00:30Z</time>
      </trkpt>
      <trkpt lat="46.96438" lon="-0.92121">
        <ele>104</ele>
        <time>2015-03-12T15:00:32Z</time>
      </trkpt>
      <trkpt lat="46.96442" lon="-0.92122">
        <ele>104</ele>
        <time>2015-03-12T15:00:34Z</time>
      </trkpt>
      <trkpt lat="46.96446" lon="-0.92124">
        <ele>104</ele>
        <time>2015-03-12T15:00:37Z</time>
      </trkpt>
      <trkpt lat="46.96447" lon="-0.92125">
        <ele>104</ele>
        <time>2015-03-12T15:00:39Z</time>
      </trkpt>
      <trkpt lat="46.9645" lon="-0.92127">
        <ele>104</ele>
        <time>2015-03-12T15:00:41Z</time>
      </trkpt>
      <trkpt lat="46.96452" lon="-0.92129">
        <ele>104</ele>
        <time>2015-03-12T15:00:43Z</time>
      </trkpt>
      <trkpt lat="46.96454" lon="-0.9213">
        <ele>104</ele>
        <time>2015-03-12T15:00:45Z</time>
      </trkpt>
      <trkpt lat="46.96457" lon="-0.92131">
        <ele>104</ele>
        <time>2015-03-12T15:00:47Z</time>
      </trkpt>
      <trkpt lat="46.9646" lon="-0.92133">
        <ele>104</ele>
        <time>2015-03-12T15:00:49Z</time>
      </trkpt>
      <trkpt lat="46.96462" lon="-0.92134">
        <ele>104</ele>
        <time>2015-03-12T15:00:51Z</time>
      </trkpt>
      <trkpt lat="46.96465" lon="-0.92135">
        <ele>104</ele>
        <time>2015-03-12T15:00:53Z</time>
      </trkpt>
      <trkpt lat="46.96468" lon="-0.92135">
        <ele>104</ele>
        <time>2015-03-12T15:00:55Z</time>
      </trkpt>
      <trkpt lat="46.9647" lon="-0.92136">
        <ele>104</ele>
        <time>2015-03-12T15:00:57Z</time>
      </trkpt>
      <trkpt lat="46.96473" lon="-0.92137">
        <ele>104</ele>
        <time>2015-03-12T15:00:59Z</time>
      </trkpt>
      <trkpt lat="46.96475" lon="-0.92137">
        <ele>104</ele>
        <time>2015-03-12T15:01:01Z</time>
      </trkpt>
      <trkpt lat="46.96478" lon="-0.92139">
        <ele>104</ele>
        <time>2015-03-12T15:01:03Z</time>
      </trkpt>
      <trkpt lat="46.96481" lon="-0.92138">
        <ele>104</ele>
        <time>2015-03-12T15:01:05Z</time>
      </trkpt>
      <trkpt lat="46.96483" lon="-0.92139">
        <ele>104</ele>
        <time>2015-03-12T15:01:07Z</time>
      </trkpt>
      <trkpt lat="46.96485" lon="-0.9214">
        <ele>104</ele>
        <time>2015-03-12T15:01:09Z</time>
      </trkpt>
      <trkpt lat="46.96487" lon="-0.92141">
        <ele>104</ele>
        <time>2015-03-12T15:01:11Z</time>
      </trkpt>
      <trkpt lat="46.96489" lon="-0.92141">
        <ele>104</ele>
        <time>2015-03-12T15:01:13Z</time>
      </trkpt>
      <trkpt lat="46.96492" lon="-0.9214">
        <ele>104</ele>
        <time>2015-03-12T15:01:15Z</time>
      </trkpt>
      <trkpt lat="46.96494" lon="-0.92141">
        <ele>104</ele>
        <time>2015-03-12T15:01:17Z</time>
      </trkpt>
      <trkpt lat="46.96497" lon="-0.9214">
        <ele>104</ele>
        <time>2015-03-12T15:01:20Z</time>
      </trkpt>
      <trkpt lat="46.965" lon="-0.9214">
        <ele>104</ele>
        <time>2015-03-12T15:01:22Z</time>
      </trkpt>
      <trkpt lat="46.96502" lon="-0.92139">
        <ele>104</ele>
        <time>2015-03-12T15:01:24Z</time>
      </trkpt>
      <trkpt lat="46.96504" lon="-0.92138">
        <ele>104</ele>
        <time>2015-03-12T15:01:26Z</time>
      </trkpt>
      <trkpt lat="46.96507" lon="-0.92138">
        <ele>104</ele>
        <time>2015-03-12T15:01:28Z</time>
      </trkpt>
      <trkpt lat="46.96509" lon="-0.92138">
        <ele>104</ele>
        <time>2015-03-12T15:01:30Z</time>
      </trkpt>
      <trkpt lat="46.96512" lon="-0.92138">
        <ele>104</ele>
        <time>2015-03-12T15:01:33Z</time>
      </trkpt>
      <trkpt lat="46.96514" lon="-0.92139">
        <ele>104</ele>
        <time>2015-03-12T15:01:35Z</time>
      </trkpt>
      <trkpt lat="46.96516" lon="-0.92139">
        <ele>104</ele>
        <time>2015-03-12T15:01:37Z</time>
      </trkpt>
      <trkpt lat="46.96519" lon="-0.92139">
        <ele>104</ele>
        <time>2015-03-12T15:01:39Z</time>
      </trkpt>
      <trkpt lat="46.96522" lon="-0.92139">
        <ele>104</ele>
        <time>2015-03-12T15:01:41Z</time>
      </trkpt>
      <trkpt lat="46.96523" lon="-0.92139">
        <ele>103</ele>
        <time>2015-03-12T15:01:43Z</time>
      </trkpt>
      <trkpt lat="46.96525" lon="-0.9214">
        <ele>102</ele>
        <time>2015-03-12T15:01:45Z</time>
      </trkpt>
      <trkpt lat="46.96528" lon="-0.92142">
        <ele>101</ele>
        <time>2015-03-12T15:01:48Z</time>
      </trkpt>
      <trkpt lat="46.9653" lon="-0.92145">
        <ele>101</ele>
        <time>2015-03-12T15:01:50Z</time>
      </trkpt>
      <trkpt lat="46.96531" lon="-0.92147">
        <ele>100</ele>
        <time>2015-03-12T15:01:52Z</time>
      </trkpt>
      <trkpt lat="46.96532" lon="-0.92149">
        <ele>100</ele>
        <time>2015-03-12T15:01:54Z</time>
      </trkpt>
      <trkpt lat="46.96534" lon="-0.92152">
        <ele>99</ele>
        <time>2015-03-12T15:01:56Z</time>
      </trkpt>
      <trkpt lat="46.96535" lon="-0.92156">
        <ele>97</ele>
        <time>2015-03-12T15:01:58Z</time>
      </trkpt>
      <trkpt lat="46.96536" lon="-0.92161">
        <ele>94</ele>
        <time>2015-03-12T15:02:01Z</time>
      </trkpt>
      <trkpt lat="46.96538" lon="-0.92165">
        <ele>91</ele>
        <time>2015-03-12T15:02:04Z</time>
      </trkpt>
      <trkpt lat="46.96539" lon="-0.92169">
        <ele>89</ele>
        <time>2015-03-12T15:02:06Z</time>
      </trkpt>
      <trkpt lat="46.96538" lon="-0.92175">
        <ele>87</ele>
        <time>2015-03-12T15:02:08Z</time>
      </trkpt>
      <trkpt lat="46.9654" lon="-0.92179">
        <ele>85</ele>
        <time>2015-03-12T15:02:10Z</time>
      </trkpt>
      <trkpt lat="46.96542" lon="-0.92184">
        <ele>84</ele>
        <time>2015-03-12T15:02:12Z</time>
      </trkpt>
      <trkpt lat="46.96544" lon="-0.92187">
        <ele>84</ele>
        <time>2015-03-12T15:02:15Z</time>
      </trkpt>
      <trkpt lat="46.96545" lon="-0.92189">
        <ele>85</ele>
        <time>2015-03-12T15:02:17Z</time>
      </trkpt>
      <trkpt lat="46.96545" lon="-0.92192">
        <ele>86</ele>
        <time>2015-03-12T15:02:19Z</time>
      </trkpt>
      <trkpt lat="46.96545" lon="-0.92194">
        <ele>87</ele>
        <time>2015-03-12T15:02:21Z</time>
      </trkpt>
      <trkpt lat="46.96545" lon="-0.92197">
        <ele>88</ele>
        <time>2015-03-12T15:02:23Z</time>
      </trkpt>
      <trkpt lat="46.96544" lon="-0.92201">
        <ele>89</ele>
        <time>2015-03-12T15:02:25Z</time>
      </trkpt>
      <trkpt lat="46.96544" lon="-0.92205">
        <ele>90</ele>
        <time>2015-03-12T15:02:27Z</time>
      </trkpt>
      <trkpt lat="46.96542" lon="-0.92207">
        <ele>91</ele>
        <time>2015-03-12T15:02:29Z</time>
      </trkpt>
      <trkpt lat="46.9654" lon="-0.92211">
        <ele>92</ele>
        <time>2015-03-12T15:02:31Z</time>
      </trkpt>
      <trkpt lat="46.96539" lon="-0.92215">
        <ele>93</ele>
        <time>2015-03-12T15:02:34Z</time>
      </trkpt>
      <trkpt lat="46.96537" lon="-0.92217">
        <ele>94</ele>
        <time>2015-03-12T15:02:36Z</time>
      </trkpt>
      <trkpt lat="46.96535" lon="-0.92219">
        <ele>94</ele>
        <time>2015-03-12T15:02:38Z</time>
      </trkpt>
      <trkpt lat="46.96534" lon="-0.9222">
        <ele>95</ele>
        <time>2015-03-12T15:02:40Z</time>
      </trkpt>
      <trkpt lat="46.96532" lon="-0.92222">
        <ele>95</ele>
        <time>2015-03-12T15:02:42Z</time>
      </trkpt>
      <trkpt lat="46.96529" lon="-0.92224">
        <ele>95</ele>
        <time>2015-03-12T15:02:44Z</time>
      </trkpt>
      <trkpt lat="46.96527" lon="-0.92226">
        <ele>95</ele>
        <time>2015-03-12T15:02:46Z</time>
      </trkpt>
      <trkpt lat="46.96526" lon="-0.92227">
        <ele>95</ele>
        <time>2015-03-12T15:02:48Z</time>
      </trkpt>
      <trkpt lat="46.96524" lon="-0.92229">
        <ele>95</ele>
        <time>2015-03-12T15:02:50Z</time>
      </trkpt>
      <trkpt lat="46.96521" lon="-0.92231">
        <ele>95</ele>
        <time>2015-03-12T15:02:52Z</time>
      </trkpt>
      <trkpt lat="46.9652" lon="-0.92233">
        <ele>95</ele>
        <time>2015-03-12T15:02:54Z</time>
      </trkpt>
      <trkpt lat="46.96518" lon="-0.92235">
        <ele>95</ele>
        <time>2015-03-12T15:02:56Z</time>
      </trkpt>
      <trkpt lat="46.96515" lon="-0.92238">
        <ele>95</ele>
        <time>2015-03-12T15:02:59Z</time>
      </trkpt>
      <trkpt lat="46.96513" lon="-0.9224">
        <ele>95</ele>
        <time>2015-03-12T15:03:01Z</time>
      </trkpt>
      <trkpt lat="46.96511" lon="-0.92242">
        <ele>95</ele>
        <time>2015-03-12T15:03:03Z</time>
      </trkpt>
      <trkpt lat="46.9651" lon="-0.92244">
        <ele>95</ele>
        <time>2015-03-12T15:03:05Z</time>
      </trkpt>
      <trkpt lat="46.96507" lon="-0.92247">
        <ele>95</ele>
        <time>2015-03-12T15:03:07Z</time>
      </trkpt>
      <trkpt lat="46.96505" lon="-0.92248">
        <ele>95</ele>
        <time>2015-03-12T15:03:09Z</time>
      </trkpt>
      <trkpt lat="46.96502" lon="-0.92251">
        <ele>95</ele>
        <time>2015-03-12T15:03:12Z</time>
      </trkpt>
      <trkpt lat="46.965" lon="-0.92253">
        <ele>95</ele>
        <time>2015-03-12T15:03:14Z</time>
      </trkpt>
      <trkpt lat="46.96497" lon="-0.92256">
        <ele>95</ele>
        <time>2015-03-12T15:03:17Z</time>
      </trkpt>
      <trkpt lat="46.96495" lon="-0.92258">
        <ele>95</ele>
        <time>2015-03-12T15:03:19Z</time>
      </trkpt>
      <trkpt lat="46.96492" lon="-0.9226">
        <ele>95</ele>
        <time>2015-03-12T15:03:21Z</time>
      </trkpt>
      <trkpt lat="46.96489" lon="-0.92263">
        <ele>95</ele>
        <time>2015-03-12T15:03:24Z</time>
      </trkpt>
      <trkpt lat="46.96487" lon="-0.92265">
        <ele>95</ele>
        <time>2015-03-12T15:03:26Z</time>
      </trkpt>
      <trkpt lat="46.96484" lon="-0.92268">
        <ele>95</ele>
        <time>2015-03-12T15:03:29Z</time>
      </trkpt>
      <trkpt lat="46.96482" lon="-0.9227">
        <ele>95</ele>
        <time>2015-03-12T15:03:31Z</time>
      </trkpt>
      <trkpt lat="46.9648" lon="-0.92273">
        <ele>95</ele>
        <time>2015-03-12T15:03:33Z</time>
      </trkpt>
      <trkpt lat="46.96478" lon="-0.92275">
        <ele>95</ele>
        <time>2015-03-12T15:03:35Z</time>
      </trkpt>
      <trkpt lat="46.96476" lon="-0.92277">
        <ele>95</ele>
        <time>2015-03-12T15:03:37Z</time>
      </trkpt>
      <trkpt lat="46.96473" lon="-0.92279">
        <ele>95</ele>
        <time>2015-03-12T15:03:39Z</time>
      </trkpt>
      <trkpt lat="46.9647" lon="-0.92282">
        <ele>95</ele>
        <time>2015-03-12T15:03:42Z</time>
      </trkpt>
      <trkpt lat="46.96467" lon="-0.92286">
        <ele>95</ele>
        <time>2015-03-12T15:03:45Z</time>
      </trkpt>
      <trkpt lat="46.96464" lon="-0.92289">
        <ele>95</ele>
        <time>2015-03-12T15:03:48Z</time>
      </trkpt>
      <trkpt lat="46.96461" lon="-0.92291">
        <ele>95</ele>
        <time>2015-03-12T15:03:50Z</time>
      </trkpt>
      <trkpt lat="46.96459" lon="-0.92293">
        <ele>95</ele>
        <time>2015-03-12T15:03:52Z</time>
      </trkpt>
      <trkpt lat="46.96457" lon="-0.92295">
        <ele>95</ele>
        <time>2015-03-12T15:03:54Z</time>
      </trkpt>
      <trkpt lat="46.96456" lon="-0.92299">
        <ele>95</ele>
        <time>2015-03-12T15:03:56Z</time>
      </trkpt>
      <trkpt lat="46.96454" lon="-0.92303">
        <ele>95</ele>
        <time>2015-03-12T15:03:58Z</time>
      </trkpt>
      <trkpt lat="46.96453" lon="-0.92306">
        <ele>95</ele>
        <time>2015-03-12T15:04:00Z</time>
      </trkpt>
      <trkpt lat="46.96452" lon="-0.92309">
        <ele>95</ele>
        <time>2015-03-12T15:04:02Z</time>
      </trkpt>
      <trkpt lat="46.96451" lon="-0.92312">
        <ele>95</ele>
        <time>2015-03-12T15:04:04Z</time>
      </trkpt>
      <trkpt lat="46.9645" lon="-0.92316">
        <ele>95</ele>
        <time>2015-03-12T15:04:06Z</time>
      </trkpt>
      <trkpt lat="46.96449" lon="-0.9232">
        <ele>95</ele>
        <time>2015-03-12T15:04:08Z</time>
      </trkpt>
      <trkpt lat="46.96447" lon="-0.92323">
        <ele>96</ele>
        <time>2015-03-12T15:04:10Z</time>
      </trkpt>
      <trkpt lat="46.96445" lon="-0.92326">
        <ele>96</ele>
        <time>2015-03-12T15:04:12Z</time>
      </trkpt>
      <trkpt lat="46.96444" lon="-0.9233">
        <ele>96</ele>
        <time>2015-03-12T15:04:14Z</time>
      </trkpt>
      <trkpt lat="46.96443" lon="-0.92334">
        <ele>96</ele>
        <time>2015-03-12T15:04:16Z</time>
      </trkpt>
      <trkpt lat="46.96442" lon="-0.92337">
        <ele>96</ele>
        <time>2015-03-12T15:04:18Z</time>
      </trkpt>
      <trkpt lat="46.96442" lon="-0.9234">
        <ele>97</ele>
        <time>2015-03-12T15:04:20Z</time>
      </trkpt>
      <trkpt lat="46.96441" lon="-0.92342">
        <ele>97</ele>
        <time>2015-03-12T15:04:22Z</time>
      </trkpt>
      <trkpt lat="46.9644" lon="-0.92347">
        <ele>97</ele>
        <time>2015-03-12T15:04:25Z</time>
      </trkpt>
      <trkpt lat="46.96437" lon="-0.92351">
        <ele>97</ele>
        <time>2015-03-12T15:04:28Z</time>
      </trkpt>
      <trkpt lat="46.96435" lon="-0.92354">
        <ele>97</ele>
        <time>2015-03-12T15:04:30Z</time>
      </trkpt>
      <trkpt lat="46.96434" lon="-0.92358">
        <ele>97</ele>
        <time>2015-03-12T15:04:32Z</time>
      </trkpt>
      <trkpt lat="46.96432" lon="-0.92362">
        <ele>97</ele>
        <time>2015-03-12T15:04:34Z</time>
      </trkpt>
      <trkpt lat="46.96431" lon="-0.92366">
        <ele>97</ele>
        <time>2015-03-12T15:04:36Z</time>
      </trkpt>
      <trkpt lat="46.9643" lon="-0.92371">
        <ele>97</ele>
        <time>2015-03-12T15:04:38Z</time>
      </trkpt>
      <trkpt lat="46.96429" lon="-0.92375">
        <ele>97</ele>
        <time>2015-03-12T15:04:40Z</time>
      </trkpt>
      <trkpt lat="46.96428" lon="-0.92378">
        <ele>97</ele>
        <time>2015-03-12T15:04:42Z</time>
      </trkpt>
      <trkpt lat="46.96428" lon="-0.92381">
        <ele>97</ele>
        <time>2015-03-12T15:04:44Z</time>
      </trkpt>
      <trkpt lat="46.96427" lon="-0.92386">
        <ele>97</ele>
        <time>2015-03-12T15:04:47Z</time>
      </trkpt>
      <trkpt lat="46.96428" lon="-0.92389">
        <ele>97</ele>
        <time>2015-03-12T15:04:49Z</time>
      </trkpt>
      <trkpt lat="46.96429" lon="-0.92393">
        <ele>97</ele>
        <time>2015-03-12T15:04:51Z</time>
      </trkpt>
      <trkpt lat="46.9643" lon="-0.92395">
        <ele>97</ele>
        <time>2015-03-12T15:04:53Z</time>
      </trkpt>
      <trkpt lat="46.96431" lon="-0.92397">
        <ele>97</ele>
        <time>2015-03-12T15:04:55Z</time>
      </trkpt>
      <trkpt lat="46.96431" lon="-0.92402">
        <ele>97</ele>
        <time>2015-03-12T15:04:58Z</time>
      </trkpt>
      <trkpt lat="46.96433" lon="-0.92405">
        <ele>97</ele>
        <time>2015-03-12T15:05:00Z</time>
      </trkpt>
      <trkpt lat="46.96434" lon="-0.92409">
        <ele>97</ele>
        <time>2015-03-12T15:05:02Z</time>
      </trkpt>
      <trkpt lat="46.96436" lon="-0.92412">
        <ele>97</ele>
        <time>2015-03-12T15:05:04Z</time>
      </trkpt>
      <trkpt lat="46.96438" lon="-0.92415">
        <ele>97</ele>
        <time>2015-03-12T15:05:06Z</time>
      </trkpt>
      <trkpt lat="46.96441" lon="-0.92417">
        <ele>97</ele>
        <time>2015-03-12T15:05:08Z</time>
      </trkpt>
      <trkpt lat="46.96443" lon="-0.92422">
        <ele>99</ele>
        <time>2015-03-12T15:05:10Z</time>
      </trkpt>
      <trkpt lat="46.96444" lon="-0.92425">
        <ele>101</ele>
        <time>2015-03-12T15:05:12Z</time>
      </trkpt>
      <trkpt lat="46.96444" lon="-0.92428">
        <ele>101</ele>
        <time>2015-03-12T15:05:14Z</time>
      </trkpt>
      <trkpt lat="46.96443" lon="-0.92432">
        <ele>101</ele>
        <time>2015-03-12T15:05:16Z</time>
      </trkpt>
      <trkpt lat="46.96443" lon="-0.92436">
        <ele>101</ele>
        <time>2015-03-12T15:05:18Z</time>
      </trkpt>
      <trkpt lat="46.96443" lon="-0.9244">
        <ele>101</ele>
        <time>2015-03-12T15:05:20Z</time>
      </trkpt>
      <trkpt lat="46.96444" lon="-0.92443">
        <ele>101</ele>
        <time>2015-03-12T15:05:22Z</time>
      </trkpt>
      <trkpt lat="46.96446" lon="-0.92446">
        <ele>101</ele>
        <time>2015-03-12T15:05:24Z</time>
      </trkpt>
      <trkpt lat="46.96447" lon="-0.92451">
        <ele>101</ele>
        <time>2015-03-12T15:05:26Z</time>
      </trkpt>
      <trkpt lat="46.96448" lon="-0.92456">
        <ele>101</ele>
        <time>2015-03-12T15:05:29Z</time>
      </trkpt>
      <trkpt lat="46.96449" lon="-0.92458">
        <ele>101</ele>
        <time>2015-03-12T15:05:31Z</time>
      </trkpt>
      <trkpt lat="46.9645" lon="-0.92462">
        <ele>101</ele>
        <time>2015-03-12T15:05:33Z</time>
      </trkpt>
      <trkpt lat="46.96451" lon="-0.92465">
        <ele>101</ele>
        <time>2015-03-12T15:05:35Z</time>
      </trkpt>
      <trkpt lat="46.9645" lon="-0.9247">
        <ele>101</ele>
        <time>2015-03-12T15:05:38Z</time>
      </trkpt>
      <trkpt lat="46.9645" lon="-0.92474">
        <ele>101</ele>
        <time>2015-03-12T15:05:40Z</time>
      </trkpt>
      <trkpt lat="46.9645" lon="-0.92479">
        <ele>99</ele>
        <time>2015-03-12T15:05:43Z</time>
      </trkpt>
      <trkpt lat="46.9645" lon="-0.92483">
        <ele>98</ele>
        <time>2015-03-12T15:05:45Z</time>
      </trkpt>
      <trkpt lat="46.9645" lon="-0.92487">
        <ele>96</ele>
        <time>2015-03-12T15:05:47Z</time>
      </trkpt>
      <trkpt lat="46.96451" lon="-0.92491">
        <ele>96</ele>
        <time>2015-03-12T15:05:50Z</time>
      </trkpt>
      <trkpt lat="46.96454" lon="-0.92493">
        <ele>96</ele>
        <time>2015-03-12T15:05:52Z</time>
      </trkpt>
      <trkpt lat="46.96457" lon="-0.92496">
        <ele>96</ele>
        <time>2015-03-12T15:05:54Z</time>
      </trkpt>
      <trkpt lat="46.96457" lon="-0.92498">
        <ele>96</ele>
        <time>2015-03-12T15:05:56Z</time>
      </trkpt>
      <trkpt lat="46.96458" lon="-0.92501">
        <ele>96</ele>
        <time>2015-03-12T15:05:58Z</time>
      </trkpt>
      <trkpt lat="46.96459" lon="-0.92504">
        <ele>96</ele>
        <time>2015-03-12T15:06:00Z</time>
      </trkpt>
      <trkpt lat="46.96463" lon="-0.92507">
        <ele>97</ele>
        <time>2015-03-12T15:06:03Z</time>
      </trkpt>
      <trkpt lat="46.96464" lon="-0.9251">
        <ele>99</ele>
        <time>2015-03-12T15:06:05Z</time>
      </trkpt>
      <trkpt lat="46.96466" lon="-0.92513">
        <ele>99</ele>
        <time>2015-03-12T15:06:07Z</time>
      </trkpt>
      <trkpt lat="46.96468" lon="-0.92516">
        <ele>99</ele>
        <time>2015-03-12T15:06:09Z</time>
      </trkpt>
      <trkpt lat="46.96469" lon="-0.92519">
        <ele>99</ele>
        <time>2015-03-12T15:06:11Z</time>
      </trkpt>
      <trkpt lat="46.96469" lon="-0.92523">
        <ele>99</ele>
        <time>2015-03-12T15:06:13Z</time>
      </trkpt>
      <trkpt lat="46.96472" lon="-0.92527">
        <ele>99</ele>
        <time>2015-03-12T15:06:16Z</time>
      </trkpt>
      <trkpt lat="46.96473" lon="-0.92529">
        <ele>99</ele>
        <time>2015-03-12T15:06:18Z</time>
      </trkpt>
      <trkpt lat="46.96475" lon="-0.92531">
        <ele>99</ele>
        <time>2015-03-12T15:06:20Z</time>
      </trkpt>
      <trkpt lat="46.96479" lon="-0.92533">
        <ele>99</ele>
        <time>2015-03-12T15:06:22Z</time>
      </trkpt>
      <trkpt lat="46.9648" lon="-0.92537">
        <ele>99</ele>
        <time>2015-03-12T15:06:24Z</time>
      </trkpt>
      <trkpt lat="46.9648" lon="-0.92541">
        <ele>99</ele>
        <time>2015-03-12T15:06:26Z</time>
      </trkpt>
      <trkpt lat="46.96481" lon="-0.92546">
        <ele>99</ele>
        <time>2015-03-12T15:06:28Z</time>
      </trkpt>
      <trkpt lat="46.96484" lon="-0.92549">
        <ele>99</ele>
        <time>2015-03-12T15:06:30Z</time>
      </trkpt>
      <trkpt lat="46.96486" lon="-0.92552">
        <ele>99</ele>
        <time>2015-03-12T15:06:32Z</time>
      </trkpt>
      <trkpt lat="46.96485" lon="-0.92556">
        <ele>99</ele>
        <time>2015-03-12T15:06:34Z</time>
      </trkpt>
      <trkpt lat="46.96489" lon="-0.92559">
        <ele>99</ele>
        <time>2015-03-12T15:06:37Z</time>
      </trkpt>
      <trkpt lat="46.96491" lon="-0.92561">
        <ele>99</ele>
        <time>2015-03-12T15:06:39Z</time>
      </trkpt>
      <trkpt lat="46.96493" lon="-0.92563">
        <ele>99</ele>
        <time>2015-03-12T15:06:41Z</time>
      </trkpt>
      <trkpt lat="46.96496" lon="-0.92565">
        <ele>99</ele>
        <time>2015-03-12T15:06:43Z</time>
      </trkpt>
      <trkpt lat="46.96497" lon="-0.92568">
        <ele>99</ele>
        <time>2015-03-12T15:06:45Z</time>
      </trkpt>
      <trkpt lat="46.96498" lon="-0.92572">
        <ele>99</ele>
        <time>2015-03-12T15:06:47Z</time>
      </trkpt>
      <trkpt lat="46.96501" lon="-0.92576">
        <ele>99</ele>
        <time>2015-03-12T15:06:50Z</time>
      </trkpt>
      <trkpt lat="46.96502" lon="-0.92579">
        <ele>99</ele>
        <time>2015-03-12T15:06:52Z</time>
      </trkpt>
      <trkpt lat="46.96502" lon="-0.92582">
        <ele>99</ele>
        <time>2015-03-12T15:06:54Z</time>
      </trkpt>
      <trkpt lat="46.96502" lon="-0.92585">
        <ele>99</ele>
        <time>2015-03-12T15:06:56Z</time>
      </trkpt>
      <trkpt lat="46.96501" lon="-0.92588">
        <ele>99</ele>
        <time>2015-03-12T15:06:58Z</time>
      </trkpt>
      <trkpt lat="46.96498" lon="-0.9259">
        <ele>99</ele>
        <time>2015-03-12T15:07:00Z</time>
      </trkpt>
      <trkpt lat="46.96498" lon="-0.92592">
        <ele>99</ele>
        <time>2015-03-12T15:07:02Z</time>
      </trkpt>
      <trkpt lat="46.96495" lon="-0.92593">
        <ele>99</ele>
        <time>2015-03-12T15:07:05Z</time>
      </trkpt>
      <trkpt lat="46.96493" lon="-0.92594">
        <ele>99</ele>
        <time>2015-03-12T15:07:07Z</time>
      </trkpt>
      <trkpt lat="46.9649" lon="-0.92594">
        <ele>99</ele>
        <time>2015-03-12T15:07:10Z</time>
      </trkpt>
      <trkpt lat="46.96488" lon="-0.92596">
        <ele>99</ele>
        <time>2015-03-12T15:07:12Z</time>
      </trkpt>
      <trkpt lat="46.96485" lon="-0.92599">
        <ele>99</ele>
        <time>2015-03-12T15:07:15Z</time>
      </trkpt>
      <trkpt lat="46.96484" lon="-0.92601">
        <ele>99</ele>
        <time>2015-03-12T15:07:17Z</time>
      </trkpt>
      <trkpt lat="46.96482" lon="-0.92602">
        <ele>99</ele>
        <time>2015-03-12T15:07:19Z</time>
      </trkpt>
      <trkpt lat="46.9648" lon="-0.92602">
        <ele>99</ele>
        <time>2015-03-12T15:07:21Z</time>
      </trkpt>
      <trkpt lat="46.96477" lon="-0.92605">
        <ele>99</ele>
        <time>2015-03-12T15:07:23Z</time>
      </trkpt>
      <trkpt lat="46.96474" lon="-0.92607">
        <ele>99</ele>
        <time>2015-03-12T15:07:25Z</time>
      </trkpt>
      <trkpt lat="46.96472" lon="-0.92608">
        <ele>99</ele>
        <time>2015-03-12T15:07:27Z</time>
      </trkpt>
      <trkpt lat="46.96468" lon="-0.9261">
        <ele>99</ele>
        <time>2015-03-12T15:07:30Z</time>
      </trkpt>
      <trkpt lat="46.96466" lon="-0.9261">
        <ele>99</ele>
        <time>2015-03-12T15:07:32Z</time>
      </trkpt>
      <trkpt lat="46.96464" lon="-0.92611">
        <ele>99</ele>
        <time>2015-03-12T15:07:34Z</time>
      </trkpt>
      <trkpt lat="46.96461" lon="-0.92614">
        <ele>99</ele>
        <time>2015-03-12T15:07:37Z</time>
      </trkpt>
      <trkpt lat="46.96458" lon="-0.92616">
        <ele>99</ele>
        <time>2015-03-12T15:07:41Z</time>
      </trkpt>
      <trkpt lat="46.96454" lon="-0.9262">
        <ele>99</ele>
        <time>2015-03-12T15:07:43Z</time>
      </trkpt>
      <trkpt lat="46.96452" lon="-0.92621">
        <ele>100</ele>
        <time>2015-03-12T15:07:45Z</time>
      </trkpt>
      <trkpt lat="46.96449" lon="-0.92623">
        <ele>101</ele>
        <time>2015-03-12T15:07:48Z</time>
      </trkpt>
      <trkpt lat="46.96445" lon="-0.92626">
        <ele>101</ele>
        <time>2015-03-12T15:07:52Z</time>
      </trkpt>
      <trkpt lat="46.96444" lon="-0.92628">
        <ele>101</ele>
        <time>2015-03-12T15:07:54Z</time>
      </trkpt>
      <trkpt lat="46.96442" lon="-0.92629">
        <ele>101</ele>
        <time>2015-03-12T15:07:56Z</time>
      </trkpt>
      <trkpt lat="46.96438" lon="-0.92631">
        <ele>101</ele>
        <time>2015-03-12T15:07:59Z</time>
      </trkpt>
      <trkpt lat="46.96435" lon="-0.92631">
        <ele>101</ele>
        <time>2015-03-12T15:08:01Z</time>
      </trkpt>
      <trkpt lat="46.96432" lon="-0.92631">
        <ele>101</ele>
        <time>2015-03-12T15:08:03Z</time>
      </trkpt>
      <trkpt lat="46.96429" lon="-0.92634">
        <ele>101</ele>
        <time>2015-03-12T15:08:06Z</time>
      </trkpt>
      <trkpt lat="46.96426" lon="-0.92636">
        <ele>101</ele>
        <time>2015-03-12T15:08:09Z</time>
      </trkpt>
      <trkpt lat="46.96424" lon="-0.9264">
        <ele>101</ele>
        <time>2015-03-12T15:08:11Z</time>
      </trkpt>
      <trkpt lat="46.96422" lon="-0.92641">
        <ele>101</ele>
        <time>2015-03-12T15:08:13Z</time>
      </trkpt>
      <trkpt lat="46.96421" lon="-0.92642">
        <ele>101</ele>
        <time>2015-03-12T15:08:15Z</time>
      </trkpt>
      <trkpt lat="46.96418" lon="-0.92643">
        <ele>101</ele>
        <time>2015-03-12T15:08:17Z</time>
      </trkpt>
      <trkpt lat="46.96414" lon="-0.92644">
        <ele>100</ele>
        <time>2015-03-12T15:08:19Z</time>
      </trkpt>
      <trkpt lat="46.96411" lon="-0.92646">
        <ele>100</ele>
        <time>2015-03-12T15:08:22Z</time>
      </trkpt>
      <trkpt lat="46.96408" lon="-0.92649">
        <ele>100</ele>
        <time>2015-03-12T15:08:25Z</time>
      </trkpt>
      <trkpt lat="46.96407" lon="-0.9265">
        <ele>100</ele>
        <time>2015-03-12T15:08:27Z</time>
      </trkpt>
      <trkpt lat="46.96405" lon="-0.92653">
        <ele>100</ele>
        <time>2015-03-12T15:08:29Z</time>
      </trkpt>
      <trkpt lat="46.96403" lon="-0.92656">
        <ele>100</ele>
        <time>2015-03-12T15:08:31Z</time>
      </trkpt>
      <trkpt lat="46.964" lon="-0.9266">
        <ele>100</ele>
        <time>2015-03-12T15:08:34Z</time>
      </trkpt>
      <trkpt lat="46.96401" lon="-0.92664">
        <ele>100</ele>
        <time>2015-03-12T15:08:36Z</time>
      </trkpt>
      <trkpt lat="46.96402" lon="-0.92668">
        <ele>100</ele>
        <time>2015-03-12T15:08:39Z</time>
      </trkpt>
      <trkpt lat="46.96403" lon="-0.92672">
        <ele>100</ele>
        <time>2015-03-12T15:08:41Z</time>
      </trkpt>
      <trkpt lat="46.96405" lon="-0.92675">
        <ele>100</ele>
        <time>2015-03-12T15:08:43Z</time>
      </trkpt>
      <trkpt lat="46.96407" lon="-0.92677">
        <ele>100</ele>
        <time>2015-03-12T15:08:45Z</time>
      </trkpt>
      <trkpt lat="46.96408" lon="-0.92679">
        <ele>100</ele>
        <time>2015-03-12T15:08:47Z</time>
      </trkpt>
      <trkpt lat="46.96409" lon="-0.9268">
        <ele>100</ele>
        <time>2015-03-12T15:08:49Z</time>
      </trkpt>
      <trkpt lat="46.96411" lon="-0.92682">
        <ele>100</ele>
        <time>2015-03-12T15:08:51Z</time>
      </trkpt>
      <trkpt lat="46.96414" lon="-0.92682">
        <ele>100</ele>
        <time>2015-03-12T15:08:55Z</time>
      </trkpt>
      <trkpt lat="46.96417" lon="-0.92682">
        <ele>100</ele>
        <time>2015-03-12T15:08:57Z</time>
      </trkpt>
      <trkpt lat="46.96421" lon="-0.92681">
        <ele>100</ele>
        <time>2015-03-12T15:08:59Z</time>
      </trkpt>
      <trkpt lat="46.96423" lon="-0.92681">
        <ele>100</ele>
        <time>2015-03-12T15:09:01Z</time>
      </trkpt>
      <trkpt lat="46.96425" lon="-0.9268">
        <ele>100</ele>
        <time>2015-03-12T15:09:03Z</time>
      </trkpt>
      <trkpt lat="46.96431" lon="-0.9268">
        <ele>100</ele>
        <time>2015-03-12T15:09:06Z</time>
      </trkpt>
      <trkpt lat="46.96434" lon="-0.92681">
        <ele>101</ele>
        <time>2015-03-12T15:09:10Z</time>
      </trkpt>
      <trkpt lat="46.96438" lon="-0.92683">
        <ele>101</ele>
        <time>2015-03-12T15:09:12Z</time>
      </trkpt>
      <trkpt lat="46.96441" lon="-0.92685">
        <ele>101</ele>
        <time>2015-03-12T15:09:15Z</time>
      </trkpt>
      <trkpt lat="46.96444" lon="-0.92685">
        <ele>101</ele>
        <time>2015-03-12T15:09:17Z</time>
      </trkpt>
      <trkpt lat="46.96447" lon="-0.92686">
        <ele>101</ele>
        <time>2015-03-12T15:09:19Z</time>
      </trkpt>
      <trkpt lat="46.96451" lon="-0.92687">
        <ele>101</ele>
        <time>2015-03-12T15:09:22Z</time>
      </trkpt>
      <trkpt lat="46.96455" lon="-0.92687">
        <ele>101</ele>
        <time>2015-03-12T15:09:24Z</time>
      </trkpt>
      <trkpt lat="46.96458" lon="-0.92687">
        <ele>101</ele>
        <time>2015-03-12T15:09:26Z</time>
      </trkpt>
      <trkpt lat="46.96461" lon="-0.92687">
        <ele>101</ele>
        <time>2015-03-12T15:09:28Z</time>
      </trkpt>
      <trkpt lat="46.96463" lon="-0.92688">
        <ele>101</ele>
        <time>2015-03-12T15:09:30Z</time>
      </trkpt>
      <trkpt lat="46.96466" lon="-0.92689">
        <ele>101</ele>
        <time>2015-03-12T15:09:33Z</time>
      </trkpt>
      <trkpt lat="46.9647" lon="-0.9269">
        <ele>101</ele>
        <time>2015-03-12T15:09:36Z</time>
      </trkpt>
      <trkpt lat="46.96472" lon="-0.92691">
        <ele>101</ele>
        <time>2015-03-12T15:09:38Z</time>
      </trkpt>
      <trkpt lat="46.96474" lon="-0.92691">
        <ele>101</ele>
        <time>2015-03-12T15:09:40Z</time>
      </trkpt>
      <trkpt lat="46.96478" lon="-0.92691">
        <ele>101</ele>
        <time>2015-03-12T15:09:43Z</time>
      </trkpt>
      <trkpt lat="46.9648" lon="-0.92691">
        <ele>101</ele>
        <time>2015-03-12T15:09:45Z</time>
      </trkpt>
      <trkpt lat="46.96482" lon="-0.9269">
        <ele>101</ele>
        <time>2015-03-12T15:09:47Z</time>
      </trkpt>
      <trkpt lat="46.96486" lon="-0.92689">
        <ele>101</ele>
        <time>2015-03-12T15:09:50Z</time>
      </trkpt>
      <trkpt lat="46.96489" lon="-0.92689">
        <ele>101</ele>
        <time>2015-03-12T15:09:53Z</time>
      </trkpt>
      <trkpt lat="46.96492" lon="-0.92689">
        <ele>101</ele>
        <time>2015-03-12T15:09:55Z</time>
      </trkpt>
      <trkpt lat="46.96495" lon="-0.9269">
        <ele>101</ele>
        <time>2015-03-12T15:09:57Z</time>
      </trkpt>
      <trkpt lat="46.96497" lon="-0.92691">
        <ele>101</ele>
        <time>2015-03-12T15:09:59Z</time>
      </trkpt>
      <trkpt lat="46.965" lon="-0.92691">
        <ele>101</ele>
        <time>2015-03-12T15:10:01Z</time>
      </trkpt>
      <trkpt lat="46.96504" lon="-0.92691">
        <ele>101</ele>
        <time>2015-03-12T15:10:03Z</time>
      </trkpt>
      <trkpt lat="46.96507" lon="-0.92691">
        <ele>101</ele>
        <time>2015-03-12T15:10:05Z</time>
      </trkpt>
      <trkpt lat="46.9651" lon="-0.92693">
        <ele>101</ele>
        <time>2015-03-12T15:10:07Z</time>
      </trkpt>
      <trkpt lat="46.96511" lon="-0.92695">
        <ele>101</ele>
        <time>2015-03-12T15:10:09Z</time>
      </trkpt>
      <trkpt lat="46.96514" lon="-0.92696">
        <ele>101</ele>
        <time>2015-03-12T15:10:11Z</time>
      </trkpt>
      <trkpt lat="46.96517" lon="-0.92699">
        <ele>101</ele>
        <time>2015-03-12T15:10:13Z</time>
      </trkpt>
      <trkpt lat="46.96518" lon="-0.927">
        <ele>101</ele>
        <time>2015-03-12T15:10:15Z</time>
      </trkpt>
      <trkpt lat="46.96521" lon="-0.92703">
        <ele>101</ele>
        <time>2015-03-12T15:10:17Z</time>
      </trkpt>
      <trkpt lat="46.96524" lon="-0.92706">
        <ele>101</ele>
        <time>2015-03-12T15:10:21Z</time>
      </trkpt>
      <trkpt lat="46.96528" lon="-0.92708">
        <ele>101</ele>
        <time>2015-03-12T15:10:25Z</time>
      </trkpt>
      <trkpt lat="46.9653" lon="-0.92711">
        <ele>101</ele>
        <time>2015-03-12T15:10:27Z</time>
      </trkpt>
      <trkpt lat="46.96533" lon="-0.92716">
        <ele>101</ele>
        <time>2015-03-12T15:10:31Z</time>
      </trkpt>
      <trkpt lat="46.96535" lon="-0.92719">
        <ele>101</ele>
        <time>2015-03-12T15:10:33Z</time>
      </trkpt>
      <trkpt lat="46.96537" lon="-0.92723">
        <ele>101</ele>
        <time>2015-03-12T15:10:35Z</time>
      </trkpt>
      <trkpt lat="46.96538" lon="-0.92728">
        <ele>101</ele>
        <time>2015-03-12T15:10:38Z</time>
      </trkpt>
      <trkpt lat="46.96539" lon="-0.9273">
        <ele>101</ele>
        <time>2015-03-12T15:10:40Z</time>
      </trkpt>
      <trkpt lat="46.96541" lon="-0.92733">
        <ele>101</ele>
        <time>2015-03-12T15:10:42Z</time>
      </trkpt>
      <trkpt lat="46.96542" lon="-0.92737">
        <ele>101</ele>
        <time>2015-03-12T15:10:45Z</time>
      </trkpt>
      <trkpt lat="46.96543" lon="-0.92741">
        <ele>99</ele>
        <time>2015-03-12T15:10:48Z</time>
      </trkpt>
      <trkpt lat="46.96549" lon="-0.92746">
        <ele>99</ele>
        <time>2015-03-12T15:10:51Z</time>
      </trkpt>
      <trkpt lat="46.9655" lon="-0.92749">
        <ele>99</ele>
        <time>2015-03-12T15:10:53Z</time>
      </trkpt>
      <trkpt lat="46.96552" lon="-0.92752">
        <ele>99</ele>
        <time>2015-03-12T15:10:55Z</time>
      </trkpt>
      <trkpt lat="46.96554" lon="-0.92755">
        <ele>99</ele>
        <time>2015-03-12T15:10:57Z</time>
      </trkpt>
      <trkpt lat="46.96555" lon="-0.92758">
        <ele>99</ele>
        <time>2015-03-12T15:10:59Z</time>
      </trkpt>
      <trkpt lat="46.96555" lon="-0.92761">
        <ele>99</ele>
        <time>2015-03-12T15:11:01Z</time>
      </trkpt>
      <trkpt lat="46.96556" lon="-0.92763">
        <ele>99</ele>
        <time>2015-03-12T15:11:03Z</time>
      </trkpt>
      <trkpt lat="46.96557" lon="-0.92766">
        <ele>99</ele>
        <time>2015-03-12T15:11:05Z</time>
      </trkpt>
      <trkpt lat="46.96561" lon="-0.9277">
        <ele>99</ele>
        <time>2015-03-12T15:11:09Z</time>
      </trkpt>
      <trkpt lat="46.96561" lon="-0.92772">
        <ele>99</ele>
        <time>2015-03-12T15:11:11Z</time>
      </trkpt>
      <trkpt lat="46.96563" lon="-0.92773">
        <ele>99</ele>
        <time>2015-03-12T15:11:13Z</time>
      </trkpt>
      <trkpt lat="46.96564" lon="-0.92775">
        <ele>99</ele>
        <time>2015-03-12T15:11:15Z</time>
      </trkpt>
      <trkpt lat="46.96568" lon="-0.92777">
        <ele>98</ele>
        <time>2015-03-12T15:11:17Z</time>
      </trkpt>
      <trkpt lat="46.96572" lon="-0.92778">
        <ele>97</ele>
        <time>2015-03-12T15:11:21Z</time>
      </trkpt>
      <trkpt lat="46.96575" lon="-0.92781">
        <ele>97</ele>
        <time>2015-03-12T15:11:25Z</time>
      </trkpt>
      <trkpt lat="46.96579" lon="-0.92784">
        <ele>97</ele>
        <time>2015-03-12T15:11:28Z</time>
      </trkpt>
      <trkpt lat="46.96582" lon="-0.92787">
        <ele>97</ele>
        <time>2015-03-12T15:11:31Z</time>
      </trkpt>
      <trkpt lat="46.96585" lon="-0.9279">
        <ele>97</ele>
        <time>2015-03-12T15:11:33Z</time>
      </trkpt>
      <trkpt lat="46.96588" lon="-0.92794">
        <ele>97</ele>
        <time>2015-03-12T15:11:36Z</time>
      </trkpt>
      <trkpt lat="46.96593" lon="-0.928">
        <ele>97</ele>
        <time>2015-03-12T15:11:40Z</time>
      </trkpt>
      <trkpt lat="46.96595" lon="-0.92804">
        <ele>97</ele>
        <time>2015-03-12T15:11:42Z</time>
      </trkpt>
      <trkpt lat="46.96594" lon="-0.92812">
        <ele>97</ele>
        <time>2015-03-12T15:11:45Z</time>
      </trkpt>
      <trkpt lat="46.96593" lon="-0.92814">
        <ele>97</ele>
        <time>2015-03-12T15:11:47Z</time>
      </trkpt>
      <trkpt lat="46.96593" lon="-0.92818">
        <ele>97</ele>
        <time>2015-03-12T15:11:49Z</time>
      </trkpt>
      <trkpt lat="46.96592" lon="-0.92824">
        <ele>97</ele>
        <time>2015-03-12T15:11:52Z</time>
      </trkpt>
      <trkpt lat="46.9659" lon="-0.92828">
        <ele>97</ele>
        <time>2015-03-12T15:11:54Z</time>
      </trkpt>
      <trkpt lat="46.96588" lon="-0.92832">
        <ele>97</ele>
        <time>2015-03-12T15:11:57Z</time>
      </trkpt>
      <trkpt lat="46.96587" lon="-0.92836">
        <ele>97</ele>
        <time>2015-03-12T15:11:59Z</time>
      </trkpt>
      <trkpt lat="46.96585" lon="-0.92841">
        <ele>97</ele>
        <time>2015-03-12T15:12:02Z</time>
      </trkpt>
      <trkpt lat="46.96585" lon="-0.92843">
        <ele>97</ele>
        <time>2015-03-12T15:12:04Z</time>
      </trkpt>
      <trkpt lat="46.96584" lon="-0.92846">
        <ele>97</ele>
        <time>2015-03-12T15:12:06Z</time>
      </trkpt>
      <trkpt lat="46.96582" lon="-0.9285">
        <ele>97</ele>
        <time>2015-03-12T15:12:08Z</time>
      </trkpt>
      <trkpt lat="46.96581" lon="-0.92853">
        <ele>97</ele>
        <time>2015-03-12T15:12:10Z</time>
      </trkpt>
      <trkpt lat="46.96579" lon="-0.92858">
        <ele>97</ele>
        <time>2015-03-12T15:12:14Z</time>
      </trkpt>
      <trkpt lat="46.96577" lon="-0.92862">
        <ele>97</ele>
        <time>2015-03-12T15:12:16Z</time>
      </trkpt>
      <trkpt lat="46.96574" lon="-0.92866">
        <ele>97</ele>
        <time>2015-03-12T15:12:19Z</time>
      </trkpt>
      <trkpt lat="46.96575" lon="-0.92869">
        <ele>97</ele>
        <time>2015-03-12T15:12:21Z</time>
      </trkpt>
      <trkpt lat="46.96576" lon="-0.92873">
        <ele>97</ele>
        <time>2015-03-12T15:12:23Z</time>
      </trkpt>
      <trkpt lat="46.96577" lon="-0.92878">
        <ele>97</ele>
        <time>2015-03-12T15:12:25Z</time>
      </trkpt>
      <trkpt lat="46.96577" lon="-0.92883">
        <ele>97</ele>
        <time>2015-03-12T15:12:28Z</time>
      </trkpt>
      <trkpt lat="46.96575" lon="-0.92887">
        <ele>97</ele>
        <time>2015-03-12T15:12:30Z</time>
      </trkpt>
      <trkpt lat="46.96574" lon="-0.92889">
        <ele>97</ele>
        <time>2015-03-12T15:12:32Z</time>
      </trkpt>
      <trkpt lat="46.96574" lon="-0.92891">
        <ele>97</ele>
        <time>2015-03-12T15:12:34Z</time>
      </trkpt>
      <trkpt lat="46.96572" lon="-0.92895">
        <ele>97</ele>
        <time>2015-03-12T15:12:36Z</time>
      </trkpt>
      <trkpt lat="46.96573" lon="-0.92899">
        <ele>97</ele>
        <time>2015-03-12T15:12:38Z</time>
      </trkpt>
      <trkpt lat="46.96574" lon="-0.92902">
        <ele>97</ele>
        <time>2015-03-12T15:12:40Z</time>
      </trkpt>
      <trkpt lat="46.96576" lon="-0.92905">
        <ele>97</ele>
        <time>2015-03-12T15:12:42Z</time>
      </trkpt>
      <trkpt lat="46.96578" lon="-0.92906">
        <ele>97</ele>
        <time>2015-03-12T15:12:44Z</time>
      </trkpt>
      <trkpt lat="46.96582" lon="-0.92906">
        <ele>97</ele>
        <time>2015-03-12T15:12:49Z</time>
      </trkpt>
      <trkpt lat="46.96584" lon="-0.92905">
        <ele>97</ele>
        <time>2015-03-12T15:12:51Z</time>
      </trkpt>
      <trkpt lat="46.96585" lon="-0.92905">
        <ele>97</ele>
        <time>2015-03-12T15:12:53Z</time>
      </trkpt>
      <trkpt lat="46.96587" lon="-0.92904">
        <ele>96</ele>
        <time>2015-03-12T15:12:55Z</time>
      </trkpt>
      <trkpt lat="46.96592" lon="-0.92904">
        <ele>96</ele>
        <time>2015-03-12T15:12:58Z</time>
      </trkpt>
      <trkpt lat="46.96594" lon="-0.92904">
        <ele>96</ele>
        <time>2015-03-12T15:13:00Z</time>
      </trkpt>
      <trkpt lat="46.96597" lon="-0.92903">
        <ele>96</ele>
        <time>2015-03-12T15:13:02Z</time>
      </trkpt>
      <trkpt lat="46.96599" lon="-0.92902">
        <ele>96</ele>
        <time>2015-03-12T15:13:04Z</time>
      </trkpt>
      <trkpt lat="46.96603" lon="-0.92902">
        <ele>96</ele>
        <time>2015-03-12T15:13:07Z</time>
      </trkpt>
      <trkpt lat="46.96605" lon="-0.92901">
        <ele>96</ele>
        <time>2015-03-12T15:13:09Z</time>
      </trkpt>
      <trkpt lat="46.96608" lon="-0.92901">
        <ele>96</ele>
        <time>2015-03-12T15:13:11Z</time>
      </trkpt>
      <trkpt lat="46.96611" lon="-0.92902">
        <ele>96</ele>
        <time>2015-03-12T15:13:14Z</time>
      </trkpt>
      <trkpt lat="46.96612" lon="-0.92903">
        <ele>96</ele>
        <time>2015-03-12T15:13:16Z</time>
      </trkpt>
      <trkpt lat="46.96614" lon="-0.92904">
        <ele>96</ele>
        <time>2015-03-12T15:13:18Z</time>
      </trkpt>
      <trkpt lat="46.96617" lon="-0.92905">
        <ele>96</ele>
        <time>2015-03-12T15:13:21Z</time>
      </trkpt>
      <trkpt lat="46.9662" lon="-0.92907">
        <ele>96</ele>
        <time>2015-03-12T15:13:24Z</time>
      </trkpt>
      <trkpt lat="46.96621" lon="-0.92909">
        <ele>96</ele>
        <time>2015-03-12T15:13:26Z</time>
      </trkpt>
      <trkpt lat="46.96624" lon="-0.92912">
        <ele>96</ele>
        <time>2015-03-12T15:13:30Z</time>
      </trkpt>
      <trkpt lat="46.96625" lon="-0.92914">
        <ele>96</ele>
        <time>2015-03-12T15:13:32Z</time>
      </trkpt>
      <trkpt lat="46.9663" lon="-0.92918">
        <ele>96</ele>
        <time>2015-03-12T15:13:36Z</time>
      </trkpt>
      <trkpt lat="46.96633" lon="-0.92922">
        <ele>96</ele>
        <time>2015-03-12T15:13:39Z</time>
      </trkpt>
      <trkpt lat="46.96637" lon="-0.92924">
        <ele>96</ele>
        <time>2015-03-12T15:13:41Z</time>
      </trkpt>
      <trkpt lat="46.9664" lon="-0.92926">
        <ele>96</ele>
        <time>2015-03-12T15:13:43Z</time>
      </trkpt>
      <trkpt lat="46.96642" lon="-0.92931">
        <ele>96</ele>
        <time>2015-03-12T15:13:46Z</time>
      </trkpt>
      <trkpt lat="46.96644" lon="-0.92933">
        <ele>96</ele>
        <time>2015-03-12T15:13:48Z</time>
      </trkpt>
      <trkpt lat="46.96644" lon="-0.92936">
        <ele>96</ele>
        <time>2015-03-12T15:13:50Z</time>
      </trkpt>
      <trkpt lat="46.96646" lon="-0.92939">
        <ele>96</ele>
        <time>2015-03-12T15:13:53Z</time>
      </trkpt>
      <trkpt lat="46.96648" lon="-0.92943">
        <ele>96</ele>
        <time>2015-03-12T15:13:56Z</time>
      </trkpt>
      <trkpt lat="46.96648" lon="-0.92946">
        <ele>96</ele>
        <time>2015-03-12T15:13:59Z</time>
      </trkpt>
      <trkpt lat="46.9665" lon="-0.92948">
        <ele>96</ele>
        <time>2015-03-12T15:14:01Z</time>
      </trkpt>
      <trkpt lat="46.9665" lon="-0.92952">
        <ele>96</ele>
        <time>2015-03-12T15:14:03Z</time>
      </trkpt>
      <trkpt lat="46.96651" lon="-0.92957">
        <ele>96</ele>
        <time>2015-03-12T15:14:06Z</time>
      </trkpt>
      <trkpt lat="46.96653" lon="-0.92961">
        <ele>96</ele>
        <time>2015-03-12T15:14:08Z</time>
      </trkpt>
      <trkpt lat="46.96656" lon="-0.92964">
        <ele>96</ele>
        <time>2015-03-12T15:14:12Z</time>
      </trkpt>
      <trkpt lat="46.96658" lon="-0.92965">
        <ele>96</ele>
        <time>2015-03-12T15:14:14Z</time>
      </trkpt>
      <trkpt lat="46.9666" lon="-0.92967">
        <ele>95</ele>
        <time>2015-03-12T15:14:16Z</time>
      </trkpt>
      <trkpt lat="46.96664" lon="-0.92971">
        <ele>94</ele>
        <time>2015-03-12T15:14:20Z</time>
      </trkpt>
      <trkpt lat="46.96668" lon="-0.92973">
        <ele>94</ele>
        <time>2015-03-12T15:14:24Z</time>
      </trkpt>
      <trkpt lat="46.96671" lon="-0.92975">
        <ele>94</ele>
        <time>2015-03-12T15:14:26Z</time>
      </trkpt>
      <trkpt lat="46.96674" lon="-0.92978">
        <ele>94</ele>
        <time>2015-03-12T15:14:29Z</time>
      </trkpt>
      <trkpt lat="46.96679" lon="-0.92981">
        <ele>94</ele>
        <time>2015-03-12T15:14:33Z</time>
      </trkpt>
      <trkpt lat="46.96681" lon="-0.92983">
        <ele>94</ele>
        <time>2015-03-12T15:14:35Z</time>
      </trkpt>
      <trkpt lat="46.96687" lon="-0.92985">
        <ele>94</ele>
        <time>2015-03-12T15:14:39Z</time>
      </trkpt>
      <trkpt lat="46.9669" lon="-0.92985">
        <ele>94</ele>
        <time>2015-03-12T15:14:41Z</time>
      </trkpt>
      <trkpt lat="46.96693" lon="-0.92986">
        <ele>94</ele>
        <time>2015-03-12T15:14:43Z</time>
      </trkpt>
      <trkpt lat="46.96697" lon="-0.92986">
        <ele>94</ele>
        <time>2015-03-12T15:14:45Z</time>
      </trkpt>
      <trkpt lat="46.96701" lon="-0.92986">
        <ele>94</ele>
        <time>2015-03-12T15:14:49Z</time>
      </trkpt>
      <trkpt lat="46.96703" lon="-0.92986">
        <ele>94</ele>
        <time>2015-03-12T15:14:51Z</time>
      </trkpt>
      <trkpt lat="46.96706" lon="-0.92986">
        <ele>94</ele>
        <time>2015-03-12T15:14:54Z</time>
      </trkpt>
      <trkpt lat="46.96708" lon="-0.92986">
        <ele>94</ele>
        <time>2015-03-12T15:14:56Z</time>
      </trkpt>
      <trkpt lat="46.96711" lon="-0.92987">
        <ele>94</ele>
        <time>2015-03-12T15:14:59Z</time>
      </trkpt>
      <trkpt lat="46.96714" lon="-0.92987">
        <ele>94</ele>
        <time>2015-03-12T15:15:02Z</time>
      </trkpt>
      <trkpt lat="46.96717" lon="-0.92986">
        <ele>94</ele>
        <time>2015-03-12T15:15:04Z</time>
      </trkpt>
      <trkpt lat="46.96721" lon="-0.92984">
        <ele>94</ele>
        <time>2015-03-12T15:15:07Z</time>
      </trkpt>
      <trkpt lat="46.96723" lon="-0.92983">
        <ele>94</ele>
        <time>2015-03-12T15:15:09Z</time>
      </trkpt>
      <trkpt lat="46.96726" lon="-0.92985">
        <ele>94</ele>
        <time>2015-03-12T15:15:12Z</time>
      </trkpt>
      <trkpt lat="46.9673" lon="-0.92985">
        <ele>94</ele>
        <time>2015-03-12T15:15:15Z</time>
      </trkpt>
      <trkpt lat="46.96732" lon="-0.92985">
        <ele>94</ele>
        <time>2015-03-12T15:15:17Z</time>
      </trkpt>
      <trkpt lat="46.96735" lon="-0.92985">
        <ele>94</ele>
        <time>2015-03-12T15:15:19Z</time>
      </trkpt>
      <trkpt lat="46.96737" lon="-0.92984">
        <ele>94</ele>
        <time>2015-03-12T15:15:21Z</time>
      </trkpt>
      <trkpt lat="46.96739" lon="-0.92984">
        <ele>94</ele>
        <time>2015-03-12T15:15:23Z</time>
      </trkpt>
      <trkpt lat="46.96741" lon="-0.92983">
        <ele>94</ele>
        <time>2015-03-12T15:15:25Z</time>
      </trkpt>
      <trkpt lat="46.96744" lon="-0.92979">
        <ele>94</ele>
        <time>2015-03-12T15:15:28Z</time>
      </trkpt>
      <trkpt lat="46.96748" lon="-0.92976">
        <ele>95</ele>
        <time>2015-03-12T15:15:31Z</time>
      </trkpt>
      <trkpt lat="46.96749" lon="-0.9297">
        <ele>95</ele>
        <time>2015-03-12T15:15:34Z</time>
      </trkpt>
      <trkpt lat="46.96751" lon="-0.92966">
        <ele>95</ele>
        <time>2015-03-12T15:15:37Z</time>
      </trkpt>
      <trkpt lat="46.96753" lon="-0.92961">
        <ele>95</ele>
        <time>2015-03-12T15:15:40Z</time>
      </trkpt>
      <trkpt lat="46.96754" lon="-0.92958">
        <ele>95</ele>
        <time>2015-03-12T15:15:42Z</time>
      </trkpt>
      <trkpt lat="46.96757" lon="-0.92954">
        <ele>95</ele>
        <time>2015-03-12T15:15:46Z</time>
      </trkpt>
      <trkpt lat="46.96758" lon="-0.9295">
        <ele>95</ele>
        <time>2015-03-12T15:15:48Z</time>
      </trkpt>
      <trkpt lat="46.96761" lon="-0.92946">
        <ele>95</ele>
        <time>2015-03-12T15:15:51Z</time>
      </trkpt>
      <trkpt lat="46.96763" lon="-0.9294">
        <ele>95</ele>
        <time>2015-03-12T15:15:54Z</time>
      </trkpt>
      <trkpt lat="46.96764" lon="-0.92935">
        <ele>95</ele>
        <time>2015-03-12T15:15:57Z</time>
      </trkpt>
      <trkpt lat="46.96766" lon="-0.92932">
        <ele>95</ele>
        <time>2015-03-12T15:15:59Z</time>
      </trkpt>
      <trkpt lat="46.96768" lon="-0.92928">
        <ele>95</ele>
        <time>2015-03-12T15:16:01Z</time>
      </trkpt>
      <trkpt lat="46.9677" lon="-0.92925">
        <ele>95</ele>
        <time>2015-03-12T15:16:04Z</time>
      </trkpt>
      <trkpt lat="46.9677" lon="-0.92922">
        <ele>95</ele>
        <time>2015-03-12T15:16:06Z</time>
      </trkpt>
      <trkpt lat="46.96772" lon="-0.92917">
        <ele>95</ele>
        <time>2015-03-12T15:16:09Z</time>
      </trkpt>
      <trkpt lat="46.96773" lon="-0.92914">
        <ele>95</ele>
        <time>2015-03-12T15:16:11Z</time>
      </trkpt>
      <trkpt lat="46.96774" lon="-0.92911">
        <ele>95</ele>
        <time>2015-03-12T15:16:13Z</time>
      </trkpt>
      <trkpt lat="46.96775" lon="-0.92906">
        <ele>95</ele>
        <time>2015-03-12T15:16:16Z</time>
      </trkpt>
      <trkpt lat="46.96776" lon="-0.92901">
        <ele>95</ele>
        <time>2015-03-12T15:16:19Z</time>
      </trkpt>
      <trkpt lat="46.96777" lon="-0.92898">
        <ele>95</ele>
        <time>2015-03-12T15:16:21Z</time>
      </trkpt>
      <trkpt lat="46.96778" lon="-0.92895">
        <ele>95</ele>
        <time>2015-03-12T15:16:23Z</time>
      </trkpt>
      <trkpt lat="46.9678" lon="-0.92891">
        <ele>95</ele>
        <time>2015-03-12T15:16:26Z</time>
      </trkpt>
      <trkpt lat="46.96781" lon="-0.92888">
        <ele>95</ele>
        <time>2015-03-12T15:16:28Z</time>
      </trkpt>
      <trkpt lat="46.96783" lon="-0.92883">
        <ele>95</ele>
        <time>2015-03-12T15:16:32Z</time>
      </trkpt>
      <trkpt lat="46.96786" lon="-0.92877">
        <ele>95</ele>
        <time>2015-03-12T15:16:36Z</time>
      </trkpt>
      <trkpt lat="46.9679" lon="-0.92874">
        <ele>95</ele>
        <time>2015-03-12T15:16:38Z</time>
      </trkpt>
      <trkpt lat="46.96793" lon="-0.92871">
        <ele>95</ele>
        <time>2015-03-12T15:16:41Z</time>
      </trkpt>
      <trkpt lat="46.96793" lon="-0.9287">
        <ele>95</ele>
        <time>2015-03-12T15:16:43Z</time>
      </trkpt>
      <trkpt lat="46.96795" lon="-0.92867">
        <ele>95</ele>
        <time>2015-03-12T15:16:45Z</time>
      </trkpt>
      <trkpt lat="46.96798" lon="-0.92861">
        <ele>95</ele>
        <time>2015-03-12T15:16:49Z</time>
      </trkpt>
      <trkpt lat="46.96798" lon="-0.92858">
        <ele>95</ele>
        <time>2015-03-12T15:16:51Z</time>
      </trkpt>
      <trkpt lat="46.968" lon="-0.92854">
        <ele>96</ele>
        <time>2015-03-12T15:16:54Z</time>
      </trkpt>
      <trkpt lat="46.96804" lon="-0.92851">
        <ele>97</ele>
        <time>2015-03-12T15:16:57Z</time>
      </trkpt>
      <trkpt lat="46.96806" lon="-0.92848">
        <ele>97</ele>
        <time>2015-03-12T15:17:00Z</time>
      </trkpt>
      <trkpt lat="46.96808" lon="-0.92846">
        <ele>97</ele>
        <time>2015-03-12T15:17:02Z</time>
      </trkpt>
      <trkpt lat="46.96809" lon="-0.92844">
        <ele>97</ele>
        <time>2015-03-12T15:17:04Z</time>
      </trkpt>
      <trkpt lat="46.96812" lon="-0.92842">
        <ele>97</ele>
        <time>2015-03-12T15:17:06Z</time>
      </trkpt>
      <trkpt lat="46.96814" lon="-0.9284">
        <ele>97</ele>
        <time>2015-03-12T15:17:09Z</time>
      </trkpt>
      <trkpt lat="46.96816" lon="-0.92839">
        <ele>97</ele>
        <time>2015-03-12T15:17:11Z</time>
      </trkpt>
      <trkpt lat="46.96817" lon="-0.92837">
        <ele>97</ele>
        <time>2015-03-12T15:17:13Z</time>
      </trkpt>
      <trkpt lat="46.96821" lon="-0.92833">
        <ele>97</ele>
        <time>2015-03-12T15:17:17Z</time>
      </trkpt>
      <trkpt lat="46.96823" lon="-0.92832">
        <ele>97</ele>
        <time>2015-03-12T15:17:19Z</time>
      </trkpt>
      <trkpt lat="46.96825" lon="-0.9283">
        <ele>96</ele>
        <time>2015-03-12T15:17:22Z</time>
      </trkpt>
      <trkpt lat="46.96828" lon="-0.92828">
        <ele>96</ele>
        <time>2015-03-12T15:17:24Z</time>
      </trkpt>
      <trkpt lat="46.96833" lon="-0.92826">
        <ele>96</ele>
        <time>2015-03-12T15:17:26Z</time>
      </trkpt>
      <trkpt lat="46.96835" lon="-0.92824">
        <ele>96</ele>
        <time>2015-03-12T15:17:28Z</time>
      </trkpt>
      <trkpt lat="46.96839" lon="-0.92822">
        <ele>96</ele>
        <time>2015-03-12T15:17:33Z</time>
      </trkpt>
      <trkpt lat="46.96842" lon="-0.92821">
        <ele>97</ele>
        <time>2015-03-12T15:17:35Z</time>
      </trkpt>
      <trkpt lat="46.96845" lon="-0.92819">
        <ele>98</ele>
        <time>2015-03-12T15:17:37Z</time>
      </trkpt>
      <trkpt lat="46.96848" lon="-0.92819">
        <ele>98</ele>
        <time>2015-03-12T15:17:39Z</time>
      </trkpt>
      <trkpt lat="46.96851" lon="-0.92821">
        <ele>98</ele>
        <time>2015-03-12T15:17:42Z</time>
      </trkpt>
      <trkpt lat="46.96852" lon="-0.92823">
        <ele>98</ele>
        <time>2015-03-12T15:17:44Z</time>
      </trkpt>
      <trkpt lat="46.96855" lon="-0.92826">
        <ele>98</ele>
        <time>2015-03-12T15:17:47Z</time>
      </trkpt>
      <trkpt lat="46.96858" lon="-0.92831">
        <ele>98</ele>
        <time>2015-03-12T15:17:50Z</time>
      </trkpt>
      <trkpt lat="46.9686" lon="-0.92835">
        <ele>98</ele>
        <time>2015-03-12T15:17:52Z</time>
      </trkpt>
      <trkpt lat="46.96861" lon="-0.92838">
        <ele>100</ele>
        <time>2015-03-12T15:17:54Z</time>
      </trkpt>
      <trkpt lat="46.96862" lon="-0.9284">
        <ele>101</ele>
        <time>2015-03-12T15:17:56Z</time>
      </trkpt>
      <trkpt lat="46.96864" lon="-0.92842">
        <ele>102</ele>
        <time>2015-03-12T15:17:58Z</time>
      </trkpt>
      <trkpt lat="46.96865" lon="-0.92844">
        <ele>103</ele>
        <time>2015-03-12T15:18:00Z</time>
      </trkpt>
      <trkpt lat="46.96868" lon="-0.92848">
        <ele>104</ele>
        <time>2015-03-12T15:18:02Z</time>
      </trkpt>
      <trkpt lat="46.9687" lon="-0.92851">
        <ele>104</ele>
        <time>2015-03-12T15:18:05Z</time>
      </trkpt>
      <trkpt lat="46.96873" lon="-0.92854">
        <ele>104</ele>
        <time>2015-03-12T15:18:09Z</time>
      </trkpt>
      <trkpt lat="46.96874" lon="-0.92855">
        <ele>104</ele>
        <time>2015-03-12T15:18:11Z</time>
      </trkpt>
      <trkpt lat="46.96876" lon="-0.92857">
        <ele>104</ele>
        <time>2015-03-12T15:18:13Z</time>
      </trkpt>
      <trkpt lat="46.96878" lon="-0.9286">
        <ele>104</ele>
        <time>2015-03-12T15:18:16Z</time>
      </trkpt>
      <trkpt lat="46.96878" lon="-0.92861">
        <ele>105</ele>
        <time>2015-03-12T15:18:18Z</time>
      </trkpt>
      <trkpt lat="46.9688" lon="-0.92865">
        <ele>105</ele>
        <time>2015-03-12T15:18:21Z</time>
      </trkpt>
      <trkpt lat="46.96882" lon="-0.92866">
        <ele>105</ele>
        <time>2015-03-12T15:18:23Z</time>
      </trkpt>
      <trkpt lat="46.96886" lon="-0.92869">
        <ele>105</ele>
        <time>2015-03-12T15:18:27Z</time>
      </trkpt>
      <trkpt lat="46.96889" lon="-0.92871">
        <ele>105</ele>
        <time>2015-03-12T15:18:30Z</time>
      </trkpt>
      <trkpt lat="46.96892" lon="-0.92875">
        <ele>105</ele>
        <time>2015-03-12T15:18:34Z</time>
      </trkpt>
      <trkpt lat="46.96893" lon="-0.92877">
        <ele>105</ele>
        <time>2015-03-12T15:18:36Z</time>
      </trkpt>
      <trkpt lat="46.96896" lon="-0.92879">
        <ele>106</ele>
        <time>2015-03-12T15:18:39Z</time>
      </trkpt>
      <trkpt lat="46.96899" lon="-0.9288">
        <ele>106</ele>
        <time>2015-03-12T15:18:41Z</time>
      </trkpt>
      <trkpt lat="46.96901" lon="-0.92881">
        <ele>107</ele>
        <time>2015-03-12T15:18:45Z</time>
      </trkpt>
      <trkpt lat="46.96903" lon="-0.92883">
        <ele>108</ele>
        <time>2015-03-12T15:18:48Z</time>
      </trkpt>
      <trkpt lat="46.96905" lon="-0.92886">
        <ele>110</ele>
        <time>2015-03-12T15:18:50Z</time>
      </trkpt>
      <trkpt lat="46.96908" lon="-0.92889">
        <ele>110</ele>
        <time>2015-03-12T15:18:53Z</time>
      </trkpt>
      <trkpt lat="46.96911" lon="-0.92892">
        <ele>110</ele>
        <time>2015-03-12T15:18:57Z</time>
      </trkpt>
      <trkpt lat="46.96912" lon="-0.92893">
        <ele>110</ele>
        <time>2015-03-12T15:18:59Z</time>
      </trkpt>
      <trkpt lat="46.96915" lon="-0.92896">
        <ele>110</ele>
        <time>2015-03-12T15:19:02Z</time>
      </trkpt>
      <trkpt lat="46.96918" lon="-0.92899">
        <ele>110</ele>
        <time>2015-03-12T15:19:05Z</time>
      </trkpt>
      <trkpt lat="46.9692" lon="-0.929">
        <ele>110</ele>
        <time>2015-03-12T15:19:07Z</time>
      </trkpt>
      <trkpt lat="46.96923" lon="-0.92904">
        <ele>110</ele>
        <time>2015-03-12T15:19:10Z</time>
      </trkpt>
      <trkpt lat="46.96926" lon="-0.92906">
        <ele>110</ele>
        <time>2015-03-12T15:19:12Z</time>
      </trkpt>
      <trkpt lat="46.96928" lon="-0.92909">
        <ele>110</ele>
        <time>2015-03-12T15:19:14Z</time>
      </trkpt>
      <trkpt lat="46.96928" lon="-0.9291">
        <ele>110</ele>
        <time>2015-03-12T15:19:16Z</time>
      </trkpt>
      <trkpt lat="46.9693" lon="-0.92913">
        <ele>111</ele>
        <time>2015-03-12T15:19:18Z</time>
      </trkpt>
      <trkpt lat="46.96933" lon="-0.92916">
        <ele>111</ele>
        <time>2015-03-12T15:19:20Z</time>
      </trkpt>
      <trkpt lat="46.96935" lon="-0.92918">
        <ele>111</ele>
        <time>2015-03-12T15:19:22Z</time>
      </trkpt>
      <trkpt lat="46.96937" lon="-0.92921">
        <ele>111</ele>
        <time>2015-03-12T15:19:24Z</time>
      </trkpt>
      <trkpt lat="46.9694" lon="-0.92925">
        <ele>111</ele>
        <time>2015-03-12T15:19:27Z</time>
      </trkpt>
      <trkpt lat="46.96944" lon="-0.9293">
        <ele>111</ele>
        <time>2015-03-12T15:19:30Z</time>
      </trkpt>
      <trkpt lat="46.96947" lon="-0.92936">
        <ele>111</ele>
        <time>2015-03-12T15:19:34Z</time>
      </trkpt>
      <trkpt lat="46.9695" lon="-0.9294">
        <ele>111</ele>
        <time>2015-03-12T15:19:37Z</time>
      </trkpt>
      <trkpt lat="46.96951" lon="-0.92942">
        <ele>111</ele>
        <time>2015-03-12T15:19:39Z</time>
      </trkpt>
      <trkpt lat="46.96954" lon="-0.92945">
        <ele>111</ele>
        <time>2015-03-12T15:19:42Z</time>
      </trkpt>
      <trkpt lat="46.96957" lon="-0.92947">
        <ele>111</ele>
        <time>2015-03-12T15:19:45Z</time>
      </trkpt>
      <trkpt lat="46.9696" lon="-0.92951">
        <ele>111</ele>
        <time>2015-03-12T15:19:48Z</time>
      </trkpt>
      <trkpt lat="46.9696" lon="-0.92952">
        <ele>111</ele>
        <time>2015-03-12T15:19:51Z</time>
      </trkpt>
      <trkpt lat="46.96961" lon="-0.92956">
        <ele>111</ele>
        <time>2015-03-12T15:19:54Z</time>
      </trkpt>
      <trkpt lat="46.96962" lon="-0.92961">
        <ele>113</ele>
        <time>2015-03-12T15:19:57Z</time>
      </trkpt>
      <trkpt lat="46.96964" lon="-0.92964">
        <ele>114</ele>
        <time>2015-03-12T15:19:59Z</time>
      </trkpt>
      <trkpt lat="46.96965" lon="-0.92965">
        <ele>114</ele>
        <time>2015-03-12T15:20:01Z</time>
      </trkpt>
      <trkpt lat="46.96968" lon="-0.92967">
        <ele>114</ele>
        <time>2015-03-12T15:20:03Z</time>
      </trkpt>
      <trkpt lat="46.9697" lon="-0.92967">
        <ele>114</ele>
        <time>2015-03-12T15:20:05Z</time>
      </trkpt>
      <trkpt lat="46.96973" lon="-0.92967">
        <ele>114</ele>
        <time>2015-03-12T15:20:07Z</time>
      </trkpt>
      <trkpt lat="46.96978" lon="-0.92968">
        <ele>114</ele>
        <time>2015-03-12T15:20:10Z</time>
      </trkpt>
      <trkpt lat="46.96981" lon="-0.92968">
        <ele>114</ele>
        <time>2015-03-12T15:20:12Z</time>
      </trkpt>
      <trkpt lat="46.96983" lon="-0.92969">
        <ele>114</ele>
        <time>2015-03-12T15:20:14Z</time>
      </trkpt>
      <trkpt lat="46.96985" lon="-0.92969">
        <ele>114</ele>
        <time>2015-03-12T15:20:16Z</time>
      </trkpt>
      <trkpt lat="46.96987" lon="-0.92969">
        <ele>114</ele>
        <time>2015-03-12T15:20:18Z</time>
      </trkpt>
      <trkpt lat="46.96988" lon="-0.92969">
        <ele>114</ele>
        <time>2015-03-12T15:20:20Z</time>
      </trkpt>
      <trkpt lat="46.9699" lon="-0.92969">
        <ele>114</ele>
        <time>2015-03-12T15:20:22Z</time>
      </trkpt>
      <trkpt lat="46.96993" lon="-0.9297">
        <ele>114</ele>
        <time>2015-03-12T15:20:25Z</time>
      </trkpt>
      <trkpt lat="46.96995" lon="-0.92971">
        <ele>114</ele>
        <time>2015-03-12T15:20:27Z</time>
      </trkpt>
      <trkpt lat="46.96998" lon="-0.92971">
        <ele>114</ele>
        <time>2015-03-12T15:20:29Z</time>
      </trkpt>
      <trkpt lat="46.97" lon="-0.92971">
        <ele>114</ele>
        <time>2015-03-12T15:20:31Z</time>
      </trkpt>
      <trkpt lat="46.97004" lon="-0.92973">
        <ele>114</ele>
        <time>2015-03-12T15:20:33Z</time>
      </trkpt>
      <trkpt lat="46.97006" lon="-0.92973">
        <ele>114</ele>
        <time>2015-03-12T15:20:35Z</time>
      </trkpt>
      <trkpt lat="46.97009" lon="-0.92973">
        <ele>114</ele>
        <time>2015-03-12T15:20:37Z</time>
      </trkpt>
      <trkpt lat="46.97011" lon="-0.92973">
        <ele>114</ele>
        <time>2015-03-12T15:20:40Z</time>
      </trkpt>
      <trkpt lat="46.97014" lon="-0.92972">
        <ele>114</ele>
        <time>2015-03-12T15:20:42Z</time>
      </trkpt>
      <trkpt lat="46.97016" lon="-0.92971">
        <ele>114</ele>
        <time>2015-03-12T15:20:44Z</time>
      </trkpt>
      <trkpt lat="46.97019" lon="-0.92971">
        <ele>114</ele>
        <time>2015-03-12T15:20:46Z</time>
      </trkpt>
      <trkpt lat="46.97024" lon="-0.92968">
        <ele>114</ele>
        <time>2015-03-12T15:20:50Z</time>
      </trkpt>
      <trkpt lat="46.97026" lon="-0.92968">
        <ele>114</ele>
        <time>2015-03-12T15:20:52Z</time>
      </trkpt>
      <trkpt lat="46.97028" lon="-0.92967">
        <ele>114</ele>
        <time>2015-03-12T15:20:54Z</time>
      </trkpt>
      <trkpt lat="46.97031" lon="-0.92965">
        <ele>114</ele>
        <time>2015-03-12T15:20:57Z</time>
      </trkpt>
      <trkpt lat="46.97032" lon="-0.92963">
        <ele>114</ele>
        <time>2015-03-12T15:20:59Z</time>
      </trkpt>
      <trkpt lat="46.97035" lon="-0.9296">
        <ele>114</ele>
        <time>2015-03-12T15:21:03Z</time>
      </trkpt>
      <trkpt lat="46.97037" lon="-0.92958">
        <ele>114</ele>
        <time>2015-03-12T15:21:05Z</time>
      </trkpt>
      <trkpt lat="46.97039" lon="-0.92956">
        <ele>114</ele>
        <time>2015-03-12T15:21:07Z</time>
      </trkpt>
      <trkpt lat="46.9704" lon="-0.92953">
        <ele>114</ele>
        <time>2015-03-12T15:21:09Z</time>
      </trkpt>
      <trkpt lat="46.97042" lon="-0.92951">
        <ele>114</ele>
        <time>2015-03-12T15:21:11Z</time>
      </trkpt>
      <trkpt lat="46.97043" lon="-0.92949">
        <ele>114</ele>
        <time>2015-03-12T15:21:13Z</time>
      </trkpt>
      <trkpt lat="46.97044" lon="-0.92947">
        <ele>114</ele>
        <time>2015-03-12T15:21:17Z</time>
      </trkpt>
      <trkpt lat="46.97046" lon="-0.92945">
        <ele>116</ele>
        <time>2015-03-12T15:21:21Z</time>
      </trkpt>
      <trkpt lat="46.97047" lon="-0.92944">
        <ele>116</ele>
        <time>2015-03-12T15:21:23Z</time>
      </trkpt>
      <trkpt lat="46.97049" lon="-0.9294">
        <ele>117</ele>
        <time>2015-03-12T15:21:26Z</time>
      </trkpt>
      <trkpt lat="46.9705" lon="-0.92937">
        <ele>117</ele>
        <time>2015-03-12T15:21:28Z</time>
      </trkpt>
      <trkpt lat="46.97053" lon="-0.92935">
        <ele>117</ele>
        <time>2015-03-12T15:21:30Z</time>
      </trkpt>
      <trkpt lat="46.97055" lon="-0.92931">
        <ele>118</ele>
        <time>2015-03-12T15:21:33Z</time>
      </trkpt>
      <trkpt lat="46.97057" lon="-0.92927">
        <ele>118</ele>
        <time>2015-03-12T15:21:37Z</time>
      </trkpt>
      <trkpt lat="46.9706" lon="-0.92923">
        <ele>118</ele>
        <time>2015-03-12T15:21:40Z</time>
      </trkpt>
      <trkpt lat="46.97062" lon="-0.9292">
        <ele>119</ele>
        <time>2015-03-12T15:21:42Z</time>
      </trkpt>
      <trkpt lat="46.97062" lon="-0.92917">
        <ele>119</ele>
        <time>2015-03-12T15:21:44Z</time>
      </trkpt>
      <trkpt lat="46.97063" lon="-0.92915">
        <ele>119</ele>
        <time>2015-03-12T15:21:46Z</time>
      </trkpt>
      <trkpt lat="46.97065" lon="-0.92913">
        <ele>119</ele>
        <time>2015-03-12T15:21:48Z</time>
      </trkpt>
      <trkpt lat="46.97065" lon="-0.92911">
        <ele>119</ele>
        <time>2015-03-12T15:21:50Z</time>
      </trkpt>
      <trkpt lat="46.97066" lon="-0.92909">
        <ele>119</ele>
        <time>2015-03-12T15:21:52Z</time>
      </trkpt>
      <trkpt lat="46.97068" lon="-0.92906">
        <ele>119</ele>
        <time>2015-03-12T15:21:54Z</time>
      </trkpt>
      <trkpt lat="46.97069" lon="-0.92903">
        <ele>119</ele>
        <time>2015-03-12T15:21:56Z</time>
      </trkpt>
      <trkpt lat="46.9707" lon="-0.929">
        <ele>119</ele>
        <time>2015-03-12T15:21:58Z</time>
      </trkpt>
      <trkpt lat="46.97071" lon="-0.92898">
        <ele>120</ele>
        <time>2015-03-12T15:22:00Z</time>
      </trkpt>
      <trkpt lat="46.97073" lon="-0.92896">
        <ele>120</ele>
        <time>2015-03-12T15:22:02Z</time>
      </trkpt>
      <trkpt lat="46.97073" lon="-0.92895">
        <ele>120</ele>
        <time>2015-03-12T15:22:04Z</time>
      </trkpt>
      <trkpt lat="46.97075" lon="-0.92892">
        <ele>120</ele>
        <time>2015-03-12T15:22:06Z</time>
      </trkpt>
      <trkpt lat="46.97076" lon="-0.92889">
        <ele>120</ele>
        <time>2015-03-12T15:22:08Z</time>
      </trkpt>
      <trkpt lat="46.97078" lon="-0.92884">
        <ele>120</ele>
        <time>2015-03-12T15:22:12Z</time>
      </trkpt>
      <trkpt lat="46.97079" lon="-0.92882">
        <ele>120</ele>
        <time>2015-03-12T15:22:14Z</time>
      </trkpt>
      <trkpt lat="46.97079" lon="-0.92879">
        <ele>120</ele>
        <time>2015-03-12T15:22:16Z</time>
      </trkpt>
      <trkpt lat="46.97081" lon="-0.92876">
        <ele>120</ele>
        <time>2015-03-12T15:22:18Z</time>
      </trkpt>
      <trkpt lat="46.97083" lon="-0.92871">
        <ele>121</ele>
        <time>2015-03-12T15:22:22Z</time>
      </trkpt>
      <trkpt lat="46.97084" lon="-0.92869">
        <ele>121</ele>
        <time>2015-03-12T15:22:24Z</time>
      </trkpt>
      <trkpt lat="46.97087" lon="-0.92864">
        <ele>122</ele>
        <time>2015-03-12T15:22:28Z</time>
      </trkpt>
      <trkpt lat="46.9709" lon="-0.92859">
        <ele>122</ele>
        <time>2015-03-12T15:22:32Z</time>
      </trkpt>
      <trkpt lat="46.97092" lon="-0.92857">
        <ele>122</ele>
        <time>2015-03-12T15:22:34Z</time>
      </trkpt>
      <trkpt lat="46.97094" lon="-0.92854">
        <ele>122</ele>
        <time>2015-03-12T15:22:36Z</time>
      </trkpt>
      <trkpt lat="46.97095" lon="-0.92853">
        <ele>122</ele>
        <time>2015-03-12T15:22:38Z</time>
      </trkpt>
      <trkpt lat="46.97098" lon="-0.92849">
        <ele>123</ele>
        <time>2015-03-12T15:22:41Z</time>
      </trkpt>
      <trkpt lat="46.971" lon="-0.92846">
        <ele>123</ele>
        <time>2015-03-12T15:22:43Z</time>
      </trkpt>
      <trkpt lat="46.97102" lon="-0.92843">
        <ele>123</ele>
        <time>2015-03-12T15:22:46Z</time>
      </trkpt>
      <trkpt lat="46.97104" lon="-0.9284">
        <ele>123</ele>
        <time>2015-03-12T15:22:48Z</time>
      </trkpt>
      <trkpt lat="46.97105" lon="-0.92838">
        <ele>123</ele>
        <time>2015-03-12T15:22:50Z</time>
      </trkpt>
      <trkpt lat="46.97107" lon="-0.92836">
        <ele>123</ele>
        <time>2015-03-12T15:22:52Z</time>
      </trkpt>
      <trkpt lat="46.97109" lon="-0.92834">
        <ele>123</ele>
        <time>2015-03-12T15:22:54Z</time>
      </trkpt>
      <trkpt lat="46.9711" lon="-0.92831">
        <ele>123</ele>
        <time>2015-03-12T15:22:56Z</time>
      </trkpt>
      <trkpt lat="46.97112" lon="-0.92829">
        <ele>123</ele>
        <time>2015-03-12T15:22:58Z</time>
      </trkpt>
      <trkpt lat="46.97115" lon="-0.92825">
        <ele>123</ele>
        <time>2015-03-12T15:23:01Z</time>
      </trkpt>
      <trkpt lat="46.97117" lon="-0.92823">
        <ele>123</ele>
        <time>2015-03-12T15:23:03Z</time>
      </trkpt>
      <trkpt lat="46.97118" lon="-0.92821">
        <ele>123</ele>
        <time>2015-03-12T15:23:05Z</time>
      </trkpt>
      <trkpt lat="46.9712" lon="-0.92819">
        <ele>123</ele>
        <time>2015-03-12T15:23:07Z</time>
      </trkpt>
      <trkpt lat="46.97122" lon="-0.92818">
        <ele>123</ele>
        <time>2015-03-12T15:23:09Z</time>
      </trkpt>
      <trkpt lat="46.97124" lon="-0.92816">
        <ele>123</ele>
        <time>2015-03-12T15:23:11Z</time>
      </trkpt>
      <trkpt lat="46.97126" lon="-0.92814">
        <ele>123</ele>
        <time>2015-03-12T15:23:13Z</time>
      </trkpt>
      <trkpt lat="46.97128" lon="-0.92813">
        <ele>123</ele>
        <time>2015-03-12T15:23:15Z</time>
      </trkpt>
      <trkpt lat="46.97129" lon="-0.92811">
        <ele>123</ele>
        <time>2015-03-12T15:23:17Z</time>
      </trkpt>
      <trkpt lat="46.97131" lon="-0.92809">
        <ele>123</ele>
        <time>2015-03-12T15:23:19Z</time>
      </trkpt>
      <trkpt lat="46.97132" lon="-0.92807">
        <ele>123</ele>
        <time>2015-03-12T15:23:21Z</time>
      </trkpt>
      <trkpt lat="46.97134" lon="-0.92805">
        <ele>123</ele>
        <time>2015-03-12T15:23:23Z</time>
      </trkpt>
      <trkpt lat="46.97138" lon="-0.92802">
        <ele>123</ele>
        <time>2015-03-12T15:23:26Z</time>
      </trkpt>
      <trkpt lat="46.97139" lon="-0.928">
        <ele>123</ele>
        <time>2015-03-12T15:23:28Z</time>
      </trkpt>
      <trkpt lat="46.97141" lon="-0.92798">
        <ele>123</ele>
        <time>2015-03-12T15:23:30Z</time>
      </trkpt>
      <trkpt lat="46.97144" lon="-0.92795">
        <ele>123</ele>
        <time>2015-03-12T15:23:33Z</time>
      </trkpt>
      <trkpt lat="46.97147" lon="-0.92793">
        <ele>123</ele>
        <time>2015-03-12T15:23:35Z</time>
      </trkpt>
      <trkpt lat="46.9715" lon="-0.9279">
        <ele>124</ele>
        <time>2015-03-12T15:23:38Z</time>
      </trkpt>
      <trkpt lat="46.97152" lon="-0.92787">
        <ele>124</ele>
        <time>2015-03-12T15:23:40Z</time>
      </trkpt>
      <trkpt lat="46.97154" lon="-0.92785">
        <ele>124</ele>
        <time>2015-03-12T15:23:42Z</time>
      </trkpt>
      <trkpt lat="46.97156" lon="-0.92782">
        <ele>125</ele>
        <time>2015-03-12T15:23:44Z</time>
      </trkpt>
      <trkpt lat="46.97157" lon="-0.92779">
        <ele>125</ele>
        <time>2015-03-12T15:23:46Z</time>
      </trkpt>
      <trkpt lat="46.97158" lon="-0.92776">
        <ele>125</ele>
        <time>2015-03-12T15:23:48Z</time>
      </trkpt>
      <trkpt lat="46.9716" lon="-0.92774">
        <ele>125</ele>
        <time>2015-03-12T15:23:50Z</time>
      </trkpt>
      <trkpt lat="46.97162" lon="-0.92772">
        <ele>126</ele>
        <time>2015-03-12T15:23:52Z</time>
      </trkpt>
      <trkpt lat="46.97163" lon="-0.92768">
        <ele>126</ele>
        <time>2015-03-12T15:23:54Z</time>
      </trkpt>
      <trkpt lat="46.97165" lon="-0.92765">
        <ele>126</ele>
        <time>2015-03-12T15:23:56Z</time>
      </trkpt>
      <trkpt lat="46.97166" lon="-0.92762">
        <ele>126</ele>
        <time>2015-03-12T15:23:58Z</time>
      </trkpt>
      <trkpt lat="46.97168" lon="-0.92759">
        <ele>127</ele>
        <time>2015-03-12T15:24:00Z</time>
      </trkpt>
      <trkpt lat="46.97168" lon="-0.92756">
        <ele>127</ele>
        <time>2015-03-12T15:24:02Z</time>
      </trkpt>
      <trkpt lat="46.97169" lon="-0.92752">
        <ele>127</ele>
        <time>2015-03-12T15:24:04Z</time>
      </trkpt>
      <trkpt lat="46.97171" lon="-0.92748">
        <ele>128</ele>
        <time>2015-03-12T15:24:07Z</time>
      </trkpt>
      <trkpt lat="46.97172" lon="-0.92744">
        <ele>129</ele>
        <time>2015-03-12T15:24:10Z</time>
      </trkpt>
      <trkpt lat="46.97174" lon="-0.9274">
        <ele>129</ele>
        <time>2015-03-12T15:24:13Z</time>
      </trkpt>
      <trkpt lat="46.97175" lon="-0.92737">
        <ele>129</ele>
        <time>2015-03-12T15:24:15Z</time>
      </trkpt>
      <trkpt lat="46.97176" lon="-0.92733">
        <ele>129</ele>
        <time>2015-03-12T15:24:18Z</time>
      </trkpt>
      <trkpt lat="46.97177" lon="-0.9273">
        <ele>129</ele>
        <time>2015-03-12T15:24:20Z</time>
      </trkpt>
      <trkpt lat="46.97178" lon="-0.92728">
        <ele>129</ele>
        <time>2015-03-12T15:24:22Z</time>
      </trkpt>
      <trkpt lat="46.97179" lon="-0.92726">
        <ele>129</ele>
        <time>2015-03-12T15:24:24Z</time>
      </trkpt>
      <trkpt lat="46.9718" lon="-0.92724">
        <ele>129</ele>
        <time>2015-03-12T15:24:26Z</time>
      </trkpt>
      <trkpt lat="46.97181" lon="-0.92722">
        <ele>129</ele>
        <time>2015-03-12T15:24:28Z</time>
      </trkpt>
      <trkpt lat="46.97182" lon="-0.92719">
        <ele>129</ele>
        <time>2015-03-12T15:24:30Z</time>
      </trkpt>
      <trkpt lat="46.97183" lon="-0.92716">
        <ele>129</ele>
        <time>2015-03-12T15:24:32Z</time>
      </trkpt>
      <trkpt lat="46.97183" lon="-0.92714">
        <ele>129</ele>
        <time>2015-03-12T15:24:34Z</time>
      </trkpt>
      <trkpt lat="46.97184" lon="-0.92711">
        <ele>129</ele>
        <time>2015-03-12T15:24:36Z</time>
      </trkpt>
      <trkpt lat="46.97185" lon="-0.92707">
        <ele>129</ele>
        <time>2015-03-12T15:24:39Z</time>
      </trkpt>
      <trkpt lat="46.97186" lon="-0.92703">
        <ele>129</ele>
        <time>2015-03-12T15:24:41Z</time>
      </trkpt>
      <trkpt lat="46.97187" lon="-0.92699">
        <ele>129</ele>
        <time>2015-03-12T15:24:44Z</time>
      </trkpt>
      <trkpt lat="46.97189" lon="-0.92696">
        <ele>129</ele>
        <time>2015-03-12T15:24:46Z</time>
      </trkpt>
      <trkpt lat="46.9719" lon="-0.92692">
        <ele>129</ele>
        <time>2015-03-12T15:24:48Z</time>
      </trkpt>
      <trkpt lat="46.9719" lon="-0.92689">
        <ele>129</ele>
        <time>2015-03-12T15:24:50Z</time>
      </trkpt>
      <trkpt lat="46.97191" lon="-0.92685">
        <ele>129</ele>
        <time>2015-03-12T15:24:52Z</time>
      </trkpt>
      <trkpt lat="46.97192" lon="-0.92682">
        <ele>129</ele>
        <time>2015-03-12T15:24:54Z</time>
      </trkpt>
      <trkpt lat="46.97194" lon="-0.92678">
        <ele>129</ele>
        <time>2015-03-12T15:24:56Z</time>
      </trkpt>
      <trkpt lat="46.97195" lon="-0.92675">
        <ele>129</ele>
        <time>2015-03-12T15:24:58Z</time>
      </trkpt>
      <trkpt lat="46.97196" lon="-0.92672">
        <ele>129</ele>
        <time>2015-03-12T15:25:00Z</time>
      </trkpt>
      <trkpt lat="46.97198" lon="-0.92669">
        <ele>129</ele>
        <time>2015-03-12T15:25:02Z</time>
      </trkpt>
      <trkpt lat="46.972" lon="-0.92664">
        <ele>130</ele>
        <time>2015-03-12T15:25:05Z</time>
      </trkpt>
      <trkpt lat="46.97201" lon="-0.92662">
        <ele>130</ele>
        <time>2015-03-12T15:25:07Z</time>
      </trkpt>
      <trkpt lat="46.97202" lon="-0.92659">
        <ele>130</ele>
        <time>2015-03-12T15:25:09Z</time>
      </trkpt>
      <trkpt lat="46.97203" lon="-0.92658">
        <ele>130</ele>
        <time>2015-03-12T15:25:11Z</time>
      </trkpt>
      <trkpt lat="46.97205" lon="-0.92655">
        <ele>130</ele>
        <time>2015-03-12T15:25:13Z</time>
      </trkpt>
      <trkpt lat="46.97205" lon="-0.9265">
        <ele>130</ele>
        <time>2015-03-12T15:25:16Z</time>
      </trkpt>
      <trkpt lat="46.97205" lon="-0.92647">
        <ele>130</ele>
        <time>2015-03-12T15:25:21Z</time>
      </trkpt>
      <trkpt lat="46.97206" lon="-0.92641">
        <ele>133</ele>
        <time>2015-03-12T15:25:26Z</time>
      </trkpt>
      <trkpt lat="46.9721" lon="-0.92643">
        <ele>133</ele>
        <time>2015-03-12T15:25:28Z</time>
      </trkpt>
      <trkpt lat="46.97213" lon="-0.92644">
        <ele>133</ele>
        <time>2015-03-12T15:25:30Z</time>
      </trkpt>
      <trkpt lat="46.97216" lon="-0.92642">
        <ele>133</ele>
        <time>2015-03-12T15:25:32Z</time>
      </trkpt>
      <trkpt lat="46.97218" lon="-0.92642">
        <ele>133</ele>
        <time>2015-03-12T15:25:34Z</time>
      </trkpt>
      <trkpt lat="46.97221" lon="-0.92641">
        <ele>133</ele>
        <time>2015-03-12T15:25:36Z</time>
      </trkpt>
      <trkpt lat="46.97223" lon="-0.9264">
        <ele>133</ele>
        <time>2015-03-12T15:25:38Z</time>
      </trkpt>
      <trkpt lat="46.97226" lon="-0.9264">
        <ele>133</ele>
        <time>2015-03-12T15:25:40Z</time>
      </trkpt>
      <trkpt lat="46.97227" lon="-0.92639">
        <ele>133</ele>
        <time>2015-03-12T15:25:42Z</time>
      </trkpt>
      <trkpt lat="46.97229" lon="-0.92638">
        <ele>133</ele>
        <time>2015-03-12T15:25:44Z</time>
      </trkpt>
      <trkpt lat="46.97232" lon="-0.92637">
        <ele>133</ele>
        <time>2015-03-12T15:25:46Z</time>
      </trkpt>
      <trkpt lat="46.97234" lon="-0.92637">
        <ele>133</ele>
        <time>2015-03-12T15:25:48Z</time>
      </trkpt>
      <trkpt lat="46.97237" lon="-0.92635">
        <ele>133</ele>
        <time>2015-03-12T15:25:51Z</time>
      </trkpt>
      <trkpt lat="46.9724" lon="-0.92634">
        <ele>133</ele>
        <time>2015-03-12T15:25:53Z</time>
      </trkpt>
      <trkpt lat="46.97243" lon="-0.92634">
        <ele>133</ele>
        <time>2015-03-12T15:25:55Z</time>
      </trkpt>
      <trkpt lat="46.97245" lon="-0.92633">
        <ele>133</ele>
        <time>2015-03-12T15:25:57Z</time>
      </trkpt>
      <trkpt lat="46.97247" lon="-0.92633">
        <ele>133</ele>
        <time>2015-03-12T15:25:59Z</time>
      </trkpt>
      <trkpt lat="46.9725" lon="-0.92631">
        <ele>133</ele>
        <time>2015-03-12T15:26:02Z</time>
      </trkpt>
      <trkpt lat="46.97252" lon="-0.9263">
        <ele>133</ele>
        <time>2015-03-12T15:26:04Z</time>
      </trkpt>
      <trkpt lat="46.97254" lon="-0.92629">
        <ele>133</ele>
        <time>2015-03-12T15:26:06Z</time>
      </trkpt>
      <trkpt lat="46.97256" lon="-0.92628">
        <ele>133</ele>
        <time>2015-03-12T15:26:08Z</time>
      </trkpt>
      <trkpt lat="46.97259" lon="-0.92627">
        <ele>133</ele>
        <time>2015-03-12T15:26:11Z</time>
      </trkpt>
      <trkpt lat="46.97261" lon="-0.92625">
        <ele>133</ele>
        <time>2015-03-12T15:26:13Z</time>
      </trkpt>
      <trkpt lat="46.97263" lon="-0.92624">
        <ele>133</ele>
        <time>2015-03-12T15:26:15Z</time>
      </trkpt>
      <trkpt lat="46.97267" lon="-0.92623">
        <ele>133</ele>
        <time>2015-03-12T15:26:18Z</time>
      </trkpt>
      <trkpt lat="46.97269" lon="-0.92621">
        <ele>133</ele>
        <time>2015-03-12T15:26:20Z</time>
      </trkpt>
      <trkpt lat="46.9727" lon="-0.92619">
        <ele>133</ele>
        <time>2015-03-12T15:26:22Z</time>
      </trkpt>
      <trkpt lat="46.97273" lon="-0.92618">
        <ele>133</ele>
        <time>2015-03-12T15:26:25Z</time>
      </trkpt>
      <trkpt lat="46.97277" lon="-0.92615">
        <ele>133</ele>
        <time>2015-03-12T15:26:28Z</time>
      </trkpt>
      <trkpt lat="46.97279" lon="-0.92614">
        <ele>133</ele>
        <time>2015-03-12T15:26:30Z</time>
      </trkpt>
      <trkpt lat="46.97281" lon="-0.92612">
        <ele>133</ele>
        <time>2015-03-12T15:26:32Z</time>
      </trkpt>
      <trkpt lat="46.97282" lon="-0.92611">
        <ele>133</ele>
        <time>2015-03-12T15:26:34Z</time>
      </trkpt>
      <trkpt lat="46.97284" lon="-0.92609">
        <ele>133</ele>
        <time>2015-03-12T15:26:36Z</time>
      </trkpt>
      <trkpt lat="46.97285" lon="-0.92608">
        <ele>133</ele>
        <time>2015-03-12T15:26:38Z</time>
      </trkpt>
      <trkpt lat="46.97287" lon="-0.92605">
        <ele>133</ele>
        <time>2015-03-12T15:26:40Z</time>
      </trkpt>
      <trkpt lat="46.97287" lon="-0.92602">
        <ele>133</ele>
        <time>2015-03-12T15:26:42Z</time>
      </trkpt>
      <trkpt lat="46.97287" lon="-0.92599">
        <ele>133</ele>
        <time>2015-03-12T15:26:44Z</time>
      </trkpt>
      <trkpt lat="46.97287" lon="-0.92595">
        <ele>133</ele>
        <time>2015-03-12T15:26:46Z</time>
      </trkpt>
      <trkpt lat="46.97287" lon="-0.92592">
        <ele>133</ele>
        <time>2015-03-12T15:26:48Z</time>
      </trkpt>
      <trkpt lat="46.97287" lon="-0.92588">
        <ele>133</ele>
        <time>2015-03-12T15:26:50Z</time>
      </trkpt>
      <trkpt lat="46.97286" lon="-0.92584">
        <ele>133</ele>
        <time>2015-03-12T15:26:52Z</time>
      </trkpt>
      <trkpt lat="46.97286" lon="-0.92581">
        <ele>133</ele>
        <time>2015-03-12T15:26:54Z</time>
      </trkpt>
      <trkpt lat="46.97286" lon="-0.92576">
        <ele>133</ele>
        <time>2015-03-12T15:26:56Z</time>
      </trkpt>
      <trkpt lat="46.97285" lon="-0.92572">
        <ele>133</ele>
        <time>2015-03-12T15:26:58Z</time>
      </trkpt>
      <trkpt lat="46.97285" lon="-0.92569">
        <ele>133</ele>
        <time>2015-03-12T15:27:00Z</time>
      </trkpt>
      <trkpt lat="46.97285" lon="-0.92566">
        <ele>133</ele>
        <time>2015-03-12T15:27:02Z</time>
      </trkpt>
      <trkpt lat="46.97284" lon="-0.92562">
        <ele>133</ele>
        <time>2015-03-12T15:27:04Z</time>
      </trkpt>
      <trkpt lat="46.97284" lon="-0.92558">
        <ele>133</ele>
        <time>2015-03-12T15:27:06Z</time>
      </trkpt>
      <trkpt lat="46.97284" lon="-0.92555">
        <ele>133</ele>
        <time>2015-03-12T15:27:08Z</time>
      </trkpt>
      <trkpt lat="46.97284" lon="-0.92551">
        <ele>133</ele>
        <time>2015-03-12T15:27:10Z</time>
      </trkpt>
      <trkpt lat="46.97284" lon="-0.92546">
        <ele>133</ele>
        <time>2015-03-12T15:27:12Z</time>
      </trkpt>
      <trkpt lat="46.97284" lon="-0.92542">
        <ele>133</ele>
        <time>2015-03-12T15:27:14Z</time>
      </trkpt>
      <trkpt lat="46.97284" lon="-0.92537">
        <ele>133</ele>
        <time>2015-03-12T15:27:16Z</time>
      </trkpt>
      <trkpt lat="46.97285" lon="-0.92533">
        <ele>133</ele>
        <time>2015-03-12T15:27:18Z</time>
      </trkpt>
      <trkpt lat="46.97286" lon="-0.92529">
        <ele>133</ele>
        <time>2015-03-12T15:27:20Z</time>
      </trkpt>
      <trkpt lat="46.97286" lon="-0.92525">
        <ele>133</ele>
        <time>2015-03-12T15:27:22Z</time>
      </trkpt>
      <trkpt lat="46.97287" lon="-0.92522">
        <ele>133</ele>
        <time>2015-03-12T15:27:24Z</time>
      </trkpt>
      <trkpt lat="46.97289" lon="-0.92518">
        <ele>133</ele>
        <time>2015-03-12T15:27:26Z</time>
      </trkpt>
      <trkpt lat="46.9729" lon="-0.92514">
        <ele>133</ele>
        <time>2015-03-12T15:27:28Z</time>
      </trkpt>
      <trkpt lat="46.9729" lon="-0.9251">
        <ele>133</ele>
        <time>2015-03-12T15:27:30Z</time>
      </trkpt>
      <trkpt lat="46.97291" lon="-0.92507">
        <ele>133</ele>
        <time>2015-03-12T15:27:32Z</time>
      </trkpt>
      <trkpt lat="46.97292" lon="-0.92503">
        <ele>133</ele>
        <time>2015-03-12T15:27:34Z</time>
      </trkpt>
      <trkpt lat="46.97292" lon="-0.925">
        <ele>133</ele>
        <time>2015-03-12T15:27:36Z</time>
      </trkpt>
      <trkpt lat="46.97293" lon="-0.92496">
        <ele>133</ele>
        <time>2015-03-12T15:27:38Z</time>
      </trkpt>
      <trkpt lat="46.97293" lon="-0.92492">
        <ele>133</ele>
        <time>2015-03-12T15:27:40Z</time>
      </trkpt>
      <trkpt lat="46.97293" lon="-0.92488">
        <ele>133</ele>
        <time>2015-03-12T15:27:42Z</time>
      </trkpt>
      <trkpt lat="46.97294" lon="-0.92485">
        <ele>133</ele>
        <time>2015-03-12T15:27:44Z</time>
      </trkpt>
      <trkpt lat="46.97294" lon="-0.92481">
        <ele>133</ele>
        <time>2015-03-12T15:27:46Z</time>
      </trkpt>
      <trkpt lat="46.97294" lon="-0.92477">
        <ele>133</ele>
        <time>2015-03-12T15:27:48Z</time>
      </trkpt>
      <trkpt lat="46.97294" lon="-0.92474">
        <ele>133</ele>
        <time>2015-03-12T15:27:50Z</time>
      </trkpt>
      <trkpt lat="46.97294" lon="-0.9247">
        <ele>133</ele>
        <time>2015-03-12T15:27:52Z</time>
      </trkpt>
      <trkpt lat="46.97294" lon="-0.92466">
        <ele>134</ele>
        <time>2015-03-12T15:27:54Z</time>
      </trkpt>
      <trkpt lat="46.97294" lon="-0.92462">
        <ele>134</ele>
        <time>2015-03-12T15:27:56Z</time>
      </trkpt>
      <trkpt lat="46.97295" lon="-0.92459">
        <ele>134</ele>
        <time>2015-03-12T15:27:58Z</time>
      </trkpt>
      <trkpt lat="46.97294" lon="-0.92455">
        <ele>134</ele>
        <time>2015-03-12T15:28:00Z</time>
      </trkpt>
      <trkpt lat="46.97294" lon="-0.92452">
        <ele>134</ele>
        <time>2015-03-12T15:28:02Z</time>
      </trkpt>
      <trkpt lat="46.97294" lon="-0.92448">
        <ele>134</ele>
        <time>2015-03-12T15:28:04Z</time>
      </trkpt>
      <trkpt lat="46.97295" lon="-0.92444">
        <ele>134</ele>
        <time>2015-03-12T15:28:06Z</time>
      </trkpt>
      <trkpt lat="46.97294" lon="-0.9244">
        <ele>134</ele>
        <time>2015-03-12T15:28:08Z</time>
      </trkpt>
      <trkpt lat="46.97295" lon="-0.92436">
        <ele>134</ele>
        <time>2015-03-12T15:28:10Z</time>
      </trkpt>
      <trkpt lat="46.97295" lon="-0.92433">
        <ele>134</ele>
        <time>2015-03-12T15:28:12Z</time>
      </trkpt>
      <trkpt lat="46.97295" lon="-0.92429">
        <ele>134</ele>
        <time>2015-03-12T15:28:14Z</time>
      </trkpt>
      <trkpt lat="46.97296" lon="-0.92425">
        <ele>134</ele>
        <time>2015-03-12T15:28:16Z</time>
      </trkpt>
      <trkpt lat="46.97297" lon="-0.92422">
        <ele>134</ele>
        <time>2015-03-12T15:28:18Z</time>
      </trkpt>
      <trkpt lat="46.97297" lon="-0.92418">
        <ele>134</ele>
        <time>2015-03-12T15:28:20Z</time>
      </trkpt>
      <trkpt lat="46.97298" lon="-0.92415">
        <ele>134</ele>
        <time>2015-03-12T15:28:22Z</time>
      </trkpt>
      <trkpt lat="46.973" lon="-0.9241">
        <ele>134</ele>
        <time>2015-03-12T15:28:25Z</time>
      </trkpt>
      <trkpt lat="46.97302" lon="-0.92407">
        <ele>134</ele>
        <time>2015-03-12T15:28:27Z</time>
      </trkpt>
      <trkpt lat="46.97303" lon="-0.92403">
        <ele>134</ele>
        <time>2015-03-12T15:28:29Z</time>
      </trkpt>
      <trkpt lat="46.97304" lon="-0.924">
        <ele>134</ele>
        <time>2015-03-12T15:28:31Z</time>
      </trkpt>
      <trkpt lat="46.97305" lon="-0.92396">
        <ele>135</ele>
        <time>2015-03-12T15:28:33Z</time>
      </trkpt>
      <trkpt lat="46.97307" lon="-0.92393">
        <ele>135</ele>
        <time>2015-03-12T15:28:35Z</time>
      </trkpt>
      <trkpt lat="46.97308" lon="-0.9239">
        <ele>135</ele>
        <time>2015-03-12T15:28:37Z</time>
      </trkpt>
      <trkpt lat="46.9731" lon="-0.92387">
        <ele>135</ele>
        <time>2015-03-12T15:28:39Z</time>
      </trkpt>
      <trkpt lat="46.97312" lon="-0.92384">
        <ele>135</ele>
        <time>2015-03-12T15:28:41Z</time>
      </trkpt>
      <trkpt lat="46.97314" lon="-0.92381">
        <ele>135</ele>
        <time>2015-03-12T15:28:43Z</time>
      </trkpt>
      <trkpt lat="46.97314" lon="-0.92378">
        <ele>135</ele>
        <time>2015-03-12T15:28:45Z</time>
      </trkpt>
      <trkpt lat="46.97317" lon="-0.92373">
        <ele>135</ele>
        <time>2015-03-12T15:28:48Z</time>
      </trkpt>
      <trkpt lat="46.97319" lon="-0.9237">
        <ele>135</ele>
        <time>2015-03-12T15:28:50Z</time>
      </trkpt>
      <trkpt lat="46.9732" lon="-0.92367">
        <ele>135</ele>
        <time>2015-03-12T15:28:52Z</time>
      </trkpt>
      <trkpt lat="46.9732" lon="-0.92363">
        <ele>135</ele>
        <time>2015-03-12T15:28:54Z</time>
      </trkpt>
      <trkpt lat="46.97321" lon="-0.9236">
        <ele>136</ele>
        <time>2015-03-12T15:28:56Z</time>
      </trkpt>
      <trkpt lat="46.97322" lon="-0.92356">
        <ele>136</ele>
        <time>2015-03-12T15:28:58Z</time>
      </trkpt>
      <trkpt lat="46.97322" lon="-0.92352">
        <ele>136</ele>
        <time>2015-03-12T15:29:00Z</time>
      </trkpt>
      <trkpt lat="46.97322" lon="-0.92349">
        <ele>136</ele>
        <time>2015-03-12T15:29:02Z</time>
      </trkpt>
      <trkpt lat="46.97322" lon="-0.92346">
        <ele>136</ele>
        <time>2015-03-12T15:29:04Z</time>
      </trkpt>
      <trkpt lat="46.97323" lon="-0.92342">
        <ele>136</ele>
        <time>2015-03-12T15:29:06Z</time>
      </trkpt>
      <trkpt lat="46.97324" lon="-0.92338">
        <ele>136</ele>
        <time>2015-03-12T15:29:08Z</time>
      </trkpt>
      <trkpt lat="46.97324" lon="-0.92335">
        <ele>136</ele>
        <time>2015-03-12T15:29:10Z</time>
      </trkpt>
      <trkpt lat="46.97324" lon="-0.9233">
        <ele>136</ele>
        <time>2015-03-12T15:29:12Z</time>
      </trkpt>
      <trkpt lat="46.97324" lon="-0.92327">
        <ele>136</ele>
        <time>2015-03-12T15:29:14Z</time>
      </trkpt>
      <trkpt lat="46.97324" lon="-0.92323">
        <ele>136</ele>
        <time>2015-03-12T15:29:16Z</time>
      </trkpt>
      <trkpt lat="46.97324" lon="-0.9232">
        <ele>136</ele>
        <time>2015-03-12T15:29:18Z</time>
      </trkpt>
      <trkpt lat="46.97324" lon="-0.92315">
        <ele>136</ele>
        <time>2015-03-12T15:29:20Z</time>
      </trkpt>
      <trkpt lat="46.97324" lon="-0.92312">
        <ele>136</ele>
        <time>2015-03-12T15:29:22Z</time>
      </trkpt>
      <trkpt lat="46.97324" lon="-0.92308">
        <ele>137</ele>
        <time>2015-03-12T15:29:24Z</time>
      </trkpt>
      <trkpt lat="46.97324" lon="-0.92304">
        <ele>137</ele>
        <time>2015-03-12T15:29:26Z</time>
      </trkpt>
      <trkpt lat="46.97323" lon="-0.923">
        <ele>137</ele>
        <time>2015-03-12T15:29:28Z</time>
      </trkpt>
      <trkpt lat="46.97323" lon="-0.92297">
        <ele>137</ele>
        <time>2015-03-12T15:29:30Z</time>
      </trkpt>
      <trkpt lat="46.97323" lon="-0.92293">
        <ele>137</ele>
        <time>2015-03-12T15:29:32Z</time>
      </trkpt>
      <trkpt lat="46.97323" lon="-0.92289">
        <ele>137</ele>
        <time>2015-03-12T15:29:34Z</time>
      </trkpt>
      <trkpt lat="46.97323" lon="-0.92286">
        <ele>137</ele>
        <time>2015-03-12T15:29:36Z</time>
      </trkpt>
      <trkpt lat="46.97323" lon="-0.92282">
        <ele>137</ele>
        <time>2015-03-12T15:29:38Z</time>
      </trkpt>
      <trkpt lat="46.97322" lon="-0.92278">
        <ele>137</ele>
        <time>2015-03-12T15:29:40Z</time>
      </trkpt>
      <trkpt lat="46.97322" lon="-0.92274">
        <ele>137</ele>
        <time>2015-03-12T15:29:42Z</time>
      </trkpt>
      <trkpt lat="46.97321" lon="-0.9227">
        <ele>137</ele>
        <time>2015-03-12T15:29:44Z</time>
      </trkpt>
      <trkpt lat="46.97321" lon="-0.92266">
        <ele>137</ele>
        <time>2015-03-12T15:29:46Z</time>
      </trkpt>
      <trkpt lat="46.97321" lon="-0.92262">
        <ele>137</ele>
        <time>2015-03-12T15:29:48Z</time>
      </trkpt>
      <trkpt lat="46.97321" lon="-0.92259">
        <ele>137</ele>
        <time>2015-03-12T15:29:50Z</time>
      </trkpt>
      <trkpt lat="46.97321" lon="-0.92255">
        <ele>137</ele>
        <time>2015-03-12T15:29:52Z</time>
      </trkpt>
      <trkpt lat="46.97321" lon="-0.92251">
        <ele>137</ele>
        <time>2015-03-12T15:29:54Z</time>
      </trkpt>
      <trkpt lat="46.97321" lon="-0.92248">
        <ele>137</ele>
        <time>2015-03-12T15:29:56Z</time>
      </trkpt>
      <trkpt lat="46.9732" lon="-0.92244">
        <ele>137</ele>
        <time>2015-03-12T15:29:58Z</time>
      </trkpt>
      <trkpt lat="46.9732" lon="-0.9224">
        <ele>137</ele>
        <time>2015-03-12T15:30:00Z</time>
      </trkpt>
      <trkpt lat="46.97319" lon="-0.92237">
        <ele>137</ele>
        <time>2015-03-12T15:30:02Z</time>
      </trkpt>
      <trkpt lat="46.97319" lon="-0.92233">
        <ele>137</ele>
        <time>2015-03-12T15:30:04Z</time>
      </trkpt>
      <trkpt lat="46.97319" lon="-0.9223">
        <ele>137</ele>
        <time>2015-03-12T15:30:06Z</time>
      </trkpt>
      <trkpt lat="46.97319" lon="-0.92226">
        <ele>137</ele>
        <time>2015-03-12T15:30:08Z</time>
      </trkpt>
      <trkpt lat="46.97319" lon="-0.92222">
        <ele>137</ele>
        <time>2015-03-12T15:30:10Z</time>
      </trkpt>
      <trkpt lat="46.97319" lon="-0.92219">
        <ele>137</ele>
        <time>2015-03-12T15:30:12Z</time>
      </trkpt>
      <trkpt lat="46.97319" lon="-0.92215">
        <ele>137</ele>
        <time>2015-03-12T15:30:14Z</time>
      </trkpt>
      <trkpt lat="46.97319" lon="-0.92212">
        <ele>137</ele>
        <time>2015-03-12T15:30:16Z</time>
      </trkpt>
      <trkpt lat="46.9732" lon="-0.92208">
        <ele>137</ele>
        <time>2015-03-12T15:30:18Z</time>
      </trkpt>
      <trkpt lat="46.97321" lon="-0.92204">
        <ele>137</ele>
        <time>2015-03-12T15:30:20Z</time>
      </trkpt>
      <trkpt lat="46.97322" lon="-0.922">
        <ele>137</ele>
        <time>2015-03-12T15:30:22Z</time>
      </trkpt>
      <trkpt lat="46.97322" lon="-0.92197">
        <ele>137</ele>
        <time>2015-03-12T15:30:24Z</time>
      </trkpt>
      <trkpt lat="46.97323" lon="-0.92194">
        <ele>138</ele>
        <time>2015-03-12T15:30:26Z</time>
      </trkpt>
      <trkpt lat="46.97324" lon="-0.9219">
        <ele>138</ele>
        <time>2015-03-12T15:30:28Z</time>
      </trkpt>
      <trkpt lat="46.97325" lon="-0.92187">
        <ele>138</ele>
        <time>2015-03-12T15:30:30Z</time>
      </trkpt>
      <trkpt lat="46.97326" lon="-0.92184">
        <ele>138</ele>
        <time>2015-03-12T15:30:32Z</time>
      </trkpt>
      <trkpt lat="46.97327" lon="-0.92181">
        <ele>138</ele>
        <time>2015-03-12T15:30:34Z</time>
      </trkpt>
      <trkpt lat="46.97329" lon="-0.92177">
        <ele>138</ele>
        <time>2015-03-12T15:30:36Z</time>
      </trkpt>
      <trkpt lat="46.97329" lon="-0.92174">
        <ele>138</ele>
        <time>2015-03-12T15:30:38Z</time>
      </trkpt>
      <trkpt lat="46.97329" lon="-0.92171">
        <ele>138</ele>
        <time>2015-03-12T15:30:40Z</time>
      </trkpt>
      <trkpt lat="46.97328" lon="-0.92167">
        <ele>138</ele>
        <time>2015-03-12T15:30:42Z</time>
      </trkpt>
      <trkpt lat="46.97326" lon="-0.92163">
        <ele>138</ele>
        <time>2015-03-12T15:30:45Z</time>
      </trkpt>
      <trkpt lat="46.97324" lon="-0.92159">
        <ele>138</ele>
        <time>2015-03-12T15:30:47Z</time>
      </trkpt>
      <trkpt lat="46.97322" lon="-0.92156">
        <ele>138</ele>
        <time>2015-03-12T15:30:49Z</time>
      </trkpt>
      <trkpt lat="46.97319" lon="-0.92153">
        <ele>138</ele>
        <time>2015-03-12T15:30:52Z</time>
      </trkpt>
      <trkpt lat="46.97316" lon="-0.92149">
        <ele>138</ele>
        <time>2015-03-12T15:30:55Z</time>
      </trkpt>
      <trkpt lat="46.97313" lon="-0.92148">
        <ele>138</ele>
        <time>2015-03-12T15:30:57Z</time>
      </trkpt>
      <trkpt lat="46.97311" lon="-0.92146">
        <ele>138</ele>
        <time>2015-03-12T15:30:59Z</time>
      </trkpt>
      <trkpt lat="46.97309" lon="-0.92145">
        <ele>138</ele>
        <time>2015-03-12T15:31:01Z</time>
      </trkpt>
      <trkpt lat="46.97306" lon="-0.92143">
        <ele>138</ele>
        <time>2015-03-12T15:31:03Z</time>
      </trkpt>
      <trkpt lat="46.97303" lon="-0.92141">
        <ele>138</ele>
        <time>2015-03-12T15:31:05Z</time>
      </trkpt>
      <trkpt lat="46.97301" lon="-0.92141">
        <ele>138</ele>
        <time>2015-03-12T15:31:07Z</time>
      </trkpt>
      <trkpt lat="46.97298" lon="-0.92139">
        <ele>138</ele>
        <time>2015-03-12T15:31:09Z</time>
      </trkpt>
      <trkpt lat="46.97295" lon="-0.92137">
        <ele>138</ele>
        <time>2015-03-12T15:31:12Z</time>
      </trkpt>
      <trkpt lat="46.97293" lon="-0.92136">
        <ele>138</ele>
        <time>2015-03-12T15:31:14Z</time>
      </trkpt>
      <trkpt lat="46.97291" lon="-0.92134">
        <ele>138</ele>
        <time>2015-03-12T15:31:16Z</time>
      </trkpt>
      <trkpt lat="46.97288" lon="-0.92133">
        <ele>138</ele>
        <time>2015-03-12T15:31:18Z</time>
      </trkpt>
      <trkpt lat="46.97286" lon="-0.92132">
        <ele>138</ele>
        <time>2015-03-12T15:31:20Z</time>
      </trkpt>
      <trkpt lat="46.97283" lon="-0.92131">
        <ele>138</ele>
        <time>2015-03-12T15:31:22Z</time>
      </trkpt>
      <trkpt lat="46.97281" lon="-0.9213">
        <ele>138</ele>
        <time>2015-03-12T15:31:24Z</time>
      </trkpt>
      <trkpt lat="46.97278" lon="-0.92128">
        <ele>138</ele>
        <time>2015-03-12T15:31:26Z</time>
      </trkpt>
      <trkpt lat="46.97275" lon="-0.92127">
        <ele>138</ele>
        <time>2015-03-12T15:31:28Z</time>
      </trkpt>
      <trkpt lat="46.97273" lon="-0.92125">
        <ele>138</ele>
        <time>2015-03-12T15:31:30Z</time>
      </trkpt>
      <trkpt lat="46.97271" lon="-0.92124">
        <ele>138</ele>
        <time>2015-03-12T15:31:32Z</time>
      </trkpt>
      <trkpt lat="46.97268" lon="-0.92123">
        <ele>138</ele>
        <time>2015-03-12T15:31:34Z</time>
      </trkpt>
      <trkpt lat="46.97266" lon="-0.92121">
        <ele>138</ele>
        <time>2015-03-12T15:31:36Z</time>
      </trkpt>
      <trkpt lat="46.97263" lon="-0.92119">
        <ele>138</ele>
        <time>2015-03-12T15:31:38Z</time>
      </trkpt>
      <trkpt lat="46.9726" lon="-0.92117">
        <ele>138</ele>
        <time>2015-03-12T15:31:41Z</time>
      </trkpt>
      <trkpt lat="46.97257" lon="-0.92114">
        <ele>138</ele>
        <time>2015-03-12T15:31:44Z</time>
      </trkpt>
      <trkpt lat="46.97255" lon="-0.92112">
        <ele>138</ele>
        <time>2015-03-12T15:31:46Z</time>
      </trkpt>
      <trkpt lat="46.97252" lon="-0.92111">
        <ele>138</ele>
        <time>2015-03-12T15:31:48Z</time>
      </trkpt>
      <trkpt lat="46.97249" lon="-0.9211">
        <ele>138</ele>
        <time>2015-03-12T15:31:50Z</time>
      </trkpt>
      <trkpt lat="46.97246" lon="-0.92109">
        <ele>138</ele>
        <time>2015-03-12T15:31:53Z</time>
      </trkpt>
      <trkpt lat="46.97243" lon="-0.92108">
        <ele>138</ele>
        <time>2015-03-12T15:31:55Z</time>
      </trkpt>
      <trkpt lat="46.9724" lon="-0.92107">
        <ele>138</ele>
        <time>2015-03-12T15:31:57Z</time>
      </trkpt>
      <trkpt lat="46.97237" lon="-0.92106">
        <ele>138</ele>
        <time>2015-03-12T15:31:59Z</time>
      </trkpt>
      <trkpt lat="46.97234" lon="-0.92105">
        <ele>138</ele>
        <time>2015-03-12T15:32:01Z</time>
      </trkpt>
      <trkpt lat="46.97232" lon="-0.92104">
        <ele>138</ele>
        <time>2015-03-12T15:32:03Z</time>
      </trkpt>
      <trkpt lat="46.97229" lon="-0.92102">
        <ele>138</ele>
        <time>2015-03-12T15:32:05Z</time>
      </trkpt>
      <trkpt lat="46.97227" lon="-0.92101">
        <ele>138</ele>
        <time>2015-03-12T15:32:07Z</time>
      </trkpt>
      <trkpt lat="46.97224" lon="-0.921">
        <ele>138</ele>
        <time>2015-03-12T15:32:09Z</time>
      </trkpt>
      <trkpt lat="46.97221" lon="-0.92099">
        <ele>138</ele>
        <time>2015-03-12T15:32:12Z</time>
      </trkpt>
      <trkpt lat="46.97219" lon="-0.92099">
        <ele>138</ele>
        <time>2015-03-12T15:32:14Z</time>
      </trkpt>
      <trkpt lat="46.97215" lon="-0.92097">
        <ele>138</ele>
        <time>2015-03-12T15:32:17Z</time>
      </trkpt>
      <trkpt lat="46.97213" lon="-0.92096">
        <ele>138</ele>
        <time>2015-03-12T15:32:19Z</time>
      </trkpt>
      <trkpt lat="46.9721" lon="-0.92094">
        <ele>138</ele>
        <time>2015-03-12T15:32:21Z</time>
      </trkpt>
      <trkpt lat="46.97207" lon="-0.92092">
        <ele>138</ele>
        <time>2015-03-12T15:32:24Z</time>
      </trkpt>
      <trkpt lat="46.97204" lon="-0.92091">
        <ele>138</ele>
        <time>2015-03-12T15:32:26Z</time>
      </trkpt>
      <trkpt lat="46.97202" lon="-0.9209">
        <ele>138</ele>
        <time>2015-03-12T15:32:28Z</time>
      </trkpt>
      <trkpt lat="46.97199" lon="-0.92088">
        <ele>138</ele>
        <time>2015-03-12T15:32:30Z</time>
      </trkpt>
      <trkpt lat="46.97197" lon="-0.92086">
        <ele>138</ele>
        <time>2015-03-12T15:32:32Z</time>
      </trkpt>
      <trkpt lat="46.97195" lon="-0.92085">
        <ele>139</ele>
        <time>2015-03-12T15:32:34Z</time>
      </trkpt>
      <trkpt lat="46.97192" lon="-0.92083">
        <ele>139</ele>
        <time>2015-03-12T15:32:36Z</time>
      </trkpt>
      <trkpt lat="46.9719" lon="-0.92082">
        <ele>139</ele>
        <time>2015-03-12T15:32:38Z</time>
      </trkpt>
      <trkpt lat="46.97187" lon="-0.92081">
        <ele>139</ele>
        <time>2015-03-12T15:32:40Z</time>
      </trkpt>
      <trkpt lat="46.97185" lon="-0.9208">
        <ele>139</ele>
        <time>2015-03-12T15:32:42Z</time>
      </trkpt>
      <trkpt lat="46.97183" lon="-0.92078">
        <ele>139</ele>
        <time>2015-03-12T15:32:44Z</time>
      </trkpt>
      <trkpt lat="46.97181" lon="-0.92077">
        <ele>139</ele>
        <time>2015-03-12T15:32:46Z</time>
      </trkpt>
      <trkpt lat="46.97178" lon="-0.92075">
        <ele>139</ele>
        <time>2015-03-12T15:32:49Z</time>
      </trkpt>
      <trkpt lat="46.97176" lon="-0.92074">
        <ele>139</ele>
        <time>2015-03-12T15:32:51Z</time>
      </trkpt>
      <trkpt lat="46.97174" lon="-0.92073">
        <ele>139</ele>
        <time>2015-03-12T15:32:53Z</time>
      </trkpt>
      <trkpt lat="46.97171" lon="-0.92071">
        <ele>139</ele>
        <time>2015-03-12T15:32:56Z</time>
      </trkpt>
      <trkpt lat="46.97168" lon="-0.9207">
        <ele>139</ele>
        <time>2015-03-12T15:32:58Z</time>
      </trkpt>
      <trkpt lat="46.97165" lon="-0.92068">
        <ele>139</ele>
        <time>2015-03-12T15:33:01Z</time>
      </trkpt>
      <trkpt lat="46.97162" lon="-0.92067">
        <ele>139</ele>
        <time>2015-03-12T15:33:03Z</time>
      </trkpt>
      <trkpt lat="46.9716" lon="-0.92065">
        <ele>139</ele>
        <time>2015-03-12T15:33:05Z</time>
      </trkpt>
      <trkpt lat="46.97157" lon="-0.92063">
        <ele>139</ele>
        <time>2015-03-12T15:33:08Z</time>
      </trkpt>
      <trkpt lat="46.97154" lon="-0.92062">
        <ele>139</ele>
        <time>2015-03-12T15:33:10Z</time>
      </trkpt>
      <trkpt lat="46.97151" lon="-0.92062">
        <ele>139</ele>
        <time>2015-03-12T15:33:12Z</time>
      </trkpt>
      <trkpt lat="46.97148" lon="-0.9206">
        <ele>139</ele>
        <time>2015-03-12T15:33:14Z</time>
      </trkpt>
      <trkpt lat="46.97144" lon="-0.92058">
        <ele>139</ele>
        <time>2015-03-12T15:33:17Z</time>
      </trkpt>
      <trkpt lat="46.97142" lon="-0.92058">
        <ele>139</ele>
        <time>2015-03-12T15:33:19Z</time>
      </trkpt>
      <trkpt lat="46.97139" lon="-0.92057">
        <ele>139</ele>
        <time>2015-03-12T15:33:21Z</time>
      </trkpt>
      <trkpt lat="46.97137" lon="-0.92055">
        <ele>139</ele>
        <time>2015-03-12T15:33:23Z</time>
      </trkpt>
      <trkpt lat="46.97134" lon="-0.92054">
        <ele>139</ele>
        <time>2015-03-12T15:33:25Z</time>
      </trkpt>
      <trkpt lat="46.97131" lon="-0.92053">
        <ele>139</ele>
        <time>2015-03-12T15:33:27Z</time>
      </trkpt>
      <trkpt lat="46.97128" lon="-0.92052">
        <ele>139</ele>
        <time>2015-03-12T15:33:29Z</time>
      </trkpt>
      <trkpt lat="46.97126" lon="-0.92051">
        <ele>139</ele>
        <time>2015-03-12T15:33:31Z</time>
      </trkpt>
      <trkpt lat="46.97123" lon="-0.9205">
        <ele>139</ele>
        <time>2015-03-12T15:33:33Z</time>
      </trkpt>
      <trkpt lat="46.97119" lon="-0.92047">
        <ele>139</ele>
        <time>2015-03-12T15:33:36Z</time>
      </trkpt>
      <trkpt lat="46.97117" lon="-0.92046">
        <ele>139</ele>
        <time>2015-03-12T15:33:38Z</time>
      </trkpt>
      <trkpt lat="46.97115" lon="-0.92044">
        <ele>139</ele>
        <time>2015-03-12T15:33:40Z</time>
      </trkpt>
      <trkpt lat="46.97112" lon="-0.92043">
        <ele>139</ele>
        <time>2015-03-12T15:33:42Z</time>
      </trkpt>
      <trkpt lat="46.9711" lon="-0.92042">
        <ele>139</ele>
        <time>2015-03-12T15:33:44Z</time>
      </trkpt>
      <trkpt lat="46.97108" lon="-0.92041">
        <ele>139</ele>
        <time>2015-03-12T15:33:46Z</time>
      </trkpt>
      <trkpt lat="46.97105" lon="-0.92039">
        <ele>139</ele>
        <time>2015-03-12T15:33:48Z</time>
      </trkpt>
      <trkpt lat="46.97103" lon="-0.92038">
        <ele>139</ele>
        <time>2015-03-12T15:33:50Z</time>
      </trkpt>
      <trkpt lat="46.971" lon="-0.92038">
        <ele>139</ele>
        <time>2015-03-12T15:33:52Z</time>
      </trkpt>
      <trkpt lat="46.97097" lon="-0.92037">
        <ele>139</ele>
        <time>2015-03-12T15:33:54Z</time>
      </trkpt>
      <trkpt lat="46.97095" lon="-0.92036">
        <ele>139</ele>
        <time>2015-03-12T15:33:56Z</time>
      </trkpt>
      <trkpt lat="46.97092" lon="-0.92033">
        <ele>139</ele>
        <time>2015-03-12T15:33:58Z</time>
      </trkpt>
      <trkpt lat="46.9709" lon="-0.92032">
        <ele>139</ele>
        <time>2015-03-12T15:34:00Z</time>
      </trkpt>
      <trkpt lat="46.97086" lon="-0.9203">
        <ele>139</ele>
        <time>2015-03-12T15:34:03Z</time>
      </trkpt>
      <trkpt lat="46.97084" lon="-0.92028">
        <ele>139</ele>
        <time>2015-03-12T15:34:05Z</time>
      </trkpt>
      <trkpt lat="46.97081" lon="-0.92027">
        <ele>139</ele>
        <time>2015-03-12T15:34:07Z</time>
      </trkpt>
      <trkpt lat="46.97078" lon="-0.92025">
        <ele>139</ele>
        <time>2015-03-12T15:34:10Z</time>
      </trkpt>
      <trkpt lat="46.97076" lon="-0.92023">
        <ele>139</ele>
        <time>2015-03-12T15:34:12Z</time>
      </trkpt>
      <trkpt lat="46.97074" lon="-0.92021">
        <ele>139</ele>
        <time>2015-03-12T15:34:14Z</time>
      </trkpt>
      <trkpt lat="46.97072" lon="-0.9202">
        <ele>139</ele>
        <time>2015-03-12T15:34:16Z</time>
      </trkpt>
      <trkpt lat="46.9707" lon="-0.92018">
        <ele>139</ele>
        <time>2015-03-12T15:34:18Z</time>
      </trkpt>
      <trkpt lat="46.97068" lon="-0.92017">
        <ele>139</ele>
        <time>2015-03-12T15:34:20Z</time>
      </trkpt>
      <trkpt lat="46.97065" lon="-0.92014">
        <ele>139</ele>
        <time>2015-03-12T15:34:22Z</time>
      </trkpt>
      <trkpt lat="46.97063" lon="-0.92012">
        <ele>139</ele>
        <time>2015-03-12T15:34:24Z</time>
      </trkpt>
      <trkpt lat="46.97061" lon="-0.9201">
        <ele>139</ele>
        <time>2015-03-12T15:34:26Z</time>
      </trkpt>
      <trkpt lat="46.97059" lon="-0.92009">
        <ele>139</ele>
        <time>2015-03-12T15:34:28Z</time>
      </trkpt>
      <trkpt lat="46.97057" lon="-0.92007">
        <ele>139</ele>
        <time>2015-03-12T15:34:30Z</time>
      </trkpt>
      <trkpt lat="46.97055" lon="-0.92005">
        <ele>139</ele>
        <time>2015-03-12T15:34:32Z</time>
      </trkpt>
      <trkpt lat="46.97052" lon="-0.92004">
        <ele>139</ele>
        <time>2015-03-12T15:34:34Z</time>
      </trkpt>
      <trkpt lat="46.9705" lon="-0.92003">
        <ele>139</ele>
        <time>2015-03-12T15:34:36Z</time>
      </trkpt>
      <trkpt lat="46.97047" lon="-0.92001">
        <ele>139</ele>
        <time>2015-03-12T15:34:38Z</time>
      </trkpt>
      <trkpt lat="46.97044" lon="-0.91999">
        <ele>139</ele>
        <time>2015-03-12T15:34:40Z</time>
      </trkpt>
      <trkpt lat="46.97041" lon="-0.91998">
        <ele>139</ele>
        <time>2015-03-12T15:34:43Z</time>
      </trkpt>
      <trkpt lat="46.97038" lon="-0.91994">
        <ele>139</ele>
        <time>2015-03-12T15:34:46Z</time>
      </trkpt>
      <trkpt lat="46.97035" lon="-0.91992">
        <ele>139</ele>
        <time>2015-03-12T15:34:48Z</time>
      </trkpt>
      <trkpt lat="46.97032" lon="-0.91989">
        <ele>138</ele>
        <time>2015-03-12T15:34:51Z</time>
      </trkpt>
      <trkpt lat="46.97031" lon="-0.91987">
        <ele>138</ele>
        <time>2015-03-12T15:34:53Z</time>
      </trkpt>
      <trkpt lat="46.97029" lon="-0.91984">
        <ele>138</ele>
        <time>2015-03-12T15:34:55Z</time>
      </trkpt>
      <trkpt lat="46.97027" lon="-0.91983">
        <ele>137</ele>
        <time>2015-03-12T15:34:57Z</time>
      </trkpt>
      <trkpt lat="46.97023" lon="-0.91981">
        <ele>137</ele>
        <time>2015-03-12T15:35:00Z</time>
      </trkpt>
      <trkpt lat="46.97022" lon="-0.91979">
        <ele>137</ele>
        <time>2015-03-12T15:35:02Z</time>
      </trkpt>
      <trkpt lat="46.9702" lon="-0.91977">
        <ele>137</ele>
        <time>2015-03-12T15:35:04Z</time>
      </trkpt>
      <trkpt lat="46.97017" lon="-0.91975">
        <ele>137</ele>
        <time>2015-03-12T15:35:07Z</time>
      </trkpt>
      <trkpt lat="46.97015" lon="-0.91972">
        <ele>137</ele>
        <time>2015-03-12T15:35:09Z</time>
      </trkpt>
      <trkpt lat="46.97012" lon="-0.9197">
        <ele>137</ele>
        <time>2015-03-12T15:35:11Z</time>
      </trkpt>
      <trkpt lat="46.9701" lon="-0.91968">
        <ele>137</ele>
        <time>2015-03-12T15:35:13Z</time>
      </trkpt>
      <trkpt lat="46.97009" lon="-0.91966">
        <ele>137</ele>
        <time>2015-03-12T15:35:15Z</time>
      </trkpt>
      <trkpt lat="46.97007" lon="-0.91963">
        <ele>137</ele>
        <time>2015-03-12T15:35:17Z</time>
      </trkpt>
      <trkpt lat="46.97004" lon="-0.91961">
        <ele>137</ele>
        <time>2015-03-12T15:35:19Z</time>
      </trkpt>
      <trkpt lat="46.97002" lon="-0.91959">
        <ele>137</ele>
        <time>2015-03-12T15:35:21Z</time>
      </trkpt>
      <trkpt lat="46.97" lon="-0.91957">
        <ele>137</ele>
        <time>2015-03-12T15:35:23Z</time>
      </trkpt>
      <trkpt lat="46.96997" lon="-0.91954">
        <ele>137</ele>
        <time>2015-03-12T15:35:26Z</time>
      </trkpt>
      <trkpt lat="46.96996" lon="-0.91952">
        <ele>137</ele>
        <time>2015-03-12T15:35:28Z</time>
      </trkpt>
      <trkpt lat="46.96994" lon="-0.9195">
        <ele>137</ele>
        <time>2015-03-12T15:35:30Z</time>
      </trkpt>
      <trkpt lat="46.96991" lon="-0.91948">
        <ele>137</ele>
        <time>2015-03-12T15:35:32Z</time>
      </trkpt>
      <trkpt lat="46.96988" lon="-0.91945">
        <ele>137</ele>
        <time>2015-03-12T15:35:34Z</time>
      </trkpt>
      <trkpt lat="46.96984" lon="-0.91942">
        <ele>137</ele>
        <time>2015-03-12T15:35:36Z</time>
      </trkpt>
      <trkpt lat="46.96982" lon="-0.9194">
        <ele>137</ele>
        <time>2015-03-12T15:35:38Z</time>
      </trkpt>
      <trkpt lat="46.9698" lon="-0.91938">
        <ele>137</ele>
        <time>2015-03-12T15:35:40Z</time>
      </trkpt>
      <trkpt lat="46.96978" lon="-0.91936">
        <ele>137</ele>
        <time>2015-03-12T15:35:42Z</time>
      </trkpt>
      <trkpt lat="46.96975" lon="-0.91934">
        <ele>137</ele>
        <time>2015-03-12T15:35:44Z</time>
      </trkpt>
      <trkpt lat="46.96973" lon="-0.9193">
        <ele>137</ele>
        <time>2015-03-12T15:35:48Z</time>
      </trkpt>
      <trkpt lat="46.96972" lon="-0.91929">
        <ele>137</ele>
        <time>2015-03-12T15:35:50Z</time>
      </trkpt>
      <trkpt lat="46.96972" lon="-0.91927">
        <ele>137</ele>
        <time>2015-03-12T15:35:52Z</time>
      </trkpt>
      <trkpt lat="46.96972" lon="-0.91926">
        <ele>137</ele>
        <time>2015-03-12T15:35:54Z</time>
      </trkpt>
      <trkpt lat="46.96972" lon="-0.91924">
        <ele>137</ele>
        <time>2015-03-12T15:35:57Z</time>
      </trkpt>
      <trkpt lat="46.96973" lon="-0.91922">
        <ele>136</ele>
        <time>2015-03-12T15:35:59Z</time>
      </trkpt>
      <trkpt lat="46.96971" lon="-0.9192">
        <ele>136</ele>
        <time>2015-03-12T15:36:01Z</time>
      </trkpt>
      <trkpt lat="46.96969" lon="-0.91919">
        <ele>136</ele>
        <time>2015-03-12T15:36:03Z</time>
      </trkpt>
      <trkpt lat="46.96966" lon="-0.91916">
        <ele>136</ele>
        <time>2015-03-12T15:36:06Z</time>
      </trkpt>
      <trkpt lat="46.96965" lon="-0.91912">
        <ele>136</ele>
        <time>2015-03-12T15:36:08Z</time>
      </trkpt>
      <trkpt lat="46.96964" lon="-0.91909">
        <ele>136</ele>
        <time>2015-03-12T15:36:11Z</time>
      </trkpt>
      <trkpt lat="46.96963" lon="-0.91907">
        <ele>136</ele>
        <time>2015-03-12T15:36:13Z</time>
      </trkpt>
      <trkpt lat="46.96961" lon="-0.91904">
        <ele>136</ele>
        <time>2015-03-12T15:36:15Z</time>
      </trkpt>
      <trkpt lat="46.96957" lon="-0.91901">
        <ele>136</ele>
        <time>2015-03-12T15:36:18Z</time>
      </trkpt>
      <trkpt lat="46.96955" lon="-0.919">
        <ele>136</ele>
        <time>2015-03-12T15:36:20Z</time>
      </trkpt>
      <trkpt lat="46.96953" lon="-0.91898">
        <ele>136</ele>
        <time>2015-03-12T15:36:24Z</time>
      </trkpt>
      <trkpt lat="46.96952" lon="-0.91897">
        <ele>136</ele>
        <time>2015-03-12T15:36:26Z</time>
      </trkpt>
      <trkpt lat="46.9695" lon="-0.91896">
        <ele>136</ele>
        <time>2015-03-12T15:36:28Z</time>
      </trkpt>
      <trkpt lat="46.96948" lon="-0.91893">
        <ele>136</ele>
        <time>2015-03-12T15:36:31Z</time>
      </trkpt>
      <trkpt lat="46.96946" lon="-0.91891">
        <ele>136</ele>
        <time>2015-03-12T15:36:33Z</time>
      </trkpt>
      <trkpt lat="46.96945" lon="-0.9189">
        <ele>136</ele>
        <time>2015-03-12T15:36:35Z</time>
      </trkpt>
      <trkpt lat="46.96943" lon="-0.91888">
        <ele>136</ele>
        <time>2015-03-12T15:36:37Z</time>
      </trkpt>
      <trkpt lat="46.96941" lon="-0.91886">
        <ele>136</ele>
        <time>2015-03-12T15:36:39Z</time>
      </trkpt>
      <trkpt lat="46.96939" lon="-0.91884">
        <ele>136</ele>
        <time>2015-03-12T15:36:41Z</time>
      </trkpt>
      <trkpt lat="46.96937" lon="-0.91882">
        <ele>136</ele>
        <time>2015-03-12T15:36:43Z</time>
      </trkpt>
      <trkpt lat="46.96935" lon="-0.9188">
        <ele>136</ele>
        <time>2015-03-12T15:36:45Z</time>
      </trkpt>
      <trkpt lat="46.96933" lon="-0.91878">
        <ele>136</ele>
        <time>2015-03-12T15:36:47Z</time>
      </trkpt>
      <trkpt lat="46.96931" lon="-0.91876">
        <ele>136</ele>
        <time>2015-03-12T15:36:49Z</time>
      </trkpt>
      <trkpt lat="46.96929" lon="-0.91874">
        <ele>136</ele>
        <time>2015-03-12T15:36:51Z</time>
      </trkpt>
      <trkpt lat="46.96926" lon="-0.91872">
        <ele>136</ele>
        <time>2015-03-12T15:36:54Z</time>
      </trkpt>
      <trkpt lat="46.96924" lon="-0.91869">
        <ele>136</ele>
        <time>2015-03-12T15:36:56Z</time>
      </trkpt>
      <trkpt lat="46.96922" lon="-0.91868">
        <ele>136</ele>
        <time>2015-03-12T15:36:58Z</time>
      </trkpt>
      <trkpt lat="46.9692" lon="-0.91865">
        <ele>136</ele>
        <time>2015-03-12T15:37:00Z</time>
      </trkpt>
      <trkpt lat="46.96918" lon="-0.91863">
        <ele>136</ele>
        <time>2015-03-12T15:37:02Z</time>
      </trkpt>
      <trkpt lat="46.96916" lon="-0.91861">
        <ele>136</ele>
        <time>2015-03-12T15:37:04Z</time>
      </trkpt>
      <trkpt lat="46.96915" lon="-0.9186">
        <ele>136</ele>
        <time>2015-03-12T15:37:06Z</time>
      </trkpt>
      <trkpt lat="46.96914" lon="-0.91858">
        <ele>136</ele>
        <time>2015-03-12T15:37:08Z</time>
      </trkpt>
      <trkpt lat="46.9691" lon="-0.91855">
        <ele>136</ele>
        <time>2015-03-12T15:37:11Z</time>
      </trkpt>
      <trkpt lat="46.96907" lon="-0.91852">
        <ele>136</ele>
        <time>2015-03-12T15:37:14Z</time>
      </trkpt>
      <trkpt lat="46.96906" lon="-0.9185">
        <ele>136</ele>
        <time>2015-03-12T15:37:16Z</time>
      </trkpt>
      <trkpt lat="46.96904" lon="-0.91847">
        <ele>136</ele>
        <time>2015-03-12T15:37:18Z</time>
      </trkpt>
      <trkpt lat="46.96901" lon="-0.91845">
        <ele>136</ele>
        <time>2015-03-12T15:37:20Z</time>
      </trkpt>
      <trkpt lat="46.96899" lon="-0.91844">
        <ele>136</ele>
        <time>2015-03-12T15:37:22Z</time>
      </trkpt>
      <trkpt lat="46.96896" lon="-0.91842">
        <ele>136</ele>
        <time>2015-03-12T15:37:24Z</time>
      </trkpt>
      <trkpt lat="46.96894" lon="-0.91839">
        <ele>136</ele>
        <time>2015-03-12T15:37:26Z</time>
      </trkpt>
      <trkpt lat="46.96891" lon="-0.91838">
        <ele>136</ele>
        <time>2015-03-12T15:37:28Z</time>
      </trkpt>
      <trkpt lat="46.96888" lon="-0.91835">
        <ele>136</ele>
        <time>2015-03-12T15:37:31Z</time>
      </trkpt>
      <trkpt lat="46.96886" lon="-0.91834">
        <ele>136</ele>
        <time>2015-03-12T15:37:33Z</time>
      </trkpt>
      <trkpt lat="46.96883" lon="-0.91832">
        <ele>136</ele>
        <time>2015-03-12T15:37:35Z</time>
      </trkpt>
      <trkpt lat="46.96881" lon="-0.9183">
        <ele>136</ele>
        <time>2015-03-12T15:37:37Z</time>
      </trkpt>
      <trkpt lat="46.96879" lon="-0.91827">
        <ele>136</ele>
        <time>2015-03-12T15:37:39Z</time>
      </trkpt>
      <trkpt lat="46.96878" lon="-0.91825">
        <ele>136</ele>
        <time>2015-03-12T15:37:41Z</time>
      </trkpt>
      <trkpt lat="46.96875" lon="-0.91824">
        <ele>136</ele>
        <time>2015-03-12T15:37:43Z</time>
      </trkpt>
      <trkpt lat="46.96873" lon="-0.91822">
        <ele>136</ele>
        <time>2015-03-12T15:37:45Z</time>
      </trkpt>
      <trkpt lat="46.96871" lon="-0.91819">
        <ele>136</ele>
        <time>2015-03-12T15:37:47Z</time>
      </trkpt>
      <trkpt lat="46.96868" lon="-0.91816">
        <ele>136</ele>
        <time>2015-03-12T15:37:50Z</time>
      </trkpt>
      <trkpt lat="46.96865" lon="-0.91814">
        <ele>136</ele>
        <time>2015-03-12T15:37:52Z</time>
      </trkpt>
      <trkpt lat="46.96863" lon="-0.91813">
        <ele>136</ele>
        <time>2015-03-12T15:37:54Z</time>
      </trkpt>
      <trkpt lat="46.9686" lon="-0.9181">
        <ele>136</ele>
        <time>2015-03-12T15:37:57Z</time>
      </trkpt>
      <trkpt lat="46.96858" lon="-0.91809">
        <ele>136</ele>
        <time>2015-03-12T15:37:59Z</time>
      </trkpt>
      <trkpt lat="46.96855" lon="-0.91807">
        <ele>136</ele>
        <time>2015-03-12T15:38:02Z</time>
      </trkpt>
      <trkpt lat="46.96853" lon="-0.91805">
        <ele>135</ele>
        <time>2015-03-12T15:38:04Z</time>
      </trkpt>
      <trkpt lat="46.96852" lon="-0.91805">
        <ele>135</ele>
        <time>2015-03-12T15:38:06Z</time>
      </trkpt>
      <trkpt lat="46.96851" lon="-0.91806">
        <ele>135</ele>
        <time>2015-03-12T15:38:09Z</time>
      </trkpt>
      <trkpt lat="46.96849" lon="-0.91806">
        <ele>135</ele>
        <time>2015-03-12T15:38:13Z</time>
      </trkpt>
      <trkpt lat="46.96848" lon="-0.91805">
        <ele>135</ele>
        <time>2015-03-12T15:38:17Z</time>
      </trkpt>
      <trkpt lat="46.96847" lon="-0.91804">
        <ele>134</ele>
        <time>2015-03-12T15:38:31Z</time>
      </trkpt>
      <trkpt lat="46.96846" lon="-0.91803">
        <ele>134</ele>
        <time>2015-03-12T15:38:41Z</time>
      </trkpt>
      <trkpt lat="46.96845" lon="-0.91803">
        <ele>134</ele>
        <time>2015-03-12T15:38:51Z</time>
      </trkpt>
      <trkpt lat="46.96843" lon="-0.91805">
        <ele>134</ele>
        <time>2015-03-12T15:38:56Z</time>
      </trkpt>
      <trkpt lat="46.96843" lon="-0.91806">
        <ele>133</ele>
        <time>2015-03-12T15:39:00Z</time>
      </trkpt>
      <trkpt lat="46.96841" lon="-0.91807">
        <ele>132</ele>
        <time>2015-03-12T15:39:02Z</time>
      </trkpt>
      <trkpt lat="46.96841" lon="-0.91809">
        <ele>130</ele>
        <time>2015-03-12T15:39:07Z</time>
      </trkpt>
      <trkpt lat="46.9684" lon="-0.9181">
        <ele>130</ele>
        <time>2015-03-12T15:39:10Z</time>
      </trkpt>
      <trkpt lat="46.96839" lon="-0.91812">
        <ele>129</ele>
        <time>2015-03-12T15:39:16Z</time>
      </trkpt>
      <trkpt lat="46.96839" lon="-0.91813">
        <ele>127</ele>
        <time>2015-03-12T15:39:20Z</time>
      </trkpt>
      <trkpt lat="46.96838" lon="-0.91816">
        <ele>127</ele>
        <time>2015-03-12T15:39:24Z</time>
      </trkpt>
      <trkpt lat="46.96838" lon="-0.91817">
        <ele>126</ele>
        <time>2015-03-12T15:39:29Z</time>
      </trkpt>
      <trkpt lat="46.96837" lon="-0.91819">
        <ele>125</ele>
        <time>2015-03-12T15:39:34Z</time>
      </trkpt>
      <trkpt lat="46.96836" lon="-0.9182">
        <ele>122</ele>
        <time>2015-03-12T15:39:43Z</time>
      </trkpt>
      <trkpt lat="46.96835" lon="-0.91822">
        <ele>121</ele>
        <time>2015-03-12T15:39:48Z</time>
      </trkpt>
      <trkpt lat="46.96833" lon="-0.91823">
        <ele>120</ele>
        <time>2015-03-12T15:39:52Z</time>
      </trkpt>
      <trkpt lat="46.96828" lon="-0.91822">
        <ele>120</ele>
        <time>2015-03-12T15:39:57Z</time>
      </trkpt>
      <trkpt lat="46.96828" lon="-0.91821">
        <ele>120</ele>
        <time>2015-03-12T15:40:00Z</time>
      </trkpt>
      <trkpt lat="46.96829" lon="-0.91819">
        <ele>120</ele>
        <time>2015-03-12T15:40:03Z</time>
      </trkpt>
      <trkpt lat="46.96829" lon="-0.91817">
        <ele>120</ele>
        <time>2015-03-12T15:40:05Z</time>
      </trkpt>
      <trkpt lat="46.96828" lon="-0.91815">
        <ele>120</ele>
        <time>2015-03-12T15:40:08Z</time>
      </trkpt>
      <trkpt lat="46.96828" lon="-0.91813">
        <ele>120</ele>
        <time>2015-03-12T15:40:10Z</time>
      </trkpt>
      <trkpt lat="46.96828" lon="-0.9181">
        <ele>120</ele>
        <time>2015-03-12T15:40:12Z</time>
      </trkpt>
      <trkpt lat="46.96828" lon="-0.91808">
        <ele>119</ele>
        <time>2015-03-12T15:40:14Z</time>
      </trkpt>
      <trkpt lat="46.96827" lon="-0.91806">
        <ele>118</ele>
        <time>2015-03-12T15:40:16Z</time>
      </trkpt>
      <trkpt lat="46.96828" lon="-0.91802">
        <ele>117</ele>
        <time>2015-03-12T15:40:19Z</time>
      </trkpt>
      <trkpt lat="46.96829" lon="-0.91799">
        <ele>116</ele>
        <time>2015-03-12T15:40:21Z</time>
      </trkpt>
      <trkpt lat="46.96829" lon="-0.91796">
        <ele>115</ele>
        <time>2015-03-12T15:40:23Z</time>
      </trkpt>
      <trkpt lat="46.96829" lon="-0.91792">
        <ele>115</ele>
        <time>2015-03-12T15:40:25Z</time>
      </trkpt>
      <trkpt lat="46.96829" lon="-0.91789">
        <ele>115</ele>
        <time>2015-03-12T15:40:27Z</time>
      </trkpt>
      <trkpt lat="46.9683" lon="-0.91785">
        <ele>115</ele>
        <time>2015-03-12T15:40:30Z</time>
      </trkpt>
      <trkpt lat="46.96832" lon="-0.91781">
        <ele>115</ele>
        <time>2015-03-12T15:40:33Z</time>
      </trkpt>
      <trkpt lat="46.96833" lon="-0.91777">
        <ele>115</ele>
        <time>2015-03-12T15:40:35Z</time>
      </trkpt>
      <trkpt lat="46.96835" lon="-0.91775">
        <ele>114</ele>
        <time>2015-03-12T15:40:37Z</time>
      </trkpt>
      <trkpt lat="46.96838" lon="-0.91774">
        <ele>114</ele>
        <time>2015-03-12T15:40:39Z</time>
      </trkpt>
      <trkpt lat="46.96838" lon="-0.9177">
        <ele>114</ele>
        <time>2015-03-12T15:40:41Z</time>
      </trkpt>
      <trkpt lat="46.96842" lon="-0.91768">
        <ele>114</ele>
        <time>2015-03-12T15:40:43Z</time>
      </trkpt>
      <trkpt lat="46.96843" lon="-0.91766">
        <ele>114</ele>
        <time>2015-03-12T15:40:45Z</time>
      </trkpt>
      <trkpt lat="46.96844" lon="-0.91764">
        <ele>113</ele>
        <time>2015-03-12T15:40:47Z</time>
      </trkpt>
      <trkpt lat="46.96846" lon="-0.91762">
        <ele>112</ele>
        <time>2015-03-12T15:40:49Z</time>
      </trkpt>
      <trkpt lat="46.96847" lon="-0.9176">
        <ele>111</ele>
        <time>2015-03-12T15:40:51Z</time>
      </trkpt>
      <trkpt lat="46.96849" lon="-0.9176">
        <ele>110</ele>
        <time>2015-03-12T15:40:53Z</time>
      </trkpt>
      <trkpt lat="46.96851" lon="-0.91759">
        <ele>109</ele>
        <time>2015-03-12T15:40:55Z</time>
      </trkpt>
      <trkpt lat="46.96854" lon="-0.91759">
        <ele>109</ele>
        <time>2015-03-12T15:40:58Z</time>
      </trkpt>
      <trkpt lat="46.96857" lon="-0.9176">
        <ele>109</ele>
        <time>2015-03-12T15:41:01Z</time>
      </trkpt>
      <trkpt lat="46.9686" lon="-0.91761">
        <ele>108</ele>
        <time>2015-03-12T15:41:05Z</time>
      </trkpt>
      <trkpt lat="46.96863" lon="-0.91763">
        <ele>108</ele>
        <time>2015-03-12T15:41:07Z</time>
      </trkpt>
      <trkpt lat="46.96866" lon="-0.91764">
        <ele>108</ele>
        <time>2015-03-12T15:41:09Z</time>
      </trkpt>
      <trkpt lat="46.96867" lon="-0.91765">
        <ele>108</ele>
        <time>2015-03-12T15:41:11Z</time>
      </trkpt>
      <trkpt lat="46.9687" lon="-0.91766">
        <ele>108</ele>
        <time>2015-03-12T15:41:13Z</time>
      </trkpt>
      <trkpt lat="46.96872" lon="-0.91767">
        <ele>108</ele>
        <time>2015-03-12T15:41:15Z</time>
      </trkpt>
      <trkpt lat="46.96874" lon="-0.91769">
        <ele>108</ele>
        <time>2015-03-12T15:41:17Z</time>
      </trkpt>
      <trkpt lat="46.96875" lon="-0.91769">
        <ele>108</ele>
        <time>2015-03-12T15:41:19Z</time>
      </trkpt>
      <trkpt lat="46.96878" lon="-0.91768">
        <ele>108</ele>
        <time>2015-03-12T15:41:21Z</time>
      </trkpt>
      <trkpt lat="46.96879" lon="-0.91769">
        <ele>108</ele>
        <time>2015-03-12T15:41:23Z</time>
      </trkpt>
      <trkpt lat="46.96881" lon="-0.9177">
        <ele>108</ele>
        <time>2015-03-12T15:41:25Z</time>
      </trkpt>
      <trkpt lat="46.96884" lon="-0.91772">
        <ele>107</ele>
        <time>2015-03-12T15:41:28Z</time>
      </trkpt>
      <trkpt lat="46.96886" lon="-0.91774">
        <ele>107</ele>
        <time>2015-03-12T15:41:30Z</time>
      </trkpt>
      <trkpt lat="46.96888" lon="-0.91776">
        <ele>105</ele>
        <time>2015-03-12T15:41:33Z</time>
      </trkpt>
      <trkpt lat="46.9689" lon="-0.91777">
        <ele>104</ele>
        <time>2015-03-12T15:41:35Z</time>
      </trkpt>
      <trkpt lat="46.96892" lon="-0.91778">
        <ele>103</ele>
        <time>2015-03-12T15:41:37Z</time>
      </trkpt>
      <trkpt lat="46.96894" lon="-0.91777">
        <ele>103</ele>
        <time>2015-03-12T15:41:39Z</time>
      </trkpt>
      <trkpt lat="46.96895" lon="-0.91777">
        <ele>103</ele>
        <time>2015-03-12T15:41:41Z</time>
      </trkpt>
      <trkpt lat="46.96897" lon="-0.91777">
        <ele>103</ele>
        <time>2015-03-12T15:41:43Z</time>
      </trkpt>
      <trkpt lat="46.96899" lon="-0.91776">
        <ele>103</ele>
        <time>2015-03-12T15:41:45Z</time>
      </trkpt>
      <trkpt lat="46.96901" lon="-0.91775">
        <ele>103</ele>
        <time>2015-03-12T15:41:47Z</time>
      </trkpt>
      <trkpt lat="46.96904" lon="-0.91774">
        <ele>103</ele>
        <time>2015-03-12T15:41:49Z</time>
      </trkpt>
      <trkpt lat="46.96906" lon="-0.91773">
        <ele>103</ele>
        <time>2015-03-12T15:41:51Z</time>
      </trkpt>
      <trkpt lat="46.96909" lon="-0.91772">
        <ele>103</ele>
        <time>2015-03-12T15:41:53Z</time>
      </trkpt>
      <trkpt lat="46.96911" lon="-0.91771">
        <ele>103</ele>
        <time>2015-03-12T15:41:55Z</time>
      </trkpt>
      <trkpt lat="46.96914" lon="-0.9177">
        <ele>103</ele>
        <time>2015-03-12T15:41:57Z</time>
      </trkpt>
      <trkpt lat="46.96917" lon="-0.91769">
        <ele>103</ele>
        <time>2015-03-12T15:42:00Z</time>
      </trkpt>
      <trkpt lat="46.9692" lon="-0.91767">
        <ele>103</ele>
        <time>2015-03-12T15:42:02Z</time>
      </trkpt>
      <trkpt lat="46.96923" lon="-0.91764">
        <ele>103</ele>
        <time>2015-03-12T15:42:05Z</time>
      </trkpt>
      <trkpt lat="46.96925" lon="-0.91761">
        <ele>103</ele>
        <time>2015-03-12T15:42:07Z</time>
      </trkpt>
      <trkpt lat="46.96928" lon="-0.9176">
        <ele>103</ele>
        <time>2015-03-12T15:42:09Z</time>
      </trkpt>
      <trkpt lat="46.96931" lon="-0.91757">
        <ele>104</ele>
        <time>2015-03-12T15:42:12Z</time>
      </trkpt>
      <trkpt lat="46.96933" lon="-0.91755">
        <ele>105</ele>
        <time>2015-03-12T15:42:14Z</time>
      </trkpt>
      <trkpt lat="46.96936" lon="-0.91752">
        <ele>106</ele>
        <time>2015-03-12T15:42:17Z</time>
      </trkpt>
      <trkpt lat="46.96938" lon="-0.91751">
        <ele>107</ele>
        <time>2015-03-12T15:42:19Z</time>
      </trkpt>
      <trkpt lat="46.96939" lon="-0.91749">
        <ele>107</ele>
        <time>2015-03-12T15:42:21Z</time>
      </trkpt>
      <trkpt lat="46.96941" lon="-0.91747">
        <ele>107</ele>
        <time>2015-03-12T15:42:23Z</time>
      </trkpt>
      <trkpt lat="46.96943" lon="-0.91746">
        <ele>107</ele>
        <time>2015-03-12T15:42:25Z</time>
      </trkpt>
      <trkpt lat="46.96944" lon="-0.91744">
        <ele>107</ele>
        <time>2015-03-12T15:42:27Z</time>
      </trkpt>
      <trkpt lat="46.96946" lon="-0.91742">
        <ele>107</ele>
        <time>2015-03-12T15:42:29Z</time>
      </trkpt>
      <trkpt lat="46.96949" lon="-0.91741">
        <ele>107</ele>
        <time>2015-03-12T15:42:31Z</time>
      </trkpt>
      <trkpt lat="46.96951" lon="-0.91739">
        <ele>107</ele>
        <time>2015-03-12T15:42:33Z</time>
      </trkpt>
      <trkpt lat="46.96952" lon="-0.91738">
        <ele>107</ele>
        <time>2015-03-12T15:42:35Z</time>
      </trkpt>
      <trkpt lat="46.96955" lon="-0.91736">
        <ele>107</ele>
        <time>2015-03-12T15:42:37Z</time>
      </trkpt>
      <trkpt lat="46.96957" lon="-0.91734">
        <ele>107</ele>
        <time>2015-03-12T15:42:39Z</time>
      </trkpt>
      <trkpt lat="46.9696" lon="-0.91733">
        <ele>107</ele>
        <time>2015-03-12T15:42:42Z</time>
      </trkpt>
      <trkpt lat="46.96963" lon="-0.91732">
        <ele>107</ele>
        <time>2015-03-12T15:42:44Z</time>
      </trkpt>
      <trkpt lat="46.96965" lon="-0.91732">
        <ele>107</ele>
        <time>2015-03-12T15:42:46Z</time>
      </trkpt>
      <trkpt lat="46.96966" lon="-0.91731">
        <ele>107</ele>
        <time>2015-03-12T15:42:48Z</time>
      </trkpt>
      <trkpt lat="46.96969" lon="-0.91731">
        <ele>107</ele>
        <time>2015-03-12T15:42:50Z</time>
      </trkpt>
      <trkpt lat="46.96971" lon="-0.9173">
        <ele>107</ele>
        <time>2015-03-12T15:42:52Z</time>
      </trkpt>
      <trkpt lat="46.96975" lon="-0.91728">
        <ele>107</ele>
        <time>2015-03-12T15:42:55Z</time>
      </trkpt>
      <trkpt lat="46.96976" lon="-0.91727">
        <ele>107</ele>
        <time>2015-03-12T15:42:57Z</time>
      </trkpt>
      <trkpt lat="46.96978" lon="-0.91726">
        <ele>107</ele>
        <time>2015-03-12T15:42:59Z</time>
      </trkpt>
      <trkpt lat="46.96981" lon="-0.91724">
        <ele>107</ele>
        <time>2015-03-12T15:43:02Z</time>
      </trkpt>
      <trkpt lat="46.96983" lon="-0.91724">
        <ele>107</ele>
        <time>2015-03-12T15:43:04Z</time>
      </trkpt>
      <trkpt lat="46.96986" lon="-0.91724">
        <ele>106</ele>
        <time>2015-03-12T15:43:07Z</time>
      </trkpt>
      <trkpt lat="46.96988" lon="-0.91723">
        <ele>105</ele>
        <time>2015-03-12T15:43:09Z</time>
      </trkpt>
      <trkpt lat="46.96989" lon="-0.91722">
        <ele>105</ele>
        <time>2015-03-12T15:43:11Z</time>
      </trkpt>
      <trkpt lat="46.96991" lon="-0.91719">
        <ele>105</ele>
        <time>2015-03-12T15:43:13Z</time>
      </trkpt>
      <trkpt lat="46.96992" lon="-0.91717">
        <ele>105</ele>
        <time>2015-03-12T15:43:15Z</time>
      </trkpt>
      <trkpt lat="46.9699" lon="-0.91713">
        <ele>105</ele>
        <time>2015-03-12T15:43:18Z</time>
      </trkpt>
      <trkpt lat="46.96988" lon="-0.91712">
        <ele>105</ele>
        <time>2015-03-12T15:43:20Z</time>
      </trkpt>
      <trkpt lat="46.96987" lon="-0.91711">
        <ele>105</ele>
        <time>2015-03-12T15:43:22Z</time>
      </trkpt>
      <trkpt lat="46.96985" lon="-0.91711">
        <ele>105</ele>
        <time>2015-03-12T15:43:24Z</time>
      </trkpt>
      <trkpt lat="46.96983" lon="-0.91711">
        <ele>105</ele>
        <time>2015-03-12T15:43:26Z</time>
      </trkpt>
      <trkpt lat="46.9698" lon="-0.9171">
        <ele>105</ele>
        <time>2015-03-12T15:43:28Z</time>
      </trkpt>
      <trkpt lat="46.96977" lon="-0.91707">
        <ele>106</ele>
        <time>2015-03-12T15:43:30Z</time>
      </trkpt>
      <trkpt lat="46.96974" lon="-0.91706">
        <ele>109</ele>
        <time>2015-03-12T15:43:33Z</time>
      </trkpt>
      <trkpt lat="46.96972" lon="-0.91706">
        <ele>110</ele>
        <time>2015-03-12T15:43:36Z</time>
      </trkpt>
      <trkpt lat="46.96971" lon="-0.91704">
        <ele>110</ele>
        <time>2015-03-12T15:43:38Z</time>
      </trkpt>
      <trkpt lat="46.96969" lon="-0.91704">
        <ele>112</ele>
        <time>2015-03-12T15:43:40Z</time>
      </trkpt>
      <trkpt lat="46.96967" lon="-0.91704">
        <ele>113</ele>
        <time>2015-03-12T15:43:42Z</time>
      </trkpt>
      <trkpt lat="46.96967" lon="-0.91703">
        <ele>113</ele>
        <time>2015-03-12T15:43:46Z</time>
      </trkpt>
      <trkpt lat="46.96967" lon="-0.91701">
        <ele>113</ele>
        <time>2015-03-12T15:43:48Z</time>
      </trkpt>
      <trkpt lat="46.96968" lon="-0.91699">
        <ele>113</ele>
        <time>2015-03-12T15:43:50Z</time>
      </trkpt>
      <trkpt lat="46.96969" lon="-0.91697">
        <ele>113</ele>
        <time>2015-03-12T15:43:52Z</time>
      </trkpt>
      <trkpt lat="46.9697" lon="-0.91696">
        <ele>113</ele>
        <time>2015-03-12T15:43:54Z</time>
      </trkpt>
      <trkpt lat="46.96971" lon="-0.91694">
        <ele>113</ele>
        <time>2015-03-12T15:43:56Z</time>
      </trkpt>
      <trkpt lat="46.96973" lon="-0.9169">
        <ele>113</ele>
        <time>2015-03-12T15:43:58Z</time>
      </trkpt>
      <trkpt lat="46.96973" lon="-0.91686">
        <ele>113</ele>
        <time>2015-03-12T15:44:01Z</time>
      </trkpt>
      <trkpt lat="46.96973" lon="-0.91684">
        <ele>113</ele>
        <time>2015-03-12T15:44:03Z</time>
      </trkpt>
      <trkpt lat="46.96973" lon="-0.91682">
        <ele>113</ele>
        <time>2015-03-12T15:44:05Z</time>
      </trkpt>
      <trkpt lat="46.96975" lon="-0.91678">
        <ele>111</ele>
        <time>2015-03-12T15:44:08Z</time>
      </trkpt>
      <trkpt lat="46.96976" lon="-0.91676">
        <ele>110</ele>
        <time>2015-03-12T15:44:10Z</time>
      </trkpt>
      <trkpt lat="46.96975" lon="-0.91674">
        <ele>109</ele>
        <time>2015-03-12T15:44:12Z</time>
      </trkpt>
      <trkpt lat="46.96975" lon="-0.91672">
        <ele>108</ele>
        <time>2015-03-12T15:44:14Z</time>
      </trkpt>
      <trkpt lat="46.96974" lon="-0.9167">
        <ele>107</ele>
        <time>2015-03-12T15:44:16Z</time>
      </trkpt>
      <trkpt lat="46.96973" lon="-0.91668">
        <ele>107</ele>
        <time>2015-03-12T15:44:18Z</time>
      </trkpt>
      <trkpt lat="46.9697" lon="-0.91665">
        <ele>107</ele>
        <time>2015-03-12T15:44:21Z</time>
      </trkpt>
      <trkpt lat="46.96968" lon="-0.91663">
        <ele>107</ele>
        <time>2015-03-12T15:44:23Z</time>
      </trkpt>
      <trkpt lat="46.96967" lon="-0.91662">
        <ele>107</ele>
        <time>2015-03-12T15:44:25Z</time>
      </trkpt>
      <trkpt lat="46.96966" lon="-0.91659">
        <ele>107</ele>
        <time>2015-03-12T15:44:27Z</time>
      </trkpt>
      <trkpt lat="46.96964" lon="-0.91656">
        <ele>107</ele>
        <time>2015-03-12T15:44:29Z</time>
      </trkpt>
      <trkpt lat="46.96963" lon="-0.91654">
        <ele>107</ele>
        <time>2015-03-12T15:44:32Z</time>
      </trkpt>
      <trkpt lat="46.96962" lon="-0.91651">
        <ele>107</ele>
        <time>2015-03-12T15:44:34Z</time>
      </trkpt>
      <trkpt lat="46.9696" lon="-0.9165">
        <ele>108</ele>
        <time>2015-03-12T15:44:36Z</time>
      </trkpt>
      <trkpt lat="46.96958" lon="-0.91648">
        <ele>108</ele>
        <time>2015-03-12T15:44:38Z</time>
      </trkpt>
      <trkpt lat="46.96957" lon="-0.91646">
        <ele>108</ele>
        <time>2015-03-12T15:44:41Z</time>
      </trkpt>
      <trkpt lat="46.96957" lon="-0.91644">
        <ele>108</ele>
        <time>2015-03-12T15:44:43Z</time>
      </trkpt>
      <trkpt lat="46.96957" lon="-0.91643">
        <ele>108</ele>
        <time>2015-03-12T15:44:45Z</time>
      </trkpt>
      <trkpt lat="46.96957" lon="-0.91641">
        <ele>108</ele>
        <time>2015-03-12T15:44:47Z</time>
      </trkpt>
      <trkpt lat="46.96956" lon="-0.91637">
        <ele>108</ele>
        <time>2015-03-12T15:44:49Z</time>
      </trkpt>
      <trkpt lat="46.96956" lon="-0.91635">
        <ele>108</ele>
        <time>2015-03-12T15:44:51Z</time>
      </trkpt>
      <trkpt lat="46.96956" lon="-0.91632">
        <ele>108</ele>
        <time>2015-03-12T15:44:53Z</time>
      </trkpt>
      <trkpt lat="46.96957" lon="-0.91629">
        <ele>108</ele>
        <time>2015-03-12T15:44:56Z</time>
      </trkpt>
      <trkpt lat="46.96957" lon="-0.91628">
        <ele>109</ele>
        <time>2015-03-12T15:44:58Z</time>
      </trkpt>
      <trkpt lat="46.96957" lon="-0.91625">
        <ele>109</ele>
        <time>2015-03-12T15:45:00Z</time>
      </trkpt>
      <trkpt lat="46.96957" lon="-0.91623">
        <ele>109</ele>
        <time>2015-03-12T15:45:02Z</time>
      </trkpt>
      <trkpt lat="46.96958" lon="-0.91621">
        <ele>109</ele>
        <time>2015-03-12T15:45:04Z</time>
      </trkpt>
      <trkpt lat="46.96958" lon="-0.91619">
        <ele>109</ele>
        <time>2015-03-12T15:45:06Z</time>
      </trkpt>
      <trkpt lat="46.96959" lon="-0.91616">
        <ele>109</ele>
        <time>2015-03-12T15:45:09Z</time>
      </trkpt>
      <trkpt lat="46.9696" lon="-0.91615">
        <ele>109</ele>
        <time>2015-03-12T15:45:11Z</time>
      </trkpt>
      <trkpt lat="46.96962" lon="-0.91612">
        <ele>109</ele>
        <time>2015-03-12T15:45:14Z</time>
      </trkpt>
      <trkpt lat="46.96962" lon="-0.9161">
        <ele>109</ele>
        <time>2015-03-12T15:45:16Z</time>
      </trkpt>
      <trkpt lat="46.96963" lon="-0.91608">
        <ele>109</ele>
        <time>2015-03-12T15:45:19Z</time>
      </trkpt>
      <trkpt lat="46.96965" lon="-0.91606">
        <ele>109</ele>
        <time>2015-03-12T15:45:22Z</time>
      </trkpt>
      <trkpt lat="46.96966" lon="-0.91604">
        <ele>109</ele>
        <time>2015-03-12T15:45:24Z</time>
      </trkpt>
      <trkpt lat="46.96967" lon="-0.91603">
        <ele>109</ele>
        <time>2015-03-12T15:45:26Z</time>
      </trkpt>
      <trkpt lat="46.96968" lon="-0.91601">
        <ele>109</ele>
        <time>2015-03-12T15:45:28Z</time>
      </trkpt>
      <trkpt lat="46.96968" lon="-0.91599">
        <ele>109</ele>
        <time>2015-03-12T15:45:30Z</time>
      </trkpt>
      <trkpt lat="46.96968" lon="-0.91597">
        <ele>109</ele>
        <time>2015-03-12T15:45:32Z</time>
      </trkpt>
      <trkpt lat="46.96968" lon="-0.91594">
        <ele>109</ele>
        <time>2015-03-12T15:45:34Z</time>
      </trkpt>
      <trkpt lat="46.96969" lon="-0.91591">
        <ele>109</ele>
        <time>2015-03-12T15:45:36Z</time>
      </trkpt>
      <trkpt lat="46.9697" lon="-0.91589">
        <ele>109</ele>
        <time>2015-03-12T15:45:38Z</time>
      </trkpt>
      <trkpt lat="46.96972" lon="-0.91586">
        <ele>109</ele>
        <time>2015-03-12T15:45:40Z</time>
      </trkpt>
      <trkpt lat="46.96973" lon="-0.91585">
        <ele>109</ele>
        <time>2015-03-12T15:45:42Z</time>
      </trkpt>
      <trkpt lat="46.96975" lon="-0.91583">
        <ele>109</ele>
        <time>2015-03-12T15:45:44Z</time>
      </trkpt>
      <trkpt lat="46.96977" lon="-0.91581">
        <ele>109</ele>
        <time>2015-03-12T15:45:46Z</time>
      </trkpt>
      <trkpt lat="46.9698" lon="-0.91578">
        <ele>109</ele>
        <time>2015-03-12T15:45:49Z</time>
      </trkpt>
      <trkpt lat="46.9698" lon="-0.91576">
        <ele>109</ele>
        <time>2015-03-12T15:45:51Z</time>
      </trkpt>
      <trkpt lat="46.96984" lon="-0.91573">
        <ele>109</ele>
        <time>2015-03-12T15:45:54Z</time>
      </trkpt>
      <trkpt lat="46.96986" lon="-0.91572">
        <ele>109</ele>
        <time>2015-03-12T15:45:56Z</time>
      </trkpt>
      <trkpt lat="46.96988" lon="-0.91571">
        <ele>109</ele>
        <time>2015-03-12T15:45:58Z</time>
      </trkpt>
      <trkpt lat="46.96989" lon="-0.9157">
        <ele>109</ele>
        <time>2015-03-12T15:46:00Z</time>
      </trkpt>
      <trkpt lat="46.96991" lon="-0.9157">
        <ele>109</ele>
        <time>2015-03-12T15:46:02Z</time>
      </trkpt>
      <trkpt lat="46.96992" lon="-0.91569">
        <ele>109</ele>
        <time>2015-03-12T15:46:04Z</time>
      </trkpt>
      <trkpt lat="46.96995" lon="-0.91568">
        <ele>109</ele>
        <time>2015-03-12T15:46:06Z</time>
      </trkpt>
      <trkpt lat="46.96997" lon="-0.91567">
        <ele>109</ele>
        <time>2015-03-12T15:46:08Z</time>
      </trkpt>
      <trkpt lat="46.97" lon="-0.91566">
        <ele>109</ele>
        <time>2015-03-12T15:46:10Z</time>
      </trkpt>
      <trkpt lat="46.97002" lon="-0.91566">
        <ele>109</ele>
        <time>2015-03-12T15:46:12Z</time>
      </trkpt>
      <trkpt lat="46.97003" lon="-0.91566">
        <ele>109</ele>
        <time>2015-03-12T15:46:14Z</time>
      </trkpt>
      <trkpt lat="46.97004" lon="-0.91566">
        <ele>109</ele>
        <time>2015-03-12T15:46:16Z</time>
      </trkpt>
      <trkpt lat="46.97006" lon="-0.91567">
        <ele>109</ele>
        <time>2015-03-12T15:46:18Z</time>
      </trkpt>
      <trkpt lat="46.97008" lon="-0.91567">
        <ele>109</ele>
        <time>2015-03-12T15:46:20Z</time>
      </trkpt>
      <trkpt lat="46.97009" lon="-0.91568">
        <ele>109</ele>
        <time>2015-03-12T15:46:22Z</time>
      </trkpt>
      <trkpt lat="46.97011" lon="-0.91568">
        <ele>109</ele>
        <time>2015-03-12T15:46:24Z</time>
      </trkpt>
      <trkpt lat="46.97013" lon="-0.91567">
        <ele>110</ele>
        <time>2015-03-12T15:46:26Z</time>
      </trkpt>
      <trkpt lat="46.97015" lon="-0.91566">
        <ele>110</ele>
        <time>2015-03-12T15:46:28Z</time>
      </trkpt>
      <trkpt lat="46.97016" lon="-0.91563">
        <ele>110</ele>
        <time>2015-03-12T15:46:30Z</time>
      </trkpt>
      <trkpt lat="46.97017" lon="-0.91562">
        <ele>111</ele>
        <time>2015-03-12T15:46:32Z</time>
      </trkpt>
      <trkpt lat="46.97018" lon="-0.91559">
        <ele>111</ele>
        <time>2015-03-12T15:46:34Z</time>
      </trkpt>
      <trkpt lat="46.97018" lon="-0.91558">
        <ele>111</ele>
        <time>2015-03-12T15:46:36Z</time>
      </trkpt>
      <trkpt lat="46.97019" lon="-0.91556">
        <ele>111</ele>
        <time>2015-03-12T15:46:38Z</time>
      </trkpt>
      <trkpt lat="46.9702" lon="-0.91556">
        <ele>111</ele>
        <time>2015-03-12T15:46:40Z</time>
      </trkpt>
      <trkpt lat="46.97022" lon="-0.91555">
        <ele>111</ele>
        <time>2015-03-12T15:46:42Z</time>
      </trkpt>
      <trkpt lat="46.97024" lon="-0.91555">
        <ele>111</ele>
        <time>2015-03-12T15:46:44Z</time>
      </trkpt>
      <trkpt lat="46.97025" lon="-0.91554">
        <ele>112</ele>
        <time>2015-03-12T15:46:46Z</time>
      </trkpt>
      <trkpt lat="46.97026" lon="-0.91552">
        <ele>112</ele>
        <time>2015-03-12T15:46:48Z</time>
      </trkpt>
      <trkpt lat="46.97027" lon="-0.91549">
        <ele>113</ele>
        <time>2015-03-12T15:46:50Z</time>
      </trkpt>
      <trkpt lat="46.97028" lon="-0.91545">
        <ele>113</ele>
        <time>2015-03-12T15:46:53Z</time>
      </trkpt>
      <trkpt lat="46.97028" lon="-0.9154">
        <ele>114</ele>
        <time>2015-03-12T15:46:56Z</time>
      </trkpt>
      <trkpt lat="46.97027" lon="-0.91537">
        <ele>114</ele>
        <time>2015-03-12T15:46:58Z</time>
      </trkpt>
      <trkpt lat="46.97026" lon="-0.91534">
        <ele>115</ele>
        <time>2015-03-12T15:47:00Z</time>
      </trkpt>
      <trkpt lat="46.97025" lon="-0.91531">
        <ele>115</ele>
        <time>2015-03-12T15:47:02Z</time>
      </trkpt>
      <trkpt lat="46.97024" lon="-0.91527">
        <ele>116</ele>
        <time>2015-03-12T15:47:04Z</time>
      </trkpt>
      <trkpt lat="46.97024" lon="-0.91524">
        <ele>116</ele>
        <time>2015-03-12T15:47:06Z</time>
      </trkpt>
      <trkpt lat="46.97024" lon="-0.9152">
        <ele>116</ele>
        <time>2015-03-12T15:47:08Z</time>
      </trkpt>
      <trkpt lat="46.97023" lon="-0.91516">
        <ele>117</ele>
        <time>2015-03-12T15:47:11Z</time>
      </trkpt>
      <trkpt lat="46.97024" lon="-0.91513">
        <ele>117</ele>
        <time>2015-03-12T15:47:13Z</time>
      </trkpt>
      <trkpt lat="46.97025" lon="-0.91511">
        <ele>117</ele>
        <time>2015-03-12T15:47:15Z</time>
      </trkpt>
      <trkpt lat="46.97026" lon="-0.91509">
        <ele>117</ele>
        <time>2015-03-12T15:47:17Z</time>
      </trkpt>
      <trkpt lat="46.97027" lon="-0.91508">
        <ele>117</ele>
        <time>2015-03-12T15:47:20Z</time>
      </trkpt>
      <trkpt lat="46.97027" lon="-0.91506">
        <ele>118</ele>
        <time>2015-03-12T15:47:22Z</time>
      </trkpt>
      <trkpt lat="46.97026" lon="-0.91504">
        <ele>118</ele>
        <time>2015-03-12T15:47:24Z</time>
      </trkpt>
      <trkpt lat="46.97026" lon="-0.91502">
        <ele>118</ele>
        <time>2015-03-12T15:47:26Z</time>
      </trkpt>
      <trkpt lat="46.97025" lon="-0.915">
        <ele>118</ele>
        <time>2015-03-12T15:47:28Z</time>
      </trkpt>
      <trkpt lat="46.97025" lon="-0.91498">
        <ele>118</ele>
        <time>2015-03-12T15:47:30Z</time>
      </trkpt>
      <trkpt lat="46.97024" lon="-0.91495">
        <ele>118</ele>
        <time>2015-03-12T15:47:32Z</time>
      </trkpt>
      <trkpt lat="46.97025" lon="-0.91491">
        <ele>119</ele>
        <time>2015-03-12T15:47:35Z</time>
      </trkpt>
      <trkpt lat="46.97025" lon="-0.91489">
        <ele>119</ele>
        <time>2015-03-12T15:47:37Z</time>
      </trkpt>
      <trkpt lat="46.97026" lon="-0.91488">
        <ele>119</ele>
        <time>2015-03-12T15:47:39Z</time>
      </trkpt>
      <trkpt lat="46.97027" lon="-0.91486">
        <ele>119</ele>
        <time>2015-03-12T15:47:41Z</time>
      </trkpt>
      <trkpt lat="46.97028" lon="-0.91484">
        <ele>119</ele>
        <time>2015-03-12T15:47:43Z</time>
      </trkpt>
      <trkpt lat="46.97028" lon="-0.91482">
        <ele>119</ele>
        <time>2015-03-12T15:47:46Z</time>
      </trkpt>
      <trkpt lat="46.97028" lon="-0.9148">
        <ele>120</ele>
        <time>2015-03-12T15:47:48Z</time>
      </trkpt>
      <trkpt lat="46.97028" lon="-0.91479">
        <ele>120</ele>
        <time>2015-03-12T15:47:50Z</time>
      </trkpt>
      <trkpt lat="46.97028" lon="-0.91477">
        <ele>123</ele>
        <time>2015-03-12T15:47:55Z</time>
      </trkpt>
      <trkpt lat="46.97033" lon="-0.91468">
        <ele>130</ele>
        <time>2015-03-12T15:47:57Z</time>
      </trkpt>
      <trkpt lat="46.97034" lon="-0.91466">
        <ele>130</ele>
        <time>2015-03-12T15:47:59Z</time>
      </trkpt>
      <trkpt lat="46.97034" lon="-0.91463">
        <ele>130</ele>
        <time>2015-03-12T15:48:01Z</time>
      </trkpt>
      <trkpt lat="46.97033" lon="-0.9146">
        <ele>130</ele>
        <time>2015-03-12T15:48:03Z</time>
      </trkpt>
      <trkpt lat="46.97031" lon="-0.91455">
        <ele>130</ele>
        <time>2015-03-12T15:48:06Z</time>
      </trkpt>
      <trkpt lat="46.9703" lon="-0.9145">
        <ele>130</ele>
        <time>2015-03-12T15:48:09Z</time>
      </trkpt>
      <trkpt lat="46.97028" lon="-0.91447">
        <ele>130</ele>
        <time>2015-03-12T15:48:11Z</time>
      </trkpt>
      <trkpt lat="46.97028" lon="-0.91443">
        <ele>130</ele>
        <time>2015-03-12T15:48:13Z</time>
      </trkpt>
      <trkpt lat="46.97028" lon="-0.9144">
        <ele>130</ele>
        <time>2015-03-12T15:48:15Z</time>
      </trkpt>
      <trkpt lat="46.97027" lon="-0.91436">
        <ele>130</ele>
        <time>2015-03-12T15:48:17Z</time>
      </trkpt>
      <trkpt lat="46.97028" lon="-0.91431">
        <ele>130</ele>
        <time>2015-03-12T15:48:19Z</time>
      </trkpt>
      <trkpt lat="46.97029" lon="-0.91427">
        <ele>130</ele>
        <time>2015-03-12T15:48:22Z</time>
      </trkpt>
      <trkpt lat="46.97029" lon="-0.91424">
        <ele>130</ele>
        <time>2015-03-12T15:48:24Z</time>
      </trkpt>
      <trkpt lat="46.97029" lon="-0.91422">
        <ele>130</ele>
        <time>2015-03-12T15:48:26Z</time>
      </trkpt>
      <trkpt lat="46.97028" lon="-0.91419">
        <ele>130</ele>
        <time>2015-03-12T15:48:28Z</time>
      </trkpt>
      <trkpt lat="46.97028" lon="-0.91417">
        <ele>130</ele>
        <time>2015-03-12T15:48:30Z</time>
      </trkpt>
      <trkpt lat="46.97029" lon="-0.91415">
        <ele>130</ele>
        <time>2015-03-12T15:48:32Z</time>
      </trkpt>
      <trkpt lat="46.97029" lon="-0.91413">
        <ele>130</ele>
        <time>2015-03-12T15:48:34Z</time>
      </trkpt>
      <trkpt lat="46.97028" lon="-0.91411">
        <ele>130</ele>
        <time>2015-03-12T15:48:36Z</time>
      </trkpt>
      <trkpt lat="46.97028" lon="-0.91408">
        <ele>130</ele>
        <time>2015-03-12T15:48:38Z</time>
      </trkpt>
      <trkpt lat="46.97027" lon="-0.91406">
        <ele>130</ele>
        <time>2015-03-12T15:48:40Z</time>
      </trkpt>
      <trkpt lat="46.97026" lon="-0.91405">
        <ele>130</ele>
        <time>2015-03-12T15:48:42Z</time>
      </trkpt>
      <trkpt lat="46.97026" lon="-0.91403">
        <ele>130</ele>
        <time>2015-03-12T15:48:44Z</time>
      </trkpt>
      <trkpt lat="46.97025" lon="-0.91401">
        <ele>130</ele>
        <time>2015-03-12T15:48:46Z</time>
      </trkpt>
      <trkpt lat="46.97023" lon="-0.914">
        <ele>130</ele>
        <time>2015-03-12T15:48:49Z</time>
      </trkpt>
      <trkpt lat="46.97021" lon="-0.91398">
        <ele>130</ele>
        <time>2015-03-12T15:48:51Z</time>
      </trkpt>
      <trkpt lat="46.9702" lon="-0.91397">
        <ele>130</ele>
        <time>2015-03-12T15:48:53Z</time>
      </trkpt>
      <trkpt lat="46.9702" lon="-0.91394">
        <ele>130</ele>
        <time>2015-03-12T15:48:55Z</time>
      </trkpt>
      <trkpt lat="46.9702" lon="-0.91392">
        <ele>129</ele>
        <time>2015-03-12T15:48:57Z</time>
      </trkpt>
      <trkpt lat="46.97019" lon="-0.91389">
        <ele>129</ele>
        <time>2015-03-12T15:48:59Z</time>
      </trkpt>
      <trkpt lat="46.97018" lon="-0.91385">
        <ele>129</ele>
        <time>2015-03-12T15:49:02Z</time>
      </trkpt>
      <trkpt lat="46.97017" lon="-0.91383">
        <ele>129</ele>
        <time>2015-03-12T15:49:04Z</time>
      </trkpt>
      <trkpt lat="46.97015" lon="-0.91381">
        <ele>129</ele>
        <time>2015-03-12T15:49:07Z</time>
      </trkpt>
      <trkpt lat="46.97015" lon="-0.91379">
        <ele>129</ele>
        <time>2015-03-12T15:49:09Z</time>
      </trkpt>
      <trkpt lat="46.97013" lon="-0.91375">
        <ele>129</ele>
        <time>2015-03-12T15:49:12Z</time>
      </trkpt>
      <trkpt lat="46.97012" lon="-0.91371">
        <ele>128</ele>
        <time>2015-03-12T15:49:15Z</time>
      </trkpt>
      <trkpt lat="46.97011" lon="-0.91369">
        <ele>128</ele>
        <time>2015-03-12T15:49:17Z</time>
      </trkpt>
      <trkpt lat="46.97012" lon="-0.91366">
        <ele>128</ele>
        <time>2015-03-12T15:49:19Z</time>
      </trkpt>
      <trkpt lat="46.97011" lon="-0.91362">
        <ele>127</ele>
        <time>2015-03-12T15:49:22Z</time>
      </trkpt>
      <trkpt lat="46.9701" lon="-0.9136">
        <ele>126</ele>
        <time>2015-03-12T15:49:24Z</time>
      </trkpt>
      <trkpt lat="46.97009" lon="-0.91359">
        <ele>126</ele>
        <time>2015-03-12T15:49:26Z</time>
      </trkpt>
      <trkpt lat="46.97006" lon="-0.91358">
        <ele>126</ele>
        <time>2015-03-12T15:49:28Z</time>
      </trkpt>
      <trkpt lat="46.97003" lon="-0.91357">
        <ele>126</ele>
        <time>2015-03-12T15:49:31Z</time>
      </trkpt>
      <trkpt lat="46.97001" lon="-0.91356">
        <ele>126</ele>
        <time>2015-03-12T15:49:33Z</time>
      </trkpt>
      <trkpt lat="46.96999" lon="-0.91355">
        <ele>126</ele>
        <time>2015-03-12T15:49:35Z</time>
      </trkpt>
      <trkpt lat="46.96999" lon="-0.91353">
        <ele>126</ele>
        <time>2015-03-12T15:49:38Z</time>
      </trkpt>
      <trkpt lat="46.96997" lon="-0.91351">
        <ele>126</ele>
        <time>2015-03-12T15:49:40Z</time>
      </trkpt>
      <trkpt lat="46.96996" lon="-0.9135">
        <ele>125</ele>
        <time>2015-03-12T15:49:42Z</time>
      </trkpt>
      <trkpt lat="46.96994" lon="-0.91348">
        <ele>125</ele>
        <time>2015-03-12T15:49:44Z</time>
      </trkpt>
      <trkpt lat="46.96993" lon="-0.91346">
        <ele>124</ele>
        <time>2015-03-12T15:49:46Z</time>
      </trkpt>
      <trkpt lat="46.96993" lon="-0.91344">
        <ele>124</ele>
        <time>2015-03-12T15:49:48Z</time>
      </trkpt>
      <trkpt lat="46.96992" lon="-0.91342">
        <ele>123</ele>
        <time>2015-03-12T15:49:50Z</time>
      </trkpt>
      <trkpt lat="46.96991" lon="-0.91338">
        <ele>123</ele>
        <time>2015-03-12T15:49:52Z</time>
      </trkpt>
      <trkpt lat="46.96989" lon="-0.91334">
        <ele>123</ele>
        <time>2015-03-12T15:49:54Z</time>
      </trkpt>
      <trkpt lat="46.96989" lon="-0.91331">
        <ele>123</ele>
        <time>2015-03-12T15:49:56Z</time>
      </trkpt>
      <trkpt lat="46.96988" lon="-0.91327">
        <ele>123</ele>
        <time>2015-03-12T15:49:58Z</time>
      </trkpt>
      <trkpt lat="46.96987" lon="-0.91325">
        <ele>123</ele>
        <time>2015-03-12T15:50:00Z</time>
      </trkpt>
      <trkpt lat="46.96986" lon="-0.91322">
        <ele>123</ele>
        <time>2015-03-12T15:50:02Z</time>
      </trkpt>
      <trkpt lat="46.96985" lon="-0.91319">
        <ele>123</ele>
        <time>2015-03-12T15:50:04Z</time>
      </trkpt>
      <trkpt lat="46.96984" lon="-0.91317">
        <ele>123</ele>
        <time>2015-03-12T15:50:06Z</time>
      </trkpt>
      <trkpt lat="46.96983" lon="-0.91312">
        <ele>123</ele>
        <time>2015-03-12T15:50:09Z</time>
      </trkpt>
      <trkpt lat="46.96984" lon="-0.91309">
        <ele>123</ele>
        <time>2015-03-12T15:50:11Z</time>
      </trkpt>
      <trkpt lat="46.96985" lon="-0.91304">
        <ele>123</ele>
        <time>2015-03-12T15:50:14Z</time>
      </trkpt>
      <trkpt lat="46.96985" lon="-0.91302">
        <ele>123</ele>
        <time>2015-03-12T15:50:16Z</time>
      </trkpt>
      <trkpt lat="46.96985" lon="-0.913">
        <ele>123</ele>
        <time>2015-03-12T15:50:18Z</time>
      </trkpt>
      <trkpt lat="46.96985" lon="-0.91298">
        <ele>123</ele>
        <time>2015-03-12T15:50:20Z</time>
      </trkpt>
      <trkpt lat="46.96985" lon="-0.91295">
        <ele>123</ele>
        <time>2015-03-12T15:50:22Z</time>
      </trkpt>
      <trkpt lat="46.96985" lon="-0.91292">
        <ele>123</ele>
        <time>2015-03-12T15:50:24Z</time>
      </trkpt>
      <trkpt lat="46.96986" lon="-0.9129">
        <ele>123</ele>
        <time>2015-03-12T15:50:26Z</time>
      </trkpt>
      <trkpt lat="46.96987" lon="-0.91288">
        <ele>123</ele>
        <time>2015-03-12T15:50:28Z</time>
      </trkpt>
      <trkpt lat="46.96988" lon="-0.91286">
        <ele>123</ele>
        <time>2015-03-12T15:50:30Z</time>
      </trkpt>
      <trkpt lat="46.96988" lon="-0.91284">
        <ele>123</ele>
        <time>2015-03-12T15:50:33Z</time>
      </trkpt>
      <trkpt lat="46.96988" lon="-0.91282">
        <ele>123</ele>
        <time>2015-03-12T15:50:35Z</time>
      </trkpt>
      <trkpt lat="46.96988" lon="-0.91281">
        <ele>123</ele>
        <time>2015-03-12T15:50:37Z</time>
      </trkpt>
      <trkpt lat="46.96989" lon="-0.91279">
        <ele>123</ele>
        <time>2015-03-12T15:50:39Z</time>
      </trkpt>
      <trkpt lat="46.96989" lon="-0.91277">
        <ele>123</ele>
        <time>2015-03-12T15:50:42Z</time>
      </trkpt>
      <trkpt lat="46.96991" lon="-0.91275">
        <ele>123</ele>
        <time>2015-03-12T15:50:44Z</time>
      </trkpt>
      <trkpt lat="46.96991" lon="-0.91273">
        <ele>123</ele>
        <time>2015-03-12T15:50:46Z</time>
      </trkpt>
      <trkpt lat="46.96991" lon="-0.91272">
        <ele>123</ele>
        <time>2015-03-12T15:50:48Z</time>
      </trkpt>
      <trkpt lat="46.96991" lon="-0.91269">
        <ele>123</ele>
        <time>2015-03-12T15:50:50Z</time>
      </trkpt>
      <trkpt lat="46.96991" lon="-0.91267">
        <ele>123</ele>
        <time>2015-03-12T15:50:52Z</time>
      </trkpt>
      <trkpt lat="46.9699" lon="-0.91263">
        <ele>123</ele>
        <time>2015-03-12T15:50:55Z</time>
      </trkpt>
      <trkpt lat="46.96991" lon="-0.91259">
        <ele>122</ele>
        <time>2015-03-12T15:50:59Z</time>
      </trkpt>
      <trkpt lat="46.96991" lon="-0.91257">
        <ele>121</ele>
        <time>2015-03-12T15:51:01Z</time>
      </trkpt>
      <trkpt lat="46.96991" lon="-0.91255">
        <ele>121</ele>
        <time>2015-03-12T15:51:03Z</time>
      </trkpt>
      <trkpt lat="46.9699" lon="-0.91254">
        <ele>120</ele>
        <time>2015-03-12T15:51:05Z</time>
      </trkpt>
      <trkpt lat="46.9699" lon="-0.91251">
        <ele>119</ele>
        <time>2015-03-12T15:51:07Z</time>
      </trkpt>
      <trkpt lat="46.9699" lon="-0.91247">
        <ele>119</ele>
        <time>2015-03-12T15:51:10Z</time>
      </trkpt>
      <trkpt lat="46.96991" lon="-0.91245">
        <ele>119</ele>
        <time>2015-03-12T15:51:12Z</time>
      </trkpt>
      <trkpt lat="46.96991" lon="-0.91241">
        <ele>119</ele>
        <time>2015-03-12T15:51:14Z</time>
      </trkpt>
      <trkpt lat="46.96992" lon="-0.91237">
        <ele>118</ele>
        <time>2015-03-12T15:51:17Z</time>
      </trkpt>
      <trkpt lat="46.96991" lon="-0.91233">
        <ele>118</ele>
        <time>2015-03-12T15:51:19Z</time>
      </trkpt>
      <trkpt lat="46.96992" lon="-0.91229">
        <ele>117</ele>
        <time>2015-03-12T15:51:22Z</time>
      </trkpt>
      <trkpt lat="46.96991" lon="-0.91227">
        <ele>117</ele>
        <time>2015-03-12T15:51:24Z</time>
      </trkpt>
      <trkpt lat="46.96991" lon="-0.91225">
        <ele>116</ele>
        <time>2015-03-12T15:51:26Z</time>
      </trkpt>
      <trkpt lat="46.96991" lon="-0.91221">
        <ele>116</ele>
        <time>2015-03-12T15:51:28Z</time>
      </trkpt>
      <trkpt lat="46.96992" lon="-0.91217">
        <ele>115</ele>
        <time>2015-03-12T15:51:31Z</time>
      </trkpt>
      <trkpt lat="46.96993" lon="-0.91214">
        <ele>115</ele>
        <time>2015-03-12T15:51:33Z</time>
      </trkpt>
      <trkpt lat="46.96994" lon="-0.91211">
        <ele>115</ele>
        <time>2015-03-12T15:51:35Z</time>
      </trkpt>
      <trkpt lat="46.96995" lon="-0.91209">
        <ele>115</ele>
        <time>2015-03-12T15:51:37Z</time>
      </trkpt>
      <trkpt lat="46.96995" lon="-0.91206">
        <ele>114</ele>
        <time>2015-03-12T15:51:39Z</time>
      </trkpt>
      <trkpt lat="46.96995" lon="-0.91204">
        <ele>114</ele>
        <time>2015-03-12T15:51:41Z</time>
      </trkpt>
      <trkpt lat="46.96995" lon="-0.91202">
        <ele>114</ele>
        <time>2015-03-12T15:51:43Z</time>
      </trkpt>
      <trkpt lat="46.96995" lon="-0.91198">
        <ele>114</ele>
        <time>2015-03-12T15:51:45Z</time>
      </trkpt>
      <trkpt lat="46.96996" lon="-0.91193">
        <ele>114</ele>
        <time>2015-03-12T15:51:47Z</time>
      </trkpt>
      <trkpt lat="46.96997" lon="-0.91188">
        <ele>114</ele>
        <time>2015-03-12T15:51:50Z</time>
      </trkpt>
      <trkpt lat="46.96997" lon="-0.91186">
        <ele>114</ele>
        <time>2015-03-12T15:51:52Z</time>
      </trkpt>
      <trkpt lat="46.96996" lon="-0.91183">
        <ele>114</ele>
        <time>2015-03-12T15:51:54Z</time>
      </trkpt>
      <trkpt lat="46.96996" lon="-0.9118">
        <ele>113</ele>
        <time>2015-03-12T15:51:56Z</time>
      </trkpt>
      <trkpt lat="46.96997" lon="-0.91176">
        <ele>113</ele>
        <time>2015-03-12T15:51:58Z</time>
      </trkpt>
      <trkpt lat="46.96997" lon="-0.91173">
        <ele>113</ele>
        <time>2015-03-12T15:52:00Z</time>
      </trkpt>
      <trkpt lat="46.96997" lon="-0.91169">
        <ele>112</ele>
        <time>2015-03-12T15:52:03Z</time>
      </trkpt>
      <trkpt lat="46.96997" lon="-0.91168">
        <ele>112</ele>
        <time>2015-03-12T15:52:05Z</time>
      </trkpt>
      <trkpt lat="46.96997" lon="-0.91166">
        <ele>112</ele>
        <time>2015-03-12T15:52:07Z</time>
      </trkpt>
      <trkpt lat="46.96998" lon="-0.91163">
        <ele>112</ele>
        <time>2015-03-12T15:52:09Z</time>
      </trkpt>
      <trkpt lat="46.96998" lon="-0.91162">
        <ele>112</ele>
        <time>2015-03-12T15:52:11Z</time>
      </trkpt>
      <trkpt lat="46.96999" lon="-0.9116">
        <ele>112</ele>
        <time>2015-03-12T15:52:13Z</time>
      </trkpt>
      <trkpt lat="46.96999" lon="-0.91157">
        <ele>112</ele>
        <time>2015-03-12T15:52:15Z</time>
      </trkpt>
      <trkpt lat="46.96999" lon="-0.91154">
        <ele>112</ele>
        <time>2015-03-12T15:52:17Z</time>
      </trkpt>
      <trkpt lat="46.97" lon="-0.91151">
        <ele>112</ele>
        <time>2015-03-12T15:52:19Z</time>
      </trkpt>
      <trkpt lat="46.97" lon="-0.91149">
        <ele>112</ele>
        <time>2015-03-12T15:52:21Z</time>
      </trkpt>
      <trkpt lat="46.97" lon="-0.91148">
        <ele>112</ele>
        <time>2015-03-12T15:52:23Z</time>
      </trkpt>
      <trkpt lat="46.97001" lon="-0.91144">
        <ele>112</ele>
        <time>2015-03-12T15:52:26Z</time>
      </trkpt>
      <trkpt lat="46.97003" lon="-0.91141">
        <ele>112</ele>
        <time>2015-03-12T15:52:28Z</time>
      </trkpt>
      <trkpt lat="46.97004" lon="-0.9114">
        <ele>112</ele>
        <time>2015-03-12T15:52:30Z</time>
      </trkpt>
      <trkpt lat="46.97005" lon="-0.91138">
        <ele>112</ele>
        <time>2015-03-12T15:52:33Z</time>
      </trkpt>
      <trkpt lat="46.97005" lon="-0.91136">
        <ele>112</ele>
        <time>2015-03-12T15:52:36Z</time>
      </trkpt>
      <trkpt lat="46.97006" lon="-0.91135">
        <ele>112</ele>
        <time>2015-03-12T15:52:40Z</time>
      </trkpt>
      <trkpt lat="46.97007" lon="-0.91132">
        <ele>112</ele>
        <time>2015-03-12T15:52:42Z</time>
      </trkpt>
      <trkpt lat="46.97008" lon="-0.91129">
        <ele>112</ele>
        <time>2015-03-12T15:52:44Z</time>
      </trkpt>
      <trkpt lat="46.9701" lon="-0.91128">
        <ele>112</ele>
        <time>2015-03-12T15:52:46Z</time>
      </trkpt>
      <trkpt lat="46.97011" lon="-0.91126">
        <ele>112</ele>
        <time>2015-03-12T15:52:48Z</time>
      </trkpt>
      <trkpt lat="46.97012" lon="-0.91124">
        <ele>112</ele>
        <time>2015-03-12T15:52:50Z</time>
      </trkpt>
      <trkpt lat="46.97013" lon="-0.91123">
        <ele>112</ele>
        <time>2015-03-12T15:52:52Z</time>
      </trkpt>
      <trkpt lat="46.97015" lon="-0.9112">
        <ele>112</ele>
        <time>2015-03-12T15:52:54Z</time>
      </trkpt>
      <trkpt lat="46.97015" lon="-0.91118">
        <ele>112</ele>
        <time>2015-03-12T15:52:56Z</time>
      </trkpt>
      <trkpt lat="46.97016" lon="-0.91115">
        <ele>112</ele>
        <time>2015-03-12T15:52:58Z</time>
      </trkpt>
      <trkpt lat="46.97015" lon="-0.9111">
        <ele>112</ele>
        <time>2015-03-12T15:53:00Z</time>
      </trkpt>
      <trkpt lat="46.97014" lon="-0.91105">
        <ele>112</ele>
        <time>2015-03-12T15:53:02Z</time>
      </trkpt>
      <trkpt lat="46.97013" lon="-0.91101">
        <ele>112</ele>
        <time>2015-03-12T15:53:04Z</time>
      </trkpt>
      <trkpt lat="46.97013" lon="-0.91097">
        <ele>112</ele>
        <time>2015-03-12T15:53:06Z</time>
      </trkpt>
      <trkpt lat="46.9701" lon="-0.91093">
        <ele>112</ele>
        <time>2015-03-12T15:53:09Z</time>
      </trkpt>
      <trkpt lat="46.97009" lon="-0.91089">
        <ele>112</ele>
        <time>2015-03-12T15:53:12Z</time>
      </trkpt>
      <trkpt lat="46.97008" lon="-0.91086">
        <ele>112</ele>
        <time>2015-03-12T15:53:14Z</time>
      </trkpt>
      <trkpt lat="46.97007" lon="-0.91082">
        <ele>112</ele>
        <time>2015-03-12T15:53:17Z</time>
      </trkpt>
      <trkpt lat="46.97006" lon="-0.9108">
        <ele>112</ele>
        <time>2015-03-12T15:53:19Z</time>
      </trkpt>
      <trkpt lat="46.97004" lon="-0.91078">
        <ele>112</ele>
        <time>2015-03-12T15:53:21Z</time>
      </trkpt>
      <trkpt lat="46.97004" lon="-0.91075">
        <ele>113</ele>
        <time>2015-03-12T15:53:23Z</time>
      </trkpt>
      <trkpt lat="46.97003" lon="-0.91073">
        <ele>113</ele>
        <time>2015-03-12T15:53:25Z</time>
      </trkpt>
      <trkpt lat="46.97003" lon="-0.9107">
        <ele>114</ele>
        <time>2015-03-12T15:53:27Z</time>
      </trkpt>
      <trkpt lat="46.97004" lon="-0.91068">
        <ele>114</ele>
        <time>2015-03-12T15:53:29Z</time>
      </trkpt>
      <trkpt lat="46.97005" lon="-0.91067">
        <ele>115</ele>
        <time>2015-03-12T15:53:32Z</time>
      </trkpt>
      <trkpt lat="46.97006" lon="-0.91066">
        <ele>115</ele>
        <time>2015-03-12T15:53:37Z</time>
      </trkpt>
      <trkpt lat="46.97005" lon="-0.91064">
        <ele>115</ele>
        <time>2015-03-12T15:53:40Z</time>
      </trkpt>
      <trkpt lat="46.97005" lon="-0.91062">
        <ele>115</ele>
        <time>2015-03-12T15:53:42Z</time>
      </trkpt>
      <trkpt lat="46.97005" lon="-0.91061">
        <ele>115</ele>
        <time>2015-03-12T15:53:44Z</time>
      </trkpt>
      <trkpt lat="46.97004" lon="-0.91059">
        <ele>115</ele>
        <time>2015-03-12T15:53:47Z</time>
      </trkpt>
      <trkpt lat="46.97003" lon="-0.91057">
        <ele>115</ele>
        <time>2015-03-12T15:53:49Z</time>
      </trkpt>
      <trkpt lat="46.97002" lon="-0.91056">
        <ele>115</ele>
        <time>2015-03-12T15:53:51Z</time>
      </trkpt>
      <trkpt lat="46.97001" lon="-0.91055">
        <ele>115</ele>
        <time>2015-03-12T15:53:53Z</time>
      </trkpt>
      <trkpt lat="46.96999" lon="-0.91053">
        <ele>115</ele>
        <time>2015-03-12T15:53:56Z</time>
      </trkpt>
      <trkpt lat="46.96999" lon="-0.91051">
        <ele>115</ele>
        <time>2015-03-12T15:53:58Z</time>
      </trkpt>
      <trkpt lat="46.96997" lon="-0.91048">
        <ele>115</ele>
        <time>2015-03-12T15:54:03Z</time>
      </trkpt>
      <trkpt lat="46.96998" lon="-0.91045">
        <ele>114</ele>
        <time>2015-03-12T15:54:06Z</time>
      </trkpt>
      <trkpt lat="46.96999" lon="-0.91043">
        <ele>114</ele>
        <time>2015-03-12T15:54:08Z</time>
      </trkpt>
      <trkpt lat="46.96998" lon="-0.91041">
        <ele>113</ele>
        <time>2015-03-12T15:54:10Z</time>
      </trkpt>
      <trkpt lat="46.96996" lon="-0.91038">
        <ele>112</ele>
        <time>2015-03-12T15:54:13Z</time>
      </trkpt>
      <trkpt lat="46.96999" lon="-0.91035">
        <ele>110</ele>
        <time>2015-03-12T15:54:17Z</time>
      </trkpt>
      <trkpt lat="46.97" lon="-0.91033">
        <ele>109</ele>
        <time>2015-03-12T15:54:19Z</time>
      </trkpt>
      <trkpt lat="46.97002" lon="-0.91031">
        <ele>109</ele>
        <time>2015-03-12T15:54:22Z</time>
      </trkpt>
      <trkpt lat="46.97003" lon="-0.91029">
        <ele>109</ele>
        <time>2015-03-12T15:54:24Z</time>
      </trkpt>
      <trkpt lat="46.97007" lon="-0.91026">
        <ele>109</ele>
        <time>2015-03-12T15:54:28Z</time>
      </trkpt>
      <trkpt lat="46.97009" lon="-0.91025">
        <ele>109</ele>
        <time>2015-03-12T15:54:30Z</time>
      </trkpt>
      <trkpt lat="46.9701" lon="-0.91022">
        <ele>109</ele>
        <time>2015-03-12T15:54:34Z</time>
      </trkpt>
      <trkpt lat="46.97011" lon="-0.91022">
        <ele>109</ele>
        <time>2015-03-12T15:54:37Z</time>
      </trkpt>
      <trkpt lat="46.97013" lon="-0.91021">
        <ele>109</ele>
        <time>2015-03-12T15:54:40Z</time>
      </trkpt>
      <trkpt lat="46.97015" lon="-0.91019">
        <ele>109</ele>
        <time>2015-03-12T15:54:43Z</time>
      </trkpt>
      <trkpt lat="46.97015" lon="-0.91013">
        <ele>109</ele>
        <time>2015-03-12T15:54:47Z</time>
      </trkpt>
      <trkpt lat="46.97016" lon="-0.91012">
        <ele>110</ele>
        <time>2015-03-12T15:54:49Z</time>
      </trkpt>
      <trkpt lat="46.97017" lon="-0.91008">
        <ele>112</ele>
        <time>2015-03-12T15:54:54Z</time>
      </trkpt>
      <trkpt lat="46.97018" lon="-0.91006">
        <ele>112</ele>
        <time>2015-03-12T15:54:57Z</time>
      </trkpt>
      <trkpt lat="46.97019" lon="-0.91007">
        <ele>112</ele>
        <time>2015-03-12T15:55:01Z</time>
      </trkpt>
      <trkpt lat="46.9702" lon="-0.91005">
        <ele>112</ele>
        <time>2015-03-12T15:55:04Z</time>
      </trkpt>
      <trkpt lat="46.9702" lon="-0.91003">
        <ele>112</ele>
        <time>2015-03-12T15:55:07Z</time>
      </trkpt>
      <trkpt lat="46.9702" lon="-0.91">
        <ele>112</ele>
        <time>2015-03-12T15:55:09Z</time>
      </trkpt>
      <trkpt lat="46.97019" lon="-0.90998">
        <ele>112</ele>
        <time>2015-03-12T15:55:11Z</time>
      </trkpt>
      <trkpt lat="46.97018" lon="-0.90996">
        <ele>112</ele>
        <time>2015-03-12T15:55:13Z</time>
      </trkpt>
      <trkpt lat="46.97015" lon="-0.90993">
        <ele>114</ele>
        <time>2015-03-12T15:55:17Z</time>
      </trkpt>
      <trkpt lat="46.97014" lon="-0.90992">
        <ele>115</ele>
        <time>2015-03-12T15:55:20Z</time>
      </trkpt>
      <trkpt lat="46.97011" lon="-0.90991">
        <ele>115</ele>
        <time>2015-03-12T15:55:24Z</time>
      </trkpt>
      <trkpt lat="46.9701" lon="-0.9099">
        <ele>115</ele>
        <time>2015-03-12T15:55:26Z</time>
      </trkpt>
      <trkpt lat="46.97007" lon="-0.90987">
        <ele>115</ele>
        <time>2015-03-12T15:55:32Z</time>
      </trkpt>
      <trkpt lat="46.97004" lon="-0.90985">
        <ele>114</ele>
        <time>2015-03-12T15:55:36Z</time>
      </trkpt>
      <trkpt lat="46.97002" lon="-0.90985">
        <ele>114</ele>
        <time>2015-03-12T15:55:38Z</time>
      </trkpt>
      <trkpt lat="46.97001" lon="-0.90984">
        <ele>112</ele>
        <time>2015-03-12T15:55:41Z</time>
      </trkpt>
      <trkpt lat="46.96999" lon="-0.90981">
        <ele>111</ele>
        <time>2015-03-12T15:55:45Z</time>
      </trkpt>
      <trkpt lat="46.96998" lon="-0.90978">
        <ele>111</ele>
        <time>2015-03-12T15:55:49Z</time>
      </trkpt>
      <trkpt lat="46.97" lon="-0.90975">
        <ele>111</ele>
        <time>2015-03-12T15:55:52Z</time>
      </trkpt>
      <trkpt lat="46.97002" lon="-0.90972">
        <ele>111</ele>
        <time>2015-03-12T15:55:54Z</time>
      </trkpt>
      <trkpt lat="46.97003" lon="-0.9097">
        <ele>111</ele>
        <time>2015-03-12T15:55:59Z</time>
      </trkpt>
      <trkpt lat="46.97002" lon="-0.90965">
        <ele>110</ele>
        <time>2015-03-12T15:56:02Z</time>
      </trkpt>
      <trkpt lat="46.97001" lon="-0.90961">
        <ele>109</ele>
        <time>2015-03-12T15:56:04Z</time>
      </trkpt>
      <trkpt lat="46.97001" lon="-0.90956">
        <ele>108</ele>
        <time>2015-03-12T15:56:07Z</time>
      </trkpt>
      <trkpt lat="46.97" lon="-0.90952">
        <ele>107</ele>
        <time>2015-03-12T15:56:09Z</time>
      </trkpt>
      <trkpt lat="46.96999" lon="-0.90947">
        <ele>107</ele>
        <time>2015-03-12T15:56:13Z</time>
      </trkpt>
      <trkpt lat="46.96997" lon="-0.90944">
        <ele>107</ele>
        <time>2015-03-12T15:56:15Z</time>
      </trkpt>
      <trkpt lat="46.96996" lon="-0.90942">
        <ele>107</ele>
        <time>2015-03-12T15:56:17Z</time>
      </trkpt>
      <trkpt lat="46.96997" lon="-0.90938">
        <ele>107</ele>
        <time>2015-03-12T15:56:20Z</time>
      </trkpt>
      <trkpt lat="46.96996" lon="-0.90933">
        <ele>107</ele>
        <time>2015-03-12T15:56:24Z</time>
      </trkpt>
      <trkpt lat="46.96995" lon="-0.90931">
        <ele>107</ele>
        <time>2015-03-12T15:56:26Z</time>
      </trkpt>
      <trkpt lat="46.96993" lon="-0.90926">
        <ele>107</ele>
        <time>2015-03-12T15:56:29Z</time>
      </trkpt>
      <trkpt lat="46.96994" lon="-0.90923">
        <ele>107</ele>
        <time>2015-03-12T15:56:31Z</time>
      </trkpt>
      <trkpt lat="46.96992" lon="-0.90918">
        <ele>107</ele>
        <time>2015-03-12T15:56:34Z</time>
      </trkpt>
      <trkpt lat="46.96991" lon="-0.90914">
        <ele>107</ele>
        <time>2015-03-12T15:56:36Z</time>
      </trkpt>
      <trkpt lat="46.96992" lon="-0.9091">
        <ele>106</ele>
        <time>2015-03-12T15:56:39Z</time>
      </trkpt>
      <trkpt lat="46.9699" lon="-0.90906">
        <ele>106</ele>
        <time>2015-03-12T15:56:42Z</time>
      </trkpt>
      <trkpt lat="46.96988" lon="-0.90902">
        <ele>106</ele>
        <time>2015-03-12T15:56:45Z</time>
      </trkpt>
      <trkpt lat="46.96985" lon="-0.90898">
        <ele>106</ele>
        <time>2015-03-12T15:56:48Z</time>
      </trkpt>
      <trkpt lat="46.96984" lon="-0.90891">
        <ele>106</ele>
        <time>2015-03-12T15:56:51Z</time>
      </trkpt>
      <trkpt lat="46.96983" lon="-0.90888">
        <ele>106</ele>
        <time>2015-03-12T15:56:53Z</time>
      </trkpt>
      <trkpt lat="46.96982" lon="-0.90885">
        <ele>106</ele>
        <time>2015-03-12T15:56:55Z</time>
      </trkpt>
      <trkpt lat="46.96982" lon="-0.90878">
        <ele>106</ele>
        <time>2015-03-12T15:56:58Z</time>
      </trkpt>
      <trkpt lat="46.96981" lon="-0.90873">
        <ele>106</ele>
        <time>2015-03-12T15:57:01Z</time>
      </trkpt>
      <trkpt lat="46.9698" lon="-0.90869">
        <ele>106</ele>
        <time>2015-03-12T15:57:03Z</time>
      </trkpt>
      <trkpt lat="46.9698" lon="-0.90864">
        <ele>106</ele>
        <time>2015-03-12T15:57:06Z</time>
      </trkpt>
      <trkpt lat="46.96979" lon="-0.90861">
        <ele>106</ele>
        <time>2015-03-12T15:57:08Z</time>
      </trkpt>
      <trkpt lat="46.96978" lon="-0.90855">
        <ele>105</ele>
        <time>2015-03-12T15:57:11Z</time>
      </trkpt>
      <trkpt lat="46.96978" lon="-0.90852">
        <ele>104</ele>
        <time>2015-03-12T15:57:13Z</time>
      </trkpt>
      <trkpt lat="46.96976" lon="-0.90849">
        <ele>103</ele>
        <time>2015-03-12T15:57:15Z</time>
      </trkpt>
      <trkpt lat="46.96976" lon="-0.90845">
        <ele>103</ele>
        <time>2015-03-12T15:57:17Z</time>
      </trkpt>
      <trkpt lat="46.96976" lon="-0.90842">
        <ele>103</ele>
        <time>2015-03-12T15:57:19Z</time>
      </trkpt>
      <trkpt lat="46.96976" lon="-0.90835">
        <ele>103</ele>
        <time>2015-03-12T15:57:22Z</time>
      </trkpt>
      <trkpt lat="46.96976" lon="-0.90832">
        <ele>103</ele>
        <time>2015-03-12T15:57:24Z</time>
      </trkpt>
      <trkpt lat="46.96975" lon="-0.90825">
        <ele>103</ele>
        <time>2015-03-12T15:57:27Z</time>
      </trkpt>
      <trkpt lat="46.96973" lon="-0.90821">
        <ele>103</ele>
        <time>2015-03-12T15:57:30Z</time>
      </trkpt>
      <trkpt lat="46.96972" lon="-0.90817">
        <ele>104</ele>
        <time>2015-03-12T15:57:33Z</time>
      </trkpt>
      <trkpt lat="46.9697" lon="-0.90813">
        <ele>105</ele>
        <time>2015-03-12T15:57:35Z</time>
      </trkpt>
      <trkpt lat="46.96968" lon="-0.90811">
        <ele>106</ele>
        <time>2015-03-12T15:57:38Z</time>
      </trkpt>
      <trkpt lat="46.96968" lon="-0.90806">
        <ele>107</ele>
        <time>2015-03-12T15:57:40Z</time>
      </trkpt>
      <trkpt lat="46.96964" lon="-0.90802">
        <ele>108</ele>
        <time>2015-03-12T15:57:44Z</time>
      </trkpt>
      <trkpt lat="46.96963" lon="-0.90799">
        <ele>108</ele>
        <time>2015-03-12T15:57:46Z</time>
      </trkpt>
      <trkpt lat="46.96963" lon="-0.90794">
        <ele>108</ele>
        <time>2015-03-12T15:57:49Z</time>
      </trkpt>
      <trkpt lat="46.96962" lon="-0.90793">
        <ele>108</ele>
        <time>2015-03-12T15:57:51Z</time>
      </trkpt>
      <trkpt lat="46.96958" lon="-0.90791">
        <ele>108</ele>
        <time>2015-03-12T15:57:53Z</time>
      </trkpt>
      <trkpt lat="46.96957" lon="-0.90788">
        <ele>108</ele>
        <time>2015-03-12T15:57:55Z</time>
      </trkpt>
      <trkpt lat="46.96955" lon="-0.90782">
        <ele>108</ele>
        <time>2015-03-12T15:57:59Z</time>
      </trkpt>
      <trkpt lat="46.96955" lon="-0.90779">
        <ele>108</ele>
        <time>2015-03-12T15:58:01Z</time>
      </trkpt>
      <trkpt lat="46.96955" lon="-0.90774">
        <ele>108</ele>
        <time>2015-03-12T15:58:04Z</time>
      </trkpt>
      <trkpt lat="46.96955" lon="-0.9077">
        <ele>108</ele>
        <time>2015-03-12T15:58:06Z</time>
      </trkpt>
      <trkpt lat="46.96956" lon="-0.90765">
        <ele>108</ele>
        <time>2015-03-12T15:58:09Z</time>
      </trkpt>
      <trkpt lat="46.96956" lon="-0.90761">
        <ele>108</ele>
        <time>2015-03-12T15:58:11Z</time>
      </trkpt>
      <trkpt lat="46.96952" lon="-0.90757">
        <ele>108</ele>
        <time>2015-03-12T15:58:15Z</time>
      </trkpt>
      <trkpt lat="46.9695" lon="-0.90755">
        <ele>108</ele>
        <time>2015-03-12T15:58:17Z</time>
      </trkpt>
      <trkpt lat="46.96947" lon="-0.90753">
        <ele>108</ele>
        <time>2015-03-12T15:58:19Z</time>
      </trkpt>
      <trkpt lat="46.96945" lon="-0.9075">
        <ele>108</ele>
        <time>2015-03-12T15:58:21Z</time>
      </trkpt>
      <trkpt lat="46.96943" lon="-0.90746">
        <ele>107</ele>
        <time>2015-03-12T15:58:24Z</time>
      </trkpt>
      <trkpt lat="46.96943" lon="-0.90744">
        <ele>106</ele>
        <time>2015-03-12T15:58:26Z</time>
      </trkpt>
      <trkpt lat="46.96943" lon="-0.9074">
        <ele>105</ele>
        <time>2015-03-12T15:58:28Z</time>
      </trkpt>
      <trkpt lat="46.96943" lon="-0.90736">
        <ele>105</ele>
        <time>2015-03-12T15:58:30Z</time>
      </trkpt>
      <trkpt lat="46.96941" lon="-0.90733">
        <ele>105</ele>
        <time>2015-03-12T15:58:32Z</time>
      </trkpt>
      <trkpt lat="46.96941" lon="-0.90727">
        <ele>105</ele>
        <time>2015-03-12T15:58:35Z</time>
      </trkpt>
      <trkpt lat="46.9694" lon="-0.90724">
        <ele>105</ele>
        <time>2015-03-12T15:58:37Z</time>
      </trkpt>
      <trkpt lat="46.96938" lon="-0.90719">
        <ele>105</ele>
        <time>2015-03-12T15:58:40Z</time>
      </trkpt>
      <trkpt lat="46.96936" lon="-0.90716">
        <ele>105</ele>
        <time>2015-03-12T15:58:42Z</time>
      </trkpt>
      <trkpt lat="46.96932" lon="-0.90714">
        <ele>105</ele>
        <time>2015-03-12T15:58:45Z</time>
      </trkpt>
      <trkpt lat="46.96929" lon="-0.90711">
        <ele>106</ele>
        <time>2015-03-12T15:58:47Z</time>
      </trkpt>
      <trkpt lat="46.96924" lon="-0.90708">
        <ele>106</ele>
        <time>2015-03-12T15:58:50Z</time>
      </trkpt>
      <trkpt lat="46.9692" lon="-0.90706">
        <ele>106</ele>
        <time>2015-03-12T15:58:52Z</time>
      </trkpt>
      <trkpt lat="46.96916" lon="-0.90704">
        <ele>106</ele>
        <time>2015-03-12T15:58:54Z</time>
      </trkpt>
      <trkpt lat="46.96915" lon="-0.90702">
        <ele>106</ele>
        <time>2015-03-12T15:58:56Z</time>
      </trkpt>
      <trkpt lat="46.96914" lon="-0.90701">
        <ele>106</ele>
        <time>2015-03-12T15:58:58Z</time>
      </trkpt>
      <trkpt lat="46.9691" lon="-0.90698">
        <ele>106</ele>
        <time>2015-03-12T15:59:01Z</time>
      </trkpt>
      <trkpt lat="46.96907" lon="-0.90696">
        <ele>106</ele>
        <time>2015-03-12T15:59:04Z</time>
      </trkpt>
      <trkpt lat="46.96905" lon="-0.90695">
        <ele>106</ele>
        <time>2015-03-12T15:59:06Z</time>
      </trkpt>
      <trkpt lat="46.96903" lon="-0.90694">
        <ele>106</ele>
        <time>2015-03-12T15:59:08Z</time>
      </trkpt>
      <trkpt lat="46.969" lon="-0.90691">
        <ele>106</ele>
        <time>2015-03-12T15:59:11Z</time>
      </trkpt>
      <trkpt lat="46.96899" lon="-0.90689">
        <ele>106</ele>
        <time>2015-03-12T15:59:13Z</time>
      </trkpt>
      <trkpt lat="46.96898" lon="-0.90687">
        <ele>106</ele>
        <time>2015-03-12T15:59:15Z</time>
      </trkpt>
      <trkpt lat="46.96895" lon="-0.90684">
        <ele>106</ele>
        <time>2015-03-12T15:59:18Z</time>
      </trkpt>
      <trkpt lat="46.96893" lon="-0.90681">
        <ele>106</ele>
        <time>2015-03-12T15:59:20Z</time>
      </trkpt>
      <trkpt lat="46.9689" lon="-0.90676">
        <ele>106</ele>
        <time>2015-03-12T15:59:23Z</time>
      </trkpt>
      <trkpt lat="46.96889" lon="-0.90672">
        <ele>106</ele>
        <time>2015-03-12T15:59:25Z</time>
      </trkpt>
      <trkpt lat="46.96887" lon="-0.90666">
        <ele>106</ele>
        <time>2015-03-12T15:59:29Z</time>
      </trkpt>
      <trkpt lat="46.96886" lon="-0.90663">
        <ele>106</ele>
        <time>2015-03-12T15:59:31Z</time>
      </trkpt>
      <trkpt lat="46.96884" lon="-0.9066">
        <ele>106</ele>
        <time>2015-03-12T15:59:33Z</time>
      </trkpt>
      <trkpt lat="46.96882" lon="-0.90657">
        <ele>106</ele>
        <time>2015-03-12T15:59:35Z</time>
      </trkpt>
      <trkpt lat="46.96878" lon="-0.90652">
        <ele>105</ele>
        <time>2015-03-12T15:59:39Z</time>
      </trkpt>
      <trkpt lat="46.96877" lon="-0.90649">
        <ele>105</ele>
        <time>2015-03-12T15:59:41Z</time>
      </trkpt>
      <trkpt lat="46.96874" lon="-0.90644">
        <ele>105</ele>
        <time>2015-03-12T15:59:44Z</time>
      </trkpt>
      <trkpt lat="46.96873" lon="-0.90642">
        <ele>105</ele>
        <time>2015-03-12T15:59:46Z</time>
      </trkpt>
      <trkpt lat="46.96872" lon="-0.90637">
        <ele>105</ele>
        <time>2015-03-12T15:59:49Z</time>
      </trkpt>
      <trkpt lat="46.96871" lon="-0.90634">
        <ele>105</ele>
        <time>2015-03-12T15:59:51Z</time>
      </trkpt>
      <trkpt lat="46.96868" lon="-0.90631">
        <ele>105</ele>
        <time>2015-03-12T15:59:54Z</time>
      </trkpt>
      <trkpt lat="46.96865" lon="-0.90629">
        <ele>105</ele>
        <time>2015-03-12T15:59:56Z</time>
      </trkpt>
      <trkpt lat="46.96862" lon="-0.90626">
        <ele>105</ele>
        <time>2015-03-12T15:59:59Z</time>
      </trkpt>
      <trkpt lat="46.9686" lon="-0.90623">
        <ele>105</ele>
        <time>2015-03-12T16:00:01Z</time>
      </trkpt>
      <trkpt lat="46.96857" lon="-0.90619">
        <ele>105</ele>
        <time>2015-03-12T16:00:04Z</time>
      </trkpt>
      <trkpt lat="46.96854" lon="-0.90616">
        <ele>105</ele>
        <time>2015-03-12T16:00:07Z</time>
      </trkpt>
      <trkpt lat="46.9685" lon="-0.90611">
        <ele>105</ele>
        <time>2015-03-12T16:00:11Z</time>
      </trkpt>
      <trkpt lat="46.96848" lon="-0.90609">
        <ele>105</ele>
        <time>2015-03-12T16:00:13Z</time>
      </trkpt>
      <trkpt lat="46.96845" lon="-0.90606">
        <ele>105</ele>
        <time>2015-03-12T16:00:15Z</time>
      </trkpt>
      <trkpt lat="46.96842" lon="-0.90601">
        <ele>105</ele>
        <time>2015-03-12T16:00:17Z</time>
      </trkpt>
      <trkpt lat="46.9684" lon="-0.90599">
        <ele>105</ele>
        <time>2015-03-12T16:00:19Z</time>
      </trkpt>
      <trkpt lat="46.96837" lon="-0.90596">
        <ele>105</ele>
        <time>2015-03-12T16:00:21Z</time>
      </trkpt>
      <trkpt lat="46.96835" lon="-0.90593">
        <ele>105</ele>
        <time>2015-03-12T16:00:23Z</time>
      </trkpt>
      <trkpt lat="46.96833" lon="-0.90591">
        <ele>104</ele>
        <time>2015-03-12T16:00:25Z</time>
      </trkpt>
      <trkpt lat="46.96832" lon="-0.90589">
        <ele>104</ele>
        <time>2015-03-12T16:00:27Z</time>
      </trkpt>
      <trkpt lat="46.96832" lon="-0.90586">
        <ele>103</ele>
        <time>2015-03-12T16:00:29Z</time>
      </trkpt>
      <trkpt lat="46.96828" lon="-0.90582">
        <ele>103</ele>
        <time>2015-03-12T16:00:32Z</time>
      </trkpt>
      <trkpt lat="46.96827" lon="-0.9058">
        <ele>103</ele>
        <time>2015-03-12T16:00:34Z</time>
      </trkpt>
      <trkpt lat="46.96825" lon="-0.90578">
        <ele>102</ele>
        <time>2015-03-12T16:00:36Z</time>
      </trkpt>
      <trkpt lat="46.96824" lon="-0.90574">
        <ele>102</ele>
        <time>2015-03-12T16:00:38Z</time>
      </trkpt>
      <trkpt lat="46.96821" lon="-0.90569">
        <ele>102</ele>
        <time>2015-03-12T16:00:40Z</time>
      </trkpt>
      <trkpt lat="46.96818" lon="-0.90565">
        <ele>102</ele>
        <time>2015-03-12T16:00:42Z</time>
      </trkpt>
      <trkpt lat="46.96814" lon="-0.90561">
        <ele>102</ele>
        <time>2015-03-12T16:00:45Z</time>
      </trkpt>
      <trkpt lat="46.96812" lon="-0.9056">
        <ele>102</ele>
        <time>2015-03-12T16:00:47Z</time>
      </trkpt>
      <trkpt lat="46.96809" lon="-0.90558">
        <ele>102</ele>
        <time>2015-03-12T16:00:49Z</time>
      </trkpt>
      <trkpt lat="46.96806" lon="-0.90555">
        <ele>102</ele>
        <time>2015-03-12T16:00:52Z</time>
      </trkpt>
      <trkpt lat="46.96804" lon="-0.90554">
        <ele>102</ele>
        <time>2015-03-12T16:00:54Z</time>
      </trkpt>
      <trkpt lat="46.96803" lon="-0.90552">
        <ele>102</ele>
        <time>2015-03-12T16:00:56Z</time>
      </trkpt>
      <trkpt lat="46.96801" lon="-0.9055">
        <ele>102</ele>
        <time>2015-03-12T16:00:59Z</time>
      </trkpt>
      <trkpt lat="46.96799" lon="-0.90549">
        <ele>102</ele>
        <time>2015-03-12T16:01:02Z</time>
      </trkpt>
      <trkpt lat="46.96797" lon="-0.90548">
        <ele>95</ele>
        <time>2015-03-12T16:01:07Z</time>
      </trkpt>
      <trkpt lat="46.96795" lon="-0.90547">
        <ele>95</ele>
        <time>2015-03-12T16:01:09Z</time>
      </trkpt>
      <trkpt lat="46.96793" lon="-0.90546">
        <ele>95</ele>
        <time>2015-03-12T16:01:11Z</time>
      </trkpt>
      <trkpt lat="46.96792" lon="-0.90545">
        <ele>95</ele>
        <time>2015-03-12T16:01:13Z</time>
      </trkpt>
      <trkpt lat="46.96791" lon="-0.90546">
        <ele>95</ele>
        <time>2015-03-12T16:01:15Z</time>
      </trkpt>
      <trkpt lat="46.9679" lon="-0.90547">
        <ele>95</ele>
        <time>2015-03-12T16:01:18Z</time>
      </trkpt>
      <trkpt lat="46.96788" lon="-0.90547">
        <ele>95</ele>
        <time>2015-03-12T16:01:20Z</time>
      </trkpt>
      <trkpt lat="46.96787" lon="-0.90549">
        <ele>95</ele>
        <time>2015-03-12T16:01:23Z</time>
      </trkpt>
      <trkpt lat="46.96786" lon="-0.9055">
        <ele>95</ele>
        <time>2015-03-12T16:01:25Z</time>
      </trkpt>
      <trkpt lat="46.96784" lon="-0.90551">
        <ele>95</ele>
        <time>2015-03-12T16:01:27Z</time>
      </trkpt>
      <trkpt lat="46.96783" lon="-0.90552">
        <ele>95</ele>
        <time>2015-03-12T16:01:29Z</time>
      </trkpt>
      <trkpt lat="46.96782" lon="-0.90553">
        <ele>95</ele>
        <time>2015-03-12T16:01:31Z</time>
      </trkpt>
      <trkpt lat="46.9678" lon="-0.90552">
        <ele>97</ele>
        <time>2015-03-12T16:01:37Z</time>
      </trkpt>
      <trkpt lat="46.96779" lon="-0.90551">
        <ele>97</ele>
        <time>2015-03-12T16:01:40Z</time>
      </trkpt>
      <trkpt lat="46.96777" lon="-0.9055">
        <ele>97</ele>
        <time>2015-03-12T16:01:43Z</time>
      </trkpt>
      <trkpt lat="46.96776" lon="-0.90548">
        <ele>97</ele>
        <time>2015-03-12T16:01:46Z</time>
      </trkpt>
      <trkpt lat="46.96775" lon="-0.90546">
        <ele>97</ele>
        <time>2015-03-12T16:01:48Z</time>
      </trkpt>
      <trkpt lat="46.96774" lon="-0.90544">
        <ele>97</ele>
        <time>2015-03-12T16:01:50Z</time>
      </trkpt>
      <trkpt lat="46.96772" lon="-0.90541">
        <ele>99</ele>
        <time>2015-03-12T16:01:52Z</time>
      </trkpt>
      <trkpt lat="46.96771" lon="-0.90541">
        <ele>99</ele>
        <time>2015-03-12T16:01:54Z</time>
      </trkpt>
      <trkpt lat="46.96769" lon="-0.90538">
        <ele>99</ele>
        <time>2015-03-12T16:01:58Z</time>
      </trkpt>
      <trkpt lat="46.96768" lon="-0.90535">
        <ele>99</ele>
        <time>2015-03-12T16:02:00Z</time>
      </trkpt>
      <trkpt lat="46.96766" lon="-0.90535">
        <ele>99</ele>
        <time>2015-03-12T16:02:02Z</time>
      </trkpt>
      <trkpt lat="46.96765" lon="-0.90533">
        <ele>99</ele>
        <time>2015-03-12T16:02:04Z</time>
      </trkpt>
      <trkpt lat="46.96763" lon="-0.90531">
        <ele>99</ele>
        <time>2015-03-12T16:02:08Z</time>
      </trkpt>
      <trkpt lat="46.96762" lon="-0.9053">
        <ele>99</ele>
        <time>2015-03-12T16:02:10Z</time>
      </trkpt>
      <trkpt lat="46.9676" lon="-0.90528">
        <ele>99</ele>
        <time>2015-03-12T16:02:12Z</time>
      </trkpt>
      <trkpt lat="46.96759" lon="-0.90526">
        <ele>99</ele>
        <time>2015-03-12T16:02:14Z</time>
      </trkpt>
      <trkpt lat="46.96757" lon="-0.90525">
        <ele>98</ele>
        <time>2015-03-12T16:02:16Z</time>
      </trkpt>
      <trkpt lat="46.96756" lon="-0.90523">
        <ele>98</ele>
        <time>2015-03-12T16:02:18Z</time>
      </trkpt>
      <trkpt lat="46.96755" lon="-0.90521">
        <ele>98</ele>
        <time>2015-03-12T16:02:20Z</time>
      </trkpt>
      <trkpt lat="46.96754" lon="-0.9052">
        <ele>98</ele>
        <time>2015-03-12T16:02:22Z</time>
      </trkpt>
      <trkpt lat="46.96752" lon="-0.90518">
        <ele>97</ele>
        <time>2015-03-12T16:02:24Z</time>
      </trkpt>
      <trkpt lat="46.96749" lon="-0.90514">
        <ele>97</ele>
        <time>2015-03-12T16:02:27Z</time>
      </trkpt>
      <trkpt lat="46.96748" lon="-0.90512">
        <ele>97</ele>
        <time>2015-03-12T16:02:29Z</time>
      </trkpt>
      <trkpt lat="46.96747" lon="-0.9051">
        <ele>96</ele>
        <time>2015-03-12T16:02:31Z</time>
      </trkpt>
      <trkpt lat="46.96746" lon="-0.90508">
        <ele>96</ele>
        <time>2015-03-12T16:02:33Z</time>
      </trkpt>
      <trkpt lat="46.96745" lon="-0.90507">
        <ele>96</ele>
        <time>2015-03-12T16:02:35Z</time>
      </trkpt>
      <trkpt lat="46.96744" lon="-0.90504">
        <ele>96</ele>
        <time>2015-03-12T16:02:38Z</time>
      </trkpt>
      <trkpt lat="46.96743" lon="-0.90499">
        <ele>96</ele>
        <time>2015-03-12T16:02:42Z</time>
      </trkpt>
      <trkpt lat="46.96742" lon="-0.90497">
        <ele>96</ele>
        <time>2015-03-12T16:02:44Z</time>
      </trkpt>
      <trkpt lat="46.96741" lon="-0.90495">
        <ele>96</ele>
        <time>2015-03-12T16:02:49Z</time>
      </trkpt>
      <trkpt lat="46.96739" lon="-0.90493">
        <ele>96</ele>
        <time>2015-03-12T16:02:52Z</time>
      </trkpt>
      <trkpt lat="46.96738" lon="-0.90492">
        <ele>96</ele>
        <time>2015-03-12T16:02:55Z</time>
      </trkpt>
      <trkpt lat="46.96737" lon="-0.90487">
        <ele>96</ele>
        <time>2015-03-12T16:03:00Z</time>
      </trkpt>
      <trkpt lat="46.96735" lon="-0.90484">
        <ele>96</ele>
        <time>2015-03-12T16:03:03Z</time>
      </trkpt>
      <trkpt lat="46.96734" lon="-0.90482">
        <ele>96</ele>
        <time>2015-03-12T16:03:05Z</time>
      </trkpt>
      <trkpt lat="46.96733" lon="-0.90481">
        <ele>96</ele>
        <time>2015-03-12T16:03:08Z</time>
      </trkpt>
      <trkpt lat="46.96732" lon="-0.90477">
        <ele>96</ele>
        <time>2015-03-12T16:03:10Z</time>
      </trkpt>
      <trkpt lat="46.9673" lon="-0.90473">
        <ele>96</ele>
        <time>2015-03-12T16:03:13Z</time>
      </trkpt>
      <trkpt lat="46.96731" lon="-0.90469">
        <ele>96</ele>
        <time>2015-03-12T16:03:15Z</time>
      </trkpt>
      <trkpt lat="46.9673" lon="-0.90465">
        <ele>96</ele>
        <time>2015-03-12T16:03:18Z</time>
      </trkpt>
      <trkpt lat="46.9673" lon="-0.90462">
        <ele>97</ele>
        <time>2015-03-12T16:03:20Z</time>
      </trkpt>
      <trkpt lat="46.9673" lon="-0.90459">
        <ele>98</ele>
        <time>2015-03-12T16:03:22Z</time>
      </trkpt>
      <trkpt lat="46.96731" lon="-0.90455">
        <ele>98</ele>
        <time>2015-03-12T16:03:24Z</time>
      </trkpt>
      <trkpt lat="46.96731" lon="-0.90453">
        <ele>99</ele>
        <time>2015-03-12T16:03:27Z</time>
      </trkpt>
      <trkpt lat="46.96731" lon="-0.9045">
        <ele>99</ele>
        <time>2015-03-12T16:03:29Z</time>
      </trkpt>
      <trkpt lat="46.96731" lon="-0.90447">
        <ele>99</ele>
        <time>2015-03-12T16:03:31Z</time>
      </trkpt>
      <trkpt lat="46.96729" lon="-0.90443">
        <ele>99</ele>
        <time>2015-03-12T16:03:33Z</time>
      </trkpt>
      <trkpt lat="46.96727" lon="-0.90441">
        <ele>99</ele>
        <time>2015-03-12T16:03:35Z</time>
      </trkpt>
      <trkpt lat="46.96725" lon="-0.90438">
        <ele>99</ele>
        <time>2015-03-12T16:03:37Z</time>
      </trkpt>
      <trkpt lat="46.96725" lon="-0.90435">
        <ele>99</ele>
        <time>2015-03-12T16:03:39Z</time>
      </trkpt>
      <trkpt lat="46.96723" lon="-0.90432">
        <ele>99</ele>
        <time>2015-03-12T16:03:41Z</time>
      </trkpt>
      <trkpt lat="46.96723" lon="-0.90429">
        <ele>99</ele>
        <time>2015-03-12T16:03:43Z</time>
      </trkpt>
      <trkpt lat="46.96723" lon="-0.90426">
        <ele>99</ele>
        <time>2015-03-12T16:03:45Z</time>
      </trkpt>
      <trkpt lat="46.96723" lon="-0.90424">
        <ele>99</ele>
        <time>2015-03-12T16:03:47Z</time>
      </trkpt>
      <trkpt lat="46.96723" lon="-0.9042">
        <ele>99</ele>
        <time>2015-03-12T16:03:49Z</time>
      </trkpt>
      <trkpt lat="46.96724" lon="-0.90417">
        <ele>100</ele>
        <time>2015-03-12T16:03:51Z</time>
      </trkpt>
      <trkpt lat="46.96724" lon="-0.90412">
        <ele>100</ele>
        <time>2015-03-12T16:03:54Z</time>
      </trkpt>
      <trkpt lat="46.96725" lon="-0.90409">
        <ele>101</ele>
        <time>2015-03-12T16:03:56Z</time>
      </trkpt>
      <trkpt lat="46.96725" lon="-0.90405">
        <ele>101</ele>
        <time>2015-03-12T16:03:58Z</time>
      </trkpt>
      <trkpt lat="46.96725" lon="-0.90401">
        <ele>101</ele>
        <time>2015-03-12T16:04:00Z</time>
      </trkpt>
      <trkpt lat="46.96723" lon="-0.90397">
        <ele>101</ele>
        <time>2015-03-12T16:04:02Z</time>
      </trkpt>
      <trkpt lat="46.96722" lon="-0.90394">
        <ele>101</ele>
        <time>2015-03-12T16:04:04Z</time>
      </trkpt>
      <trkpt lat="46.96721" lon="-0.9039">
        <ele>102</ele>
        <time>2015-03-12T16:04:06Z</time>
      </trkpt>
      <trkpt lat="46.9672" lon="-0.90386">
        <ele>103</ele>
        <time>2015-03-12T16:04:08Z</time>
      </trkpt>
      <trkpt lat="46.96719" lon="-0.90382">
        <ele>103</ele>
        <time>2015-03-12T16:04:11Z</time>
      </trkpt>
      <trkpt lat="46.9672" lon="-0.90378">
        <ele>103</ele>
        <time>2015-03-12T16:04:13Z</time>
      </trkpt>
      <trkpt lat="46.96718" lon="-0.90375">
        <ele>103</ele>
        <time>2015-03-12T16:04:16Z</time>
      </trkpt>
      <trkpt lat="46.96716" lon="-0.90374">
        <ele>103</ele>
        <time>2015-03-12T16:04:18Z</time>
      </trkpt>
      <trkpt lat="46.96716" lon="-0.90371">
        <ele>103</ele>
        <time>2015-03-12T16:04:20Z</time>
      </trkpt>
      <trkpt lat="46.96717" lon="-0.90368">
        <ele>103</ele>
        <time>2015-03-12T16:04:22Z</time>
      </trkpt>
      <trkpt lat="46.96716" lon="-0.90364">
        <ele>104</ele>
        <time>2015-03-12T16:04:24Z</time>
      </trkpt>
      <trkpt lat="46.96717" lon="-0.90359">
        <ele>106</ele>
        <time>2015-03-12T16:04:26Z</time>
      </trkpt>
      <trkpt lat="46.96717" lon="-0.90356">
        <ele>107</ele>
        <time>2015-03-12T16:04:28Z</time>
      </trkpt>
      <trkpt lat="46.96715" lon="-0.90352">
        <ele>107</ele>
        <time>2015-03-12T16:04:31Z</time>
      </trkpt>
      <trkpt lat="46.96716" lon="-0.9035">
        <ele>108</ele>
        <time>2015-03-12T16:04:33Z</time>
      </trkpt>
      <trkpt lat="46.96715" lon="-0.90347">
        <ele>108</ele>
        <time>2015-03-12T16:04:35Z</time>
      </trkpt>
      <trkpt lat="46.96715" lon="-0.90343">
        <ele>108</ele>
        <time>2015-03-12T16:04:38Z</time>
      </trkpt>
      <trkpt lat="46.96714" lon="-0.90341">
        <ele>108</ele>
        <time>2015-03-12T16:04:40Z</time>
      </trkpt>
      <trkpt lat="46.96713" lon="-0.90337">
        <ele>108</ele>
        <time>2015-03-12T16:04:43Z</time>
      </trkpt>
      <trkpt lat="46.96711" lon="-0.90334">
        <ele>108</ele>
        <time>2015-03-12T16:04:45Z</time>
      </trkpt>
      <trkpt lat="46.96711" lon="-0.9033">
        <ele>108</ele>
        <time>2015-03-12T16:04:47Z</time>
      </trkpt>
      <trkpt lat="46.96709" lon="-0.90328">
        <ele>107</ele>
        <time>2015-03-12T16:04:49Z</time>
      </trkpt>
      <trkpt lat="46.96708" lon="-0.90323">
        <ele>107</ele>
        <time>2015-03-12T16:04:52Z</time>
      </trkpt>
      <trkpt lat="46.96705" lon="-0.90318">
        <ele>104</ele>
        <time>2015-03-12T16:04:55Z</time>
      </trkpt>
      <trkpt lat="46.96701" lon="-0.90315">
        <ele>103</ele>
        <time>2015-03-12T16:04:58Z</time>
      </trkpt>
      <trkpt lat="46.967" lon="-0.90311">
        <ele>102</ele>
        <time>2015-03-12T16:05:00Z</time>
      </trkpt>
      <trkpt lat="46.96698" lon="-0.90307">
        <ele>101</ele>
        <time>2015-03-12T16:05:02Z</time>
      </trkpt>
      <trkpt lat="46.96695" lon="-0.90304">
        <ele>100</ele>
        <time>2015-03-12T16:05:05Z</time>
      </trkpt>
      <trkpt lat="46.96692" lon="-0.903">
        <ele>99</ele>
        <time>2015-03-12T16:05:07Z</time>
      </trkpt>
      <trkpt lat="46.9669" lon="-0.90298">
        <ele>99</ele>
        <time>2015-03-12T16:05:09Z</time>
      </trkpt>
      <trkpt lat="46.96688" lon="-0.90295">
        <ele>99</ele>
        <time>2015-03-12T16:05:11Z</time>
      </trkpt>
      <trkpt lat="46.96686" lon="-0.90294">
        <ele>99</ele>
        <time>2015-03-12T16:05:13Z</time>
      </trkpt>
      <trkpt lat="46.96683" lon="-0.90292">
        <ele>99</ele>
        <time>2015-03-12T16:05:15Z</time>
      </trkpt>
      <trkpt lat="46.96682" lon="-0.9029">
        <ele>99</ele>
        <time>2015-03-12T16:05:17Z</time>
      </trkpt>
      <trkpt lat="46.9668" lon="-0.90288">
        <ele>99</ele>
        <time>2015-03-12T16:05:19Z</time>
      </trkpt>
      <trkpt lat="46.96679" lon="-0.90286">
        <ele>99</ele>
        <time>2015-03-12T16:05:21Z</time>
      </trkpt>
      <trkpt lat="46.96677" lon="-0.90285">
        <ele>99</ele>
        <time>2015-03-12T16:05:23Z</time>
      </trkpt>
      <trkpt lat="46.96674" lon="-0.90282">
        <ele>99</ele>
        <time>2015-03-12T16:05:25Z</time>
      </trkpt>
      <trkpt lat="46.9667" lon="-0.90279">
        <ele>99</ele>
        <time>2015-03-12T16:05:28Z</time>
      </trkpt>
      <trkpt lat="46.96667" lon="-0.90279">
        <ele>101</ele>
        <time>2015-03-12T16:05:30Z</time>
      </trkpt>
      <trkpt lat="46.96666" lon="-0.90277">
        <ele>104</ele>
        <time>2015-03-12T16:05:33Z</time>
      </trkpt>
      <trkpt lat="46.96664" lon="-0.90275">
        <ele>105</ele>
        <time>2015-03-12T16:05:35Z</time>
      </trkpt>
      <trkpt lat="46.96663" lon="-0.90275">
        <ele>105</ele>
        <time>2015-03-12T16:05:37Z</time>
      </trkpt>
      <trkpt lat="46.96661" lon="-0.90273">
        <ele>105</ele>
        <time>2015-03-12T16:05:39Z</time>
      </trkpt>
      <trkpt lat="46.96659" lon="-0.90271">
        <ele>105</ele>
        <time>2015-03-12T16:05:41Z</time>
      </trkpt>
      <trkpt lat="46.96658" lon="-0.90267">
        <ele>105</ele>
        <time>2015-03-12T16:05:43Z</time>
      </trkpt>
      <trkpt lat="46.96657" lon="-0.90265">
        <ele>105</ele>
        <time>2015-03-12T16:05:45Z</time>
      </trkpt>
      <trkpt lat="46.96655" lon="-0.90263">
        <ele>105</ele>
        <time>2015-03-12T16:05:47Z</time>
      </trkpt>
      <trkpt lat="46.96654" lon="-0.90261">
        <ele>105</ele>
        <time>2015-03-12T16:05:49Z</time>
      </trkpt>
      <trkpt lat="46.96653" lon="-0.90259">
        <ele>105</ele>
        <time>2015-03-12T16:05:51Z</time>
      </trkpt>
      <trkpt lat="46.96651" lon="-0.90257">
        <ele>105</ele>
        <time>2015-03-12T16:05:53Z</time>
      </trkpt>
      <trkpt lat="46.96649" lon="-0.90254">
        <ele>105</ele>
        <time>2015-03-12T16:05:55Z</time>
      </trkpt>
      <trkpt lat="46.96646" lon="-0.9025">
        <ele>105</ele>
        <time>2015-03-12T16:05:59Z</time>
      </trkpt>
      <trkpt lat="46.96645" lon="-0.90248">
        <ele>104</ele>
        <time>2015-03-12T16:06:01Z</time>
      </trkpt>
      <trkpt lat="46.96643" lon="-0.90247">
        <ele>104</ele>
        <time>2015-03-12T16:06:03Z</time>
      </trkpt>
      <trkpt lat="46.96641" lon="-0.90243">
        <ele>103</ele>
        <time>2015-03-12T16:06:06Z</time>
      </trkpt>
      <trkpt lat="46.9664" lon="-0.90241">
        <ele>103</ele>
        <time>2015-03-12T16:06:08Z</time>
      </trkpt>
      <trkpt lat="46.96637" lon="-0.90239">
        <ele>103</ele>
        <time>2015-03-12T16:06:10Z</time>
      </trkpt>
      <trkpt lat="46.96634" lon="-0.90237">
        <ele>103</ele>
        <time>2015-03-12T16:06:12Z</time>
      </trkpt>
      <trkpt lat="46.96633" lon="-0.90236">
        <ele>103</ele>
        <time>2015-03-12T16:06:14Z</time>
      </trkpt>
      <trkpt lat="46.96631" lon="-0.90234">
        <ele>103</ele>
        <time>2015-03-12T16:06:16Z</time>
      </trkpt>
      <trkpt lat="46.96629" lon="-0.90232">
        <ele>103</ele>
        <time>2015-03-12T16:06:18Z</time>
      </trkpt>
      <trkpt lat="46.96628" lon="-0.90231">
        <ele>103</ele>
        <time>2015-03-12T16:06:20Z</time>
      </trkpt>
      <trkpt lat="46.96627" lon="-0.90228">
        <ele>103</ele>
        <time>2015-03-12T16:06:22Z</time>
      </trkpt>
      <trkpt lat="46.96624" lon="-0.90225">
        <ele>103</ele>
        <time>2015-03-12T16:06:25Z</time>
      </trkpt>
      <trkpt lat="46.96621" lon="-0.90223">
        <ele>102</ele>
        <time>2015-03-12T16:06:27Z</time>
      </trkpt>
      <trkpt lat="46.96619" lon="-0.90221">
        <ele>102</ele>
        <time>2015-03-12T16:06:29Z</time>
      </trkpt>
      <trkpt lat="46.96617" lon="-0.90219">
        <ele>102</ele>
        <time>2015-03-12T16:06:31Z</time>
      </trkpt>
      <trkpt lat="46.96616" lon="-0.90218">
        <ele>102</ele>
        <time>2015-03-12T16:06:33Z</time>
      </trkpt>
      <trkpt lat="46.96613" lon="-0.90215">
        <ele>102</ele>
        <time>2015-03-12T16:06:36Z</time>
      </trkpt>
      <trkpt lat="46.96612" lon="-0.90213">
        <ele>102</ele>
        <time>2015-03-12T16:06:38Z</time>
      </trkpt>
      <trkpt lat="46.9661" lon="-0.9021">
        <ele>102</ele>
        <time>2015-03-12T16:06:41Z</time>
      </trkpt>
      <trkpt lat="46.96609" lon="-0.90208">
        <ele>102</ele>
        <time>2015-03-12T16:06:43Z</time>
      </trkpt>
      <trkpt lat="46.96606" lon="-0.90206">
        <ele>102</ele>
        <time>2015-03-12T16:06:45Z</time>
      </trkpt>
      <trkpt lat="46.96603" lon="-0.90205">
        <ele>102</ele>
        <time>2015-03-12T16:06:47Z</time>
      </trkpt>
      <trkpt lat="46.966" lon="-0.90204">
        <ele>102</ele>
        <time>2015-03-12T16:06:50Z</time>
      </trkpt>
      <trkpt lat="46.96596" lon="-0.90202">
        <ele>102</ele>
        <time>2015-03-12T16:06:53Z</time>
      </trkpt>
      <trkpt lat="46.96594" lon="-0.90201">
        <ele>102</ele>
        <time>2015-03-12T16:06:55Z</time>
      </trkpt>
      <trkpt lat="46.9659" lon="-0.902">
        <ele>102</ele>
        <time>2015-03-12T16:06:58Z</time>
      </trkpt>
      <trkpt lat="46.96588" lon="-0.90198">
        <ele>102</ele>
        <time>2015-03-12T16:07:00Z</time>
      </trkpt>
      <trkpt lat="46.96586" lon="-0.90197">
        <ele>102</ele>
        <time>2015-03-12T16:07:02Z</time>
      </trkpt>
      <trkpt lat="46.96583" lon="-0.90196">
        <ele>102</ele>
        <time>2015-03-12T16:07:05Z</time>
      </trkpt>
      <trkpt lat="46.96582" lon="-0.90196">
        <ele>102</ele>
        <time>2015-03-12T16:07:08Z</time>
      </trkpt>
      <trkpt lat="46.96581" lon="-0.90197">
        <ele>102</ele>
        <time>2015-03-12T16:07:13Z</time>
      </trkpt>
      <trkpt lat="46.96578" lon="-0.90197">
        <ele>102</ele>
        <time>2015-03-12T16:07:15Z</time>
      </trkpt>
      <trkpt lat="46.96577" lon="-0.90197">
        <ele>102</ele>
        <time>2015-03-12T16:07:17Z</time>
      </trkpt>
      <trkpt lat="46.96574" lon="-0.90197">
        <ele>102</ele>
        <time>2015-03-12T16:07:19Z</time>
      </trkpt>
      <trkpt lat="46.96572" lon="-0.90197">
        <ele>102</ele>
        <time>2015-03-12T16:07:21Z</time>
      </trkpt>
      <trkpt lat="46.96569" lon="-0.90197">
        <ele>102</ele>
        <time>2015-03-12T16:07:23Z</time>
      </trkpt>
      <trkpt lat="46.96566" lon="-0.90201">
        <ele>102</ele>
        <time>2015-03-12T16:07:26Z</time>
      </trkpt>
      <trkpt lat="46.96565" lon="-0.90205">
        <ele>102</ele>
        <time>2015-03-12T16:07:28Z</time>
      </trkpt>
      <trkpt lat="46.96563" lon="-0.90206">
        <ele>101</ele>
        <time>2015-03-12T16:07:30Z</time>
      </trkpt>
      <trkpt lat="46.96561" lon="-0.90208">
        <ele>101</ele>
        <time>2015-03-12T16:07:32Z</time>
      </trkpt>
      <trkpt lat="46.9656" lon="-0.9021">
        <ele>101</ele>
        <time>2015-03-12T16:07:34Z</time>
      </trkpt>
      <trkpt lat="46.96558" lon="-0.90211">
        <ele>101</ele>
        <time>2015-03-12T16:07:36Z</time>
      </trkpt>
      <trkpt lat="46.96556" lon="-0.90213">
        <ele>101</ele>
        <time>2015-03-12T16:07:38Z</time>
      </trkpt>
      <trkpt lat="46.96554" lon="-0.90215">
        <ele>101</ele>
        <time>2015-03-12T16:07:40Z</time>
      </trkpt>
      <trkpt lat="46.96552" lon="-0.90215">
        <ele>101</ele>
        <time>2015-03-12T16:07:42Z</time>
      </trkpt>
      <trkpt lat="46.9655" lon="-0.90216">
        <ele>101</ele>
        <time>2015-03-12T16:07:44Z</time>
      </trkpt>
      <trkpt lat="46.96547" lon="-0.90215">
        <ele>101</ele>
        <time>2015-03-12T16:07:46Z</time>
      </trkpt>
      <trkpt lat="46.96545" lon="-0.90216">
        <ele>101</ele>
        <time>2015-03-12T16:07:48Z</time>
      </trkpt>
      <trkpt lat="46.96544" lon="-0.90215">
        <ele>101</ele>
        <time>2015-03-12T16:07:53Z</time>
      </trkpt>
      <trkpt lat="46.96542" lon="-0.90214">
        <ele>101</ele>
        <time>2015-03-12T16:07:55Z</time>
      </trkpt>
      <trkpt lat="46.96538" lon="-0.90211">
        <ele>101</ele>
        <time>2015-03-12T16:07:59Z</time>
      </trkpt>
      <trkpt lat="46.96537" lon="-0.90209">
        <ele>101</ele>
        <time>2015-03-12T16:08:02Z</time>
      </trkpt>
      <trkpt lat="46.96534" lon="-0.90206">
        <ele>101</ele>
        <time>2015-03-12T16:08:05Z</time>
      </trkpt>
      <trkpt lat="46.96533" lon="-0.90204">
        <ele>101</ele>
        <time>2015-03-12T16:08:07Z</time>
      </trkpt>
      <trkpt lat="46.96532" lon="-0.90202">
        <ele>101</ele>
        <time>2015-03-12T16:08:09Z</time>
      </trkpt>
      <trkpt lat="46.96531" lon="-0.90199">
        <ele>101</ele>
        <time>2015-03-12T16:08:11Z</time>
      </trkpt>
      <trkpt lat="46.96529" lon="-0.90198">
        <ele>101</ele>
        <time>2015-03-12T16:08:13Z</time>
      </trkpt>
      <trkpt lat="46.96527" lon="-0.90196">
        <ele>101</ele>
        <time>2015-03-12T16:08:15Z</time>
      </trkpt>
      <trkpt lat="46.96525" lon="-0.90193">
        <ele>101</ele>
        <time>2015-03-12T16:08:17Z</time>
      </trkpt>
      <trkpt lat="46.96524" lon="-0.90191">
        <ele>101</ele>
        <time>2015-03-12T16:08:19Z</time>
      </trkpt>
      <trkpt lat="46.96522" lon="-0.9019">
        <ele>101</ele>
        <time>2015-03-12T16:08:21Z</time>
      </trkpt>
      <trkpt lat="46.9652" lon="-0.90189">
        <ele>101</ele>
        <time>2015-03-12T16:08:23Z</time>
      </trkpt>
      <trkpt lat="46.96518" lon="-0.90187">
        <ele>101</ele>
        <time>2015-03-12T16:08:25Z</time>
      </trkpt>
      <trkpt lat="46.96515" lon="-0.90185">
        <ele>101</ele>
        <time>2015-03-12T16:08:27Z</time>
      </trkpt>
      <trkpt lat="46.96512" lon="-0.90181">
        <ele>101</ele>
        <time>2015-03-12T16:08:30Z</time>
      </trkpt>
      <trkpt lat="46.96508" lon="-0.9018">
        <ele>101</ele>
        <time>2015-03-12T16:08:32Z</time>
      </trkpt>
      <trkpt lat="46.96505" lon="-0.90179">
        <ele>101</ele>
        <time>2015-03-12T16:08:34Z</time>
      </trkpt>
      <trkpt lat="46.96502" lon="-0.90179">
        <ele>101</ele>
        <time>2015-03-12T16:08:36Z</time>
      </trkpt>
      <trkpt lat="46.96499" lon="-0.90178">
        <ele>101</ele>
        <time>2015-03-12T16:08:38Z</time>
      </trkpt>
      <trkpt lat="46.96496" lon="-0.90178">
        <ele>101</ele>
        <time>2015-03-12T16:08:41Z</time>
      </trkpt>
      <trkpt lat="46.96495" lon="-0.90178">
        <ele>101</ele>
        <time>2015-03-12T16:08:43Z</time>
      </trkpt>
      <trkpt lat="46.96493" lon="-0.90178">
        <ele>101</ele>
        <time>2015-03-12T16:08:45Z</time>
      </trkpt>
      <trkpt lat="46.96491" lon="-0.90178">
        <ele>101</ele>
        <time>2015-03-12T16:08:47Z</time>
      </trkpt>
      <trkpt lat="46.9649" lon="-0.90177">
        <ele>101</ele>
        <time>2015-03-12T16:08:51Z</time>
      </trkpt>
      <trkpt lat="46.96487" lon="-0.90175">
        <ele>101</ele>
        <time>2015-03-12T16:08:54Z</time>
      </trkpt>
      <trkpt lat="46.96486" lon="-0.90173">
        <ele>101</ele>
        <time>2015-03-12T16:08:56Z</time>
      </trkpt>
      <trkpt lat="46.96484" lon="-0.90172">
        <ele>101</ele>
        <time>2015-03-12T16:08:58Z</time>
      </trkpt>
      <trkpt lat="46.96482" lon="-0.90171">
        <ele>101</ele>
        <time>2015-03-12T16:09:00Z</time>
      </trkpt>
      <trkpt lat="46.9648" lon="-0.9017">
        <ele>101</ele>
        <time>2015-03-12T16:09:02Z</time>
      </trkpt>
      <trkpt lat="46.96477" lon="-0.90168">
        <ele>101</ele>
        <time>2015-03-12T16:09:04Z</time>
      </trkpt>
      <trkpt lat="46.96474" lon="-0.90167">
        <ele>101</ele>
        <time>2015-03-12T16:09:06Z</time>
      </trkpt>
      <trkpt lat="46.96471" lon="-0.90165">
        <ele>101</ele>
        <time>2015-03-12T16:09:08Z</time>
      </trkpt>
      <trkpt lat="46.96468" lon="-0.90163">
        <ele>101</ele>
        <time>2015-03-12T16:09:10Z</time>
      </trkpt>
      <trkpt lat="46.96465" lon="-0.90162">
        <ele>101</ele>
        <time>2015-03-12T16:09:12Z</time>
      </trkpt>
      <trkpt lat="46.96462" lon="-0.90161">
        <ele>101</ele>
        <time>2015-03-12T16:09:14Z</time>
      </trkpt>
      <trkpt lat="46.9646" lon="-0.9016">
        <ele>101</ele>
        <time>2015-03-12T16:09:16Z</time>
      </trkpt>
      <trkpt lat="46.96457" lon="-0.90158">
        <ele>101</ele>
        <time>2015-03-12T16:09:18Z</time>
      </trkpt>
      <trkpt lat="46.96455" lon="-0.90156">
        <ele>101</ele>
        <time>2015-03-12T16:09:20Z</time>
      </trkpt>
      <trkpt lat="46.96454" lon="-0.90154">
        <ele>101</ele>
        <time>2015-03-12T16:09:22Z</time>
      </trkpt>
      <trkpt lat="46.96452" lon="-0.90153">
        <ele>101</ele>
        <time>2015-03-12T16:09:24Z</time>
      </trkpt>
      <trkpt lat="46.9645" lon="-0.90151">
        <ele>101</ele>
        <time>2015-03-12T16:09:26Z</time>
      </trkpt>
      <trkpt lat="46.96447" lon="-0.90148">
        <ele>101</ele>
        <time>2015-03-12T16:09:29Z</time>
      </trkpt>
      <trkpt lat="46.96444" lon="-0.90146">
        <ele>101</ele>
        <time>2015-03-12T16:09:31Z</time>
      </trkpt>
      <trkpt lat="46.96442" lon="-0.90144">
        <ele>101</ele>
        <time>2015-03-12T16:09:33Z</time>
      </trkpt>
      <trkpt lat="46.96439" lon="-0.90142">
        <ele>101</ele>
        <time>2015-03-12T16:09:35Z</time>
      </trkpt>
      <trkpt lat="46.96436" lon="-0.9014">
        <ele>101</ele>
        <time>2015-03-12T16:09:37Z</time>
      </trkpt>
      <trkpt lat="46.96433" lon="-0.90137">
        <ele>101</ele>
        <time>2015-03-12T16:09:40Z</time>
      </trkpt>
      <trkpt lat="46.9643" lon="-0.90135">
        <ele>101</ele>
        <time>2015-03-12T16:09:42Z</time>
      </trkpt>
      <trkpt lat="46.96428" lon="-0.90132">
        <ele>101</ele>
        <time>2015-03-12T16:09:45Z</time>
      </trkpt>
      <trkpt lat="46.96424" lon="-0.9013">
        <ele>101</ele>
        <time>2015-03-12T16:09:48Z</time>
      </trkpt>
      <trkpt lat="46.96422" lon="-0.90127">
        <ele>101</ele>
        <time>2015-03-12T16:09:50Z</time>
      </trkpt>
      <trkpt lat="46.96419" lon="-0.90124">
        <ele>101</ele>
        <time>2015-03-12T16:09:53Z</time>
      </trkpt>
      <trkpt lat="46.96417" lon="-0.90122">
        <ele>101</ele>
        <time>2015-03-12T16:09:55Z</time>
      </trkpt>
      <trkpt lat="46.96415" lon="-0.9012">
        <ele>101</ele>
        <time>2015-03-12T16:09:57Z</time>
      </trkpt>
      <trkpt lat="46.96413" lon="-0.90117">
        <ele>101</ele>
        <time>2015-03-12T16:09:59Z</time>
      </trkpt>
      <trkpt lat="46.96411" lon="-0.90115">
        <ele>101</ele>
        <time>2015-03-12T16:10:01Z</time>
      </trkpt>
      <trkpt lat="46.96408" lon="-0.90113">
        <ele>101</ele>
        <time>2015-03-12T16:10:04Z</time>
      </trkpt>
      <trkpt lat="46.96407" lon="-0.90111">
        <ele>101</ele>
        <time>2015-03-12T16:10:06Z</time>
      </trkpt>
      <trkpt lat="46.96405" lon="-0.9011">
        <ele>101</ele>
        <time>2015-03-12T16:10:08Z</time>
      </trkpt>
      <trkpt lat="46.96404" lon="-0.90109">
        <ele>101</ele>
        <time>2015-03-12T16:10:10Z</time>
      </trkpt>
      <trkpt lat="46.96404" lon="-0.90108">
        <ele>101</ele>
        <time>2015-03-12T16:10:13Z</time>
      </trkpt>
      <trkpt lat="46.96403" lon="-0.90105">
        <ele>101</ele>
        <time>2015-03-12T16:10:15Z</time>
      </trkpt>
      <trkpt lat="46.96402" lon="-0.90103">
        <ele>101</ele>
        <time>2015-03-12T16:10:17Z</time>
      </trkpt>
      <trkpt lat="46.964" lon="-0.90101">
        <ele>101</ele>
        <time>2015-03-12T16:10:19Z</time>
      </trkpt>
      <trkpt lat="46.96397" lon="-0.90097">
        <ele>101</ele>
        <time>2015-03-12T16:10:21Z</time>
      </trkpt>
      <trkpt lat="46.96396" lon="-0.90094">
        <ele>101</ele>
        <time>2015-03-12T16:10:23Z</time>
      </trkpt>
      <trkpt lat="46.96394" lon="-0.90092">
        <ele>101</ele>
        <time>2015-03-12T16:10:25Z</time>
      </trkpt>
      <trkpt lat="46.96393" lon="-0.9009">
        <ele>101</ele>
        <time>2015-03-12T16:10:27Z</time>
      </trkpt>
      <trkpt lat="46.9639" lon="-0.90088">
        <ele>101</ele>
        <time>2015-03-12T16:10:29Z</time>
      </trkpt>
      <trkpt lat="46.96388" lon="-0.90086">
        <ele>101</ele>
        <time>2015-03-12T16:10:31Z</time>
      </trkpt>
      <trkpt lat="46.96384" lon="-0.90084">
        <ele>101</ele>
        <time>2015-03-12T16:10:33Z</time>
      </trkpt>
      <trkpt lat="46.96382" lon="-0.90082">
        <ele>102</ele>
        <time>2015-03-12T16:10:36Z</time>
      </trkpt>
      <trkpt lat="46.96381" lon="-0.9008">
        <ele>102</ele>
        <time>2015-03-12T16:10:38Z</time>
      </trkpt>
      <trkpt lat="46.96378" lon="-0.90079">
        <ele>102</ele>
        <time>2015-03-12T16:10:40Z</time>
      </trkpt>
      <trkpt lat="46.96376" lon="-0.90076">
        <ele>102</ele>
        <time>2015-03-12T16:10:43Z</time>
      </trkpt>
      <trkpt lat="46.96372" lon="-0.90074">
        <ele>102</ele>
        <time>2015-03-12T16:10:46Z</time>
      </trkpt>
      <trkpt lat="46.9637" lon="-0.90074">
        <ele>102</ele>
        <time>2015-03-12T16:10:48Z</time>
      </trkpt>
      <trkpt lat="46.96369" lon="-0.90073">
        <ele>102</ele>
        <time>2015-03-12T16:10:50Z</time>
      </trkpt>
      <trkpt lat="46.96367" lon="-0.90072">
        <ele>102</ele>
        <time>2015-03-12T16:10:52Z</time>
      </trkpt>
      <trkpt lat="46.96365" lon="-0.90071">
        <ele>102</ele>
        <time>2015-03-12T16:10:54Z</time>
      </trkpt>
      <trkpt lat="46.96362" lon="-0.9007">
        <ele>102</ele>
        <time>2015-03-12T16:10:56Z</time>
      </trkpt>
      <trkpt lat="46.9636" lon="-0.9007">
        <ele>102</ele>
        <time>2015-03-12T16:10:58Z</time>
      </trkpt>
      <trkpt lat="46.96357" lon="-0.90069">
        <ele>102</ele>
        <time>2015-03-12T16:11:00Z</time>
      </trkpt>
      <trkpt lat="46.96354" lon="-0.90067">
        <ele>102</ele>
        <time>2015-03-12T16:11:02Z</time>
      </trkpt>
      <trkpt lat="46.96352" lon="-0.90066">
        <ele>102</ele>
        <time>2015-03-12T16:11:04Z</time>
      </trkpt>
      <trkpt lat="46.9635" lon="-0.90066">
        <ele>102</ele>
        <time>2015-03-12T16:11:06Z</time>
      </trkpt>
      <trkpt lat="46.96349" lon="-0.90067">
        <ele>102</ele>
        <time>2015-03-12T16:11:08Z</time>
      </trkpt>
      <trkpt lat="46.96345" lon="-0.90069">
        <ele>103</ele>
        <time>2015-03-12T16:11:10Z</time>
      </trkpt>
      <trkpt lat="46.96343" lon="-0.90067">
        <ele>103</ele>
        <time>2015-03-12T16:11:12Z</time>
      </trkpt>
      <trkpt lat="46.96342" lon="-0.90067">
        <ele>103</ele>
        <time>2015-03-12T16:11:14Z</time>
      </trkpt>
      <trkpt lat="46.96339" lon="-0.90068">
        <ele>103</ele>
        <time>2015-03-12T16:11:17Z</time>
      </trkpt>
      <trkpt lat="46.96336" lon="-0.90067">
        <ele>103</ele>
        <time>2015-03-12T16:11:19Z</time>
      </trkpt>
      <trkpt lat="46.96334" lon="-0.90068">
        <ele>103</ele>
        <time>2015-03-12T16:11:21Z</time>
      </trkpt>
      <trkpt lat="46.96331" lon="-0.9007">
        <ele>104</ele>
        <time>2015-03-12T16:11:23Z</time>
      </trkpt>
      <trkpt lat="46.96328" lon="-0.90072">
        <ele>105</ele>
        <time>2015-03-12T16:11:26Z</time>
      </trkpt>
      <trkpt lat="46.96326" lon="-0.90073">
        <ele>106</ele>
        <time>2015-03-12T16:11:28Z</time>
      </trkpt>
      <trkpt lat="46.96323" lon="-0.90075">
        <ele>106</ele>
        <time>2015-03-12T16:11:30Z</time>
      </trkpt>
      <trkpt lat="46.9632" lon="-0.90075">
        <ele>107</ele>
        <time>2015-03-12T16:11:32Z</time>
      </trkpt>
      <trkpt lat="46.96317" lon="-0.90077">
        <ele>108</ele>
        <time>2015-03-12T16:11:34Z</time>
      </trkpt>
      <trkpt lat="46.96315" lon="-0.90078">
        <ele>109</ele>
        <time>2015-03-12T16:11:36Z</time>
      </trkpt>
      <trkpt lat="46.96313" lon="-0.90079">
        <ele>110</ele>
        <time>2015-03-12T16:11:38Z</time>
      </trkpt>
      <trkpt lat="46.96311" lon="-0.90083">
        <ele>110</ele>
        <time>2015-03-12T16:11:41Z</time>
      </trkpt>
      <trkpt lat="46.9631" lon="-0.90084">
        <ele>111</ele>
        <time>2015-03-12T16:11:43Z</time>
      </trkpt>
      <trkpt lat="46.9631" lon="-0.90087">
        <ele>111</ele>
        <time>2015-03-12T16:11:45Z</time>
      </trkpt>
      <trkpt lat="46.9631" lon="-0.90089">
        <ele>111</ele>
        <time>2015-03-12T16:11:49Z</time>
      </trkpt>
      <trkpt lat="46.96309" lon="-0.90091">
        <ele>111</ele>
        <time>2015-03-12T16:11:51Z</time>
      </trkpt>
      <trkpt lat="46.96309" lon="-0.90092">
        <ele>111</ele>
        <time>2015-03-12T16:11:53Z</time>
      </trkpt>
      <trkpt lat="46.96308" lon="-0.90094">
        <ele>111</ele>
        <time>2015-03-12T16:11:55Z</time>
      </trkpt>
      <trkpt lat="46.96307" lon="-0.90096">
        <ele>111</ele>
        <time>2015-03-12T16:11:58Z</time>
      </trkpt>
      <trkpt lat="46.96307" lon="-0.90097">
        <ele>111</ele>
        <time>2015-03-12T16:12:00Z</time>
      </trkpt>
      <trkpt lat="46.96306" lon="-0.901">
        <ele>112</ele>
        <time>2015-03-12T16:12:02Z</time>
      </trkpt>
      <trkpt lat="46.96305" lon="-0.90101">
        <ele>113</ele>
        <time>2015-03-12T16:12:04Z</time>
      </trkpt>
      <trkpt lat="46.96303" lon="-0.90103">
        <ele>114</ele>
        <time>2015-03-12T16:12:07Z</time>
      </trkpt>
      <trkpt lat="46.96302" lon="-0.90104">
        <ele>114</ele>
        <time>2015-03-12T16:12:09Z</time>
      </trkpt>
      <trkpt lat="46.96303" lon="-0.90105">
        <ele>115</ele>
        <time>2015-03-12T16:12:11Z</time>
      </trkpt>
      <trkpt lat="46.96302" lon="-0.90107">
        <ele>116</ele>
        <time>2015-03-12T16:12:14Z</time>
      </trkpt>
      <trkpt lat="46.96299" lon="-0.90109">
        <ele>116</ele>
        <time>2015-03-12T16:12:17Z</time>
      </trkpt>
      <trkpt lat="46.96297" lon="-0.9011">
        <ele>116</ele>
        <time>2015-03-12T16:12:19Z</time>
      </trkpt>
      <trkpt lat="46.96295" lon="-0.90112">
        <ele>116</ele>
        <time>2015-03-12T16:12:22Z</time>
      </trkpt>
      <trkpt lat="46.96294" lon="-0.90112">
        <ele>116</ele>
        <time>2015-03-12T16:12:25Z</time>
      </trkpt>
      <trkpt lat="46.9629" lon="-0.9011">
        <ele>116</ele>
        <time>2015-03-12T16:12:28Z</time>
      </trkpt>
      <trkpt lat="46.96288" lon="-0.90109">
        <ele>116</ele>
        <time>2015-03-12T16:12:30Z</time>
      </trkpt>
      <trkpt lat="46.96286" lon="-0.90108">
        <ele>116</ele>
        <time>2015-03-12T16:12:32Z</time>
      </trkpt>
      <trkpt lat="46.96283" lon="-0.90106">
        <ele>116</ele>
        <time>2015-03-12T16:12:35Z</time>
      </trkpt>
      <trkpt lat="46.9628" lon="-0.90105">
        <ele>116</ele>
        <time>2015-03-12T16:12:37Z</time>
      </trkpt>
      <trkpt lat="46.96279" lon="-0.90104">
        <ele>116</ele>
        <time>2015-03-12T16:12:39Z</time>
      </trkpt>
      <trkpt lat="46.96277" lon="-0.90102">
        <ele>116</ele>
        <time>2015-03-12T16:12:41Z</time>
      </trkpt>
      <trkpt lat="46.96276" lon="-0.901">
        <ele>116</ele>
        <time>2015-03-12T16:12:43Z</time>
      </trkpt>
      <trkpt lat="46.96273" lon="-0.90099">
        <ele>116</ele>
        <time>2015-03-12T16:12:45Z</time>
      </trkpt>
      <trkpt lat="46.96272" lon="-0.90097">
        <ele>115</ele>
        <time>2015-03-12T16:12:47Z</time>
      </trkpt>
      <trkpt lat="46.96269" lon="-0.90095">
        <ele>113</ele>
        <time>2015-03-12T16:12:49Z</time>
      </trkpt>
      <trkpt lat="46.96267" lon="-0.90093">
        <ele>112</ele>
        <time>2015-03-12T16:12:51Z</time>
      </trkpt>
      <trkpt lat="46.96265" lon="-0.90091">
        <ele>112</ele>
        <time>2015-03-12T16:12:53Z</time>
      </trkpt>
      <trkpt lat="46.96263" lon="-0.90089">
        <ele>111</ele>
        <time>2015-03-12T16:12:55Z</time>
      </trkpt>
      <trkpt lat="46.96261" lon="-0.90088">
        <ele>110</ele>
        <time>2015-03-12T16:12:57Z</time>
      </trkpt>
      <trkpt lat="46.96259" lon="-0.90086">
        <ele>109</ele>
        <time>2015-03-12T16:12:59Z</time>
      </trkpt>
      <trkpt lat="46.96256" lon="-0.90083">
        <ele>108</ele>
        <time>2015-03-12T16:13:02Z</time>
      </trkpt>
      <trkpt lat="46.96254" lon="-0.90083">
        <ele>107</ele>
        <time>2015-03-12T16:13:04Z</time>
      </trkpt>
      <trkpt lat="46.96252" lon="-0.90082">
        <ele>106</ele>
        <time>2015-03-12T16:13:06Z</time>
      </trkpt>
      <trkpt lat="46.9625" lon="-0.9008">
        <ele>106</ele>
        <time>2015-03-12T16:13:08Z</time>
      </trkpt>
      <trkpt lat="46.96247" lon="-0.90078">
        <ele>106</ele>
        <time>2015-03-12T16:13:10Z</time>
      </trkpt>
      <trkpt lat="46.96244" lon="-0.90075">
        <ele>106</ele>
        <time>2015-03-12T16:13:12Z</time>
      </trkpt>
      <trkpt lat="46.96242" lon="-0.90074">
        <ele>106</ele>
        <time>2015-03-12T16:13:14Z</time>
      </trkpt>
      <trkpt lat="46.9624" lon="-0.90072">
        <ele>106</ele>
        <time>2015-03-12T16:13:16Z</time>
      </trkpt>
      <trkpt lat="46.96236" lon="-0.90069">
        <ele>106</ele>
        <time>2015-03-12T16:13:18Z</time>
      </trkpt>
      <trkpt lat="46.96233" lon="-0.90069">
        <ele>108</ele>
        <time>2015-03-12T16:13:21Z</time>
      </trkpt>
      <trkpt lat="46.96231" lon="-0.90068">
        <ele>108</ele>
        <time>2015-03-12T16:13:23Z</time>
      </trkpt>
      <trkpt lat="46.9623" lon="-0.90066">
        <ele>108</ele>
        <time>2015-03-12T16:13:25Z</time>
      </trkpt>
      <trkpt lat="46.96228" lon="-0.90065">
        <ele>109</ele>
        <time>2015-03-12T16:13:27Z</time>
      </trkpt>
      <trkpt lat="46.96225" lon="-0.90064">
        <ele>110</ele>
        <time>2015-03-12T16:13:29Z</time>
      </trkpt>
      <trkpt lat="46.96223" lon="-0.90064">
        <ele>111</ele>
        <time>2015-03-12T16:13:31Z</time>
      </trkpt>
      <trkpt lat="46.9622" lon="-0.90062">
        <ele>112</ele>
        <time>2015-03-12T16:13:33Z</time>
      </trkpt>
      <trkpt lat="46.96219" lon="-0.90061">
        <ele>113</ele>
        <time>2015-03-12T16:13:35Z</time>
      </trkpt>
      <trkpt lat="46.96217" lon="-0.90059">
        <ele>113</ele>
        <time>2015-03-12T16:13:37Z</time>
      </trkpt>
      <trkpt lat="46.96215" lon="-0.90058">
        <ele>113</ele>
        <time>2015-03-12T16:13:39Z</time>
      </trkpt>
      <trkpt lat="46.96213" lon="-0.90057">
        <ele>113</ele>
        <time>2015-03-12T16:13:41Z</time>
      </trkpt>
      <trkpt lat="46.96209" lon="-0.90057">
        <ele>113</ele>
        <time>2015-03-12T16:13:45Z</time>
      </trkpt>
      <trkpt lat="46.96206" lon="-0.90056">
        <ele>113</ele>
        <time>2015-03-12T16:13:47Z</time>
      </trkpt>
      <trkpt lat="46.96204" lon="-0.90057">
        <ele>113</ele>
        <time>2015-03-12T16:13:51Z</time>
      </trkpt>
      <trkpt lat="46.96203" lon="-0.9006">
        <ele>113</ele>
        <time>2015-03-12T16:13:53Z</time>
      </trkpt>
      <trkpt lat="46.96203" lon="-0.90061">
        <ele>113</ele>
        <time>2015-03-12T16:13:56Z</time>
      </trkpt>
      <trkpt lat="46.962" lon="-0.90061">
        <ele>115</ele>
        <time>2015-03-12T16:13:58Z</time>
      </trkpt>
      <trkpt lat="46.96197" lon="-0.90062">
        <ele>116</ele>
        <time>2015-03-12T16:14:00Z</time>
      </trkpt>
      <trkpt lat="46.96196" lon="-0.90066">
        <ele>117</ele>
        <time>2015-03-12T16:14:02Z</time>
      </trkpt>
      <trkpt lat="46.96195" lon="-0.90066">
        <ele>118</ele>
        <time>2015-03-12T16:14:04Z</time>
      </trkpt>
      <trkpt lat="46.96193" lon="-0.90066">
        <ele>118</ele>
        <time>2015-03-12T16:14:06Z</time>
      </trkpt>
      <trkpt lat="46.96191" lon="-0.90067">
        <ele>118</ele>
        <time>2015-03-12T16:14:08Z</time>
      </trkpt>
      <trkpt lat="46.96188" lon="-0.90068">
        <ele>118</ele>
        <time>2015-03-12T16:14:11Z</time>
      </trkpt>
      <trkpt lat="46.96185" lon="-0.90069">
        <ele>118</ele>
        <time>2015-03-12T16:14:13Z</time>
      </trkpt>
      <trkpt lat="46.96182" lon="-0.9007">
        <ele>118</ele>
        <time>2015-03-12T16:14:16Z</time>
      </trkpt>
      <trkpt lat="46.9618" lon="-0.9007">
        <ele>118</ele>
        <time>2015-03-12T16:14:20Z</time>
      </trkpt>
      <trkpt lat="46.96178" lon="-0.9007">
        <ele>118</ele>
        <time>2015-03-12T16:14:22Z</time>
      </trkpt>
      <trkpt lat="46.96175" lon="-0.90072">
        <ele>118</ele>
        <time>2015-03-12T16:14:24Z</time>
      </trkpt>
      <trkpt lat="46.96171" lon="-0.90074">
        <ele>119</ele>
        <time>2015-03-12T16:14:28Z</time>
      </trkpt>
      <trkpt lat="46.96168" lon="-0.90075">
        <ele>119</ele>
        <time>2015-03-12T16:14:30Z</time>
      </trkpt>
      <trkpt lat="46.96165" lon="-0.90075">
        <ele>119</ele>
        <time>2015-03-12T16:14:32Z</time>
      </trkpt>
      <trkpt lat="46.96162" lon="-0.90075">
        <ele>119</ele>
        <time>2015-03-12T16:14:34Z</time>
      </trkpt>
      <trkpt lat="46.96161" lon="-0.90073">
        <ele>119</ele>
        <time>2015-03-12T16:14:37Z</time>
      </trkpt>
      <trkpt lat="46.96158" lon="-0.9007">
        <ele>119</ele>
        <time>2015-03-12T16:14:40Z</time>
      </trkpt>
      <trkpt lat="46.96156" lon="-0.90069">
        <ele>119</ele>
        <time>2015-03-12T16:14:42Z</time>
      </trkpt>
      <trkpt lat="46.96154" lon="-0.90068">
        <ele>119</ele>
        <time>2015-03-12T16:14:44Z</time>
      </trkpt>
      <trkpt lat="46.9615" lon="-0.90066">
        <ele>120</ele>
        <time>2015-03-12T16:14:47Z</time>
      </trkpt>
      <trkpt lat="46.96149" lon="-0.90064">
        <ele>121</ele>
        <time>2015-03-12T16:14:49Z</time>
      </trkpt>
      <trkpt lat="46.96146" lon="-0.90063">
        <ele>122</ele>
        <time>2015-03-12T16:14:51Z</time>
      </trkpt>
      <trkpt lat="46.96145" lon="-0.90062">
        <ele>122</ele>
        <time>2015-03-12T16:14:53Z</time>
      </trkpt>
      <trkpt lat="46.96143" lon="-0.90062">
        <ele>122</ele>
        <time>2015-03-12T16:14:55Z</time>
      </trkpt>
      <trkpt lat="46.96141" lon="-0.90061">
        <ele>122</ele>
        <time>2015-03-12T16:14:57Z</time>
      </trkpt>
      <trkpt lat="46.96139" lon="-0.90059">
        <ele>122</ele>
        <time>2015-03-12T16:15:00Z</time>
      </trkpt>
      <trkpt lat="46.96138" lon="-0.90058">
        <ele>122</ele>
        <time>2015-03-12T16:15:02Z</time>
      </trkpt>
      <trkpt lat="46.96136" lon="-0.90058">
        <ele>122</ele>
        <time>2015-03-12T16:15:04Z</time>
      </trkpt>
      <trkpt lat="46.96134" lon="-0.90057">
        <ele>122</ele>
        <time>2015-03-12T16:15:06Z</time>
      </trkpt>
      <trkpt lat="46.96131" lon="-0.90057">
        <ele>122</ele>
        <time>2015-03-12T16:15:09Z</time>
      </trkpt>
      <trkpt lat="46.96129" lon="-0.90056">
        <ele>122</ele>
        <time>2015-03-12T16:15:11Z</time>
      </trkpt>
      <trkpt lat="46.96128" lon="-0.90055">
        <ele>122</ele>
        <time>2015-03-12T16:15:13Z</time>
      </trkpt>
      <trkpt lat="46.96126" lon="-0.90054">
        <ele>122</ele>
        <time>2015-03-12T16:15:15Z</time>
      </trkpt>
      <trkpt lat="46.96123" lon="-0.90052">
        <ele>122</ele>
        <time>2015-03-12T16:15:18Z</time>
      </trkpt>
      <trkpt lat="46.9612" lon="-0.90049">
        <ele>122</ele>
        <time>2015-03-12T16:15:20Z</time>
      </trkpt>
      <trkpt lat="46.96119" lon="-0.90048">
        <ele>122</ele>
        <time>2015-03-12T16:15:22Z</time>
      </trkpt>
      <trkpt lat="46.96117" lon="-0.90046">
        <ele>122</ele>
        <time>2015-03-12T16:15:24Z</time>
      </trkpt>
      <trkpt lat="46.96114" lon="-0.90045">
        <ele>122</ele>
        <time>2015-03-12T16:15:26Z</time>
      </trkpt>
      <trkpt lat="46.96111" lon="-0.90044">
        <ele>122</ele>
        <time>2015-03-12T16:15:29Z</time>
      </trkpt>
      <trkpt lat="46.96109" lon="-0.90043">
        <ele>122</ele>
        <time>2015-03-12T16:15:31Z</time>
      </trkpt>
      <trkpt lat="46.96106" lon="-0.90043">
        <ele>122</ele>
        <time>2015-03-12T16:15:33Z</time>
      </trkpt>
      <trkpt lat="46.96104" lon="-0.90043">
        <ele>123</ele>
        <time>2015-03-12T16:15:35Z</time>
      </trkpt>
      <trkpt lat="46.96101" lon="-0.90044">
        <ele>123</ele>
        <time>2015-03-12T16:15:37Z</time>
      </trkpt>
      <trkpt lat="46.96098" lon="-0.90044">
        <ele>123</ele>
        <time>2015-03-12T16:15:40Z</time>
      </trkpt>
      <trkpt lat="46.96095" lon="-0.90044">
        <ele>123</ele>
        <time>2015-03-12T16:15:42Z</time>
      </trkpt>
      <trkpt lat="46.96093" lon="-0.90044">
        <ele>123</ele>
        <time>2015-03-12T16:15:44Z</time>
      </trkpt>
      <trkpt lat="46.96091" lon="-0.90043">
        <ele>123</ele>
        <time>2015-03-12T16:15:46Z</time>
      </trkpt>
      <trkpt lat="46.96088" lon="-0.90043">
        <ele>123</ele>
        <time>2015-03-12T16:15:49Z</time>
      </trkpt>
      <trkpt lat="46.96085" lon="-0.90043">
        <ele>123</ele>
        <time>2015-03-12T16:15:52Z</time>
      </trkpt>
      <trkpt lat="46.96082" lon="-0.90043">
        <ele>123</ele>
        <time>2015-03-12T16:15:54Z</time>
      </trkpt>
      <trkpt lat="46.9608" lon="-0.90044">
        <ele>123</ele>
        <time>2015-03-12T16:15:56Z</time>
      </trkpt>
      <trkpt lat="46.96077" lon="-0.90045">
        <ele>123</ele>
        <time>2015-03-12T16:15:59Z</time>
      </trkpt>
      <trkpt lat="46.96074" lon="-0.90047">
        <ele>123</ele>
        <time>2015-03-12T16:16:01Z</time>
      </trkpt>
      <trkpt lat="46.96071" lon="-0.90048">
        <ele>123</ele>
        <time>2015-03-12T16:16:03Z</time>
      </trkpt>
      <trkpt lat="46.96067" lon="-0.90048">
        <ele>124</ele>
        <time>2015-03-12T16:16:06Z</time>
      </trkpt>
      <trkpt lat="46.96064" lon="-0.90048">
        <ele>124</ele>
        <time>2015-03-12T16:16:09Z</time>
      </trkpt>
      <trkpt lat="46.96061" lon="-0.90048">
        <ele>124</ele>
        <time>2015-03-12T16:16:11Z</time>
      </trkpt>
      <trkpt lat="46.96059" lon="-0.90047">
        <ele>124</ele>
        <time>2015-03-12T16:16:13Z</time>
      </trkpt>
      <trkpt lat="46.96058" lon="-0.90047">
        <ele>124</ele>
        <time>2015-03-12T16:16:15Z</time>
      </trkpt>
      <trkpt lat="46.96056" lon="-0.90046">
        <ele>124</ele>
        <time>2015-03-12T16:16:17Z</time>
      </trkpt>
      <trkpt lat="46.96054" lon="-0.90045">
        <ele>124</ele>
        <time>2015-03-12T16:16:20Z</time>
      </trkpt>
      <trkpt lat="46.96052" lon="-0.90046">
        <ele>124</ele>
        <time>2015-03-12T16:16:22Z</time>
      </trkpt>
      <trkpt lat="46.96048" lon="-0.90046">
        <ele>124</ele>
        <time>2015-03-12T16:16:25Z</time>
      </trkpt>
      <trkpt lat="46.96046" lon="-0.90046">
        <ele>124</ele>
        <time>2015-03-12T16:16:27Z</time>
      </trkpt>
      <trkpt lat="46.96044" lon="-0.90046">
        <ele>124</ele>
        <time>2015-03-12T16:16:29Z</time>
      </trkpt>
      <trkpt lat="46.9604" lon="-0.90047">
        <ele>124</ele>
        <time>2015-03-12T16:16:32Z</time>
      </trkpt>
      <trkpt lat="46.96037" lon="-0.90047">
        <ele>124</ele>
        <time>2015-03-12T16:16:34Z</time>
      </trkpt>
      <trkpt lat="46.96033" lon="-0.90045">
        <ele>124</ele>
        <time>2015-03-12T16:16:37Z</time>
      </trkpt>
      <trkpt lat="46.96031" lon="-0.90045">
        <ele>124</ele>
        <time>2015-03-12T16:16:39Z</time>
      </trkpt>
      <trkpt lat="46.96029" lon="-0.90044">
        <ele>124</ele>
        <time>2015-03-12T16:16:42Z</time>
      </trkpt>
      <trkpt lat="46.96027" lon="-0.90044">
        <ele>124</ele>
        <time>2015-03-12T16:16:45Z</time>
      </trkpt>
      <trkpt lat="46.96024" lon="-0.90043">
        <ele>124</ele>
        <time>2015-03-12T16:16:48Z</time>
      </trkpt>
      <trkpt lat="46.9602" lon="-0.90042">
        <ele>124</ele>
        <time>2015-03-12T16:16:51Z</time>
      </trkpt>
      <trkpt lat="46.96018" lon="-0.90042">
        <ele>124</ele>
        <time>2015-03-12T16:16:53Z</time>
      </trkpt>
      <trkpt lat="46.96016" lon="-0.90041">
        <ele>124</ele>
        <time>2015-03-12T16:16:55Z</time>
      </trkpt>
      <trkpt lat="46.96014" lon="-0.90039">
        <ele>124</ele>
        <time>2015-03-12T16:16:57Z</time>
      </trkpt>
      <trkpt lat="46.96012" lon="-0.90038">
        <ele>124</ele>
        <time>2015-03-12T16:16:59Z</time>
      </trkpt>
      <trkpt lat="46.96009" lon="-0.90037">
        <ele>124</ele>
        <time>2015-03-12T16:17:01Z</time>
      </trkpt>
      <trkpt lat="46.96008" lon="-0.90037">
        <ele>124</ele>
        <time>2015-03-12T16:17:03Z</time>
      </trkpt>
      <trkpt lat="46.96006" lon="-0.90036">
        <ele>124</ele>
        <time>2015-03-12T16:17:05Z</time>
      </trkpt>
      <trkpt lat="46.96003" lon="-0.90035">
        <ele>124</ele>
        <time>2015-03-12T16:17:07Z</time>
      </trkpt>
      <trkpt lat="46.96001" lon="-0.90033">
        <ele>124</ele>
        <time>2015-03-12T16:17:09Z</time>
      </trkpt>
      <trkpt lat="46.95999" lon="-0.9003">
        <ele>124</ele>
        <time>2015-03-12T16:17:11Z</time>
      </trkpt>
      <trkpt lat="46.95998" lon="-0.90026">
        <ele>124</ele>
        <time>2015-03-12T16:17:14Z</time>
      </trkpt>
      <trkpt lat="46.95996" lon="-0.90024">
        <ele>124</ele>
        <time>2015-03-12T16:17:16Z</time>
      </trkpt>
      <trkpt lat="46.95993" lon="-0.90022">
        <ele>124</ele>
        <time>2015-03-12T16:17:18Z</time>
      </trkpt>
      <trkpt lat="46.95991" lon="-0.90022">
        <ele>125</ele>
        <time>2015-03-12T16:17:20Z</time>
      </trkpt>
      <trkpt lat="46.95989" lon="-0.90024">
        <ele>125</ele>
        <time>2015-03-12T16:17:22Z</time>
      </trkpt>
      <trkpt lat="46.95986" lon="-0.90025">
        <ele>125</ele>
        <time>2015-03-12T16:17:25Z</time>
      </trkpt>
      <trkpt lat="46.95983" lon="-0.90025">
        <ele>125</ele>
        <time>2015-03-12T16:17:27Z</time>
      </trkpt>
      <trkpt lat="46.9598" lon="-0.90025">
        <ele>125</ele>
        <time>2015-03-12T16:17:29Z</time>
      </trkpt>
      <trkpt lat="46.95977" lon="-0.90025">
        <ele>125</ele>
        <time>2015-03-12T16:17:32Z</time>
      </trkpt>
      <trkpt lat="46.95976" lon="-0.90024">
        <ele>125</ele>
        <time>2015-03-12T16:17:34Z</time>
      </trkpt>
      <trkpt lat="46.95973" lon="-0.90023">
        <ele>125</ele>
        <time>2015-03-12T16:17:36Z</time>
      </trkpt>
      <trkpt lat="46.9597" lon="-0.90023">
        <ele>125</ele>
        <time>2015-03-12T16:17:38Z</time>
      </trkpt>
      <trkpt lat="46.95967" lon="-0.90022">
        <ele>125</ele>
        <time>2015-03-12T16:17:41Z</time>
      </trkpt>
      <trkpt lat="46.95965" lon="-0.90022">
        <ele>125</ele>
        <time>2015-03-12T16:17:43Z</time>
      </trkpt>
      <trkpt lat="46.95962" lon="-0.90021">
        <ele>125</ele>
        <time>2015-03-12T16:17:45Z</time>
      </trkpt>
      <trkpt lat="46.95959" lon="-0.9002">
        <ele>125</ele>
        <time>2015-03-12T16:17:48Z</time>
      </trkpt>
      <trkpt lat="46.95957" lon="-0.90019">
        <ele>125</ele>
        <time>2015-03-12T16:17:50Z</time>
      </trkpt>
      <trkpt lat="46.95954" lon="-0.90017">
        <ele>125</ele>
        <time>2015-03-12T16:17:53Z</time>
      </trkpt>
      <trkpt lat="46.95952" lon="-0.90014">
        <ele>125</ele>
        <time>2015-03-12T16:17:55Z</time>
      </trkpt>
      <trkpt lat="46.95948" lon="-0.90012">
        <ele>125</ele>
        <time>2015-03-12T16:17:58Z</time>
      </trkpt>
      <trkpt lat="46.95947" lon="-0.90011">
        <ele>125</ele>
        <time>2015-03-12T16:18:00Z</time>
      </trkpt>
    </trkseg>
  </trk>
</gpx>